ECMWFFLT1_sfc_thetae_000.txt.gz
Theta_e
311 312 313 313 313 315 314 314 315 314 314 313 312 312 312 313 312 312 314 314 315 317 318 316 316 316 317 319 320 318 320 320 318 317 315 317 317 315 319 319 319 319 318 318 316 312 307 307 309 312 315 317 321 322 321 322 324 324 324 323 326 330 331
314 315 315 316 314 314 313 312 311 311 310 310 311 312 312 313 314 310 311 312 313 314 316 313 313 314 314 312 312 313 314 315 318 318 317 313 315 313 317 318 319 318 317 317 316 314 309 307 304 306 307 309 311 313 315 320 322 323 324 325 325 327 328
315 314 313 312 311 312 312 310 310 309 308 310 311 311 311 310 310 312 311 311 312 313 313 310 310 311 311 311 310 310 311 310 310 309 308 307 308 309 314 314 312 307 306 303 303 306 307 309 308 307 304 302 303 306 310 310 311 315 322 325 326 327 326
314 313 311 310 311 311 310 309 309 308 309 309 310 310 311 312 313 314 310 310 311 314 311 310 310 310 310 309 309 309 308 307 306 306 307 307 307 307 306 305 304 304 303 301 302 303 302 300 298 299 301 302 302 302 305 309 310 311 316 322 324 326 326
314 313 312 311 312 311 309 308 308 308 308 308 308 308 309 310 311 309 311 309 311 309 310 310 310 310 309 308 307 307 306 306 307 306 304 304 304 304 304 304 304 305 304 303 302 302 301 301 300 299 298 301 301 302 305 308 308 309 313 316 317 319 321
314 313 313 313 312 310 309 308 307 307 307 308 307 309 307 308 309 307 307 307 308 310 309 308 307 307 307 307 307 305 304 303 303 304 303 302 302 302 301 302 302 302 302 302 302 302 302 301 300 298 299 302 300 300 301 304 305 306 308 310 312 312 312
313 313 314 314 312 311 310 309 308 308 307 308 308 308 309 310 308 309 309 309 309 309 308 307 307 308 308 308 308 307 307 305 305 304 303 303 302 301 300 300 300 300 300 302 302 303 301 301 299 299 298 297 298 298 300 301 304 304 306 308 309 310 310
314 314 315 315 312 311 310 309 309 309 308 309 308 309 311 309 309 309 309 307 307 308 309 310 310 309 309 310 310 309 308 306 306 306 303 303 304 302 300 300 301 301 301 302 302 302 302 301 301 301 298 297 295 294 298 299 301 302 303 305 309 307 308
315 314 315 315 313 313 312 310 309 309 310 310 309 311 312 311 309 309 309 307 308 308 308 308 308 308 308 307 306 306 307 311 306 304 303 303 303 302 302 299 300 300 301 301 301 301 302 302 302 301 300 298 295 294 295 295 296 298 303 303 305 307 306
313 312 314 314 313 314 313 311 310 310 311 311 311 313 312 309 309 309 308 308 308 308 308 307 307 307 308 308 306 305 306 306 307 304 304 304 304 303 302 301 299 300 303 303 302 303 303 302 302 301 301 300 297 294 293 293 292 295 299 303 302 304 306
313 313 313 314 313 313 312 311 310 311 311 312 313 314 311 309 310 315 309 308 307 307 309 308 307 307 307 306 306 306 308 307 307 306 306 305 305 305 304 303 302 301 304 302 302 304 305 303 302 301 300 301 299 297 296 294 293 295 298 299 303 302 303
314 313 314 314 312 313 312 311 311 312 311 312 314 313 310 310 311 309 309 308 308 307 307 307 307 307 306 306 306 306 305 305 305 304 305 306 305 305 302 302 303 302 304 304 302 303 303 303 302 302 301 300 301 299 298 296 293 294 300 298 299 302 302
316 315 314 314 313 313 313 312 312 311 311 313 313 313 311 311 311 309 309 310 309 308 308 308 306 306 305 306 306 306 305 304 305 304 304 305 307 303 303 301 303 302 302 299 301 302 303 304 304 301 301 301 300 301 300 297 295 297 298 299 300 301 303
315 315 315 314 314 314 314 314 314 313 312 312 313 312 311 311 311 310 310 311 309 308 308 308 306 306 306 304 305 304 304 305 305 303 304 303 305 303 304 303 302 302 302 300 302 300 300 300 301 301 302 301 300 300 300 299 297 298 298 299 300 301 303
318 318 315 315 314 314 313 315 315 314 312 312 314 312 312 312 312 311 310 310 309 309 308 309 307 306 307 304 305 306 305 305 304 303 303 302 302 304 302 302 303 302 303 301 300 300 301 300 299 298 299 301 300 300 301 300 297 296 296 298 300 301 302
317 317 317 315 314 314 314 316 316 314 312 312 314 313 312 312 312 311 311 310 309 309 309 309 308 307 307 306 305 306 306 304 304 303 302 301 302 303 301 302 301 302 303 299 300 301 301 301 301 299 299 300 299 299 300 300 298 295 296 297 298 299 299
317 317 316 315 314 317 317 316 317 314 313 313 313 312 312 312 312 311 311 310 309 309 309 309 308 308 307 307 305 306 306 303 303 303 304 302 301 302 301 299 300 301 302 299 300 300 300 300 299 299 299 299 298 298 299 298 298 297 296 295 295 297 298
315 314 314 314 315 316 316 316 317 316 314 314 313 313 313 312 312 312 312 312 311 310 310 310 309 309 308 308 307 306 306 304 303 304 304 303 304 302 302 300 300 302 301 299 300 300 299 299 299 298 296 296 296 297 297 297 296 295 294 293 294 295 297
314 314 315 316 315 315 316 316 316 316 314 313 313 314 313 312 313 312 311 312 312 313 313 312 312 310 309 309 308 307 307 305 304 304 304 303 304 303 302 301 301 302 301 299 299 299 299 298 297 295 294 294 294 295 295 295 295 294 293 292 292 293 293
312 315 317 317 317 317 316 315 315 314 313 312 313 313 312 313 313 313 313 313 313 314 314 315 314 312 311 310 309 308 307 306 305 304 304 304 303 303 302 302 302 302 301 300 299 299 297 296 296 294 296 294 294 293 293 293 292 291 291 290 290 291 291
313 315 316 317 318 318 317 316 316 314 314 312 313 313 313 313 313 312 313 312 312 311 311 313 314 314 314 313 311 309 308 307 306 304 304 304 303 304 303 303 302 302 302 301 300 298 295 294 295 294 295 294 293 292 292 292 291 290 290 290 289 289 290
312 314 316 316 314 314 315 315 316 315 313 312 314 314 314 314 313 313 312 311 310 310 310 312 313 313 313 312 312 310 310 308 307 305 304 304 303 302 302 302 301 300 304 305 302 300 298 297 294 292 294 295 294 291 291 290 290 289 289 289 289 290 290
312 312 314 315 317 316 315 316 317 315 315 314 314 313 312 313 312 312 311 309 309 310 311 313 312 308 308 312 311 311 310 309 308 306 306 304 303 302 302 301 304 307 306 303 299 296 295 296 298 295 292 293 294 291 290 290 289 289 290 289 288 289 289
311 311 311 312 313 314 314 314 312 312 312 312 314 313 313 312 311 310 309 308 309 310 312 314 307 303 300 301 309 310 309 308 308 307 306 305 303 302 300 301 302 304 302 300 297 294 293 294 294 295 295 296 296 292 289 289 289 289 291 289 289 288 288
308 309 309 308 309 310 309 309 309 310 311 312 313 312 310 310 308 308 309 308 307 308 309 303 294 296 297 297 299 307 309 309 308 307 307 305 303 301 300 300 300 300 297 295 293 293 294 293 293 293 293 293 293 294 295 292 292 290 288 288 288 288 288
303 303 304 304 304 305 304 305 306 306 307 307 307 310 309 308 308 307 308 307 307 305 305 293 293 295 296 296 296 299 307 309 307 307 305 305 302 301 300 300 299 300 298 302 300 293 293 293 293 292 292 293 292 291 290 290 292 293 289 289 288 288 288
301 301 301 301 301 301 302 302 303 304 304 304 305 305 305 305 305 306 306 307 301 297 296 295 292 295 296 297 296 297 306 307 307 306 306 306 303 300 301 300 299 299 298 300 296 293 293 292 292 291 290 290 291 293 292 291 290 291 293 291 289 288 289
300 299 299 299 299 299 299 299 299 299 301 301 301 302 303 302 303 302 300 298 295 294 294 293 293 293 293 295 296 299 305 305 304 305 304 303 302 301 302 302 299 299 298 297 298 295 294 293 292 293 290 290 291 292 291 291 291 291 291 291 289 289 290
298 297 298 298 298 297 297 298 298 299 297 297 299 300 300 301 300 298 297 294 291 290 291 293 292 293 294 294 296 299 299 300 300 299 299 300 301 300 299 299 299 298 298 299 299 295 296 295 293 292 292 291 292 293 292 294 294 293 293 291 291 291 291
298 297 297 297 296 297 298 299 297 297 296 294 296 297 298 298 299 299 296 292 290 289 290 292 292 293 293 294 295 297 297 298 298 298 299 299 299 299 299 299 298 298 297 293 291 290 293 296 295 293 291 290 292 292 291 291 293 291 291 291 291 291 291
298 297 296 296 296 296 296 297 297 297 298 297 296 296 297 298 298 298 296 292 292 290 289 292 292 293 293 293 295 295 295 296 295 296 295 296 298 298 297 304 301 294 292 292 290 290 291 293 291 290 289 288 288 288 288 288 290 290 291 291 290 290 290
297 297 297 296 296 295 296 297 297 296 296 295 296 295 297 296 296 294 294 293 297 291 289 292 292 292 293 294 295 294 294 293 292 291 293 294 294 292 292 294 296 294 293 291 289 289 290 291 289 288 287 288 289 288 286 286 286 286 286 287 287 288 288
297 297 297 296 296 297 296 296 297 296 293 294 294 293 295 295 294 293 293 292 292 289 290 289 292 292 293 293 294 294 293 292 290 289 291 293 292 290 291 291 291 289 289 289 289 289 289 290 290 289 289 288 288 286 285 286 288 286 285 286 285 285 287
296 297 296 296 296 297 297 297 295 297 295 293 294 294 293 292 293 291 291 290 288 288 289 289 290 291 292 292 292 292 291 291 289 290 290 291 290 289 289 289 289 290 289 289 288 288 289 289 290 291 288 286 285 287 288 285 287 290 285 286 287 286 286
297 299 297 296 297 297 296 296 296 295 292 292 294 293 291 291 291 290 289 289 288 288 291 292 288 291 291 292 291 291 290 290 291 292 291 290 289 288 287 287 288 289 289 289 289 289 289 288 289 293 288 287 288 288 286 288 285 285 284 284 283 284 285
296 298 297 296 297 296 294 296 296 295 292 293 293 292 290 289 289 288 288 287 286 286 287 289 291 290 291 291 291 290 290 290 291 293 291 290 289 289 289 289 291 290 288 288 289 289 288 288 289 288 288 288 287 287 288 285 285 283 283 283 284 284 284
295 294 294 293 293 294 292 293 294 294 293 293 291 290 288 289 288 288 287 286 286 286 286 285 289 290 289 289 290 289 289 289 290 292 291 290 290 291 289 290 291 289 288 288 288 288 288 288 287 287 287 287 287 288 286 285 283 283 284 283 282 283 283

ECMWFFLT1_sfc_thetae_006.txt.gz
Theta_e
310 309 309 309 310 312 308 308 308 309 310 312 314 314 316 318 316 316 318 319 319 319 321 318 318 318 320 321 322 320 319 320 320 320 319 321 319 317 319 319 319 317 318 317 313 313 309 308 310 312 312 309 310 311 312 312 313 313 313 314 314 314 317
310 311 312 313 310 309 307 306 308 308 309 310 311 313 314 316 318 315 315 316 316 317 317 314 314 315 315 316 318 319 318 317 319 320 321 319 318 317 317 314 311 309 309 311 313 313 311 305 305 304 305 307 309 310 310 311 310 310 311 311 312 311 312
312 310 309 309 308 307 306 305 306 307 308 309 310 311 312 312 313 314 312 312 312 315 315 311 311 311 312 312 313 313 313 313 314 318 318 316 318 317 317 313 308 306 306 305 305 304 305 306 303 303 304 302 304 308 309 310 309 309 308 309 309 309 310
310 309 309 308 307 306 306 305 306 306 307 308 309 309 310 310 312 314 310 311 313 316 312 309 309 309 309 309 309 310 311 311 311 311 310 310 308 307 306 307 306 307 306 304 303 303 303 301 300 300 300 302 303 304 308 309 310 308 307 308 308 309 310
311 310 309 308 307 306 305 305 305 306 306 307 307 308 309 309 311 310 312 310 310 308 308 308 308 308 308 307 307 308 307 308 308 308 306 305 305 305 304 305 305 305 305 305 304 303 303 302 301 300 299 300 300 302 304 308 308 308 307 306 306 308 309
311 310 309 309 307 307 305 305 305 305 305 307 306 307 307 307 309 308 308 308 308 308 307 306 306 306 305 305 305 304 305 305 305 305 304 303 304 304 303 303 304 305 305 304 304 303 302 301 301 299 300 300 301 302 302 304 306 306 307 307 306 307 307
311 311 310 310 308 307 306 306 305 306 306 306 306 306 307 307 308 309 308 307 306 306 306 305 305 305 305 304 304 304 303 303 303 303 302 302 302 302 303 303 303 304 303 303 303 303 302 302 301 300 299 297 298 298 299 301 302 302 304 306 307 306 307
312 312 312 312 309 307 306 306 305 305 306 306 306 306 308 306 306 306 306 306 305 306 306 307 308 307 307 305 305 304 303 302 302 303 301 301 301 301 302 302 303 302 303 303 304 304 303 304 303 302 299 297 297 297 299 298 298 303 302 305 307 306 306
315 314 313 313 311 309 307 306 305 305 305 306 305 307 306 306 306 307 308 305 305 306 306 306 306 306 305 305 304 304 304 306 302 301 301 301 301 302 302 302 303 302 303 303 304 303 303 304 304 301 300 298 297 297 297 298 298 299 301 303 305 306 305
315 315 314 313 311 309 307 306 306 305 305 305 306 308 306 306 306 306 306 305 306 306 306 307 306 305 305 306 305 304 304 304 303 301 302 302 301 302 302 303 303 303 303 305 304 304 304 303 303 303 303 302 300 298 297 296 298 299 302 302 300 303 305
316 315 314 313 312 309 307 306 306 306 306 307 308 310 307 306 306 311 306 306 306 307 307 306 306 305 305 305 304 305 304 304 304 303 303 302 302 303 304 304 304 304 305 304 305 305 304 304 303 304 304 302 303 301 299 297 298 299 302 302 302 301 304
317 316 315 315 312 310 308 306 306 307 306 308 310 309 306 306 307 306 306 306 306 307 306 306 306 305 305 304 305 304 304 304 304 303 304 304 304 304 303 303 303 304 304 304 304 305 305 304 303 303 303 303 303 303 301 300 298 301 301 302 303 303 302
317 317 315 313 312 311 309 308 307 306 307 309 308 308 306 306 307 306 306 306 306 306 306 306 306 305 304 305 306 305 305 304 303 304 304 304 304 303 303 303 303 303 302 302 303 303 304 305 303 303 303 304 303 302 302 300 298 299 303 303 303 302 302
317 316 314 313 313 312 310 309 308 309 309 308 308 308 307 306 306 306 305 307 306 306 305 305 306 305 305 305 306 306 305 304 304 304 305 304 303 303 303 303 302 302 302 301 302 302 302 303 303 304 303 303 303 303 302 301 299 298 302 302 304 300 301
316 315 313 313 313 312 311 310 310 310 310 309 309 309 308 307 307 306 306 306 306 306 305 305 305 305 305 305 306 307 305 304 304 304 304 304 303 303 303 302 302 302 301 300 301 301 301 300 300 301 301 301 301 302 304 301 300 298 295 301 299 298 298
315 314 313 312 312 312 311 311 311 310 311 310 310 310 308 307 308 307 307 307 307 307 307 307 306 305 305 305 305 306 306 305 304 304 304 304 303 303 302 303 302 302 303 302 302 302 302 300 300 300 301 300 300 301 300 299 299 296 294 295 299 296 297
314 314 312 311 311 311 312 311 312 311 310 311 310 309 308 308 308 307 307 307 306 307 307 307 306 306 306 305 305 305 305 305 304 304 304 304 303 303 303 303 302 302 303 301 301 302 301 301 301 300 300 300 300 299 300 299 298 298 297 293 295 295 296
313 313 313 312 312 312 312 312 312 310 310 311 311 311 310 309 308 308 309 309 309 309 309 309 309 308 306 306 306 306 305 305 305 305 305 304 305 304 304 303 303 303 302 301 301 301 301 300 299 299 299 299 299 299 299 298 296 295 295 294 296 297 296
313 313 313 313 313 314 314 313 312 312 312 312 312 312 311 312 311 311 310 310 311 311 311 311 310 309 308 307 306 306 306 306 305 305 305 305 304 305 305 304 303 303 302 302 302 301 300 300 298 298 298 297 297 297 296 296 296 296 294 294 295 295 296
312 312 312 312 312 313 314 313 312 312 313 313 313 313 313 312 312 312 313 314 314 313 313 311 311 309 309 307 307 307 306 306 306 305 305 305 305 304 304 304 303 303 303 302 302 302 300 299 298 297 298 297 296 296 295 295 294 294 294 294 294 294 295
312 313 313 312 312 313 313 313 312 313 313 314 314 314 314 313 313 313 314 314 314 314 313 312 311 310 309 309 308 307 306 306 306 306 305 305 305 305 304 304 304 303 303 303 303 302 301 299 299 298 297 296 295 295 295 295 295 294 294 294 294 294 294
313 314 314 313 313 313 313 312 312 312 313 313 313 314 315 315 314 314 314 314 314 313 313 312 312 312 312 311 309 308 307 307 307 306 306 305 305 304 304 304 304 303 305 305 302 302 301 300 299 297 296 297 295 296 295 295 295 294 293 295 295 294 294
312 313 313 312 312 313 313 313 313 313 313 313 313 313 313 314 314 314 313 313 313 313 311 310 308 304 306 311 309 310 309 308 308 307 307 307 306 305 305 305 306 305 304 304 301 298 297 298 300 299 296 296 296 295 295 295 295 295 296 296 295 295 294
312 312 313 313 313 313 313 313 313 313 312 311 311 312 313 313 313 313 312 312 312 311 310 310 300 298 298 300 307 308 308 309 308 308 308 308 307 308 306 305 305 305 305 304 304 297 296 295 295 295 295 296 297 297 295 295 295 295 297 296 294 294 294
309 311 311 311 311 311 312 312 312 312 311 311 311 312 312 312 313 312 312 311 310 308 308 303 295 294 296 296 299 307 307 308 308 308 307 307 307 307 307 306 305 304 305 305 305 301 297 295 294 293 293 293 293 294 295 297 296 294 295 295 293 294 294
306 308 310 311 310 306 310 310 310 310 310 311 311 310 311 311 311 311 310 309 308 307 306 297 293 293 294 294 294 298 303 305 306 306 307 307 306 306 305 305 304 303 303 305 305 300 299 297 294 293 293 293 293 291 290 291 294 298 296 295 295 293 293
306 309 311 310 309 308 309 310 309 310 309 309 310 309 309 309 309 308 309 308 307 302 301 297 294 295 296 295 295 295 301 302 303 303 304 304 305 305 305 304 302 301 300 303 299 297 297 296 296 296 296 296 296 295 293 291 290 291 294 296 295 295 294
304 305 304 305 307 307 306 304 307 307 308 308 308 308 307 307 306 306 306 304 302 300 299 295 294 294 294 293 293 295 298 299 298 298 298 299 300 301 301 301 301 299 298 298 298 297 296 295 295 294 294 294 295 296 296 296 295 295 295 294 294 294 294
301 301 300 300 304 305 303 304 305 302 303 303 304 305 304 305 304 303 301 300 299 298 297 293 292 293 292 293 294 298 297 297 297 296 297 297 297 298 299 299 299 298 297 298 295 293 295 296 294 293 294 294 294 294 294 293 293 294 295 295 295 295 295
296 297 297 299 301 301 300 300 299 299 301 301 302 302 303 302 302 301 298 297 299 297 294 293 292 293 292 292 295 296 296 296 295 294 293 293 295 297 300 299 298 297 296 296 293 291 292 294 295 295 295 295 294 293 293 294 292 291 291 291 290 290 290
296 296 295 297 297 296 296 296 297 299 300 299 300 299 297 297 295 297 298 296 296 295 293 293 292 292 292 293 295 296 295 295 293 292 292 292 292 294 298 299 297 294 294 294 291 291 291 295 296 296 295 294 292 291 291 292 293 292 291 290 289 289 289
297 296 297 297 297 296 297 297 296 296 297 298 297 296 298 297 293 292 292 294 298 293 292 293 292 291 292 292 294 294 294 294 293 291 291 291 291 291 292 294 295 294 294 292 290 290 291 294 296 295 294 294 292 291 291 292 291 291 291 291 290 291 291
297 298 298 297 297 297 297 296 296 297 296 298 297 296 296 296 293 290 291 292 293 292 292 292 293 291 292 292 292 294 294 295 293 291 291 291 291 290 291 291 292 289 289 289 289 289 289 290 294 294 294 292 291 290 291 291 291 289 289 289 289 289 289
297 297 297 297 297 297 297 297 296 297 296 296 297 295 294 292 291 289 289 289 290 291 292 292 292 291 291 291 291 292 292 293 292 292 290 290 289 290 290 290 291 290 288 289 289 289 289 290 290 293 292 291 291 291 290 289 290 290 289 289 289 289 289
299 299 298 298 297 296 295 296 296 297 297 297 296 293 292 291 290 289 288 289 289 290 294 293 292 291 290 291 290 291 292 292 292 291 289 288 288 289 289 289 290 289 288 288 288 289 289 289 289 292 290 288 287 287 291 290 289 289 288 288 288 288 288
299 299 298 297 297 295 295 295 295 296 296 296 295 293 291 291 290 289 288 287 287 287 288 292 292 291 290 290 290 290 290 291 290 292 290 289 289 289 290 290 291 289 288 288 288 288 288 288 289 289 287 287 287 287 289 289 289 288 288 288 287 287 287
297 296 296 295 295 294 295 296 295 295 296 296 295 293 291 291 291 290 288 287 287 287 287 287 290 290 290 290 290 290 289 289 289 291 291 289 289 289 289 290 290 288 288 288 288 288 288 288 288 287 287 287 287 288 289 288 287 287 287 287 287 286 287

ECMWFFLT1_sfc_thetae_009.txt.gz
Theta_e
324 322 323 323 323 323 324 324 326 327 327 331 334 334 336 335 335 334 334 334 333 333 331 331 331 330 331 331 331 332 332 332 331 328 325 325 324 323 327 326 326 328 329 328 324 319 315 309 308 312 315 316 316 316 315 315 315 317 319 318 316 316 318
324 323 323 322 321 324 323 324 325 325 326 328 329 332 333 334 334 334 335 334 334 333 331 330 332 330 330 330 330 330 332 332 333 331 327 325 326 323 324 325 327 326 326 327 327 323 312 307 308 309 310 314 314 315 315 315 314 315 316 316 315 315 317
323 323 323 321 322 324 323 323 324 325 325 327 327 328 329 330 332 333 333 333 333 331 329 330 329 330 330 331 331 332 333 331 331 330 328 327 327 327 327 325 322 320 317 315 314 310 313 311 307 309 312 311 307 310 315 313 312 313 313 315 315 314 315
324 324 321 321 320 322 322 322 323 323 325 324 325 326 325 327 328 328 328 328 328 327 326 327 328 327 328 328 329 330 331 330 330 329 327 327 328 326 322 321 319 318 316 314 312 311 308 309 309 309 312 311 308 308 311 314 312 310 310 312 312 313 315
325 323 323 321 321 321 322 321 321 323 323 323 324 325 325 325 326 325 325 325 325 326 326 326 325 325 325 326 327 328 328 328 329 328 327 325 323 321 320 319 318 317 315 312 310 311 310 308 310 310 309 309 309 307 309 313 311 310 309 309 310 311 313
325 325 324 322 322 321 321 322 322 322 322 323 324 324 323 324 325 325 324 324 324 324 324 323 322 322 324 325 326 326 326 326 325 324 321 321 321 317 317 318 315 313 312 314 313 311 313 313 312 309 309 311 308 307 307 310 308 308 309 308 309 309 311
323 324 324 322 321 321 322 323 323 323 323 325 324 323 321 321 322 323 323 323 322 321 321 321 321 321 323 323 324 323 322 320 320 321 319 320 320 320 319 315 315 314 314 315 314 313 312 310 309 309 309 310 309 304 306 307 309 306 306 307 308 308 310
322 322 322 322 321 320 319 321 322 324 324 323 322 321 320 321 321 322 322 321 320 320 320 320 320 320 321 319 320 320 318 318 319 319 318 318 317 316 319 316 315 314 313 313 314 313 312 313 311 311 309 305 305 306 304 306 305 306 306 306 305 306 308
322 322 320 319 318 318 319 319 319 322 322 321 320 320 319 320 321 320 319 319 318 319 319 319 319 319 320 319 317 318 316 316 318 318 317 317 317 318 317 317 314 312 315 313 313 314 313 314 313 312 313 309 305 303 305 305 305 303 306 305 304 305 305
323 322 322 321 320 318 316 317 319 320 321 321 320 320 320 320 320 320 320 318 318 318 319 318 317 318 319 319 318 317 315 316 316 315 316 315 316 315 315 317 314 313 313 315 314 314 315 315 314 314 312 311 309 304 302 302 304 304 303 303 301 302 305
323 320 321 322 320 318 315 314 317 319 321 321 321 320 320 320 320 318 319 319 319 319 319 318 317 317 318 316 316 314 314 315 313 314 315 314 315 315 315 314 314 312 315 315 314 316 316 316 314 313 312 312 312 308 307 303 302 306 304 304 303 302 303
323 322 323 323 318 316 316 315 316 320 320 320 320 320 320 320 320 319 319 319 319 319 318 318 317 317 318 316 316 313 314 315 313 313 314 315 315 316 315 314 315 313 316 316 316 316 315 315 314 313 312 312 312 312 310 307 303 303 308 302 303 304 302
321 320 321 321 319 317 317 315 316 317 320 320 322 321 320 319 320 319 319 318 319 319 318 318 317 316 317 317 316 314 315 315 313 312 312 314 312 315 314 313 314 313 314 313 314 315 314 315 315 312 313 312 311 312 310 308 305 302 305 302 303 302 303
321 321 320 320 319 319 318 316 316 318 317 321 321 321 319 319 319 319 318 318 318 319 318 318 318 317 317 316 317 316 315 314 312 313 314 313 313 314 311 311 312 313 314 313 312 313 312 312 314 313 313 311 310 311 309 308 304 302 303 305 304 301 303
323 323 322 321 320 319 319 318 317 316 316 318 320 319 318 320 320 318 317 317 318 317 317 317 317 317 316 317 317 317 317 314 313 313 314 312 313 313 315 311 310 311 312 311 312 309 310 310 309 309 309 310 308 308 310 305 304 303 301 303 302 302 301
323 325 323 321 320 319 320 320 318 318 317 317 318 320 319 318 317 317 316 316 316 316 316 316 317 316 316 317 317 318 318 316 315 314 314 312 310 312 313 312 311 312 312 312 313 311 312 310 309 308 309 309 308 306 304 305 306 304 302 300 303 301 302
324 324 323 323 321 321 321 320 319 318 317 317 316 318 319 318 317 316 316 315 315 315 316 317 317 316 315 315 315 316 318 317 317 316 314 313 311 312 312 312 312 313 312 312 311 311 311 311 310 309 309 309 307 304 306 307 308 307 304 301 300 299 301
323 323 322 323 323 323 322 322 321 319 319 318 318 318 318 318 317 316 317 316 316 316 317 318 317 316 317 317 316 316 315 316 318 317 317 316 314 314 314 313 313 312 313 311 313 311 311 311 309 310 308 307 305 305 306 306 306 307 306 303 302 302 303
322 322 322 322 322 322 322 322 321 321 318 318 319 319 318 318 317 317 318 318 318 319 319 320 319 319 319 319 319 318 317 316 316 316 317 316 315 316 316 314 315 314 313 313 312 313 313 312 310 310 308 306 304 305 306 306 307 307 305 303 304 302 304
321 322 322 322 323 322 322 322 322 320 320 320 319 319 319 319 320 319 319 320 320 320 320 320 320 321 320 320 320 319 319 318 317 317 317 316 316 316 316 316 316 316 315 314 314 314 313 313 312 310 310 309 304 305 306 306 306 306 305 304 303 304 303
320 321 322 322 322 322 322 322 321 321 320 320 320 319 319 320 322 322 322 321 321 321 317 316 317 318 318 320 321 321 321 320 318 318 319 317 317 316 316 316 316 316 315 316 316 316 315 313 312 311 311 308 307 306 306 306 307 306 305 305 304 303 303
321 321 320 321 321 321 321 321 321 321 321 321 321 321 321 321 321 320 320 321 319 316 315 315 316 316 316 317 319 319 320 319 318 318 319 320 319 318 317 317 316 316 316 312 307 309 310 309 312 310 309 308 307 306 306 306 307 306 305 305 304 305 304
320 321 321 322 321 321 321 321 321 321 319 319 321 322 320 320 320 319 318 318 318 316 315 315 311 307 306 315 318 317 318 319 319 319 319 319 320 320 319 319 318 311 307 305 302 299 298 300 304 310 310 308 305 306 306 306 305 306 307 305 304 304 304
321 320 321 321 321 319 318 318 318 319 319 319 319 320 321 319 319 318 316 315 314 314 316 314 305 301 300 300 309 317 318 320 321 320 320 320 320 321 322 320 320 315 309 305 306 298 297 296 296 297 300 301 302 307 306 305 306 306 303 304 303 302 301
319 319 320 320 319 319 319 318 318 318 317 317 317 318 319 319 319 319 318 318 318 318 319 306 300 299 299 298 299 312 317 318 319 320 320 319 319 319 319 320 320 319 317 316 315 312 302 296 295 294 294 294 296 295 293 307 307 304 305 303 301 300 300
318 318 318 319 319 319 318 317 318 318 318 318 319 318 318 319 320 320 320 318 317 319 319 300 299 298 297 294 293 299 312 314 315 317 318 318 317 318 318 318 318 318 316 308 308 312 313 308 296 293 293 294 292 291 290 289 292 307 307 304 302 302 301
318 318 318 319 319 318 318 318 319 319 319 319 318 318 319 320 320 320 319 319 319 319 319 300 296 295 294 293 293 296 312 314 315 314 313 314 316 316 316 315 315 315 315 313 314 313 312 310 305 302 301 304 304 300 294 293 292 292 300 306 304 302 304
317 317 318 318 318 318 319 319 318 318 318 317 318 318 318 319 319 319 319 319 318 318 318 296 294 293 294 295 293 299 315 312 311 311 310 310 310 311 312 313 313 313 311 310 309 307 309 308 306 305 305 304 304 303 303 303 304 304 302 303 303 303 303
315 316 315 316 316 317 317 317 317 318 318 318 318 318 319 319 318 318 318 319 318 317 314 293 294 294 294 294 293 311 313 313 311 310 309 308 308 309 309 310 310 309 308 307 296 292 299 306 305 304 303 303 301 299 296 294 292 294 301 303 303 302 302
308 312 313 314 315 316 316 316 317 318 317 317 316 316 318 317 318 318 317 318 318 317 310 297 293 293 293 292 297 312 310 309 308 307 306 306 307 308 308 308 308 307 306 305 293 291 292 298 304 304 303 302 301 300 298 297 292 290 290 290 289 289 289
307 308 309 311 313 315 317 317 317 315 315 314 314 315 316 316 317 317 316 317 317 314 310 298 292 292 292 291 302 312 310 309 307 306 304 304 305 305 301 298 303 307 306 303 290 291 293 301 305 304 303 302 301 300 298 298 297 296 290 290 289 289 289
307 307 307 308 310 312 313 313 314 313 314 314 314 312 311 312 312 312 312 313 307 311 309 300 291 292 292 292 304 313 310 309 307 306 304 303 303 303 301 297 294 298 300 295 289 290 293 302 306 305 304 303 301 299 298 298 298 297 298 298 298 297 296
308 308 309 308 306 307 309 310 310 310 311 312 312 312 310 310 308 308 308 308 308 310 309 307 300 291 293 293 298 311 310 308 306 305 305 303 302 301 301 299 295 289 289 289 289 289 290 294 304 304 304 302 300 297 298 298 298 298 297 296 297 297 297
305 308 307 311 309 306 306 308 309 308 307 307 308 307 305 303 302 302 304 306 307 308 309 308 301 291 292 292 293 300 310 309 307 305 303 302 302 301 300 299 298 291 289 289 289 289 290 291 294 302 302 301 300 298 296 298 295 291 297 296 295 295 296
306 309 307 307 311 308 307 306 310 310 307 306 305 303 303 302 300 300 301 303 305 304 302 301 305 293 291 291 291 295 307 309 306 305 303 302 301 301 300 299 298 291 288 288 288 289 289 290 291 298 295 288 287 289 297 296 297 296 296 296 295 295 295
304 306 308 307 306 310 308 306 307 309 309 308 306 304 301 300 300 300 300 301 301 302 303 300 296 299 291 291 290 292 296 299 293 306 304 302 301 299 299 298 295 289 288 288 288 288 289 289 292 293 287 287 287 287 292 296 295 296 296 295 295 295 294
303 305 305 307 308 308 307 307 306 307 310 309 307 305 303 302 302 302 301 299 299 299 300 301 294 293 295 289 290 290 291 291 294 305 305 302 301 299 299 299 294 288 288 288 288 288 288 290 291 287 287 287 288 290 296 296 295 295 293 293 293 293 294

ECMWFFLT1_sfc_thetae_012.txt.gz
Theta_e
326 325 328 329 329 328 326 327 328 331 332 332 331 331 334 333 333 331 332 332 330 329 328 329 331 330 332 334 338 338 336 335 334 331 329 331 329 330 334 333 331 333 334 331 326 320 317 312 311 317 319 322 322 321 321 321 322 322 323 323 323 323 324
328 328 327 327 327 328 327 327 327 327 331 332 331 332 332 330 331 330 331 331 330 329 327 328 331 331 333 334 336 336 334 333 332 333 331 329 331 330 331 331 330 328 327 329 330 326 318 313 311 312 314 318 320 319 320 321 321 323 322 321 321 322 324
327 327 327 326 327 328 326 327 326 326 327 330 332 331 331 329 330 330 330 331 331 329 328 331 331 331 332 333 334 335 334 333 333 332 331 331 332 332 331 330 328 326 326 325 324 322 318 318 313 310 314 314 313 315 318 318 319 319 320 321 322 320 322
328 327 325 325 324 325 325 326 325 325 327 328 329 330 330 329 330 331 331 329 330 330 328 328 330 329 332 335 337 336 335 333 333 334 333 333 332 331 330 328 326 322 320 318 319 318 316 315 314 313 314 313 313 313 315 316 316 316 316 317 317 318 319
330 327 325 323 323 322 323 323 323 325 326 327 328 326 328 329 329 330 331 329 328 329 328 329 330 331 332 333 336 335 334 334 334 333 333 333 332 330 328 325 324 324 322 320 318 317 316 315 316 314 312 312 312 313 314 316 315 315 314 314 315 316 317
328 327 325 324 323 321 321 321 323 322 324 324 324 325 327 328 328 328 328 327 327 329 329 328 329 330 331 332 335 335 335 334 334 334 332 330 327 324 322 321 316 316 316 316 317 316 316 317 317 312 312 312 310 311 313 313 311 312 312 311 313 314 315
328 327 325 323 323 322 321 322 322 323 323 324 324 325 325 326 327 328 329 329 329 329 328 329 329 327 327 325 329 330 330 330 330 329 327 327 326 323 321 316 316 314 315 316 316 316 315 315 314 314 313 314 312 309 311 312 312 309 308 309 310 313 314
327 326 324 325 324 323 322 323 324 324 323 323 322 325 326 327 328 327 327 326 327 328 328 327 327 327 327 325 325 327 326 325 323 323 323 323 321 319 320 316 315 315 314 315 314 313 314 316 316 316 314 310 310 310 309 310 311 309 306 307 309 310 313
328 327 325 326 326 326 324 322 324 325 324 323 325 325 327 327 325 324 324 324 325 326 326 325 324 323 324 322 321 323 322 321 322 321 320 320 321 320 319 317 316 315 318 316 317 316 315 317 318 318 316 313 309 306 308 307 308 306 309 307 307 308 310
327 325 324 325 326 327 326 325 322 323 324 324 324 325 325 325 325 324 322 322 323 323 323 322 321 320 320 320 320 319 320 320 319 318 318 318 319 318 319 319 317 317 317 319 317 317 317 317 318 318 316 314 314 309 307 306 307 306 306 307 305 306 309
326 327 326 326 327 325 324 323 327 322 321 323 323 323 323 323 322 321 319 319 321 321 321 319 318 318 319 317 318 317 316 317 316 317 316 316 317 318 319 318 318 316 319 319 318 320 319 318 315 315 315 316 315 311 310 308 308 310 307 308 308 305 307
326 326 327 327 326 325 323 320 321 323 323 322 322 323 322 320 320 319 318 317 318 319 319 318 318 317 317 315 315 314 316 316 315 316 317 317 317 319 319 318 319 317 319 319 319 320 320 318 317 316 316 318 318 318 315 312 308 309 312 308 306 307 306
323 323 325 326 326 325 322 320 320 322 322 321 321 321 320 319 319 318 317 317 315 315 315 316 317 317 317 316 315 314 316 316 314 314 315 317 315 318 318 318 317 317 318 317 318 319 318 320 320 317 318 318 317 318 317 314 311 308 310 309 307 306 306
323 322 325 328 325 325 324 322 321 321 321 322 322 320 319 319 318 319 318 317 316 316 316 317 317 317 316 316 316 316 316 315 314 314 315 316 316 317 316 316 316 316 318 317 317 318 317 318 319 318 318 317 316 317 316 314 310 308 309 312 309 306 307
323 323 324 326 326 326 325 324 324 324 323 323 323 318 318 320 320 319 318 318 319 318 317 317 319 319 316 316 317 317 317 315 314 314 315 313 315 316 317 314 313 315 316 314 316 314 315 315 315 315 315 316 314 315 317 314 312 310 308 309 307 307 307
324 324 323 325 327 326 326 327 325 324 322 322 322 322 319 320 320 319 319 319 319 319 318 317 319 320 320 319 317 318 318 317 317 316 315 314 312 314 315 315 314 315 316 316 316 316 316 314 314 313 314 314 314 314 313 314 314 312 310 308 310 307 308
326 325 324 324 326 328 327 327 325 325 323 323 320 323 323 319 319 319 318 318 319 319 319 319 319 318 317 318 319 319 319 319 318 318 317 316 314 315 315 315 315 316 315 316 316 315 315 315 315 314 314 315 314 312 316 317 317 314 311 308 309 307 308
326 326 325 324 327 328 328 327 326 325 325 324 322 322 322 321 320 319 319 317 316 317 318 319 319 319 319 319 318 319 319 319 320 319 319 319 317 318 317 317 317 316 316 316 317 316 316 315 314 315 315 313 312 313 315 315 315 314 313 310 310 310 311
325 326 326 326 329 329 328 327 327 326 325 324 324 323 321 321 319 319 318 317 317 317 319 319 319 320 321 322 323 323 322 321 320 319 320 320 319 319 319 318 318 318 317 317 317 317 318 316 314 315 314 313 312 313 315 315 316 315 313 311 312 310 311
325 326 327 327 327 327 326 327 326 326 325 325 325 324 323 321 321 320 319 319 319 319 320 321 323 324 324 325 325 324 325 324 322 322 321 320 320 320 320 320 320 320 319 319 318 318 319 317 316 315 315 314 312 312 313 314 314 314 314 313 313 313 312
326 325 326 326 326 327 326 326 326 326 326 325 325 324 324 322 322 321 322 321 322 324 324 323 322 322 323 324 324 324 324 324 325 325 324 323 322 321 321 321 321 320 320 320 320 320 320 318 317 316 315 315 313 312 312 312 313 313 313 314 313 312 313
326 326 325 326 326 326 326 327 326 325 325 325 326 325 325 324 323 322 323 324 324 323 322 322 321 322 322 322 322 322 323 323 323 323 324 324 324 323 323 322 321 322 322 318 309 310 309 309 320 317 317 316 314 312 312 312 312 312 313 313 312 313 312
327 326 325 325 325 326 324 325 325 324 324 323 325 325 325 324 323 324 323 323 323 323 323 322 315 306 310 320 321 319 321 322 322 323 323 322 321 322 322 323 324 318 312 309 307 303 301 300 302 314 319 318 313 312 312 311 311 311 312 311 310 311 310
327 327 326 326 324 324 324 326 325 324 323 323 324 324 324 323 323 322 322 323 323 322 320 320 302 300 301 303 316 321 322 322 321 321 321 318 321 322 324 324 327 319 314 310 311 300 298 298 298 297 296 298 304 319 313 310 310 311 310 310 311 311 309
324 325 326 325 325 325 325 325 325 324 324 324 323 325 324 323 322 322 322 321 323 324 322 309 299 300 299 299 305 320 322 320 319 319 319 319 318 318 319 321 323 324 325 326 323 319 306 297 295 296 295 296 292 290 293 312 313 311 310 309 309 310 309
322 322 323 323 324 324 323 324 324 324 325 325 325 323 322 322 321 321 320 319 319 321 322 304 299 298 298 297 297 309 320 320 318 317 317 319 319 319 319 320 320 322 320 309 314 320 322 316 296 293 294 293 293 292 291 290 293 307 313 310 309 308 309
321 322 323 323 322 322 322 322 323 324 325 325 324 322 322 321 321 320 319 319 320 322 322 305 299 298 298 297 295 302 320 318 319 319 320 319 320 320 319 319 319 320 320 319 320 320 320 320 312 308 306 305 306 303 293 293 294 294 301 310 310 308 311
320 321 322 322 322 321 321 322 322 323 323 323 322 321 321 320 320 320 320 321 321 321 323 300 297 297 298 297 293 298 318 320 319 319 319 319 319 319 318 319 318 317 315 312 308 306 315 316 313 311 309 308 308 308 311 310 311 312 309 310 309 310 310
314 317 320 321 321 320 320 321 322 324 323 322 322 322 321 321 320 320 321 323 322 321 327 296 297 297 296 294 293 314 319 318 316 316 317 318 317 318 318 318 317 316 314 309 298 291 298 313 313 310 308 309 308 305 301 295 292 294 304 308 309 309 309
311 313 314 318 319 321 321 321 322 324 323 322 321 320 321 321 322 322 322 322 322 321 323 302 296 295 294 293 302 316 317 315 315 315 315 316 315 315 314 314 315 314 311 307 294 292 293 297 312 310 309 308 307 306 303 300 293 291 290 290 289 289 289
310 311 312 313 316 319 321 323 323 323 322 321 320 321 322 321 322 322 322 320 321 321 318 301 293 295 294 297 306 316 315 314 314 314 314 314 314 311 305 296 307 314 310 306 291 293 292 305 311 310 309 308 307 306 305 304 302 299 290 290 289 289 289
309 310 310 312 315 315 318 322 323 324 322 322 321 321 321 321 321 321 321 320 309 316 315 301 293 294 295 297 309 316 314 313 312 312 312 311 311 310 306 301 294 301 305 299 289 292 291 301 312 310 310 308 307 307 306 306 305 304 304 304 302 301 300
309 309 310 311 313 315 316 318 320 322 323 322 320 320 320 320 320 319 320 319 319 316 310 304 300 293 296 296 298 317 314 312 311 311 311 309 309 308 306 303 297 289 289 289 290 290 291 292 310 311 311 310 308 306 306 306 305 306 305 303 304 304 303
308 309 309 310 312 313 314 316 318 320 320 320 319 318 318 318 319 319 319 319 318 317 313 309 303 293 294 295 294 298 315 313 313 311 309 308 308 308 306 304 302 291 289 289 290 290 291 291 294 309 309 307 304 301 300 305 299 292 302 303 302 301 302
308 308 309 309 311 312 314 315 316 319 319 319 318 317 316 317 317 317 317 318 318 317 313 308 311 295 293 294 294 294 312 314 312 311 309 308 308 308 306 304 301 293 288 289 290 290 290 292 293 301 297 289 289 291 302 302 303 303 302 302 301 300 301
306 307 308 309 308 309 311 314 314 317 318 319 318 317 314 312 310 308 308 310 315 315 314 311 302 305 293 293 293 293 297 308 297 311 310 308 308 307 306 303 297 289 289 289 290 290 290 290 293 295 288 288 289 286 292 302 300 301 300 300 300 299 299
305 306 306 307 308 308 309 311 312 313 315 316 316 316 314 313 313 310 307 305 305 310 312 310 298 297 297 290 291 293 295 296 299 310 311 309 308 306 304 302 295 288 289 289 288 289 289 291 293 287 288 287 288 289 300 301 301 301 297 297 298 298 299

ECMWFFLT1_sfc_thetae_015.txt.gz
Theta_e
326 325 328 328 328 327 326 327 329 329 330 331 330 330 331 331 331 330 331 331 329 329 328 328 329 329 329 330 334 334 333 332 333 330 329 331 329 329 333 330 327 330 330 330 327 319 318 313 314 318 320 322 323 324 323 323 323 323 324 326 323 324 326
325 326 326 326 326 327 326 326 328 328 330 331 330 331 331 330 330 331 331 330 329 329 327 327 330 329 330 335 336 335 333 333 333 334 332 330 330 329 330 331 330 328 329 330 329 325 320 314 312 314 315 319 321 321 323 324 323 324 323 322 322 323 325
325 325 325 325 326 327 326 327 326 326 327 330 331 331 330 329 330 331 330 330 330 329 328 328 329 332 333 335 336 336 335 335 334 334 332 331 330 331 331 330 327 326 325 324 325 325 320 318 312 312 315 315 312 316 321 320 320 321 321 322 322 320 322
325 325 324 324 324 325 324 325 325 325 327 328 330 331 330 330 331 331 330 329 330 330 329 327 329 328 333 336 337 337 336 334 333 333 332 333 329 330 329 327 325 325 323 319 321 318 317 315 313 313 315 315 312 313 316 318 318 317 317 319 319 320 320
325 324 323 324 323 324 325 324 325 326 327 328 329 327 329 330 331 330 330 330 329 330 329 330 329 331 335 335 335 333 333 335 334 333 332 332 330 329 327 324 323 324 322 320 318 319 317 315 316 314 312 312 313 312 314 317 315 314 315 315 316 318 319
326 324 323 322 323 322 323 323 323 324 324 325 326 326 328 329 329 329 329 327 329 330 330 329 330 330 332 333 334 333 333 332 332 332 331 331 329 326 323 323 321 321 320 319 320 318 319 319 317 312 311 313 311 311 312 313 310 311 312 312 314 315 316
326 327 325 323 323 323 323 323 324 324 324 325 325 325 328 329 329 330 330 330 329 329 329 329 329 328 328 328 332 332 330 332 331 329 327 326 326 324 321 317 318 316 316 317 318 318 318 318 314 313 312 313 311 310 310 310 311 307 308 309 312 314 315
326 325 324 324 325 322 323 325 326 326 325 325 324 327 327 327 327 328 328 329 329 329 329 328 327 328 328 326 326 327 325 325 325 325 324 323 321 320 320 316 315 315 314 313 313 315 315 318 317 316 314 309 309 311 310 310 308 307 306 308 311 312 315
325 326 324 325 325 325 325 326 326 326 325 323 325 326 326 325 323 323 324 326 327 327 326 325 325 325 326 325 323 323 321 321 322 321 321 321 321 320 318 318 317 315 317 315 316 315 315 318 319 318 316 312 308 305 308 307 308 307 310 308 309 311 313
326 325 325 326 326 326 326 326 326 325 325 324 324 326 325 324 323 323 323 323 324 324 323 322 321 321 322 321 321 320 320 321 321 318 319 319 320 321 320 320 317 318 317 319 318 318 319 319 318 318 316 314 314 309 307 306 307 306 308 309 306 308 311
325 324 324 325 326 325 325 324 325 323 323 322 322 323 324 323 321 320 320 321 321 321 320 319 319 320 321 318 319 318 319 319 318 318 318 318 320 321 320 319 320 319 321 320 319 320 319 320 318 318 318 317 316 313 310 308 308 311 309 311 310 307 309
326 326 325 325 324 323 324 323 322 322 322 321 323 323 320 318 319 318 319 319 320 319 319 319 319 319 318 317 316 315 318 318 317 317 319 320 321 322 321 320 320 319 321 321 321 320 321 319 318 317 317 319 319 319 315 313 309 312 314 310 309 309 308
325 325 324 324 322 320 320 324 326 321 321 320 324 323 318 317 317 317 317 317 316 317 317 318 318 317 317 316 316 316 317 317 315 316 316 319 318 321 320 319 319 319 320 319 321 321 320 321 321 318 319 319 318 319 317 314 312 310 313 312 310 309 309
325 324 325 325 324 321 320 320 322 324 321 321 321 319 318 317 316 317 315 315 315 317 317 318 318 318 317 317 317 317 316 315 315 316 318 318 317 319 318 318 318 319 320 319 319 319 319 318 319 319 319 317 317 318 318 316 312 311 313 315 312 308 311
324 324 326 326 324 321 320 320 321 320 321 320 319 316 318 319 318 317 316 315 315 316 317 317 318 318 317 317 318 319 318 316 315 315 317 316 318 318 318 316 316 317 318 316 318 315 315 316 316 316 316 318 317 316 319 315 312 311 311 313 310 310 311
323 323 327 326 325 324 323 322 323 322 321 321 320 318 318 319 318 318 318 318 316 316 317 319 320 318 317 317 316 318 318 317 316 316 315 315 314 316 316 316 315 317 318 317 317 318 317 316 315 314 316 316 316 316 315 316 314 312 311 310 312 310 311
324 323 323 324 325 325 326 326 325 323 321 320 320 320 320 318 318 319 318 318 318 317 317 319 320 319 318 317 317 318 318 319 317 317 316 314 313 314 316 316 316 316 316 317 316 316 315 317 316 316 316 317 316 315 317 317 316 315 312 310 311 309 310
327 326 325 324 324 324 324 324 323 320 321 320 319 322 319 318 318 319 320 318 318 318 318 317 318 319 321 322 321 320 319 319 320 319 319 318 318 317 317 318 317 317 317 318 317 317 316 316 316 317 316 315 314 316 318 317 317 315 314 312 312 313 314
327 326 325 325 325 325 325 324 322 323 322 322 320 320 321 319 316 316 317 316 317 318 318 317 318 318 319 320 321 321 321 321 321 321 321 321 319 320 320 319 320 319 319 319 319 319 319 317 316 317 317 316 315 316 317 317 317 317 315 313 314 313 314
328 326 326 326 327 327 325 324 322 322 322 322 322 321 321 319 319 318 316 316 316 317 318 318 318 318 319 320 321 322 322 322 321 322 322 321 322 322 322 321 322 321 320 320 320 319 319 319 318 318 317 317 315 315 315 316 316 316 315 314 314 314 313
326 327 328 328 327 327 323 323 322 323 323 322 323 321 321 320 320 319 319 317 318 318 319 318 320 320 321 322 325 325 325 324 324 322 324 323 323 322 323 323 322 322 321 321 320 320 320 319 319 318 318 318 317 315 315 315 315 314 314 315 313 312 312
329 329 327 327 327 327 326 326 325 323 323 325 325 323 324 323 321 319 319 319 318 319 320 321 322 322 322 324 326 326 326 324 325 325 324 324 326 324 325 325 324 321 328 318 307 311 311 313 324 319 319 318 318 316 315 314 314 313 314 313 312 313 311
328 328 328 327 326 327 327 327 326 325 324 324 324 324 324 325 322 321 320 320 320 322 323 324 321 312 315 323 325 324 325 325 325 325 325 324 323 323 322 324 324 318 311 311 309 304 303 302 304 314 319 319 318 317 315 314 313 313 313 312 311 310 310
328 327 327 326 325 325 326 327 326 324 322 324 324 324 324 324 323 323 321 322 323 325 325 325 302 301 303 309 321 324 322 321 321 320 320 321 320 321 321 322 322 319 317 313 317 302 301 301 301 299 298 300 304 318 317 315 313 314 312 312 311 310 309
326 326 326 325 325 325 326 326 326 326 325 324 324 324 324 323 324 324 323 324 325 325 326 307 298 299 301 303 310 322 322 321 319 319 319 317 318 317 317 319 321 321 323 329 324 319 308 299 298 297 296 295 293 291 294 311 313 313 313 312 311 311 310
322 324 325 325 325 326 326 325 324 324 325 325 324 324 323 323 323 325 325 324 324 324 327 300 299 297 298 299 303 313 321 322 321 319 318 318 317 317 318 319 320 324 319 314 318 321 321 311 296 293 294 293 293 292 291 291 296 309 310 311 311 310 310
321 322 322 324 325 325 325 324 326 326 326 325 325 324 323 323 324 323 323 324 323 325 325 301 298 297 297 297 299 305 320 320 321 320 319 318 320 319 318 315 316 317 321 322 322 321 319 317 312 308 308 309 309 301 293 293 293 294 300 307 308 309 313
317 319 321 322 323 323 323 325 325 325 324 324 324 324 323 322 323 323 323 323 322 322 324 300 297 297 296 296 297 301 319 319 319 318 318 320 318 317 319 319 317 318 320 318 314 308 320 320 316 314 313 312 311 309 309 310 311 311 310 309 310 311 312
314 315 316 318 320 320 321 322 323 325 324 324 325 325 324 323 321 321 322 322 321 320 325 297 297 296 296 296 295 311 317 318 317 318 319 318 318 318 318 319 318 318 318 313 299 291 298 315 317 314 312 312 310 308 303 295 292 295 305 309 309 309 308
312 313 314 314 315 317 319 321 324 324 323 324 323 324 322 322 323 322 320 320 320 321 326 300 297 297 296 295 299 315 316 316 317 317 316 317 316 319 319 318 318 316 313 309 295 292 294 295 316 313 312 312 311 309 305 301 294 291 291 290 290 289 290
310 311 312 312 314 316 318 319 319 324 323 322 322 323 324 322 322 322 322 322 320 322 318 309 296 297 296 296 304 314 315 316 315 314 316 315 316 313 308 298 310 315 312 308 291 292 290 304 315 314 313 310 309 307 306 304 303 300 291 291 290 290 291
309 310 310 311 313 313 315 317 317 319 323 323 321 322 323 322 320 322 323 323 314 317 319 309 294 295 295 295 304 317 316 314 313 313 313 312 312 311 310 302 295 303 306 300 289 291 289 300 314 313 312 311 308 308 308 307 307 305 304 304 302 302 300
308 309 310 310 311 312 313 314 316 317 320 321 321 321 322 322 321 322 323 323 322 318 319 317 302 294 295 295 300 316 317 314 312 312 311 310 309 310 309 305 298 290 290 289 290 290 291 292 313 314 312 310 309 306 310 309 307 307 308 307 307 307 307
307 308 309 309 310 310 311 312 315 315 316 319 321 320 320 321 320 321 322 322 322 321 320 319 308 294 295 296 297 301 316 314 313 311 310 309 308 308 307 306 303 291 289 290 290 290 292 292 296 309 307 305 302 304 302 308 304 294 303 304 305 305 305
305 306 307 308 309 309 311 311 311 313 315 315 315 319 321 321 320 319 320 321 321 320 317 311 315 295 294 294 296 293 304 310 315 313 308 308 307 306 306 304 301 293 289 290 290 291 291 292 294 301 298 289 288 289 303 303 305 305 305 304 303 302 303
304 305 305 307 307 307 308 309 310 311 312 313 313 314 318 320 320 318 318 318 319 319 319 309 300 303 294 295 296 296 293 296 297 312 310 307 307 306 305 302 296 290 290 290 290 291 291 291 293 295 288 289 289 286 293 303 303 303 301 302 302 301 300
304 304 304 305 305 306 306 308 309 309 309 311 311 312 315 318 318 316 315 314 316 317 317 312 299 299 300 295 295 294 293 293 293 308 312 310 308 306 302 299 295 289 289 289 289 289 290 292 294 288 289 288 288 291 301 302 301 302 301 299 299 299 300

ECMWFFLT1_sfc_thetae_018.txt.gz
Theta_e
329 330 332 330 333 329 332 334 330 337 334 332 337 333 334 335 337 334 333 333 333 333 333 332 334 336 335 335 334 336 335 333 331 328 326 325 325 326 329 328 327 328 328 327 324 322 315 310 309 315 317 319 320 321 319 319 319 321 324 321 322 323 322
327 329 327 330 331 335 334 341 337 329 332 333 330 334 335 333 335 333 334 335 334 334 329 328 332 331 334 333 334 334 335 333 334 331 331 327 326 326 328 326 328 327 325 326 327 325 321 311 309 310 310 317 318 320 321 319 320 322 322 322 321 320 319
327 328 328 329 330 336 332 330 334 332 330 336 337 335 335 331 333 335 333 331 332 328 328 328 331 333 333 335 335 337 335 333 333 333 331 332 329 327 330 329 326 325 324 324 324 322 320 320 309 309 311 311 309 314 319 319 318 319 317 317 317 317 316
328 329 327 327 329 332 327 331 335 333 336 330 333 334 334 332 334 335 333 332 332 332 330 328 331 330 334 335 336 335 334 332 332 331 330 331 330 328 327 328 326 324 322 320 320 320 318 314 310 310 311 310 309 312 316 317 314 313 315 317 316 315 315
327 327 326 327 327 325 328 330 333 332 330 331 331 330 333 333 335 334 334 332 332 332 331 331 331 331 335 336 334 333 332 333 332 331 331 328 328 327 328 326 326 325 325 322 321 322 319 315 312 310 308 308 308 307 313 311 309 310 311 312 314 315 315
329 328 328 328 330 328 330 330 328 330 330 328 329 329 331 334 334 334 331 330 331 331 330 328 330 332 334 334 332 330 331 330 330 329 328 327 328 327 324 327 325 323 323 323 328 323 321 320 317 308 308 310 305 304 306 310 304 305 307 309 311 312 314
330 330 329 328 331 329 329 329 331 329 329 327 328 330 333 332 331 330 330 329 331 330 329 331 330 328 329 330 330 329 329 330 330 329 328 327 326 324 324 315 316 313 313 318 318 321 320 318 316 313 309 308 307 305 306 304 304 302 303 307 309 311 312
330 330 330 330 331 329 331 330 333 332 327 328 328 329 328 328 331 331 331 330 331 332 331 330 332 330 329 324 325 328 328 328 327 325 324 322 320 319 320 318 314 313 320 315 317 320 319 325 319 313 308 305 307 310 304 303 302 302 302 305 309 311 312
329 330 327 328 331 333 333 333 331 330 328 327 328 329 329 326 327 328 329 330 330 330 329 329 327 325 325 324 323 322 320 322 322 321 318 319 321 321 320 321 317 316 318 317 317 314 318 316 316 315 315 310 306 301 305 303 303 302 305 303 306 310 310
330 328 327 329 330 332 333 332 330 326 327 327 327 330 328 329 329 328 326 326 325 323 323 323 324 323 322 322 321 320 319 319 319 318 320 319 319 318 316 317 318 316 315 318 318 318 318 319 319 324 316 314 317 305 303 302 303 303 305 305 302 304 309
329 328 328 327 330 329 328 327 326 325 326 326 327 329 327 324 324 325 325 325 325 326 326 324 320 322 322 321 320 318 319 320 319 320 320 321 322 321 319 318 317 317 319 317 319 318 318 317 316 318 315 316 314 311 310 303 304 308 308 306 305 303 306
327 327 327 328 329 326 325 326 325 324 324 326 324 324 323 322 324 323 323 323 323 321 322 323 323 319 318 316 317 318 320 318 318 318 321 321 322 322 320 319 319 319 320 319 317 318 319 321 325 317 316 317 316 315 310 307 304 308 313 306 308 306 305
324 325 325 325 326 325 324 325 324 324 324 323 325 325 322 321 320 321 321 320 320 321 321 321 319 319 318 318 319 318 318 318 316 316 318 320 319 321 319 318 319 319 321 319 318 318 316 318 319 317 317 317 316 317 314 310 306 306 310 310 308 307 307
326 324 323 323 322 324 326 326 325 325 325 325 324 324 321 320 319 318 318 318 318 320 320 321 321 319 320 319 318 316 317 316 315 318 318 318 319 319 317 317 317 319 319 319 319 322 318 316 318 319 320 316 314 316 316 312 307 307 311 314 313 308 310
325 323 323 323 322 321 322 325 328 326 325 325 325 320 319 323 320 319 316 316 318 317 319 320 321 321 318 319 320 322 319 317 315 317 318 317 317 318 319 315 317 318 318 318 317 313 314 315 313 313 315 317 313 315 315 315 309 308 306 312 312 307 311
325 325 325 325 322 319 321 322 322 325 325 323 324 325 321 321 320 318 317 317 315 317 317 320 321 319 319 320 319 321 321 316 317 318 317 315 314 317 316 315 315 317 321 317 318 318 317 316 312 312 313 314 313 313 313 313 313 309 307 308 313 307 309
326 326 326 326 323 321 320 321 321 323 322 321 319 322 322 321 323 321 320 316 316 318 319 322 320 317 318 319 319 318 317 318 318 318 317 314 313 316 316 315 316 317 317 315 316 316 316 316 317 315 313 314 316 313 315 315 314 310 309 307 307 305 308
325 325 326 326 326 325 324 322 323 320 322 322 321 323 319 321 322 321 323 318 316 317 319 322 320 320 321 321 320 320 317 316 319 319 318 318 317 316 317 318 314 317 317 316 316 315 315 316 313 317 315 313 311 315 317 315 315 313 310 310 309 310 311
327 325 327 328 327 326 324 324 324 324 320 319 324 324 318 320 316 317 320 321 318 317 317 321 321 321 322 324 322 321 322 321 321 321 321 321 318 319 318 319 320 317 317 318 318 318 318 315 316 316 314 316 313 314 318 316 316 313 311 311 312 312 311
329 330 330 330 331 327 325 326 324 322 322 321 320 322 322 319 320 318 317 319 319 318 317 317 320 321 321 322 322 322 323 322 322 323 321 322 318 321 321 321 321 321 319 319 319 319 318 318 318 317 316 316 314 314 313 313 313 313 312 312 311 312 311
330 329 330 330 330 329 329 327 326 324 324 322 321 319 319 320 319 319 317 316 317 318 318 317 317 318 318 319 320 321 322 322 320 323 322 322 324 323 323 323 322 321 321 321 320 320 320 319 318 316 319 317 316 315 314 313 313 310 310 312 310 310 310
328 327 330 329 328 328 329 327 325 324 327 327 326 322 323 321 320 317 318 318 316 317 318 318 317 316 317 318 321 322 323 322 324 321 322 321 323 323 323 322 320 317 316 312 306 310 310 316 322 318 319 317 316 315 314 312 312 311 311 310 309 311 308
325 326 328 329 327 328 325 326 327 327 325 325 327 327 326 326 322 319 318 318 318 320 319 321 317 310 312 319 321 321 324 323 323 323 322 322 322 322 321 322 321 316 313 312 307 301 301 302 306 316 316 316 317 315 314 312 311 311 311 308 308 309 308
323 323 323 325 326 327 325 326 326 325 324 326 328 328 325 322 323 324 322 319 319 322 322 322 306 304 305 309 322 323 323 323 323 322 322 321 319 319 321 321 320 318 318 315 313 303 301 299 299 299 299 300 306 314 313 312 310 309 309 309 308 307 306
321 321 323 323 324 323 324 326 325 324 326 325 324 324 324 323 321 322 322 320 320 321 322 309 300 303 303 304 312 323 322 320 320 319 318 317 317 318 319 322 322 322 321 321 324 319 306 298 297 296 295 295 294 292 298 307 308 311 308 307 307 308 306
321 320 322 323 324 324 323 324 323 324 325 327 326 323 322 323 322 322 323 321 321 321 322 298 300 300 301 303 306 314 320 320 319 318 318 316 315 315 317 317 318 322 319 317 318 320 317 308 296 294 294 294 294 294 294 293 296 307 309 308 306 306 305
318 319 320 322 323 323 324 323 325 325 326 323 321 320 320 322 323 323 323 323 322 321 321 301 298 299 301 301 302 309 320 320 319 319 317 317 316 315 317 314 312 313 318 317 318 318 319 310 305 304 304 305 303 295 292 292 293 295 301 308 305 305 309
313 316 322 322 320 321 321 323 323 322 323 323 321 319 320 320 319 320 321 321 319 318 320 303 297 297 298 299 298 304 319 321 320 319 319 318 317 318 315 314 309 307 312 318 312 305 315 312 311 311 309 309 307 305 304 301 300 304 308 310 306 309 306
311 312 313 314 317 321 323 324 323 323 322 323 323 322 322 322 320 320 320 319 317 315 319 299 296 296 296 297 297 308 316 317 317 319 318 320 317 316 317 314 310 310 316 309 297 294 298 310 314 312 310 309 304 300 296 294 292 293 299 301 301 301 298
309 310 311 312 312 314 315 317 320 324 323 322 322 321 322 322 321 320 319 318 317 317 313 296 296 298 297 296 298 309 314 314 314 315 316 319 318 317 317 318 316 316 312 305 294 295 292 300 314 311 310 307 306 302 299 299 293 291 291 291 290 290 290
307 308 309 309 310 312 313 314 315 318 319 319 319 321 322 321 320 320 319 318 319 318 315 301 296 298 297 296 301 311 312 312 312 313 313 316 316 312 307 305 315 311 306 300 290 292 292 306 312 310 309 307 306 303 300 300 301 296 291 291 290 290 291
306 307 307 309 311 310 311 311 312 313 315 318 318 319 319 320 320 318 318 318 315 317 318 308 295 296 295 295 299 311 313 313 312 312 313 314 312 307 304 302 307 305 303 296 290 291 293 305 312 311 310 307 305 303 301 301 300 298 298 298 297 298 297
305 306 306 307 309 310 310 310 310 311 313 313 313 315 317 318 318 317 318 319 319 318 317 317 305 296 296 295 296 310 314 313 311 312 313 313 308 306 302 299 296 293 291 290 291 291 292 297 313 311 309 306 305 305 304 305 304 303 303 303 302 300 301
304 304 304 305 306 307 307 308 310 310 310 311 312 314 315 317 318 319 321 320 316 314 317 317 314 296 296 295 294 296 311 309 308 311 312 309 308 305 302 299 297 292 291 291 291 292 293 294 297 303 302 300 299 300 301 302 299 297 301 301 300 301 302
304 304 304 304 303 304 306 308 308 309 309 309 309 310 312 313 315 316 317 319 318 316 314 311 317 301 295 294 294 295 305 308 302 309 309 310 306 305 301 298 295 292 290 290 291 291 292 292 293 295 292 289 288 291 299 301 302 300 301 301 299 299 299
303 304 304 304 303 303 303 304 305 306 306 307 307 308 309 310 312 314 316 315 317 317 316 313 307 301 294 293 293 294 295 299 294 309 309 308 306 302 300 297 294 291 290 290 291 291 291 291 292 291 288 289 289 288 293 300 300 300 299 299 299 297 296
302 302 302 302 302 302 302 303 304 305 305 305 305 306 306 308 309 312 313 313 315 316 314 311 302 299 296 294 294 292 291 291 294 303 306 307 303 299 296 295 292 289 290 290 290 290 291 291 290 288 289 288 289 291 297 299 298 299 296 295 296 295 296

ECMWFFLT1_sfc_thetae_021.txt.gz
Theta_e
319 317 318 319 320 321 321 322 323 325 325 326 327 328 329 329 329 328 327 326 328 329 330 329 328 330 331 330 328 328 327 327 326 321 320 321 321 319 322 322 322 322 321 320 319 313 308 305 306 312 313 315 315 315 315 317 320 320 321 320 315 313 313
319 318 320 320 319 323 321 323 322 323 322 321 323 323 322 325 327 325 326 327 327 328 330 328 328 330 328 327 327 327 327 326 326 323 323 321 323 321 323 321 321 319 319 320 321 319 310 306 306 307 308 311 312 314 314 315 319 319 317 315 315 312 312
319 318 317 316 319 320 318 321 321 322 323 323 323 324 324 326 325 323 323 323 324 325 327 324 326 326 327 328 328 328 327 327 326 325 323 322 323 324 325 323 321 318 318 319 319 316 312 310 306 306 306 307 306 310 313 312 315 316 315 313 311 310 309
319 318 317 317 317 315 316 319 319 322 321 321 322 324 323 323 324 326 323 323 323 325 325 324 325 325 324 326 326 327 327 327 325 324 324 324 323 323 324 324 321 320 318 315 316 315 312 309 306 307 307 307 306 307 311 314 311 313 313 311 310 308 308
319 318 317 317 317 316 316 319 320 321 321 321 321 320 320 322 324 323 323 323 324 323 323 325 326 328 328 328 328 326 326 325 325 325 324 323 322 321 322 323 322 322 320 318 319 317 313 309 309 307 305 306 307 305 309 307 310 311 311 311 311 309 307
318 318 318 317 318 316 318 318 320 319 319 320 319 320 322 322 324 323 323 321 321 322 323 325 325 329 329 327 326 324 325 323 323 324 322 320 321 320 320 320 322 321 320 319 319 318 316 311 310 306 304 305 301 302 303 303 302 306 310 311 311 310 309
319 319 318 319 319 318 319 317 319 318 319 319 318 318 321 323 322 322 322 322 320 320 322 323 326 327 326 326 325 324 323 322 322 320 319 316 315 317 316 311 312 315 314 314 315 318 315 311 307 305 304 304 302 302 302 298 303 301 304 308 310 309 308
319 318 318 319 319 318 317 319 321 320 319 321 320 320 321 321 321 322 322 322 322 321 321 322 325 323 323 324 324 322 321 320 317 315 313 314 315 313 309 308 310 310 311 312 310 313 314 313 309 306 304 301 301 301 299 298 298 300 303 306 310 309 308
322 320 319 319 319 318 320 321 320 320 320 319 320 318 318 318 320 320 321 320 318 317 319 320 319 317 317 317 316 316 315 318 314 314 314 313 312 311 309 310 310 310 312 312 312 312 311 310 309 307 305 303 301 297 298 297 297 298 304 303 306 310 310
318 317 318 318 320 322 321 319 319 319 319 318 319 317 316 316 318 318 315 314 315 315 316 316 316 315 314 314 313 313 313 313 314 312 311 312 311 312 312 312 311 311 311 311 311 312 313 312 312 311 309 305 303 298 296 295 298 298 302 303 301 304 308
320 319 319 319 319 318 317 317 317 317 317 319 320 319 316 316 318 320 315 315 315 316 314 314 315 315 314 311 311 311 311 312 313 314 315 313 312 312 312 312 311 310 310 310 311 311 312 312 312 311 311 310 306 302 299 298 300 303 300 302 300 300 304
320 320 320 319 317 317 317 317 316 316 316 317 316 313 313 313 313 313 313 312 312 312 314 313 312 311 311 310 311 312 312 312 312 312 313 315 314 313 312 311 311 311 312 312 312 312 313 313 312 311 310 312 310 306 304 302 298 303 304 301 303 303 301
320 320 320 319 317 317 317 315 314 313 314 315 313 313 312 313 313 312 312 312 311 311 311 310 310 310 310 310 311 312 311 311 312 311 312 313 314 312 311 310 311 311 311 310 310 311 310 312 312 310 311 310 309 308 306 303 301 302 306 302 302 302 303
319 319 319 319 318 318 316 315 314 314 313 312 313 312 311 311 312 312 311 311 311 311 310 310 310 309 310 309 310 310 310 311 312 311 312 312 313 311 312 311 311 312 312 311 310 311 310 310 311 312 311 310 309 308 306 304 302 302 305 308 305 304 306
318 317 317 317 318 319 317 316 314 313 313 313 313 314 311 311 310 310 310 310 310 311 311 310 311 310 310 308 309 313 311 310 310 310 310 310 310 314 310 309 310 310 310 309 309 310 308 308 308 308 310 309 308 310 309 306 303 301 301 306 304 305 305
317 316 315 315 316 317 317 316 316 315 313 312 314 313 312 311 310 309 310 310 310 310 310 312 311 311 310 310 311 312 312 310 311 309 309 309 310 309 308 308 308 309 312 308 310 309 309 308 309 309 308 309 308 308 309 310 306 302 302 303 304 303 304
317 317 316 314 314 314 315 315 316 315 314 312 313 313 312 311 311 309 309 309 309 310 312 311 311 311 313 311 310 310 310 310 310 309 309 309 310 309 308 308 308 308 309 308 310 310 309 308 309 308 309 309 308 309 309 309 308 304 302 303 303 303 305
318 319 318 315 313 313 313 313 314 314 314 314 314 313 313 311 313 310 311 310 311 312 312 311 310 310 312 311 311 310 309 309 309 309 309 309 313 309 309 307 308 309 308 308 308 311 308 309 311 310 309 308 308 310 311 310 309 307 304 302 303 304 304
319 319 319 317 314 314 314 313 314 314 315 314 314 314 311 312 313 313 311 310 312 313 313 312 311 312 312 312 311 310 310 310 312 311 310 309 310 310 310 308 310 310 310 309 309 310 311 311 311 310 310 309 309 311 310 309 308 308 307 306 304 305 305
319 320 320 320 318 317 316 315 316 316 316 315 314 311 310 310 311 312 312 312 312 312 313 313 313 313 314 313 313 313 312 312 313 312 312 311 311 310 312 312 310 310 310 311 312 311 311 311 312 311 310 310 310 307 308 308 308 308 306 306 306 305 306
321 320 320 320 320 319 318 318 317 317 317 315 314 313 313 312 310 311 311 311 312 312 311 311 312 313 313 313 313 313 312 313 313 314 312 314 313 312 314 315 314 313 313 312 311 311 311 311 309 309 310 310 310 309 307 306 306 304 305 305 305 304 304
321 320 320 319 319 318 319 318 317 317 317 317 315 313 313 313 311 310 310 310 311 312 312 312 313 313 312 313 313 313 314 313 312 313 314 315 315 316 315 314 312 311 313 312 308 310 314 315 313 310 311 309 308 308 307 306 305 304 303 304 303 304 303
320 319 319 318 317 317 317 317 318 317 317 317 317 314 313 313 313 310 310 310 309 312 313 313 313 309 309 313 313 315 316 314 315 315 315 315 314 316 316 314 315 317 311 309 305 300 299 302 309 312 311 310 308 308 307 307 306 305 305 303 303 304 302
317 317 316 316 316 317 318 318 317 317 316 316 315 316 316 315 314 312 310 309 309 312 313 314 305 301 303 305 314 315 315 315 315 316 316 315 314 315 314 314 311 313 312 310 305 299 298 299 298 298 299 304 309 309 308 307 305 305 305 304 302 301 299
316 315 316 316 316 315 316 317 317 316 315 316 315 315 315 315 315 314 314 313 311 313 313 308 301 300 301 302 308 317 316 316 316 315 314 314 314 313 314 314 312 313 312 312 310 304 301 298 296 295 295 294 294 295 301 306 304 304 302 302 301 301 300
314 313 315 315 315 316 316 316 315 317 317 317 315 314 312 314 314 315 313 313 313 313 311 298 301 299 299 301 305 312 318 317 317 316 315 314 313 313 314 314 314 315 317 317 318 311 304 299 296 294 294 294 294 294 293 295 300 306 304 302 302 300 300
313 314 313 313 315 316 315 314 314 315 317 316 314 312 312 313 313 313 313 313 312 311 312 301 298 300 302 300 301 309 318 317 316 316 315 314 313 311 313 313 312 313 312 313 312 313 309 301 298 298 298 299 296 294 295 295 295 296 300 302 301 302 302
304 305 306 309 309 310 311 310 313 313 314 315 313 312 313 312 311 312 312 312 308 311 313 299 297 299 302 301 300 301 312 314 313 313 313 313 312 310 311 312 310 311 313 312 312 311 311 304 302 303 302 302 300 299 297 297 299 304 305 303 303 303 301
302 303 304 304 305 305 305 305 307 312 312 313 313 312 311 311 311 312 312 311 310 307 310 296 297 298 301 300 298 306 308 308 310 313 313 313 313 312 313 311 309 306 308 312 304 301 305 307 306 306 304 299 296 294 294 294 292 297 301 300 298 297 296
300 302 303 303 304 304 304 305 305 306 304 307 311 312 313 313 314 314 312 311 311 308 309 299 295 297 298 298 299 308 309 310 309 310 310 312 313 314 314 312 309 305 308 307 297 296 300 303 308 306 303 300 298 294 293 294 292 291 292 293 293 292 291
300 301 301 303 304 304 304 304 304 304 303 304 305 307 311 313 313 314 313 313 312 310 308 304 296 297 297 297 301 310 310 310 310 310 309 311 312 312 313 311 313 309 309 304 293 292 296 306 308 305 302 299 297 294 293 295 294 292 292 291 291 290 290
300 300 300 300 302 302 303 303 303 303 303 304 304 305 307 310 312 313 312 312 312 311 309 306 298 297 297 297 300 307 308 307 305 307 308 309 310 310 310 308 307 307 309 299 292 292 294 304 308 306 303 301 298 296 295 295 293 292 292 291 292 292 292
299 300 300 300 300 300 301 301 301 302 302 303 303 303 304 305 307 311 313 312 311 311 310 309 303 296 297 297 297 305 308 309 307 307 308 309 309 303 301 298 297 293 297 293 293 293 294 299 307 306 305 303 300 299 298 297 295 294 294 294 293 294 294
299 299 300 300 300 300 300 300 300 300 301 302 301 302 302 303 304 307 311 311 309 310 312 312 307 297 296 296 295 300 308 309 308 308 308 306 304 300 297 296 295 292 291 291 292 293 295 298 301 306 305 303 302 301 298 298 297 297 296 295 294 294 295
300 301 300 300 298 298 299 300 300 299 299 299 299 299 299 300 301 302 305 308 309 310 311 309 312 300 296 296 295 296 305 307 306 308 307 306 303 300 297 297 295 292 291 291 290 291 292 293 294 298 296 293 293 294 299 298 297 297 296 294 293 292 293
298 300 299 299 298 297 297 297 298 298 298 298 298 299 299 300 300 301 302 304 309 310 310 309 303 303 296 295 294 295 298 301 295 306 307 306 302 297 296 296 295 291 290 290 290 290 290 291 292 291 289 290 291 292 295 297 296 297 293 293 292 292 291
296 296 296 296 296 296 296 296 296 297 296 296 296 295 295 296 296 296 297 299 304 308 310 309 304 299 297 294 294 294 295 296 294 303 305 302 298 296 295 295 293 289 290 290 290 290 290 291 290 288 289 290 291 293 296 296 293 293 291 290 290 290 291

ECMWFFLT1_sfc_thetae_024.txt.gz
Theta_e
318 317 319 320 320 322 322 323 324 323 324 325 324 322 323 325 325 324 325 326 326 327 327 328 328 326 327 327 326 324 325 324 322 320 318 318 319 317 320 318 318 318 316 315 311 309 306 306 306 311 312 312 314 315 319 320 321 319 314 312 312 311 309
317 318 319 320 320 321 319 319 320 319 319 321 322 323 323 324 326 324 323 323 323 326 329 326 325 327 325 324 324 323 324 323 321 321 321 319 318 319 318 318 315 316 318 317 315 310 306 306 304 307 308 310 311 311 316 318 317 313 312 311 311 309 310
316 315 316 317 317 319 318 317 317 318 319 319 319 320 320 322 321 321 321 322 322 324 326 324 323 324 325 325 325 324 323 323 321 322 322 320 321 321 321 319 315 314 316 315 312 308 308 307 306 306 306 308 306 306 313 314 312 311 310 309 306 305 304
314 315 315 314 315 317 317 316 317 317 319 319 319 319 319 320 320 320 319 319 321 327 323 323 323 324 324 324 324 323 322 322 321 320 319 319 320 320 320 320 318 318 315 313 313 309 307 305 305 305 304 306 306 307 308 311 311 309 307 306 304 304 303
315 315 314 313 315 316 317 316 316 317 317 318 317 318 319 319 320 319 320 321 322 322 322 323 322 324 324 325 324 324 323 323 323 322 319 319 319 320 319 319 318 318 316 315 315 312 308 307 307 305 305 304 306 304 308 307 308 307 306 305 305 304 303
315 315 314 313 313 315 317 317 316 316 316 318 317 318 317 318 318 319 319 319 321 322 323 323 323 323 324 323 324 323 323 323 323 322 320 319 320 320 319 318 319 318 317 316 317 313 309 308 308 305 305 303 302 300 304 306 303 305 307 306 305 303 303
315 315 315 314 314 316 318 317 316 316 316 316 316 317 318 318 318 318 318 317 317 319 322 323 323 323 323 323 322 321 321 319 319 318 318 317 318 317 317 318 317 317 317 317 316 312 309 308 305 305 303 300 299 302 299 298 304 302 305 307 307 306 305
316 315 315 316 315 316 316 317 317 317 317 316 318 316 318 318 317 317 317 317 317 318 320 322 323 321 321 322 320 319 317 315 315 313 311 312 314 313 311 312 311 312 311 309 316 313 310 310 308 305 303 299 297 297 297 296 297 300 302 304 307 306 305
318 317 317 316 315 316 316 318 317 317 317 317 316 317 316 317 317 316 314 313 315 318 319 318 318 319 318 318 315 313 312 315 312 311 309 309 308 308 308 308 309 308 309 309 315 314 311 311 308 305 303 302 298 294 295 296 296 298 304 302 305 306 305
315 315 315 314 316 317 318 318 317 317 316 316 316 315 316 315 313 312 312 312 314 315 315 315 315 315 315 314 313 311 311 310 310 308 308 309 308 308 308 308 308 307 307 310 313 314 311 309 307 304 304 302 300 296 292 292 295 296 301 300 300 304 306
315 315 317 317 317 316 316 316 316 315 314 315 316 316 315 315 315 317 312 312 311 312 312 312 312 311 311 310 310 310 310 311 312 310 310 310 309 309 309 308 308 308 308 309 310 310 309 308 307 306 304 303 300 298 294 294 295 297 298 300 298 300 304
317 317 316 316 316 316 315 315 314 314 314 313 314 313 312 311 311 310 309 310 311 311 310 310 310 310 310 309 310 310 310 311 310 309 309 310 309 309 309 309 309 308 308 309 310 310 310 309 308 308 305 304 302 300 299 298 296 299 299 300 299 300 304
317 317 315 315 315 315 314 314 313 312 312 312 311 311 310 310 309 308 309 309 309 308 309 308 309 309 309 309 309 311 309 311 311 310 309 309 310 308 308 309 308 308 307 308 309 309 308 308 309 309 307 305 303 302 302 300 298 299 301 297 298 299 304
316 316 315 315 314 313 313 313 313 312 311 310 310 310 310 309 309 309 308 309 308 307 307 307 307 308 309 307 308 308 308 309 309 308 309 308 309 308 309 308 308 308 307 307 306 307 308 308 308 308 307 305 304 304 303 300 299 299 302 302 300 299 302
316 316 315 314 313 312 312 311 311 311 310 309 310 310 309 309 308 308 307 308 307 307 307 306 307 308 308 307 306 309 308 308 308 307 307 307 307 309 306 307 307 306 307 307 306 306 306 307 308 307 306 306 305 304 304 301 299 298 298 302 301 302 301
315 315 315 314 313 313 312 311 311 310 310 310 310 309 309 309 308 307 308 307 307 306 307 307 306 307 305 306 307 307 308 306 307 307 308 307 307 306 306 306 306 306 308 307 305 305 305 306 308 308 306 306 305 305 305 304 302 299 299 300 300 300 301
314 314 314 314 313 312 312 312 312 310 310 310 311 309 309 307 307 306 307 307 306 307 308 308 307 306 307 307 307 308 307 307 307 307 308 307 306 306 305 305 305 305 306 306 305 305 306 306 306 305 305 305 306 306 305 304 304 300 299 300 301 301 301
313 313 312 312 312 311 311 312 311 311 309 309 309 310 309 307 307 307 308 306 307 308 308 307 307 307 308 308 308 307 307 307 306 307 307 307 310 306 305 304 306 305 305 307 305 306 306 306 308 307 305 305 305 307 308 305 304 302 301 300 301 302 301
314 313 311 311 311 312 312 311 311 311 310 309 310 310 310 309 308 307 306 306 307 309 308 307 307 308 308 307 307 307 307 307 307 307 306 307 307 306 305 305 306 306 306 307 307 307 307 307 307 307 306 306 307 306 306 305 304 303 302 301 301 301 302
316 314 312 311 311 311 310 310 311 311 312 311 311 310 308 310 309 307 307 307 309 310 309 308 307 308 309 308 307 307 307 307 307 307 306 308 307 307 306 306 307 307 307 307 309 308 308 306 308 306 307 306 306 306 306 304 304 304 302 301 301 301 300
317 316 314 312 312 311 310 310 311 311 312 310 311 309 308 309 309 308 308 308 310 310 309 308 308 309 309 309 308 307 308 308 309 307 306 307 307 308 307 308 308 308 308 309 309 308 309 308 307 306 307 308 306 305 305 304 303 303 302 302 301 300 300
318 317 317 315 314 313 312 312 313 313 313 312 312 310 309 308 309 308 308 309 309 309 310 311 311 311 310 310 309 309 309 309 309 308 308 308 307 308 309 309 308 309 311 315 310 309 309 310 309 308 306 305 305 305 303 303 304 302 302 301 301 300 299
316 316 317 317 316 315 314 313 314 313 313 313 311 310 310 310 308 309 308 307 308 310 310 311 312 308 309 311 309 311 311 309 309 309 311 310 309 310 311 310 311 316 314 313 308 305 305 306 309 311 310 307 307 306 304 303 302 303 303 302 301 300 299
316 316 315 316 316 317 315 314 313 313 313 312 313 312 312 311 311 307 308 308 307 309 310 311 305 301 301 304 310 309 310 310 308 309 310 311 311 311 310 309 309 314 312 312 308 300 301 302 303 304 305 307 309 308 305 303 303 303 303 303 301 298 297
316 315 316 315 314 313 314 313 313 312 312 312 311 311 312 311 311 310 309 307 306 308 308 307 303 299 299 300 305 311 311 311 310 310 310 311 311 311 311 310 308 309 308 309 307 303 300 297 296 296 297 297 298 300 303 306 305 303 301 302 300 299 298
310 311 312 311 312 314 313 313 313 313 313 313 310 311 309 311 311 311 311 309 308 308 308 303 301 301 299 297 298 306 313 313 313 312 312 312 312 312 311 310 310 311 311 313 312 305 302 299 295 294 294 294 295 294 294 297 300 307 305 304 302 300 299
303 304 306 306 306 306 306 307 310 312 313 313 311 311 311 311 311 310 310 309 309 308 307 300 296 299 299 298 297 298 311 313 314 314 314 314 313 312 312 311 310 310 309 310 310 307 304 301 298 297 297 296 295 296 295 295 295 298 302 306 305 304 303
300 301 302 303 302 303 303 303 304 306 308 310 310 311 310 309 309 310 309 307 307 310 310 299 296 296 297 297 297 298 308 312 313 313 312 311 311 311 311 311 310 309 307 308 308 309 306 301 299 299 297 297 297 296 295 296 298 300 300 303 304 305 304
298 298 299 299 299 300 300 300 301 302 302 303 305 306 306 306 306 306 307 308 307 308 310 298 296 296 297 298 297 306 309 311 311 311 310 310 310 309 309 310 310 309 308 308 306 302 303 302 302 301 300 297 294 292 293 294 292 293 300 302 304 303 300
298 297 297 297 297 297 297 297 298 300 298 298 299 301 302 304 306 307 306 305 305 308 308 302 296 296 297 296 299 308 309 309 309 310 310 310 311 310 309 309 309 308 307 308 302 298 298 301 304 303 300 297 295 294 293 293 292 292 294 294 294 294 294
297 297 296 296 296 296 296 296 296 298 297 297 297 298 299 301 303 305 306 308 306 306 307 305 299 297 296 296 301 309 310 310 310 308 309 308 307 309 310 310 311 309 307 306 298 296 296 302 307 305 301 297 294 293 292 293 293 292 292 292 291 291 292
297 296 296 296 296 296 295 295 296 296 296 296 296 297 298 298 299 300 302 305 310 308 308 307 301 297 297 296 299 306 307 307 307 307 308 308 307 308 307 308 308 308 307 304 295 295 295 302 309 305 302 300 298 295 294 292 291 290 290 291 291 291 290
297 296 296 296 296 296 296 296 296 296 295 296 296 296 296 297 297 298 299 300 304 306 307 308 307 299 297 297 297 304 306 306 306 306 307 308 308 305 304 306 302 297 296 296 294 294 295 298 308 306 302 301 300 298 295 293 292 292 292 294 292 293 292
296 296 297 296 296 296 296 295 295 295 295 295 295 295 295 295 296 296 298 300 301 302 306 307 307 300 299 298 297 298 305 306 308 307 307 305 306 306 303 303 299 295 294 294 295 294 293 294 299 303 303 303 303 301 295 294 294 294 294 294 294 294 295
297 297 297 296 295 295 295 295 296 295 295 295 294 294 294 294 294 294 295 297 298 299 303 304 306 303 299 298 297 296 303 306 307 308 306 306 304 303 303 301 297 294 292 293 293 294 294 294 295 304 303 298 294 292 296 296 296 296 296 294 293 292 291
295 296 295 294 293 292 293 293 293 294 293 293 293 292 292 292 292 292 292 293 294 296 298 300 299 301 299 298 297 295 296 302 300 305 306 306 305 304 300 297 296 294 292 293 293 293 294 295 296 302 296 293 292 293 295 297 296 295 294 293 291 290 288
294 294 294 293 293 293 293 293 293 293 293 292 291 291 291 292 291 291 290 291 293 294 295 297 296 296 298 298 297 295 294 295 298 303 306 306 305 301 296 295 294 291 291 292 292 292 293 294 298 294 292 293 292 294 297 295 294 294 290 290 290 290 289

ECMWFFLT1_sfc_thetae_030.txt.gz
Theta_e
320 319 319 319 319 322 321 322 323 323 324 324 324 324 323 325 325 324 326 327 327 326 326 326 326 326 326 326 325 324 324 325 324 322 320 322 322 321 320 318 318 317 315 313 315 315 312 310 311 316 318 320 320 319 317 315 313 312 311 311 309 308 308
319 319 320 321 320 320 319 318 320 319 319 320 321 322 322 323 327 324 324 325 326 327 328 325 325 326 327 325 324 323 323 323 323 323 323 322 321 319 317 316 315 314 313 314 312 313 311 310 310 313 313 318 318 314 313 312 311 311 311 311 311 308 310
318 316 318 317 316 316 317 314 314 316 316 317 318 319 321 323 325 324 323 324 324 326 327 325 325 325 325 325 324 324 323 322 322 323 323 322 320 320 321 318 314 312 313 313 311 312 312 313 312 312 315 315 313 312 313 311 308 307 306 307 307 306 306
315 316 316 315 314 315 316 313 313 313 314 315 316 316 317 317 320 324 322 322 323 328 326 325 325 325 325 325 323 323 323 322 321 322 321 320 321 321 320 320 316 315 313 312 311 312 312 310 310 310 311 312 314 312 310 310 309 306 305 306 306 305 306
316 317 317 315 314 315 313 313 312 314 314 314 314 315 316 317 319 319 321 321 323 324 323 324 325 325 324 323 322 322 322 321 321 321 320 320 320 321 321 320 317 316 315 315 313 314 314 313 313 311 309 308 308 306 307 309 308 307 306 305 305 305 305
317 317 317 315 313 314 313 313 314 314 313 316 315 316 315 316 317 316 318 320 322 322 322 321 322 323 323 323 322 322 321 321 321 321 320 320 321 321 321 320 318 316 315 314 314 313 313 313 312 310 305 307 307 305 307 306 307 307 307 307 307 305 305
316 316 316 316 314 314 315 315 315 315 315 316 315 315 315 316 315 317 318 318 319 319 320 320 320 321 322 323 322 321 321 321 320 319 320 319 320 321 321 319 318 317 315 314 313 313 312 312 311 311 306 305 306 305 302 304 304 306 306 308 308 307 307
315 315 315 316 315 314 314 315 314 314 315 314 315 315 316 314 315 315 317 317 318 319 319 320 321 320 321 322 322 321 319 319 320 319 318 319 319 319 319 320 318 317 315 312 312 313 314 314 312 310 309 306 303 303 303 301 302 304 306 307 307 308 309
316 314 314 315 315 315 315 315 314 314 314 314 314 315 315 314 313 315 316 316 317 318 319 318 319 319 319 319 318 317 316 317 317 317 317 318 319 319 319 318 319 317 315 313 312 313 314 314 313 312 313 311 307 303 300 304 303 302 304 307 307 308 308
313 314 314 314 314 314 315 314 314 314 314 314 315 314 312 310 311 313 315 314 315 315 316 316 316 316 316 316 313 312 312 312 315 314 314 317 317 317 316 318 320 317 314 314 312 313 313 312 312 312 313 312 311 305 301 302 303 302 306 304 306 308 308
314 314 315 315 314 314 313 313 313 314 314 314 315 315 311 312 313 316 312 312 312 314 314 314 314 313 312 311 310 310 310 310 310 310 311 312 312 313 312 313 315 316 313 315 312 312 312 312 310 311 311 311 311 308 304 304 305 302 307 305 304 307 306
313 314 315 316 315 315 314 313 313 313 312 314 314 311 310 309 310 310 310 310 311 311 311 311 311 311 311 310 311 310 309 310 309 309 309 310 310 311 310 310 309 312 311 315 313 311 312 311 309 308 307 308 308 310 308 306 304 305 306 308 306 304 308
315 315 315 315 315 315 314 313 312 312 312 313 310 309 309 308 309 309 309 309 309 309 309 309 309 310 310 309 310 309 309 309 309 309 308 309 309 309 309 309 309 309 310 313 312 311 310 310 309 307 307 307 304 306 307 305 305 306 304 308 308 305 305
315 314 314 314 314 313 313 313 312 312 311 310 309 308 307 307 307 308 309 310 309 309 308 308 309 309 310 309 309 309 308 308 308 308 310 309 309 309 309 308 307 308 310 312 312 310 309 308 308 308 306 305 304 305 306 304 303 303 305 305 305 304 304
313 314 313 313 313 312 312 312 311 310 311 309 308 308 307 308 307 307 307 307 307 307 307 308 307 308 309 309 309 309 308 308 308 307 308 308 308 308 307 307 307 308 309 310 310 309 309 308 307 306 305 305 304 304 305 303 302 304 305 305 306 303 304
314 313 313 312 312 312 311 310 311 310 309 308 308 307 307 306 307 307 306 306 306 306 307 307 307 308 308 309 309 308 308 308 308 308 308 307 307 307 308 308 307 307 308 309 309 309 309 308 308 307 306 305 304 304 303 304 304 303 304 304 306 303 304
312 313 313 312 311 310 310 309 310 309 308 307 307 307 306 306 306 306 306 306 305 306 306 306 306 306 307 308 308 308 307 307 307 307 308 307 306 307 307 307 306 307 308 308 307 308 308 309 309 308 307 305 305 303 305 305 306 304 304 304 304 303 302
312 312 312 311 311 310 310 309 309 308 307 307 306 307 307 305 305 305 306 306 306 306 306 306 306 306 306 306 307 307 307 307 307 306 307 306 309 306 307 308 306 306 307 307 307 307 307 308 307 308 307 305 305 305 306 306 305 304 304 304 305 303 303
312 311 312 311 311 310 310 309 308 308 308 307 306 306 305 306 306 304 305 305 306 306 306 305 306 306 306 306 306 306 307 307 307 307 306 307 307 306 307 306 306 307 307 308 308 307 307 307 306 307 306 305 305 306 306 305 305 305 304 304 304 303 304
313 312 311 311 310 310 310 309 309 308 308 308 307 307 305 306 307 305 305 305 306 306 305 305 305 305 306 306 306 306 306 306 306 306 306 306 307 306 306 306 306 306 307 308 308 308 307 307 308 307 307 307 305 306 306 305 304 304 304 303 302 304 304
314 312 312 311 310 309 309 309 308 309 309 308 308 307 306 306 306 305 305 305 306 307 305 305 304 306 306 306 307 306 306 307 307 306 306 306 306 306 306 306 306 307 307 308 309 308 308 308 308 307 307 307 307 307 306 305 305 304 303 303 303 303 303
314 313 311 310 309 309 309 309 309 309 309 309 310 308 308 307 307 306 305 305 306 307 306 306 306 307 307 306 306 307 306 307 307 307 306 306 306 306 306 306 306 306 310 312 307 307 307 308 309 308 306 308 307 307 306 306 306 304 303 303 303 303 303
313 313 312 311 312 311 310 310 309 309 309 309 309 308 307 308 307 307 307 306 306 307 307 307 309 306 306 307 306 306 307 307 307 307 308 307 307 306 307 307 310 313 311 310 307 303 302 303 307 310 309 308 308 307 307 306 305 305 305 303 303 303 303
310 310 310 310 311 311 311 311 311 311 310 309 308 308 306 306 305 305 306 306 306 306 307 308 301 299 298 301 305 306 307 307 307 308 308 307 308 308 308 308 308 311 313 312 310 302 300 299 299 301 303 304 308 310 307 306 306 306 305 305 305 303 304
302 302 302 303 304 305 305 305 306 308 310 310 310 311 310 309 308 306 304 305 305 305 306 303 297 297 298 298 299 306 306 307 307 307 308 308 308 308 308 308 309 309 310 311 310 309 304 299 298 299 299 299 300 301 302 308 308 305 305 306 305 305 305
299 299 298 299 299 300 300 300 300 301 303 305 306 306 306 307 308 309 309 308 308 307 307 297 293 293 294 295 296 300 306 307 308 308 307 308 309 309 309 309 309 309 310 312 314 311 309 308 300 299 299 299 298 298 297 295 297 308 308 308 307 306 305
297 297 298 298 298 298 298 297 298 299 300 300 301 301 302 302 303 305 307 307 307 308 307 298 295 294 294 294 294 297 304 306 307 308 308 308 309 310 310 310 310 310 310 311 311 309 308 307 305 305 304 304 305 300 295 295 295 296 302 309 308 308 308
297 297 297 298 297 296 297 297 297 297 297 297 297 298 299 299 300 301 302 303 304 304 303 294 294 294 294 294 294 297 302 304 305 306 308 309 309 310 310 310 310 311 311 310 310 308 308 307 306 306 305 304 303 303 302 302 302 303 305 306 308 308 309
297 297 297 297 297 296 296 296 296 297 297 296 296 297 297 298 297 298 299 300 301 301 301 293 293 293 294 294 296 305 304 304 304 305 306 308 309 310 310 310 310 311 311 311 306 300 303 307 306 306 306 305 303 301 300 298 294 295 301 305 307 308 309
297 297 297 296 295 295 295 295 296 297 296 295 295 295 295 295 296 297 297 298 298 299 299 295 293 293 293 294 298 304 306 306 306 306 307 308 308 309 310 311 311 311 311 311 304 299 297 300 307 307 307 307 306 303 302 299 293 292 292 293 295 296 297
296 296 296 295 295 295 296 295 295 295 294 295 295 294 295 294 294 295 295 296 298 296 297 296 292 292 292 293 297 302 304 305 306 307 308 309 309 309 310 308 311 312 311 311 302 298 295 301 308 308 308 307 307 305 304 299 298 296 292 291 291 291 291
296 296 295 296 296 295 295 295 295 295 295 294 294 294 295 293 293 293 294 295 297 295 295 295 293 291 292 292 296 300 302 303 304 305 306 308 309 308 309 307 306 306 309 307 299 297 294 300 310 309 309 308 307 307 308 301 298 297 297 297 296 297 296
296 295 294 294 295 294 295 295 295 295 294 294 293 293 293 292 291 292 292 293 293 294 294 294 294 291 292 292 292 298 300 300 300 301 303 304 305 307 308 308 306 299 295 296 297 296 294 295 308 310 309 307 307 307 307 299 299 300 299 299 296 296 295
295 294 294 294 294 294 294 293 293 294 294 294 294 293 292 292 291 291 291 292 292 293 295 294 294 291 291 292 291 293 297 298 299 300 300 301 303 304 306 307 308 302 297 295 295 295 295 294 296 307 309 309 309 308 298 300 298 295 299 296 295 295 295
295 295 295 294 293 293 294 294 294 294 293 293 292 292 291 292 291 291 291 291 292 292 293 295 293 292 291 291 291 291 294 296 295 297 298 299 301 303 304 306 306 303 298 295 294 295 295 295 294 301 305 299 299 293 301 301 299 297 297 295 294 294 294
294 294 294 293 292 292 292 292 292 292 292 291 291 290 290 290 290 290 291 291 291 292 292 293 292 292 292 291 291 291 290 292 290 294 296 297 299 300 303 304 305 300 296 295 294 294 294 294 295 299 296 295 295 293 295 299 296 297 296 295 294 294 294
291 291 292 292 292 291 291 291 291 291 291 291 290 290 290 290 290 290 290 290 291 291 291 292 292 291 291 291 290 290 290 290 290 293 295 295 297 298 299 301 300 295 294 294 294 294 293 293 297 295 293 293 294 293 300 297 296 297 294 293 293 293 294

ECMWFFLT1_sfc_thetae_033.txt.gz
Theta_e
333 332 333 333 332 332 332 332 333 332 334 335 335 335 336 336 335 333 334 334 334 335 334 334 335 335 335 335 335 336 336 336 335 333 332 331 327 329 331 332 330 331 329 327 326 322 319 316 316 322 323 323 324 324 322 319 317 318 319 319 317 318 319
335 334 333 334 333 333 331 331 332 332 333 333 335 335 335 336 335 334 334 334 335 333 334 335 335 334 335 335 334 334 334 333 334 335 331 329 330 330 327 327 327 326 326 329 328 326 320 317 315 317 317 322 324 323 322 318 316 317 317 317 316 316 317
333 334 334 333 334 334 332 332 332 333 334 334 335 335 334 334 335 336 335 334 335 334 333 334 334 331 332 334 334 333 334 334 335 332 331 331 331 331 331 328 325 324 323 324 325 325 324 323 317 315 318 318 317 319 322 317 314 314 314 316 316 314 315
334 334 332 332 332 332 332 331 332 332 333 334 335 334 334 333 334 335 335 335 336 336 335 335 335 334 334 333 333 333 332 332 332 331 331 333 333 331 330 328 326 325 323 322 323 323 323 321 319 317 318 319 317 317 318 315 313 312 312 315 314 314 315
334 334 334 333 332 332 332 331 331 332 332 333 333 333 334 335 334 333 334 335 335 336 336 337 337 337 334 333 332 331 330 330 329 329 329 331 332 331 332 331 330 331 328 326 325 326 324 323 322 318 317 317 317 317 315 314 312 311 311 311 311 313 314
335 335 334 333 332 331 330 330 330 330 331 331 332 332 332 333 335 334 334 333 334 336 337 338 339 338 335 334 332 330 330 328 328 331 330 330 332 332 332 333 333 329 327 327 328 327 328 327 324 319 319 319 316 315 313 312 310 310 311 310 311 311 311
335 335 334 332 332 332 331 331 331 330 330 331 331 331 332 331 332 335 336 336 335 335 335 337 338 338 336 334 332 330 331 331 332 330 332 336 335 335 336 332 331 328 326 326 329 328 327 326 322 320 317 319 318 313 311 311 310 307 308 310 311 311 311
333 334 333 334 332 331 331 332 332 332 331 332 331 332 331 332 332 332 333 334 334 333 333 335 336 336 337 334 332 331 332 334 334 334 333 333 333 333 334 333 332 329 326 325 327 327 327 326 325 322 319 315 314 314 311 311 310 312 308 309 310 310 311
332 333 332 331 333 333 332 332 331 332 333 332 332 331 330 332 332 333 333 334 334 334 334 334 335 334 334 335 334 334 334 332 334 333 333 333 333 334 334 334 331 328 327 325 326 327 326 328 328 326 323 319 313 309 312 310 310 309 311 308 309 310 310
331 331 331 331 331 331 332 332 331 330 331 332 331 331 329 330 332 334 333 334 334 335 335 334 335 335 335 335 334 333 333 332 333 332 333 333 334 334 333 333 332 330 326 327 326 328 329 329 328 327 323 319 316 311 309 309 310 309 309 311 307 308 310
331 332 332 331 330 329 329 329 330 329 331 331 330 328 329 330 331 331 332 332 333 333 334 334 333 333 334 333 333 332 332 333 333 333 333 333 333 333 333 332 332 330 327 325 326 328 328 328 327 327 325 323 320 313 312 308 309 314 310 313 313 308 310
329 330 330 330 330 329 328 329 329 330 330 329 328 327 328 328 330 330 331 330 331 331 331 331 331 331 332 331 330 328 327 330 330 330 330 331 331 332 332 332 332 331 328 326 326 326 327 327 327 326 325 324 322 319 316 312 308 314 316 311 312 314 309
327 327 328 328 328 328 328 328 328 328 329 328 328 327 326 327 329 329 329 329 329 329 328 328 328 329 330 330 328 326 324 326 326 326 325 327 326 330 331 331 331 330 328 325 324 325 324 325 326 324 324 323 322 325 320 315 311 311 317 314 313 313 314
326 327 328 328 329 328 327 327 327 329 326 326 326 325 325 326 326 327 327 327 328 327 326 325 326 327 327 325 324 323 321 321 321 321 323 323 323 327 328 328 328 328 329 327 323 324 322 322 323 324 322 321 319 322 320 316 311 313 317 319 318 313 314
326 326 328 327 328 326 326 326 326 325 327 324 324 322 323 325 325 325 325 325 325 325 324 323 323 324 323 323 322 322 322 320 320 320 322 320 322 322 324 323 323 323 326 329 326 321 321 320 319 319 319 319 317 318 322 314 313 311 312 316 314 315 315
324 326 327 327 327 325 325 324 324 326 325 322 322 323 323 324 323 323 323 323 323 323 322 321 323 324 324 323 321 321 323 322 322 322 322 321 319 320 321 322 321 322 322 326 327 324 322 320 319 318 318 318 318 318 316 315 314 312 313 312 316 313 313
325 325 325 326 326 325 324 323 323 325 323 322 320 321 322 322 321 322 322 321 322 321 321 322 321 322 322 323 322 320 321 322 323 324 322 320 319 321 322 322 322 322 322 323 324 324 322 322 320 318 319 319 320 317 319 319 317 315 314 311 313 311 312
324 325 325 325 325 324 324 322 323 322 323 322 321 321 319 321 321 320 322 319 319 320 321 321 321 321 323 324 324 322 321 321 323 323 323 322 320 322 322 323 320 321 322 322 322 322 322 322 319 320 319 317 316 318 318 317 316 316 315 312 314 314 315
320 321 321 322 322 323 323 323 323 323 322 321 321 321 320 319 317 317 319 319 319 319 319 320 319 320 321 322 323 324 323 322 321 321 322 321 320 322 323 321 321 322 322 324 322 322 322 321 320 320 319 318 316 317 317 317 317 315 313 311 314 315 314
321 320 319 319 320 320 322 323 322 321 322 322 321 320 320 319 320 318 318 319 319 319 318 318 320 321 321 321 322 322 322 322 322 322 321 319 319 320 320 320 322 322 322 324 324 323 323 323 322 322 321 322 318 317 317 315 313 313 313 312 313 315 314
321 321 321 320 320 320 319 321 321 322 321 321 321 320 319 319 320 319 320 319 320 321 319 318 319 319 320 321 322 322 322 323 321 322 322 320 321 320 320 321 321 321 322 323 325 325 325 324 323 323 322 321 320 318 317 316 315 312 312 313 311 312 313
319 319 320 321 319 319 320 321 321 321 321 322 323 321 320 319 319 318 318 320 319 321 321 321 319 320 321 319 320 321 322 320 321 321 321 321 322 320 320 321 321 322 323 317 307 312 314 315 324 322 323 321 321 319 319 317 315 313 313 313 312 314 313
318 318 319 318 318 319 320 321 322 322 321 322 322 321 321 320 319 318 317 318 319 319 318 316 306 299 303 317 320 318 322 322 320 321 320 321 322 321 321 321 322 316 312 311 306 302 301 303 307 318 325 323 321 320 319 317 315 314 314 312 311 312 311
309 310 311 311 311 313 315 318 319 319 320 321 321 322 321 319 319 318 317 317 317 317 313 306 294 295 296 299 315 320 320 321 322 322 322 321 321 321 322 320 323 319 316 313 313 299 300 299 299 300 301 308 315 321 319 317 316 317 314 313 314 315 313
304 304 305 304 305 307 309 310 311 312 313 314 316 319 320 320 321 321 321 319 316 312 305 295 293 294 294 294 301 319 320 319 320 320 322 321 320 321 321 323 322 323 322 322 322 320 308 299 298 298 298 299 300 300 303 319 319 318 318 316 316 316 315
303 303 303 303 304 304 304 305 306 307 308 309 311 311 312 314 316 318 316 312 309 307 304 293 293 293 293 293 293 307 319 320 320 320 320 319 319 320 321 322 323 323 319 315 316 321 322 320 299 296 298 297 297 297 297 297 301 321 322 318 317 317 317
302 302 302 302 303 303 303 303 304 305 306 307 307 308 309 309 311 312 312 309 307 305 302 295 293 293 294 294 295 307 319 320 320 320 320 320 321 321 321 321 320 321 323 322 322 322 322 322 322 318 316 317 319 308 296 295 295 295 308 320 320 318 321
301 301 302 302 302 301 302 303 302 303 303 304 304 304 305 306 307 308 309 308 306 303 299 292 292 293 293 294 297 307 322 322 322 322 321 320 320 320 320 321 321 321 322 322 323 319 321 321 321 321 321 320 321 321 319 317 316 317 316 319 321 322 323
301 301 301 301 301 301 301 301 301 302 301 301 301 302 303 304 305 305 306 307 306 303 299 291 291 292 292 294 299 314 316 318 319 320 321 321 321 321 321 321 321 321 322 322 314 301 306 319 320 320 319 320 320 320 320 309 300 300 310 320 322 321 322
301 301 300 299 299 300 300 299 299 301 300 299 298 298 298 299 301 303 304 305 306 304 302 294 291 291 292 292 302 310 312 312 314 315 316 317 318 319 321 320 320 321 321 322 309 301 298 299 318 319 319 320 321 320 319 316 295 292 292 292 292 292 293
299 299 299 298 298 299 300 300 299 299 298 297 297 297 298 297 297 298 300 301 302 303 302 296 291 291 291 291 298 307 308 309 311 310 312 314 315 316 317 309 312 318 320 321 303 300 298 304 317 319 320 319 319 319 319 319 311 307 292 292 292 292 292
298 297 298 299 299 299 299 300 301 301 300 298 297 298 297 296 296 297 298 299 299 301 302 299 292 291 291 291 299 306 305 306 307 308 308 308 311 313 314 312 307 307 309 306 293 295 294 302 318 319 320 320 318 319 320 322 316 313 311 310 310 309 307
299 298 298 298 299 299 300 300 299 299 300 299 298 297 297 297 296 295 297 298 299 300 301 301 297 290 291 291 292 302 305 304 303 304 305 305 305 308 310 311 310 299 294 294 293 292 293 293 311 318 319 318 318 317 322 322 319 317 315 312 313 312 313
298 298 298 298 299 299 299 300 300 300 300 299 298 297 296 296 296 296 296 297 298 299 299 300 299 291 291 291 290 294 303 302 302 302 302 303 304 305 306 307 309 301 295 294 293 293 293 293 294 310 315 316 318 318 311 319 317 301 314 313 312 309 309
298 298 299 299 299 299 299 300 300 299 299 300 299 298 298 297 297 297 298 297 297 297 298 296 298 294 291 291 290 291 299 300 297 299 301 302 303 303 304 304 305 301 293 292 292 292 292 293 293 303 309 300 299 297 313 314 316 311 310 311 310 306 306
298 298 298 299 298 298 299 299 299 299 299 299 298 298 299 298 298 298 298 298 298 298 298 298 293 295 291 290 290 290 289 294 290 298 299 299 301 301 303 304 304 297 291 291 291 291 291 291 293 302 297 295 294 293 297 311 312 310 309 308 307 306 305
298 298 298 298 298 298 297 298 298 298 298 298 297 297 298 298 298 297 297 298 299 299 299 299 296 292 293 290 290 290 289 289 289 295 297 298 300 300 301 302 299 292 291 290 290 291 291 291 297 294 293 293 292 293 305 308 308 309 305 304 303 304 305

ECMWFFLT1_sfc_thetae_036.txt.gz
Theta_e
336 335 339 340 342 341 341 341 341 341 341 341 340 340 343 342 342 341 341 339 337 338 337 338 339 339 339 338 339 338 337 337 334 330 330 330 325 326 335 334 333 333 332 330 329 323 321 318 318 324 326 326 327 325 321 319 319 322 324 322 321 322 325
338 338 338 337 337 339 340 340 338 337 338 339 339 339 340 341 340 340 340 340 339 339 337 336 338 339 340 339 339 339 337 338 339 334 333 329 328 331 330 333 333 330 330 333 330 330 321 320 318 318 318 324 325 323 320 320 319 321 320 320 318 319 323
337 337 337 336 336 337 336 336 337 336 337 337 339 338 338 337 337 341 340 339 340 339 337 337 339 340 341 341 340 340 338 337 338 338 335 336 335 334 333 331 328 329 328 329 328 326 323 324 319 318 319 319 316 317 320 317 318 318 317 319 319 317 318
338 336 335 335 336 336 334 334 335 336 337 336 336 338 339 337 338 339 341 340 340 340 337 338 340 339 340 340 341 341 339 339 337 337 337 338 337 336 332 334 333 328 326 324 326 325 325 323 321 319 320 319 316 315 317 317 317 316 316 318 317 317 318
337 336 335 334 334 333 334 332 334 335 336 336 336 335 336 336 337 337 338 341 340 340 338 339 340 339 340 340 340 339 338 339 339 337 338 337 337 335 336 331 332 330 329 326 326 326 325 323 323 321 318 318 316 313 313 317 315 315 315 315 315 317 317
337 336 336 335 335 333 333 333 333 333 334 333 333 333 334 337 335 336 336 335 338 340 339 338 338 338 338 338 339 338 338 338 337 338 336 337 337 336 335 335 332 331 329 331 331 327 327 326 324 321 320 320 315 312 312 313 311 313 314 313 314 314 315
336 336 336 335 336 335 334 334 333 332 331 332 332 332 333 334 333 335 336 336 336 340 339 338 337 337 338 336 337 337 337 337 338 338 337 338 338 338 332 330 334 331 331 332 332 329 327 325 323 323 319 319 316 310 311 312 311 309 311 313 314 315 314
335 335 335 336 336 334 333 333 332 332 331 332 331 333 334 334 334 334 335 336 336 336 340 340 338 338 339 336 336 338 338 339 338 338 337 337 336 335 330 329 330 331 332 331 333 330 328 328 326 324 320 316 313 312 310 310 310 311 310 312 313 313 315
335 335 334 335 334 334 334 332 332 333 333 333 334 333 333 333 333 332 334 334 336 335 336 339 339 338 337 337 336 337 337 336 338 338 337 335 335 335 332 331 329 331 331 331 331 330 328 329 328 325 322 318 312 308 310 309 311 310 312 310 312 313 313
335 334 333 334 334 334 334 333 331 332 333 332 332 333 332 332 333 332 332 333 336 336 336 335 335 337 339 338 336 336 334 336 338 336 335 334 334 334 333 336 331 332 332 334 331 331 330 329 328 325 322 318 316 311 308 307 310 309 311 312 309 310 313
334 334 334 334 334 333 333 333 333 331 331 331 332 332 331 331 331 331 331 333 334 335 335 334 332 333 336 337 335 334 334 337 337 337 334 333 334 337 336 335 333 332 332 332 332 333 329 329 326 325 322 320 318 313 312 308 309 312 311 314 313 309 311
334 333 332 333 333 332 331 331 331 331 332 331 331 331 330 329 330 330 330 330 331 332 333 334 334 333 333 334 337 335 337 337 336 337 337 337 337 336 336 335 335 333 334 333 332 331 331 329 326 324 321 321 319 318 315 312 309 314 316 314 315 313 311
333 332 333 333 332 331 330 331 331 330 330 330 330 330 329 329 328 328 329 329 330 331 331 333 333 333 333 333 335 335 336 337 335 334 332 334 333 335 336 335 334 333 333 331 330 329 327 328 327 322 322 320 319 319 316 314 312 313 318 316 316 314 313
334 333 333 332 332 331 331 331 330 331 330 330 330 329 328 328 327 328 328 328 330 331 331 332 332 332 331 332 331 330 331 331 328 328 329 330 330 334 335 334 334 335 334 331 329 328 325 326 325 323 322 319 317 320 318 317 313 314 319 321 318 315 314
334 333 333 332 331 331 331 331 332 330 330 330 329 327 327 328 327 327 327 327 328 328 329 330 331 331 329 329 330 330 329 327 326 326 328 327 331 333 336 334 333 335 334 330 329 324 323 322 321 319 319 319 317 317 320 315 314 314 314 320 318 317 315
333 333 332 331 331 329 330 331 330 330 329 329 329 328 327 325 326 327 326 327 326 327 327 328 329 328 327 326 324 325 326 326 326 326 326 325 323 326 327 329 332 334 334 333 331 326 324 322 320 317 318 318 318 318 316 317 316 315 315 314 318 316 317
333 331 330 330 330 331 331 330 330 330 329 328 326 328 326 324 325 327 326 326 326 325 326 327 327 325 324 323 322 322 325 326 325 325 323 322 320 322 324 324 326 332 334 334 332 326 326 324 321 319 319 320 321 318 321 320 319 318 316 314 315 314 316
331 330 330 329 331 331 331 330 330 329 329 327 326 325 324 324 324 325 326 324 323 324 325 325 325 326 327 326 323 322 322 323 325 324 324 323 324 323 323 324 324 327 330 332 333 329 326 325 321 321 319 318 318 320 321 320 320 318 318 316 316 316 317
331 330 330 331 331 330 330 329 329 329 326 325 325 324 323 322 321 322 323 323 323 323 323 324 324 324 325 326 326 325 323 323 322 322 322 321 322 324 324 324 327 327 327 326 326 328 327 328 323 322 321 319 319 320 321 321 321 320 318 316 317 316 317
330 331 331 331 331 329 329 329 328 325 325 324 323 322 320 320 321 322 322 323 322 322 322 322 323 324 323 324 325 325 325 324 323 323 322 322 322 322 323 323 326 327 326 326 327 328 329 329 326 324 322 322 320 320 320 319 318 318 318 318 317 318 317
328 327 327 327 327 328 328 327 325 324 323 322 320 319 319 320 322 322 322 322 322 322 320 320 321 322 322 323 323 324 325 325 324 324 324 323 323 322 323 323 324 324 324 325 326 327 328 325 324 324 323 323 322 321 320 319 319 318 317 318 315 315 316
327 326 325 325 325 325 325 325 324 323 322 322 322 321 321 319 319 319 320 321 320 322 325 326 321 319 322 320 320 321 323 324 324 324 323 322 323 322 321 323 323 325 333 319 307 313 315 316 328 321 323 323 323 322 321 320 319 317 317 316 316 317 316
325 324 323 323 323 324 324 324 324 323 323 322 323 323 322 321 320 319 319 322 324 326 324 320 303 296 298 319 322 318 320 323 323 323 321 321 322 322 321 323 327 314 312 311 308 304 303 305 307 321 327 326 322 321 321 319 318 318 317 315 315 315 314
319 319 320 321 321 322 322 323 324 325 325 325 325 324 324 323 323 322 321 323 322 321 318 307 294 292 294 294 319 324 322 322 322 322 322 323 322 322 323 321 325 323 321 316 319 299 301 300 301 300 301 303 309 330 323 318 319 320 316 316 316 316 315
315 315 316 316 316 316 316 318 319 320 321 323 326 327 325 324 324 325 324 322 320 317 310 296 292 294 293 292 296 322 323 323 322 324 324 322 322 322 322 323 324 325 324 329 326 327 314 300 298 299 298 298 299 298 299 320 322 319 319 317 315 316 317
311 312 313 313 313 312 312 313 314 315 317 320 323 323 324 323 321 320 318 315 313 310 307 293 293 293 294 293 294 304 323 322 321 322 322 321 323 323 325 324 325 325 321 316 317 321 323 326 302 294 299 298 297 297 298 296 297 319 324 320 319 317 318
309 309 310 310 311 310 309 309 310 313 315 317 318 318 318 317 316 315 313 311 308 306 303 294 292 292 293 292 293 299 325 324 324 324 323 323 324 324 323 323 322 323 326 326 324 324 324 323 327 325 322 322 322 317 298 296 296 295 303 320 321 320 322
307 308 308 308 308 307 307 307 309 311 312 313 313 314 314 314 314 314 313 310 308 305 302 291 291 291 292 293 292 299 328 328 326 326 327 328 328 328 327 328 327 325 325 325 327 321 326 325 325 325 325 324 324 323 325 325 323 322 321 321 321 322 323
306 306 305 305 305 305 306 307 307 307 308 309 310 310 312 312 312 312 313 312 309 306 302 291 291 291 291 292 294 320 324 325 325 326 327 328 328 329 329 329 328 328 328 327 306 299 304 318 324 325 323 324 323 324 325 319 315 315 325 329 326 325 327
304 304 306 305 305 305 306 307 306 306 305 305 304 305 307 308 309 308 309 310 309 306 304 294 290 291 291 290 302 318 319 320 321 321 322 322 324 325 326 321 323 326 327 319 295 294 295 297 323 324 324 324 324 323 322 330 305 298 298 296 294 292 291
304 304 303 303 305 306 307 306 306 306 305 303 303 303 304 305 306 306 305 306 307 307 304 295 290 291 291 290 297 314 314 316 317 317 318 319 320 321 319 307 316 320 323 317 292 293 291 303 321 324 326 324 325 325 325 328 324 316 295 294 295 294 294
304 303 303 302 303 303 303 303 304 306 304 304 304 304 304 303 303 304 305 304 302 306 306 300 291 291 291 291 298 311 310 311 312 313 313 313 316 317 319 314 304 307 310 301 291 292 291 300 318 323 322 321 323 319 323 326 326 325 319 316 315 314 310
301 302 302 302 302 302 302 302 303 303 302 303 302 304 304 303 302 302 304 304 304 305 305 305 297 290 290 292 291 303 310 308 309 309 310 309 309 312 313 316 303 292 292 291 292 290 292 290 306 316 320 321 322 322 325 324 325 325 326 324 323 322 320
301 302 302 301 302 302 303 303 304 304 303 304 304 303 303 303 302 302 302 302 302 302 301 303 301 290 291 291 290 294 308 308 306 306 306 306 308 309 309 310 313 293 290 290 291 290 291 291 291 305 312 315 320 313 304 319 322 309 321 321 321 321 322
301 302 302 302 302 303 302 303 303 304 304 305 304 304 304 304 305 304 303 302 302 302 300 297 302 293 290 291 290 290 302 304 299 302 303 306 307 307 308 308 309 297 290 291 291 290 290 291 291 300 307 299 296 295 310 311 316 319 319 318 319 318 319
301 302 302 302 302 302 302 303 304 304 304 304 303 304 305 304 305 305 305 305 303 303 303 301 294 299 291 290 289 290 288 295 290 299 303 303 304 304 305 305 304 293 291 290 290 290 291 291 291 299 295 294 294 293 296 309 310 313 314 315 315 315 314
301 301 302 302 301 301 302 302 302 303 303 303 302 302 302 303 303 303 303 303 305 305 306 306 296 292 296 290 290 290 289 289 289 297 299 299 302 303 303 303 300 292 290 290 289 289 290 290 295 293 291 291 291 292 302 305 307 308 308 310 311 312 313

ECMWFFLT1_sfc_thetae_039.txt.gz
Theta_e
331 332 336 337 338 337 338 337 339 340 340 341 341 339 339 339 339 339 339 339 337 337 337 337 338 337 336 335 337 339 339 337 335 332 330 330 328 328 334 334 333 333 330 331 326 322 320 318 319 325 327 327 325 323 322 323 324 324 324 324 323 325 327
334 334 338 338 337 338 339 340 341 340 342 342 340 341 341 339 339 339 339 339 339 337 337 336 337 337 339 335 334 336 336 335 336 335 331 331 331 329 330 329 329 329 330 333 333 327 323 319 318 320 321 325 325 322 323 323 323 323 322 322 321 322 326
333 336 337 337 339 339 341 340 340 338 338 338 339 340 342 340 340 340 339 338 339 338 337 336 336 336 337 337 336 337 338 336 336 335 332 331 334 334 333 328 326 326 324 327 327 327 325 324 318 317 319 318 316 318 322 320 321 320 319 320 320 319 321
334 335 334 334 335 338 336 337 336 336 337 336 338 338 338 338 339 341 340 339 339 340 338 337 337 336 337 338 335 337 335 335 334 332 330 335 335 333 331 329 327 328 325 321 324 325 322 322 318 318 319 319 316 315 318 319 319 318 319 320 319 318 319
333 332 334 335 335 336 334 335 336 337 337 337 337 336 337 336 338 340 341 340 339 340 338 338 338 336 337 336 336 336 333 334 334 332 331 332 332 330 331 331 330 330 330 326 326 327 327 323 320 318 318 318 315 315 315 318 318 317 317 317 317 318 317
338 337 337 336 335 332 332 333 335 335 336 335 334 335 336 337 336 337 339 341 340 341 341 339 339 337 337 339 338 335 337 335 336 335 334 328 331 330 331 332 332 330 330 330 330 329 331 329 323 318 318 317 312 310 312 313 313 315 316 315 315 316 316
335 336 336 332 334 333 334 333 334 335 333 333 333 333 335 334 334 336 336 338 339 341 339 340 339 338 337 335 336 335 335 336 336 338 335 331 331 333 334 333 333 331 330 331 334 332 329 326 323 320 318 317 313 308 309 311 312 310 311 313 315 315 314
335 334 332 334 335 336 335 334 334 333 332 332 331 334 334 334 334 335 335 335 336 341 338 339 339 339 338 336 335 336 336 335 335 334 336 332 329 330 333 334 334 333 331 331 331 330 330 328 325 322 319 314 310 310 308 309 309 310 309 312 314 314 315
335 335 336 335 335 335 334 333 333 334 334 333 334 333 333 333 332 333 334 334 335 336 340 339 338 338 339 337 336 337 337 336 336 337 336 336 334 330 331 337 334 332 333 331 332 334 331 329 327 325 321 316 310 307 309 306 308 308 311 310 312 314 315
335 335 336 335 335 335 335 334 333 335 335 334 333 334 333 332 332 332 331 331 334 335 336 339 339 339 338 338 337 338 338 338 337 334 334 336 338 338 338 336 333 333 333 331 332 332 332 330 328 324 321 317 315 310 307 306 309 306 309 311 309 312 315
334 336 336 334 334 334 334 334 335 333 333 333 333 333 333 332 332 330 330 331 334 334 333 333 332 335 338 337 338 338 338 338 336 335 336 336 337 335 335 334 333 333 331 331 334 334 330 331 325 324 322 320 318 313 311 308 308 310 309 312 312 310 313
335 336 335 334 334 333 333 333 332 332 332 332 331 332 331 330 331 331 331 331 332 333 333 333 332 332 332 334 336 337 336 337 335 333 336 335 336 335 333 332 333 332 333 332 333 332 332 330 326 324 322 321 319 324 314 313 308 311 313 311 312 312 312
332 331 332 332 332 332 331 332 331 331 331 330 330 331 330 329 329 329 329 329 329 331 331 332 333 331 331 332 333 333 334 334 332 332 332 333 333 333 331 331 332 332 332 331 332 331 329 328 328 323 323 322 318 321 317 314 311 310 315 314 313 312 313
332 331 332 332 332 332 332 332 331 331 329 329 330 330 329 329 327 328 327 327 327 329 329 331 332 331 331 331 334 332 331 332 330 332 331 332 332 332 330 330 331 330 333 331 329 328 326 325 324 323 323 319 317 319 317 316 313 312 317 320 317 312 314
332 331 332 332 331 331 331 331 332 330 330 329 329 327 328 329 327 327 326 325 326 327 328 328 330 331 329 330 331 333 332 329 327 326 328 326 328 331 331 331 331 330 331 329 329 324 324 325 321 320 319 318 315 316 320 315 313 313 313 318 316 315 313
330 331 331 331 331 330 331 331 330 330 329 328 329 328 328 325 325 325 326 326 326 327 328 328 330 329 329 328 327 328 328 327 326 326 326 326 326 332 331 330 329 331 330 329 327 325 324 322 320 318 318 316 316 317 317 316 315 314 314 315 319 315 315
331 330 330 331 332 332 330 330 329 329 328 327 327 329 326 324 323 326 326 326 327 327 327 329 329 327 326 326 325 325 326 327 326 326 326 324 323 325 327 329 329 331 331 328 327 325 323 322 320 318 317 319 318 314 319 319 318 317 315 314 316 315 315
331 330 330 330 331 331 331 329 329 328 328 328 327 326 323 324 324 325 327 325 325 326 326 327 326 325 326 326 325 325 325 324 326 324 325 323 326 323 324 324 327 331 331 330 327 324 323 323 320 319 317 317 318 317 320 318 319 318 316 315 315 316 317
330 329 328 330 331 331 330 329 329 331 327 327 326 324 323 323 322 323 323 324 323 323 324 325 325 325 325 325 325 325 325 325 324 324 324 323 322 324 324 323 324 325 331 327 327 325 326 323 320 320 318 318 317 319 321 319 320 319 317 316 317 313 317
328 329 330 330 330 330 329 329 330 328 327 326 324 323 322 322 323 323 322 323 323 323 322 322 324 325 325 325 325 324 324 324 324 324 323 322 323 324 325 324 325 325 325 329 329 328 326 324 323 322 321 322 318 319 318 319 317 317 318 317 316 318 316
328 329 330 330 329 329 329 328 328 327 326 324 323 321 320 320 322 323 324 323 323 323 323 322 322 322 323 324 325 325 324 325 324 324 324 323 324 324 325 324 324 324 324 325 327 327 331 326 325 323 324 322 322 321 320 319 319 317 317 317 316 317 317
329 329 328 328 328 328 328 327 325 325 323 322 322 320 321 320 321 322 322 323 322 324 324 318 312 310 315 320 322 324 325 324 324 323 323 323 324 324 324 324 323 324 322 315 307 310 312 316 332 325 325 324 323 322 321 320 319 317 317 317 316 317 316
328 328 327 327 327 326 325 324 323 322 322 322 322 321 320 320 320 321 320 321 326 323 320 313 301 296 298 310 319 321 324 324 324 324 323 322 323 323 323 324 323 315 313 311 307 303 300 302 306 318 324 325 323 321 321 319 319 318 318 315 315 316 315
327 326 327 327 327 326 326 328 327 322 323 323 323 322 322 319 319 320 320 323 321 318 313 304 294 293 294 294 312 324 323 322 323 322 322 322 321 321 321 322 323 322 320 316 321 299 302 302 300 298 299 303 308 320 322 320 318 319 317 316 317 316 315
324 324 324 323 324 324 324 325 325 325 325 324 323 324 323 322 323 324 323 321 318 315 309 295 291 293 293 293 297 316 325 323 323 322 322 321 320 321 320 322 323 322 323 327 323 320 313 300 304 303 301 299 297 295 299 316 319 319 320 317 316 317 316
319 318 317 318 319 320 320 320 321 322 323 324 325 324 326 324 323 321 319 315 313 311 309 293 292 292 293 292 292 303 323 322 320 321 323 322 323 322 321 322 323 323 320 318 320 321 322 324 301 294 298 300 300 298 299 298 299 316 320 319 320 319 318
316 316 316 316 316 316 316 317 319 320 321 322 322 322 321 320 319 317 315 313 310 308 304 294 291 291 292 291 292 297 325 323 323 322 322 322 323 323 323 323 323 322 324 324 324 325 321 323 325 325 325 323 321 318 300 297 296 294 305 319 319 319 323
313 314 314 313 312 312 313 315 315 316 318 318 318 317 317 316 315 314 313 311 309 305 301 291 291 291 292 291 291 297 325 323 322 323 324 324 324 324 325 325 324 323 326 322 309 307 323 325 326 325 324 325 325 324 324 325 324 322 322 322 321 320 322
310 310 311 311 310 310 310 311 311 312 313 314 316 316 316 316 315 313 312 311 308 304 301 291 291 291 291 291 292 319 323 323 323 325 326 327 325 327 327 328 327 327 327 318 299 293 298 313 323 323 322 322 322 323 324 319 317 317 324 325 325 324 325
309 308 309 309 309 310 308 308 308 308 309 310 310 311 313 313 314 315 313 312 309 305 302 294 290 291 291 290 299 319 322 321 323 323 324 325 324 326 327 322 322 324 323 311 294 292 293 299 323 323 323 323 324 323 323 325 311 303 300 298 296 296 295
306 307 308 308 308 308 308 308 307 308 306 306 306 307 308 307 308 309 310 310 310 306 302 295 290 291 291 290 296 314 317 319 320 320 321 322 323 323 315 311 319 322 316 306 291 291 291 304 317 320 322 322 322 322 325 327 328 327 306 304 301 298 296
306 305 304 304 304 304 305 306 307 308 307 307 307 306 306 306 305 306 306 306 306 309 306 299 291 291 291 291 298 309 313 314 315 316 316 316 318 319 317 306 300 304 304 296 289 290 290 299 309 313 315 317 318 320 322 323 325 325 325 325 325 324 316
304 304 304 304 305 305 305 305 305 305 307 308 308 308 307 306 306 306 307 307 305 306 306 302 295 290 291 292 291 304 313 311 310 309 311 310 310 312 314 309 298 290 291 290 289 289 290 290 302 306 308 308 310 313 313 311 314 318 322 323 323 323 322
303 304 304 305 305 305 305 305 306 307 307 307 307 307 307 306 307 307 307 306 305 303 303 305 298 290 291 291 291 295 309 307 304 304 305 306 307 308 309 311 305 292 290 290 290 290 290 290 290 301 305 306 308 305 300 307 309 303 311 315 320 320 320
304 305 305 304 303 304 304 305 306 306 307 307 307 306 305 305 305 304 304 304 305 303 300 301 302 292 291 291 290 291 301 300 297 300 303 305 306 308 309 309 308 295 290 291 291 291 290 291 290 297 301 295 293 293 300 303 306 307 307 308 309 312 316
303 303 303 303 303 303 303 304 305 305 306 305 306 306 306 306 306 305 304 304 303 304 303 300 296 298 290 290 289 291 289 295 290 302 301 300 301 302 305 307 306 293 291 291 291 291 291 290 292 299 293 292 292 290 293 303 305 306 306 305 306 306 308
302 302 302 302 302 302 302 302 303 304 305 304 304 304 304 306 306 306 306 306 307 307 307 305 296 296 296 290 291 290 290 289 289 298 300 300 300 303 303 304 299 291 291 291 291 291 291 290 294 291 290 291 291 291 299 302 302 304 303 303 303 304 304

ECMWFFLT1_sfc_thetae_042.txt.gz
Theta_e
331 332 333 333 335 334 334 333 335 338 336 337 337 336 337 337 337 339 339 339 339 338 336 336 336 334 334 333 334 335 334 332 330 328 328 328 326 325 331 331 331 331 331 330 323 320 317 315 318 323 324 323 320 321 321 320 321 322 324 324 323 323 324
334 334 334 333 333 335 333 334 335 334 338 339 338 338 337 337 338 339 338 339 338 337 334 334 336 335 334 335 335 335 332 333 332 333 331 329 329 327 328 327 329 328 329 329 327 327 319 316 315 317 317 320 318 320 321 320 320 321 322 323 322 323 324
334 334 334 332 333 333 332 331 332 331 335 339 339 339 338 337 338 338 339 338 336 337 337 335 336 335 335 335 335 335 333 331 331 333 331 330 331 331 331 328 326 324 325 326 325 322 322 324 316 316 316 314 312 316 321 319 320 319 315 316 319 321 322
333 333 332 330 331 330 331 330 330 330 332 335 337 340 341 340 339 340 338 338 338 340 341 335 335 335 335 334 332 334 335 333 332 331 329 329 330 331 330 328 327 325 323 322 322 323 322 319 318 316 316 315 313 313 317 320 316 316 315 320 315 316 317
334 332 328 329 329 328 331 329 328 328 330 336 337 339 337 337 341 340 341 342 338 341 340 337 334 336 336 334 332 333 335 334 332 330 329 328 329 330 331 330 328 328 327 326 326 324 322 320 321 315 315 314 313 313 315 319 316 314 313 312 313 314 312
335 335 331 330 330 330 330 331 331 330 334 334 335 334 337 339 339 339 340 338 340 341 340 337 335 333 338 336 332 334 334 332 331 331 331 330 331 330 329 331 330 329 327 329 327 326 325 325 325 316 316 315 309 309 311 313 312 312 313 312 312 311 310
333 334 338 333 333 330 331 331 334 334 333 335 334 335 336 336 337 338 337 337 338 338 338 338 338 336 334 336 335 332 332 333 332 331 330 330 331 331 331 330 330 329 327 327 328 328 327 325 322 319 316 312 309 306 308 309 310 308 309 311 311 310 309
333 334 335 335 335 334 333 334 334 335 334 333 334 336 335 336 336 336 338 337 337 338 336 336 337 335 334 332 333 333 330 332 331 330 330 329 330 332 331 332 331 328 327 328 328 329 328 325 326 323 317 306 307 305 304 307 307 308 306 308 310 309 310
333 334 336 336 339 337 335 334 334 334 335 335 335 336 337 337 335 335 335 335 337 337 340 338 334 333 336 333 332 333 330 333 331 329 330 330 329 330 331 331 330 329 328 328 329 330 326 327 328 327 326 310 306 302 306 303 303 303 308 306 308 312 312
333 335 335 336 337 338 337 335 335 335 336 335 335 338 337 338 336 336 333 333 336 337 335 338 334 333 334 333 334 334 331 331 330 329 331 329 329 329 328 329 329 330 329 329 329 332 331 329 328 327 322 315 311 306 303 300 305 301 305 307 305 309 313
336 335 336 334 337 336 336 336 334 334 334 335 334 336 337 336 336 334 336 332 335 336 335 333 333 333 336 334 333 331 331 330 329 329 329 330 327 328 328 328 329 329 329 330 331 331 330 328 328 326 321 320 318 309 306 303 303 305 305 307 308 308 311
334 335 334 335 335 333 333 333 334 334 334 334 333 334 334 334 334 335 334 332 333 334 334 334 333 332 333 333 335 331 329 329 329 327 327 328 329 329 328 329 330 330 330 330 331 331 330 329 327 325 322 322 319 319 310 309 302 308 308 307 307 310 311
333 334 334 334 334 333 332 332 332 332 333 332 333 332 332 331 332 331 333 331 332 332 332 332 333 331 332 333 333 332 332 332 331 327 326 327 328 331 331 330 330 329 330 330 330 330 329 328 327 325 322 321 319 320 313 310 305 307 310 311 307 309 312
334 333 333 334 332 332 332 331 331 332 331 331 331 334 332 330 330 330 328 330 328 331 331 332 334 333 331 332 333 333 331 330 329 330 329 327 329 331 330 330 329 330 330 328 327 328 328 326 325 325 323 323 321 317 315 311 307 308 312 319 308 308 312
332 331 332 332 331 331 331 331 332 330 331 329 329 327 329 334 332 332 328 326 331 328 329 330 332 333 329 330 331 333 332 330 328 329 328 328 330 331 331 329 328 329 330 329 328 327 326 323 323 321 319 319 316 318 318 312 309 308 308 313 310 309 310
329 331 332 332 331 329 331 331 330 331 329 331 332 330 328 331 330 329 328 328 326 328 329 329 332 332 331 329 328 329 331 330 328 326 326 327 329 330 329 330 328 328 331 328 327 326 324 322 321 319 317 315 312 314 313 314 310 310 310 311 315 308 308
328 329 330 331 331 331 331 330 330 329 327 330 328 331 326 325 329 329 327 326 326 328 328 329 329 327 327 328 327 327 328 327 327 326 326 325 327 328 328 327 328 330 329 327 326 324 323 322 321 319 316 316 313 313 317 317 313 312 311 310 310 309 309
328 329 329 331 331 331 331 330 330 327 329 329 327 327 328 327 328 326 329 325 324 326 327 329 328 327 328 330 328 326 326 326 327 326 326 326 328 327 326 328 327 327 325 327 325 325 321 320 320 318 315 313 312 314 321 317 315 315 312 311 312 313 311
329 329 330 331 331 330 330 329 329 329 326 326 326 328 326 325 323 321 324 322 323 323 324 325 324 324 327 329 328 329 327 326 326 325 325 325 324 326 324 325 327 327 326 327 327 326 325 320 320 321 314 315 313 312 319 317 317 317 313 313 312 311 313
329 330 330 330 331 330 329 329 328 327 328 325 327 329 328 328 330 321 323 327 322 320 318 317 319 324 328 328 326 327 326 327 326 328 325 327 322 323 324 325 325 326 327 327 328 326 326 326 325 321 318 321 314 313 315 315 313 314 316 316 311 311 313
328 329 330 330 329 329 328 329 329 328 326 324 326 326 326 327 328 326 324 324 321 319 315 312 311 313 318 323 327 325 324 326 324 323 325 323 324 324 325 324 324 327 328 328 328 328 326 324 325 322 322 323 321 316 316 317 316 316 315 314 313 313 314
329 329 328 329 329 328 328 328 328 326 325 326 327 323 326 325 327 323 323 322 319 317 314 310 305 303 310 316 322 327 326 324 325 324 322 322 322 324 322 318 317 316 316 312 307 308 308 313 322 321 319 321 322 324 322 320 317 315 316 316 314 315 315
325 328 327 327 327 327 326 326 326 323 323 322 323 323 323 326 322 322 321 318 316 314 310 306 299 296 298 308 320 323 327 325 326 324 324 324 322 325 319 316 316 314 311 309 305 301 300 303 308 313 313 315 316 319 319 319 317 317 317 314 314 314 312
325 325 326 326 326 325 324 325 321 321 322 322 323 322 323 321 321 321 319 316 313 309 304 298 294 293 294 296 312 320 325 325 325 325 323 322 322 323 321 317 316 315 314 313 306 300 300 298 297 299 300 305 312 316 314 314 314 315 315 316 315 314 312
325 324 325 324 325 326 325 325 324 323 323 322 323 324 323 321 319 318 316 313 311 307 302 295 291 293 293 293 297 313 322 324 326 324 321 323 321 321 320 320 320 322 323 321 317 312 305 299 298 297 297 297 298 300 306 315 313 312 314 311 312 314 314
323 323 323 323 324 324 324 324 324 324 324 325 325 323 321 319 316 315 313 309 306 303 300 293 292 292 292 292 292 303 320 323 324 323 322 322 319 321 323 323 321 322 318 321 320 326 319 312 299 297 299 301 298 297 298 301 305 315 316 314 312 313 315
319 318 319 319 320 320 320 320 321 322 321 321 320 319 318 316 314 312 310 306 302 300 297 293 291 292 292 292 291 296 321 324 322 322 322 322 324 323 323 321 321 321 315 309 306 310 322 322 320 319 320 319 318 316 300 297 296 298 306 315 314 311 315
313 314 315 315 315 315 316 317 318 318 318 318 316 315 314 313 312 310 307 305 302 299 297 292 291 291 291 292 292 299 321 325 325 323 322 324 323 324 323 325 323 319 310 304 299 299 308 317 321 322 320 321 321 323 322 320 317 313 311 312 313 314 315
309 310 310 310 310 310 311 312 313 314 316 316 315 314 313 312 311 309 307 305 301 298 297 291 291 291 291 291 296 314 323 323 322 322 324 324 324 324 323 323 321 311 305 300 294 293 297 310 320 320 320 320 320 320 321 311 304 307 317 320 320 319 319
306 307 308 307 307 307 308 308 308 310 310 310 309 310 312 313 312 309 306 303 301 299 297 293 291 291 291 291 298 311 316 321 320 322 322 323 320 315 316 320 317 308 301 297 292 291 294 302 313 314 315 316 319 320 321 323 312 307 304 303 302 301 300
303 304 304 305 306 306 307 308 308 308 307 306 306 307 307 306 307 308 308 305 303 300 298 294 291 291 291 291 296 307 311 315 319 318 320 320 311 306 303 306 310 303 298 294 290 291 293 301 305 306 306 305 309 312 314 310 314 313 306 306 306 303 300
303 303 303 303 304 304 305 306 307 307 306 305 305 305 305 305 305 306 306 307 307 303 299 296 292 291 291 291 297 307 309 306 306 307 308 309 310 304 299 296 296 296 295 291 289 290 291 298 301 302 302 303 303 305 307 303 303 303 304 305 307 312 313
302 302 302 303 304 304 305 305 306 306 306 307 306 306 305 305 304 304 305 305 305 305 300 296 294 291 291 292 294 304 302 300 300 301 304 304 307 305 303 299 294 290 290 290 290 290 289 291 298 301 301 300 300 302 302 299 300 301 301 301 302 304 305
303 303 303 303 304 305 305 306 306 306 305 306 306 306 306 306 306 305 305 305 302 303 301 297 294 291 291 292 293 297 298 297 298 301 302 303 304 306 306 301 297 292 291 291 291 290 290 289 291 298 300 300 300 300 295 298 299 298 300 301 301 302 303
303 303 303 304 303 303 305 307 307 307 307 306 305 305 305 304 303 303 304 303 301 300 300 299 296 292 291 292 291 293 297 297 296 300 299 299 300 301 302 303 299 293 291 291 291 291 291 291 290 296 299 295 293 291 295 297 298 299 301 301 300 300 301
302 304 303 303 303 302 304 304 305 307 307 307 307 306 305 305 304 303 302 302 301 300 300 299 294 295 291 291 291 291 291 294 292 302 302 300 301 298 301 301 299 295 292 292 291 291 291 290 292 296 293 291 290 290 291 296 297 298 299 299 299 299 299
301 301 302 303 303 303 304 304 304 303 305 304 304 304 304 306 305 303 302 303 304 302 300 299 295 293 293 290 290 290 290 289 290 295 299 301 302 304 299 298 297 292 292 292 292 291 290 290 292 291 290 290 289 291 295 296 296 298 296 296 296 296 297

ECMWFFLT1_sfc_thetae_048.txt.gz
Theta_e
326 328 329 329 330 331 330 329 329 330 331 331 330 330 330 330 333 332 332 331 330 329 329 327 326 326 326 328 328 329 327 327 325 324 322 324 323 321 321 321 321 321 322 317 318 316 314 312 313 317 320 318 319 320 321 324 324 324 323 321 319 318 316
327 327 330 331 330 331 330 330 330 330 330 331 331 331 332 332 333 332 331 330 330 329 330 327 326 327 326 326 326 327 326 326 325 325 324 324 322 321 321 317 320 319 318 318 319 316 311 311 309 312 310 312 315 317 321 322 323 323 322 320 319 317 317
326 326 329 329 329 329 329 329 329 328 328 329 330 330 331 332 332 332 331 329 328 329 329 327 327 326 326 326 326 327 326 326 325 325 325 324 323 322 322 320 317 316 316 316 315 314 315 313 312 312 309 310 310 313 318 319 320 321 320 319 318 317 315
325 326 327 327 328 328 327 327 328 327 326 328 329 329 330 331 330 330 329 328 328 329 329 328 327 327 326 326 326 326 326 325 325 324 323 324 323 322 321 322 320 320 317 315 315 315 314 310 310 308 308 311 312 311 314 317 319 319 320 318 317 315 314
326 327 327 327 327 327 327 326 325 324 325 326 328 328 329 329 329 330 328 327 328 328 328 328 327 327 327 327 326 326 326 325 325 325 323 323 322 322 321 320 320 320 318 318 318 317 316 314 311 308 308 309 311 309 312 310 315 318 318 317 316 314 313
327 327 327 327 327 326 325 324 323 324 324 325 326 328 328 329 329 327 327 327 327 328 328 328 327 328 327 326 326 326 325 324 325 325 324 324 323 323 322 319 320 320 319 319 320 318 316 315 311 309 309 310 307 308 309 309 307 311 314 314 314 313 312
327 327 326 325 325 325 325 324 324 324 323 325 326 327 328 327 328 328 328 327 328 327 327 327 327 327 327 326 326 326 325 325 325 324 324 324 324 323 322 321 320 319 319 321 320 319 317 314 310 310 309 308 308 308 307 306 308 309 306 307 310 311 311
327 326 326 326 325 324 324 324 323 323 324 325 327 328 327 326 328 328 328 327 326 326 326 326 327 326 326 326 326 326 325 324 324 324 323 323 324 322 321 322 321 319 320 321 321 320 319 316 314 311 310 306 305 306 306 305 307 308 305 303 307 308 309
327 326 325 324 324 325 324 324 323 323 324 326 327 328 326 328 327 328 328 326 326 326 326 326 326 325 325 325 325 326 326 327 323 322 322 324 324 323 323 321 321 321 321 321 321 321 320 319 316 313 311 309 305 302 303 303 302 301 306 302 304 306 307
326 325 325 323 324 325 325 324 324 324 325 326 327 327 327 328 328 327 327 326 326 326 325 326 325 324 324 325 325 325 326 324 324 323 322 323 324 323 322 322 322 321 321 322 322 322 322 321 317 313 312 310 308 305 301 301 299 298 302 302 301 302 306
326 326 325 324 324 324 324 325 325 325 325 326 327 328 327 327 328 330 327 326 326 326 326 326 325 323 323 323 324 324 324 324 323 322 322 323 323 323 322 322 320 320 320 322 322 322 322 321 319 313 311 310 309 306 303 302 299 299 301 301 301 301 304
325 326 326 326 325 325 324 324 325 326 325 325 326 326 326 326 327 327 327 327 326 326 326 325 324 323 322 322 323 323 322 322 322 321 321 323 322 323 322 322 319 319 320 321 322 322 322 321 321 318 312 309 308 307 305 302 298 299 303 301 301 304 304
325 327 327 326 325 325 325 325 325 324 324 324 324 324 323 325 325 326 327 326 325 325 325 324 323 323 322 322 322 322 322 322 322 321 321 322 324 323 322 321 320 320 320 320 321 322 322 321 320 320 317 310 307 305 304 303 300 300 302 303 303 303 304
323 323 325 327 326 325 325 324 324 324 322 321 322 321 322 324 324 326 326 326 325 324 324 323 323 323 322 321 321 321 321 322 321 320 321 321 322 322 322 321 321 320 320 321 322 323 323 321 321 319 318 314 310 306 304 301 299 299 302 304 304 303 304
324 323 323 325 326 325 324 324 323 322 321 321 321 321 322 323 324 324 325 325 324 324 324 323 322 322 322 321 320 322 322 321 320 319 319 320 320 322 320 321 321 320 321 322 321 323 323 322 321 320 317 316 313 308 305 302 299 300 300 302 302 303 303
324 324 323 323 325 325 323 322 323 322 321 320 320 321 321 322 322 323 323 323 324 324 324 323 322 321 321 321 321 321 322 321 320 319 319 319 321 321 321 321 321 321 322 321 321 322 322 322 322 321 319 317 315 311 306 303 301 300 301 301 302 302 302
324 323 323 323 323 323 323 323 322 321 321 320 320 319 320 320 320 320 321 321 322 323 323 323 322 323 323 321 321 321 321 321 321 320 320 320 321 321 322 321 321 321 321 321 320 320 319 319 319 319 317 315 314 310 307 304 304 302 301 301 301 303 302
322 322 322 322 322 322 322 321 321 320 319 319 319 317 316 317 318 319 320 321 321 321 321 322 323 322 323 322 322 321 321 321 320 320 320 320 324 322 322 322 321 321 320 320 318 318 317 316 317 316 314 311 311 309 309 305 303 304 302 302 302 302 303
322 323 322 322 321 321 321 320 319 319 319 318 316 315 316 318 319 318 319 320 320 318 317 320 322 322 322 323 322 322 322 321 321 320 320 321 323 323 322 322 321 321 320 320 318 316 315 315 315 313 313 312 308 307 306 304 304 304 304 303 303 302 301
322 322 322 321 322 321 320 319 319 319 318 316 315 315 316 315 315 315 313 313 312 311 310 311 312 314 317 320 321 322 322 321 320 319 320 321 323 323 322 322 321 321 321 319 318 317 315 314 315 312 313 311 307 307 307 304 305 304 302 302 301 303 303
321 322 322 322 321 321 320 318 318 317 316 314 314 314 314 314 312 311 309 308 307 307 307 306 306 308 313 316 317 318 320 320 319 318 317 318 321 322 322 322 322 321 320 319 319 317 315 315 313 311 310 311 306 307 307 305 305 304 303 302 302 302 300
320 321 322 322 322 321 320 318 317 315 314 314 315 314 313 311 309 307 306 306 304 304 303 302 302 302 309 314 314 314 316 317 317 316 317 319 319 320 320 318 317 318 322 322 315 314 314 313 313 310 309 308 305 307 306 304 305 304 303 303 302 303 301
319 321 321 321 321 321 319 318 316 314 313 314 313 312 310 309 308 306 304 302 302 301 300 300 299 297 300 309 313 314 313 313 315 316 317 317 316 315 315 314 316 318 315 313 309 306 305 306 310 312 311 310 308 308 307 306 305 305 305 303 303 303 301
319 319 320 320 320 320 319 317 314 313 313 313 311 310 308 306 305 304 303 301 299 298 297 297 294 294 295 304 312 312 312 311 313 315 316 316 314 310 308 309 309 311 309 307 304 300 300 300 301 302 305 308 311 310 308 307 306 306 304 305 303 304 302
318 317 318 319 319 318 316 315 313 313 313 311 309 307 305 303 302 301 300 299 297 297 296 295 292 294 295 298 307 313 313 313 312 312 313 312 309 309 311 310 309 311 312 309 304 303 301 297 296 296 296 296 295 296 299 306 304 303 303 305 304 304 304
318 319 317 317 318 317 315 316 313 313 311 309 306 304 301 300 299 298 298 297 295 295 294 293 292 294 296 299 304 309 313 313 312 311 310 309 310 310 308 306 303 302 304 311 311 307 303 303 301 301 302 302 301 298 295 296 299 305 303 302 302 303 303
318 318 317 315 316 315 315 315 313 311 308 305 302 300 299 297 297 296 296 295 294 294 294 294 292 295 297 300 303 307 315 315 314 312 312 312 310 307 305 302 301 299 299 301 302 308 313 313 312 313 313 311 308 303 298 297 296 297 302 306 305 305 305
309 314 315 315 314 313 313 311 308 307 304 302 300 298 297 296 295 295 294 294 295 294 294 293 293 295 297 301 303 307 314 314 312 310 307 304 301 299 298 297 296 296 296 297 299 303 307 307 307 307 308 309 307 303 300 299 298 298 299 300 300 301 301
305 304 308 310 309 309 308 307 305 304 302 300 299 298 296 295 294 293 293 294 295 294 294 292 293 295 299 301 304 310 309 307 304 302 301 299 298 297 297 296 295 295 295 295 295 294 297 300 300 299 299 301 304 302 300 300 295 295 297 297 297 297 298
303 303 304 304 304 304 304 304 304 303 301 300 298 297 296 296 295 294 294 293 293 292 293 292 292 296 299 301 303 306 303 301 299 298 298 298 298 298 297 295 294 294 293 293 293 292 293 296 296 296 295 295 298 298 296 297 295 294 293 293 293 294 294
301 302 303 302 303 303 303 303 303 303 301 300 299 298 297 296 295 295 294 293 293 292 292 293 292 294 297 299 303 304 301 299 297 296 296 296 296 297 300 301 299 293 293 293 291 292 293 296 295 295 294 294 295 294 293 294 297 296 295 295 295 295 295
301 301 301 302 303 303 302 302 303 303 302 301 300 299 298 296 295 295 295 295 298 294 293 294 292 292 294 298 302 303 301 299 297 296 295 294 295 294 294 295 297 295 294 292 290 291 292 295 295 295 293 293 292 292 292 292 294 294 295 296 297 298 298
301 300 300 301 302 303 303 303 302 302 301 301 299 298 296 296 295 295 296 296 296 296 295 294 293 292 293 294 298 304 303 300 297 296 296 296 295 294 294 293 294 290 290 290 290 290 290 292 294 293 293 293 292 292 292 292 294 293 293 293 294 295 295
300 300 300 300 301 301 303 303 303 301 300 299 298 297 297 296 295 295 295 296 296 296 297 295 294 291 292 293 294 297 301 301 300 299 297 296 295 294 294 293 292 292 290 290 290 290 290 291 293 294 293 293 293 293 292 292 293 294 292 294 294 295 296
300 300 300 300 299 299 301 302 303 302 300 299 298 297 297 296 296 296 296 296 296 296 298 297 295 293 291 291 292 294 297 297 298 298 297 296 295 295 294 293 293 291 290 290 290 290 290 291 292 295 292 290 289 290 293 293 292 292 293 294 294 295 296
299 299 299 299 298 298 299 299 300 302 301 300 298 297 297 297 296 296 296 296 297 297 297 297 294 295 292 291 291 291 293 295 294 299 297 295 295 295 295 294 295 292 290 290 290 290 291 291 293 291 289 289 289 289 291 293 293 295 295 295 295 295 294
298 298 298 298 298 297 298 298 299 299 300 300 299 298 297 297 296 296 295 295 296 296 296 296 294 293 293 291 291 290 290 291 293 297 297 296 295 295 294 294 293 290 290 291 291 291 291 291 292 290 290 290 290 291 294 294 294 294 293 292 293 292 292

ECMWFFLT1_sfc_thetae_051.txt.gz
Theta_e
327 327 328 329 331 332 331 330 329 329 329 329 329 329 330 331 329 328 328 328 328 328 329 327 326 326 326 328 328 327 326 325 325 324 324 324 322 321 322 322 321 319 322 319 319 318 316 314 314 317 319 320 322 321 321 323 323 323 322 319 318 317 315
325 326 329 329 329 331 330 329 328 329 329 329 329 329 329 330 331 330 329 328 328 328 329 327 326 326 326 326 327 327 325 324 324 324 325 324 323 321 320 315 317 317 317 315 319 317 312 312 311 313 311 313 315 315 320 321 322 322 321 318 318 317 317
324 325 329 328 328 330 329 328 328 328 329 329 328 328 328 329 330 331 330 328 327 328 329 326 326 326 325 326 327 327 326 324 324 324 324 324 324 321 321 317 313 313 314 314 314 313 313 311 312 313 311 312 311 311 317 319 320 319 318 318 317 315 313
324 326 327 327 328 328 328 328 328 327 329 329 328 327 328 329 329 331 329 328 328 329 328 325 325 326 325 325 326 326 326 325 324 323 322 322 323 321 320 320 319 318 317 314 314 314 313 308 310 308 308 312 312 311 314 317 319 318 318 315 315 313 312
324 325 327 327 327 327 327 327 328 328 328 328 327 326 326 327 329 330 330 328 327 327 327 326 325 326 325 325 324 325 326 325 324 324 322 322 321 321 320 319 319 320 318 318 317 317 315 312 314 310 309 309 312 309 313 313 317 317 316 315 314 313 311
325 326 327 327 328 328 328 327 327 327 327 327 327 327 326 326 328 328 327 326 325 326 326 325 325 325 325 325 324 324 325 324 324 324 323 322 322 322 322 318 318 319 319 317 319 317 314 313 312 308 308 311 308 307 309 314 311 309 311 314 313 312 310
325 327 328 328 328 328 328 327 327 328 327 328 328 327 327 327 327 327 327 326 326 326 326 326 325 325 325 325 324 324 324 324 324 323 323 323 322 322 322 320 319 319 317 318 319 317 313 311 309 310 308 306 309 308 306 307 309 312 308 308 310 310 310
326 327 326 327 328 328 328 327 327 328 328 328 327 327 325 326 326 326 326 325 325 325 325 325 325 325 325 325 324 324 324 323 324 323 322 323 323 321 320 321 320 318 317 318 319 318 315 313 312 310 310 307 304 305 305 304 308 312 308 303 307 308 308
327 326 324 324 326 328 327 327 326 326 327 326 326 325 324 326 325 326 326 326 325 325 325 325 325 325 325 325 325 325 324 325 323 323 322 322 323 322 321 319 319 319 319 319 319 318 315 313 313 312 312 311 307 303 302 303 306 308 306 304 303 307 308
324 324 324 324 324 325 325 325 324 324 324 324 325 325 324 324 325 326 326 326 325 325 324 324 324 324 325 325 325 325 325 324 323 323 322 322 323 322 320 320 320 319 319 319 319 318 316 314 313 312 313 312 311 305 301 300 303 304 303 301 306 305 307
323 323 323 323 323 323 322 323 321 321 322 324 326 326 324 324 324 328 325 325 324 323 323 323 324 324 324 324 324 326 327 324 323 321 321 322 322 322 320 320 319 318 319 319 319 319 317 315 312 311 310 310 310 307 303 302 301 301 304 303 302 305 304
322 323 324 324 323 323 323 322 322 322 323 323 325 325 324 324 324 325 325 324 323 323 323 323 324 324 324 322 323 326 326 324 323 321 320 321 321 322 320 320 318 319 318 319 319 319 318 316 312 311 310 310 310 309 306 302 299 301 305 306 302 302 304
323 324 323 323 324 324 323 322 323 322 323 324 324 325 325 324 324 324 324 323 322 322 323 322 323 323 322 322 323 324 325 325 323 321 320 320 322 321 321 320 318 318 318 318 319 319 318 318 314 312 310 309 307 306 306 304 302 303 301 306 304 301 304
322 322 323 323 323 323 324 323 323 324 323 323 324 324 324 325 325 324 324 323 322 322 322 321 322 321 321 322 323 324 324 324 322 319 322 321 322 321 321 320 319 318 318 319 319 319 319 318 317 314 311 308 306 305 305 303 302 299 300 301 302 301 302
322 322 322 322 322 322 323 322 322 322 322 323 323 324 323 324 324 324 323 322 322 322 322 321 320 320 320 321 322 324 323 323 321 319 321 322 322 323 320 320 320 318 319 319 318 320 320 319 319 317 312 308 306 305 306 304 300 299 299 301 300 301 301
322 321 321 321 322 322 323 323 323 321 322 321 321 323 322 323 324 324 323 322 321 320 321 321 320 320 320 321 322 323 323 322 320 320 320 321 323 322 319 319 319 318 319 318 318 320 320 320 319 319 316 312 307 305 304 303 300 298 299 299 299 300 301
321 321 321 321 321 321 322 322 322 321 321 320 320 320 321 322 323 323 323 322 320 319 319 320 319 320 320 320 321 321 321 320 319 319 320 320 321 321 320 319 319 319 318 318 317 318 319 320 319 318 317 315 311 307 303 302 303 301 299 300 299 301 301
320 321 321 321 321 321 321 322 322 321 320 319 319 319 319 321 322 322 322 322 321 320 320 320 320 319 319 320 320 320 320 320 319 319 319 320 322 320 320 320 320 319 318 318 315 317 318 318 319 317 317 316 314 312 307 303 302 301 300 301 300 300 300
319 320 320 321 321 321 321 321 321 321 320 319 317 318 319 319 321 321 321 321 321 320 320 320 321 320 320 319 319 319 320 320 319 319 319 319 321 320 320 320 320 320 319 319 318 316 316 317 316 316 316 315 315 311 308 304 302 302 301 301 301 299 298
320 319 320 320 320 321 321 320 321 320 320 319 317 316 316 317 318 319 319 319 319 318 318 319 319 319 319 319 319 319 318 318 318 318 318 319 320 320 321 321 320 320 320 320 318 317 316 315 315 315 315 314 311 309 307 305 302 301 301 300 299 300 299
319 319 319 320 320 321 321 320 320 320 319 317 315 315 316 316 314 314 313 313 309 310 311 312 313 316 318 319 318 318 318 318 318 317 317 317 319 320 321 320 320 320 320 320 319 317 317 316 314 313 313 313 309 307 306 303 301 301 299 299 299 298 298
319 319 319 320 320 320 320 320 320 319 317 315 314 314 315 313 311 309 307 306 305 305 307 307 307 312 316 317 317 317 318 318 317 317 316 316 316 317 317 316 317 318 320 321 315 314 315 316 316 314 311 312 309 308 305 302 302 300 299 299 298 299 298
318 319 319 319 319 320 319 319 318 318 316 314 313 313 311 310 310 308 306 303 302 302 301 301 302 301 307 316 316 318 317 317 317 316 315 315 312 311 311 310 314 318 317 313 307 303 303 307 312 315 313 310 307 307 305 303 301 301 300 299 299 299 298
317 318 319 319 318 318 318 317 317 316 313 312 312 311 310 308 306 306 305 303 300 299 298 298 296 295 297 303 314 314 315 315 315 315 315 315 311 308 308 308 307 311 309 308 304 299 297 296 297 297 299 304 308 307 305 303 302 301 301 301 299 299 298
317 316 316 317 317 317 316 315 314 313 312 311 310 308 307 305 303 302 301 300 298 297 297 296 292 295 296 300 306 312 312 313 313 313 314 312 309 308 307 307 307 309 307 305 305 305 303 298 296 296 295 295 294 295 299 304 303 302 302 302 301 300 299
315 316 316 317 317 316 314 313 311 311 310 309 306 305 303 302 300 299 299 298 296 296 295 295 292 295 297 300 302 308 310 310 311 310 310 309 308 306 305 304 303 303 308 312 309 305 306 305 300 298 298 297 296 294 293 294 298 303 304 305 303 300 299
306 308 315 316 316 313 312 311 309 307 306 305 302 300 299 298 297 297 297 296 295 296 295 295 292 296 298 298 301 305 310 310 309 309 309 307 305 304 303 304 303 302 302 305 308 310 311 310 308 305 301 299 297 297 295 294 294 296 302 305 304 301 301
304 305 305 311 313 312 311 307 305 304 302 301 299 297 296 295 296 296 295 295 296 295 295 292 293 298 297 299 301 304 309 306 302 300 298 298 298 298 298 299 299 298 298 300 303 308 310 308 306 304 300 298 296 295 295 295 296 297 298 298 298 299 300
303 303 303 304 307 309 307 305 302 301 299 298 298 296 295 295 294 294 294 295 294 294 294 292 295 298 297 299 301 306 303 300 298 297 296 296 296 295 295 295 295 295 295 295 296 297 301 305 304 301 298 296 295 295 296 296 293 294 296 296 296 297 296
302 302 302 302 301 302 302 301 301 300 298 297 297 296 294 294 294 294 294 294 293 293 294 293 293 295 296 297 300 302 300 299 297 297 296 296 296 296 295 294 293 293 293 293 293 292 294 297 297 297 296 294 295 295 295 296 294 293 293 293 293 293 293
301 301 301 301 301 301 301 301 300 300 297 296 295 295 295 295 295 296 295 294 294 294 294 293 292 293 294 295 299 300 299 297 296 295 294 294 295 296 299 300 298 293 292 293 291 292 293 295 294 294 294 293 294 294 293 294 296 296 294 294 294 294 294
301 301 301 301 301 300 300 300 300 299 298 297 296 296 296 296 296 296 296 296 298 295 293 294 292 292 292 293 298 299 298 296 294 293 293 293 293 293 293 295 296 295 294 292 291 291 292 294 293 293 293 294 294 293 291 291 293 295 295 296 296 297 297
299 300 300 300 301 300 300 299 298 298 297 297 296 296 296 296 295 295 296 296 296 296 294 293 293 292 293 293 295 301 299 297 295 294 294 294 293 293 293 293 294 290 290 290 290 291 291 292 293 293 294 294 294 293 291 292 294 294 294 294 294 295 295
298 299 300 300 301 301 300 300 299 298 297 297 297 296 296 296 296 296 296 296 296 297 297 294 293 292 292 293 293 296 299 298 296 296 294 294 293 293 293 293 292 291 290 290 291 291 292 292 294 295 294 293 292 292 291 293 295 296 294 294 294 294 294
299 299 299 300 300 300 300 301 300 299 298 297 296 296 296 296 296 296 296 296 296 295 297 297 294 292 292 292 292 293 296 296 296 296 295 294 294 294 293 293 292 291 290 291 291 291 291 292 292 294 291 289 289 291 294 294 294 294 294 293 292 293 293
298 299 298 299 299 299 300 300 300 300 299 298 297 296 296 296 295 295 295 295 295 296 295 295 293 293 291 291 291 291 291 292 293 297 295 294 294 294 294 294 294 292 290 291 291 291 292 292 293 291 290 290 291 292 293 293 292 292 292 292 292 291 291
297 298 298 298 298 297 298 299 299 299 299 298 297 296 296 296 295 294 294 294 294 295 295 295 293 292 292 290 290 290 290 290 291 295 296 295 294 294 294 293 292 291 291 291 290 290 290 291 291 290 291 291 291 292 293 292 292 292 291 290 290 290 290

ECMWFFLT1_sfc_thetae_054.txt.gz
Theta_e
326 327 328 328 328 330 331 330 329 329 330 330 329 330 330 331 330 328 329 329 328 328 328 327 327 328 328 329 328 327 326 326 326 325 324 324 322 323 324 322 323 320 324 321 322 319 317 314 315 319 322 323 324 325 324 325 326 327 325 322 321 320 320
327 327 328 328 327 329 330 330 329 328 329 329 329 329 331 331 331 329 328 328 328 328 329 328 328 328 327 327 327 326 325 325 326 326 325 324 324 323 320 320 319 319 320 318 321 319 317 315 314 317 315 318 320 321 322 325 326 327 325 322 322 320 320
325 325 326 326 326 327 328 328 329 328 328 328 328 330 330 331 331 330 329 328 328 328 330 328 327 327 327 327 328 328 326 325 326 326 325 326 326 324 324 321 318 317 318 318 318 317 317 317 316 316 316 316 316 316 321 323 324 325 323 322 322 319 317
323 323 323 323 324 326 327 327 328 328 329 328 329 329 329 331 331 331 330 329 328 329 329 327 327 327 326 327 328 328 327 326 325 325 325 325 326 324 322 322 321 320 319 317 317 318 318 314 316 315 315 318 317 316 319 322 323 322 321 320 319 317 316
323 323 322 321 324 325 326 327 328 328 328 329 329 328 328 329 330 331 331 330 328 329 328 327 327 327 326 327 328 328 327 326 325 325 324 324 324 324 323 322 322 322 321 321 320 320 319 318 318 316 315 314 315 313 317 320 320 320 320 319 318 317 315
323 323 323 323 325 326 326 326 327 327 328 327 328 328 328 328 329 329 330 329 329 329 329 327 326 326 326 326 326 327 328 327 326 325 324 324 325 324 323 323 322 321 322 322 321 321 319 319 318 315 312 316 312 312 316 319 317 314 318 319 317 316 314
323 323 323 324 325 326 326 327 327 328 328 328 328 328 329 329 329 330 331 330 330 329 329 329 327 326 326 325 325 326 327 328 328 326 325 325 325 325 325 323 321 321 322 321 321 320 317 317 316 315 313 311 314 312 310 317 313 318 316 314 315 315 314
324 324 324 325 326 326 327 327 328 329 329 329 329 330 330 329 329 328 329 329 329 328 328 328 327 326 326 326 325 324 325 326 327 326 326 324 323 323 324 324 322 321 321 321 321 320 319 319 318 316 315 311 309 312 313 310 313 317 317 309 312 314 314
325 325 325 325 326 327 326 327 328 329 329 330 330 329 328 329 328 327 327 327 327 327 327 327 327 326 326 325 325 324 324 326 326 326 326 325 324 324 324 323 322 322 321 321 321 321 318 319 319 318 318 316 312 308 308 313 313 315 312 314 309 312 313
324 325 325 325 325 326 327 328 328 328 329 329 328 327 326 327 327 327 327 327 326 325 325 326 326 326 326 326 326 325 325 325 326 325 325 324 325 324 323 322 323 322 321 322 322 321 318 318 318 318 319 317 317 312 308 311 312 314 314 312 312 312 312
324 325 325 325 325 325 326 327 327 327 327 328 328 327 326 325 325 329 326 325 325 325 325 326 326 326 326 326 326 327 327 326 325 325 324 324 324 323 323 322 322 322 322 322 322 321 317 317 317 317 318 319 318 314 312 311 311 313 314 309 312 313 309
323 323 324 324 323 324 325 326 326 326 326 326 326 326 325 324 324 324 325 325 325 325 325 325 326 326 327 326 326 326 327 325 324 323 323 324 324 324 323 323 322 322 321 321 321 321 318 316 316 316 317 316 316 317 314 313 310 311 314 312 309 309 310
324 323 323 324 323 324 325 325 325 325 324 324 324 324 324 324 323 323 324 324 324 324 323 324 325 326 326 326 325 326 326 326 324 323 323 323 324 324 323 323 321 322 321 321 321 321 319 317 316 315 315 315 314 313 313 311 310 310 309 314 313 307 309
323 323 323 324 324 325 325 325 324 324 323 322 323 323 323 324 324 324 324 323 323 323 323 323 324 325 325 325 325 326 326 326 325 324 324 322 324 323 323 323 322 321 321 322 321 321 320 318 315 315 314 313 312 311 311 310 308 305 305 307 310 306 306
322 321 323 324 324 324 324 324 324 323 322 323 323 323 324 324 324 324 324 323 323 323 323 324 324 325 324 324 324 326 325 326 325 324 324 323 323 324 323 323 322 321 321 322 321 321 320 318 317 314 313 312 311 310 312 309 307 306 305 305 306 304 305
321 322 322 322 322 323 323 323 323 323 322 321 321 323 323 323 324 324 324 323 323 323 324 324 323 324 324 324 323 324 325 325 325 323 322 323 324 324 323 322 322 320 320 321 321 322 321 320 318 315 313 312 311 309 309 310 308 306 304 304 305 304 305
321 322 321 321 322 322 322 322 323 322 322 320 321 320 322 323 323 323 323 322 323 323 323 323 322 323 323 323 324 324 325 325 325 324 323 323 324 324 323 323 322 320 320 320 320 321 321 321 320 317 315 313 312 309 309 309 311 308 305 304 303 304 304
320 320 320 320 321 322 321 322 321 322 320 320 320 319 319 321 322 323 323 322 322 322 323 322 321 321 322 323 324 325 324 324 324 323 323 324 325 324 324 324 323 321 320 320 319 320 321 321 321 320 317 315 312 311 309 308 308 307 305 305 305 304 305
320 320 319 319 320 321 322 321 321 320 320 319 318 318 318 319 322 322 323 322 322 322 321 321 321 321 321 321 323 324 324 324 323 323 323 323 324 324 325 324 323 322 321 321 320 320 321 322 321 320 320 317 314 313 310 308 307 307 307 306 306 304 304
321 320 319 319 319 320 320 320 320 320 320 319 318 317 318 319 320 322 322 322 321 321 321 321 321 320 320 320 321 321 322 322 322 321 321 322 322 323 324 324 324 322 322 322 321 320 320 321 321 321 320 320 318 315 312 309 306 305 306 305 305 306 305
317 320 320 319 319 320 320 320 320 320 320 318 318 318 318 318 319 320 320 320 320 319 319 319 318 319 320 320 320 320 321 321 321 321 320 320 321 322 322 323 323 322 323 323 322 321 321 321 321 321 320 320 318 316 314 312 307 305 305 305 305 304 304
314 319 320 319 319 319 319 319 319 319 319 318 318 318 318 318 317 316 314 314 313 314 316 317 317 318 319 319 319 319 319 320 320 320 320 320 319 320 321 321 321 322 323 321 315 315 316 317 320 320 319 318 317 316 315 312 310 306 306 305 304 304 304
310 315 319 318 318 318 319 318 318 318 318 317 316 316 315 315 316 314 312 309 308 308 309 308 309 308 311 319 319 320 319 319 320 320 319 318 318 319 319 319 321 319 316 313 308 304 305 307 311 317 319 316 314 311 311 311 308 307 306 304 304 304 303
308 310 315 318 317 317 318 318 317 316 316 314 314 314 314 313 313 312 311 309 307 305 303 302 298 296 298 303 317 319 319 318 319 318 318 318 317 316 313 313 316 317 314 309 304 297 296 298 301 302 307 310 314 314 311 309 309 307 306 305 304 303 304
306 308 309 312 317 317 316 316 315 314 312 312 312 311 311 311 309 308 308 307 306 303 300 297 292 294 295 296 302 317 318 318 317 317 317 317 315 314 311 310 310 311 310 308 306 303 300 295 294 294 295 296 297 300 304 310 310 306 306 305 303 303 304
304 306 306 308 313 316 315 315 313 312 311 310 309 308 305 305 303 303 304 303 301 300 299 295 292 293 295 296 296 306 315 316 316 316 315 313 312 311 309 309 309 310 309 312 309 304 303 300 297 295 296 296 295 293 291 293 298 309 308 307 305 304 304
303 304 305 306 309 313 314 311 308 307 306 306 304 302 300 299 300 300 300 299 298 297 297 295 293 297 298 296 297 304 312 313 312 312 311 310 309 308 308 308 307 307 309 309 308 307 306 305 304 302 300 299 299 298 296 295 294 296 303 308 308 308 307
302 303 303 304 304 305 304 304 303 301 301 300 299 298 297 297 297 298 298 298 298 297 298 293 294 294 295 297 299 302 308 306 304 303 302 303 303 304 306 307 307 307 307 309 310 308 305 302 300 299 298 298 298 298 297 297 299 301 302 303 304 303 303
301 301 301 301 301 301 301 300 300 300 299 298 297 297 296 296 295 295 296 297 298 297 297 293 294 295 296 296 298 304 303 302 300 299 298 298 298 299 300 303 305 306 307 308 303 299 300 301 300 299 298 298 298 299 298 297 294 295 298 300 300 300 299
300 300 300 299 298 298 298 298 298 299 297 297 296 296 296 296 296 296 296 296 296 296 296 293 292 293 294 296 299 302 300 299 298 298 297 298 298 298 298 298 300 302 303 304 298 296 296 298 300 299 298 298 298 297 297 299 296 294 293 293 293 293 293
299 299 299 298 298 298 298 298 298 298 296 296 295 296 297 297 297 297 297 296 296 295 295 294 292 293 294 295 298 301 300 298 297 296 296 297 298 299 301 300 299 298 298 297 293 293 293 298 299 299 298 298 298 297 297 298 299 298 295 295 294 294 294
299 299 299 298 298 297 297 297 298 298 298 297 297 297 297 296 296 297 297 297 298 295 295 295 293 293 294 295 298 300 299 297 296 295 295 295 295 295 295 296 297 297 297 294 291 292 293 297 299 299 300 299 297 296 296 297 299 299 299 299 299 299 298
299 299 298 299 299 298 299 298 298 297 297 297 297 297 297 296 295 295 296 296 295 295 294 294 294 292 293 294 296 299 299 297 295 295 295 295 295 295 295 295 294 290 290 290 290 290 291 293 298 300 300 299 297 295 296 298 298 298 297 296 296 297 296
298 299 299 299 299 299 299 298 298 298 297 297 297 296 296 296 296 295 295 295 295 295 295 293 292 291 292 293 294 296 297 296 296 295 295 294 295 294 294 294 294 292 291 291 291 291 292 292 294 299 300 299 298 297 296 297 296 295 296 296 296 295 295
298 298 299 299 298 298 299 299 299 298 298 297 296 296 296 296 295 295 295 295 295 295 296 295 293 291 291 292 293 294 296 296 296 296 295 295 295 294 294 294 294 292 290 291 291 291 292 292 293 296 294 291 291 292 297 296 296 296 295 295 294 294 294
296 297 298 299 298 298 299 299 299 299 298 297 296 295 295 295 295 295 294 295 295 295 295 295 293 293 291 291 291 292 293 294 293 297 295 294 293 293 294 293 294 292 290 290 291 291 291 292 293 293 290 290 290 291 293 295 294 294 293 293 293 292 291
295 295 296 297 298 298 298 298 298 298 298 297 295 294 294 294 294 294 293 293 294 294 295 295 294 292 292 290 291 291 291 292 293 296 296 294 294 293 293 292 292 290 290 290 290 290 290 291 292 290 290 290 291 292 294 294 293 293 292 291 291 291 290

ECMWFFLT1_sfc_thetae_057.txt.gz
Theta_e
332 332 332 333 333 333 333 334 335 335 335 336 335 334 334 333 332 332 332 332 332 332 333 332 331 331 331 332 333 331 330 330 330 327 326 327 324 325 329 328 329 330 331 331 328 323 321 318 318 325 327 328 329 331 331 330 331 331 331 332 331 331 334
332 331 333 332 330 331 331 334 333 333 334 336 336 335 334 332 332 332 333 333 333 333 333 333 335 332 332 332 332 332 329 329 330 331 330 328 328 327 326 326 328 330 331 331 330 330 324 320 318 318 320 325 328 329 329 330 331 331 331 331 330 331 333
330 330 330 330 330 332 331 333 334 333 332 333 335 336 334 332 332 332 333 333 333 334 334 333 331 331 332 332 333 332 332 329 330 330 330 330 330 330 330 329 328 328 328 326 326 326 326 325 320 319 321 320 320 325 329 329 330 331 331 332 332 330 331
330 330 328 328 329 329 329 331 332 332 333 333 335 334 334 333 331 332 333 333 335 335 334 334 331 331 331 333 334 332 331 330 329 331 330 331 332 331 330 329 329 328 325 324 325 326 326 325 323 321 322 323 323 322 326 329 329 330 331 332 330 330 331
332 329 328 327 328 328 330 330 331 331 332 332 334 333 330 331 332 331 333 333 332 333 333 335 334 332 332 333 334 333 331 329 331 330 330 329 329 328 329 330 331 331 331 329 329 329 328 326 324 322 321 324 324 324 326 327 328 328 329 329 329 330 330
332 331 330 328 330 329 329 329 330 329 330 330 331 331 329 331 332 331 332 332 332 333 334 333 332 331 331 332 334 333 333 330 329 330 329 328 329 328 329 331 332 332 330 333 332 330 330 330 328 323 324 325 322 323 324 325 324 327 328 328 329 329 328
330 330 327 327 329 329 330 330 330 330 330 331 332 332 332 332 332 332 333 333 335 335 333 331 330 330 331 332 333 333 333 333 332 331 330 330 331 331 332 331 332 331 331 333 331 331 329 328 326 325 323 323 325 322 323 323 324 322 324 327 328 328 328
329 328 327 328 329 329 330 330 331 331 331 331 332 333 334 333 332 333 333 333 335 335 332 331 330 331 332 332 333 333 334 333 332 332 331 331 329 329 331 331 332 332 332 332 331 330 330 329 328 327 323 319 319 321 320 322 322 322 324 326 327 327 329
328 327 327 327 329 330 330 330 330 331 332 332 333 334 334 334 332 333 332 333 334 334 332 331 331 332 333 333 333 333 332 333 332 331 331 331 329 330 328 330 329 329 332 332 331 332 330 331 331 330 327 324 318 316 318 318 319 320 325 323 325 328 327
328 328 327 327 328 329 328 329 330 331 332 332 332 333 332 331 332 332 331 332 333 332 332 332 333 333 333 333 332 332 331 332 331 331 332 331 330 331 330 330 328 329 330 331 331 331 332 331 331 330 328 326 325 320 316 316 318 320 323 325 320 324 327
329 328 329 328 329 328 328 328 329 330 331 332 332 332 332 331 331 330 330 331 332 332 332 332 332 331 331 330 330 332 332 332 330 331 331 331 331 331 330 330 330 329 331 331 330 332 330 330 330 329 329 329 328 324 321 317 318 322 322 325 325 322 324
328 329 329 328 328 327 327 328 329 330 331 331 332 331 331 331 331 330 331 331 332 332 332 331 330 328 328 328 329 331 332 330 329 329 330 331 331 330 329 328 330 330 333 333 333 332 331 330 330 329 329 330 329 327 325 321 317 324 326 322 324 326 324
328 328 328 328 328 327 328 328 329 330 329 331 331 331 330 330 330 331 331 332 332 333 331 331 330 330 329 329 330 330 331 330 328 328 329 330 330 331 330 329 329 330 331 332 332 330 330 329 330 328 329 329 328 329 328 324 319 321 326 325 324 324 324
328 328 328 328 328 329 329 330 329 330 330 330 330 330 330 330 330 331 331 331 332 331 330 330 331 330 329 329 329 330 330 329 328 329 329 329 329 330 330 330 330 330 331 329 328 329 329 328 328 328 329 328 326 328 326 325 320 319 322 325 326 321 321
326 327 328 328 327 327 328 328 329 329 328 330 330 329 329 330 331 331 331 332 332 331 330 329 329 329 328 328 328 329 330 329 328 328 329 328 328 329 330 329 330 329 327 328 328 329 329 326 325 325 326 326 325 325 326 323 321 318 319 320 321 320 319
324 326 326 327 326 327 328 329 330 328 328 329 330 330 330 331 331 331 331 332 332 331 331 329 328 328 328 328 328 329 330 329 329 328 328 328 328 329 328 328 329 328 327 327 329 330 330 327 326 325 325 324 325 324 323 324 322 319 319 318 322 318 319
319 323 325 325 326 327 328 329 329 327 329 330 329 330 331 331 331 331 331 331 331 330 330 329 328 328 328 329 328 328 328 329 329 329 328 328 328 328 328 328 329 329 328 329 330 330 330 329 326 325 324 324 324 322 324 323 323 322 320 317 317 317 318
314 316 321 326 326 326 327 326 325 326 328 329 329 330 331 331 331 330 330 330 330 330 329 328 328 328 328 329 328 328 328 329 329 329 329 329 328 329 329 328 329 329 329 329 330 330 330 330 328 326 324 324 322 323 321 321 321 321 319 317 317 317 317
311 314 317 322 324 324 325 325 325 326 328 328 328 329 329 330 330 331 331 332 332 331 330 329 328 327 327 328 328 329 329 329 330 329 329 329 329 329 329 329 329 329 328 329 330 330 331 330 328 327 326 324 323 322 321 320 320 319 318 318 320 314 315
311 313 316 320 323 323 324 325 326 327 328 328 328 327 327 328 330 331 333 333 332 332 331 330 329 329 328 327 327 328 328 328 328 329 329 328 328 329 329 329 330 330 328 329 330 330 330 330 329 329 328 327 325 323 320 319 318 317 317 317 317 317 315
310 311 315 318 322 323 324 325 326 327 328 328 327 327 327 327 329 330 333 334 334 333 332 331 331 329 328 328 328 328 327 327 327 327 327 327 328 328 328 327 328 329 330 331 332 332 331 328 330 330 330 329 328 325 322 320 318 315 316 316 315 315 315
309 310 312 315 318 321 323 325 325 326 326 327 327 327 327 328 327 328 331 332 332 332 332 332 331 330 329 327 328 327 327 326 326 325 325 326 327 327 327 327 327 329 330 328 321 321 322 323 332 330 331 331 329 327 325 323 319 318 314 314 314 316 314
307 308 309 310 313 318 321 323 324 325 326 326 327 326 326 326 326 327 328 330 331 331 331 332 323 314 318 329 329 328 328 327 326 326 325 325 326 327 327 327 328 325 321 318 314 310 309 312 315 325 334 332 330 328 327 321 317 315 315 313 314 314 313
306 306 307 308 310 315 319 321 322 324 325 325 324 324 324 324 325 327 327 328 327 328 328 325 306 303 305 311 327 330 329 328 328 327 326 325 324 325 327 328 329 324 321 317 318 304 306 304 305 306 311 316 321 330 325 321 320 321 319 318 317 316 315
304 304 305 305 307 308 313 317 318 320 321 321 321 321 323 323 323 324 325 325 325 322 320 301 297 299 300 302 311 330 330 329 328 328 327 326 326 326 326 327 328 328 328 328 326 318 308 299 301 300 298 299 299 300 298 318 324 324 322 320 320 319 319
303 303 303 304 304 304 305 305 306 308 309 312 315 314 315 316 316 318 320 321 319 317 314 294 293 294 296 297 298 313 330 329 328 328 328 328 328 327 326 326 325 325 320 315 318 320 317 310 297 295 296 297 296 294 292 292 294 315 325 324 320 319 320
302 302 302 302 302 302 301 301 302 302 303 304 304 305 307 308 309 310 312 314 314 313 313 298 293 293 294 294 294 304 328 329 329 329 328 328 328 327 327 327 325 323 321 319 318 317 316 314 313 312 313 313 311 306 299 298 298 299 313 322 320 320 320
301 302 302 302 301 301 300 300 300 300 300 300 300 300 301 302 304 305 306 309 311 310 307 293 293 294 294 293 293 301 326 327 328 328 328 328 327 327 327 326 326 324 321 319 318 315 315 314 313 312 311 309 309 307 306 306 307 312 314 317 318 316 315
301 301 301 301 300 300 300 299 299 300 300 300 300 301 301 302 301 302 303 305 307 307 304 292 292 293 293 294 296 319 324 324 323 322 321 321 322 324 324 324 323 321 320 318 305 299 305 312 310 309 307 307 305 304 301 297 295 298 306 309 309 309 308
301 301 301 300 300 300 300 299 299 300 299 298 299 299 299 300 301 301 301 301 301 302 302 295 292 295 294 296 306 320 319 318 317 315 314 314 315 315 317 320 321 320 318 314 299 295 298 304 311 309 308 307 306 306 304 302 295 293 293 293 293 293 293
301 301 301 300 300 300 301 301 300 300 298 298 297 298 299 299 299 299 298 299 298 299 300 297 292 294 296 298 307 314 314 314 313 311 310 310 311 311 308 304 312 319 316 309 294 295 296 307 312 310 308 306 305 304 304 303 301 298 294 294 293 293 294
301 301 301 301 301 300 300 300 301 301 300 299 298 299 299 298 298 298 298 297 297 297 297 297 292 292 294 296 305 311 309 309 309 309 308 306 306 306 305 301 297 303 311 302 292 293 294 306 313 312 310 308 305 304 304 305 303 302 303 303 303 302 300
302 301 301 301 302 301 302 301 301 301 300 300 299 299 299 298 297 297 298 297 297 296 296 296 294 291 292 293 295 306 307 306 305 305 306 305 304 305 304 303 298 291 291 291 291 291 294 299 313 313 312 309 306 303 306 306 304 303 301 300 299 300 300
301 301 301 301 302 301 302 301 301 300 300 300 299 299 298 298 297 297 297 297 297 296 296 295 294 291 292 293 293 297 305 303 303 303 302 302 303 303 302 300 299 292 290 291 291 291 292 293 298 313 313 311 308 305 302 303 301 298 302 301 301 301 301
301 301 301 301 301 300 301 301 301 300 300 299 298 298 298 297 297 297 297 297 297 297 297 296 295 292 291 292 292 293 300 301 302 301 300 300 300 300 299 299 297 292 290 291 291 291 292 293 294 303 300 293 292 294 304 303 304 303 303 302 301 301 301
301 301 301 301 301 300 300 300 300 300 299 298 297 296 296 296 296 296 296 297 296 296 296 296 293 293 291 291 292 292 292 296 293 301 299 297 297 297 298 296 295 292 290 291 291 291 292 292 294 294 290 291 291 292 297 302 302 302 301 301 301 300 299
300 301 301 301 301 300 300 300 299 299 299 298 297 296 296 296 295 295 295 295 296 296 296 296 293 292 292 290 291 291 291 291 293 297 298 296 296 296 295 294 292 290 290 290 289 290 290 291 292 290 290 290 292 294 301 301 299 300 298 298 297 297 297

ECMWFFLT1_sfc_thetae_060.txt.gz
Theta_e
339 337 339 339 339 339 338 338 339 339 339 338 338 338 339 339 339 339 338 337 336 336 335 333 333 336 335 336 334 333 333 333 332 329 328 328 326 326 331 330 331 330 333 333 329 326 323 319 320 329 329 330 332 332 331 330 331 334 333 333 332 331 334
338 338 338 338 338 338 338 338 337 337 338 339 338 338 339 339 339 339 337 335 337 336 334 333 334 333 333 333 329 330 333 333 333 334 330 331 330 328 328 329 329 330 329 331 333 332 325 322 320 320 322 330 331 331 331 331 332 334 333 332 333 333 334
337 336 337 336 338 338 337 337 338 338 338 338 338 338 338 339 339 339 337 336 336 336 335 335 334 333 333 332 332 334 332 331 333 331 330 332 332 332 332 329 326 329 330 327 329 326 327 325 319 321 325 324 320 325 333 331 332 333 334 334 334 333 334
336 336 334 335 336 338 336 336 336 336 337 337 337 338 337 338 338 337 338 337 336 337 336 337 337 337 335 334 336 333 331 333 335 334 332 332 332 333 330 330 331 330 326 324 327 328 327 321 324 323 325 325 325 326 327 331 331 333 334 334 333 333 333
336 335 335 335 336 336 335 334 335 335 336 336 337 336 336 338 337 336 337 337 336 337 337 338 337 337 338 338 336 334 334 336 338 337 335 334 329 331 333 335 333 332 330 328 331 329 329 327 325 323 322 325 325 325 327 331 333 332 332 332 332 332 332
335 335 335 335 336 335 334 334 335 333 335 335 335 336 338 337 336 336 336 336 336 336 337 336 337 339 340 338 337 335 336 335 336 335 335 336 335 330 333 333 335 334 330 331 331 330 331 329 327 324 323 326 325 327 328 329 329 331 332 332 331 331 330
332 333 333 333 334 335 334 334 334 334 334 335 335 335 336 337 336 336 337 337 338 338 339 339 338 338 338 337 337 336 334 333 334 335 336 337 336 336 336 332 332 333 333 334 333 332 331 326 327 326 323 324 326 323 327 328 328 325 329 331 330 331 328
331 331 331 332 332 332 332 332 333 334 333 334 334 336 337 339 338 337 337 338 338 339 339 339 337 336 335 336 337 337 333 332 331 334 333 334 333 334 338 336 335 335 336 332 331 329 330 330 329 327 326 322 323 323 321 327 326 325 324 328 329 328 327
331 331 331 331 331 332 332 332 332 334 334 334 335 336 338 339 337 337 337 337 338 338 338 338 336 335 337 337 336 337 335 333 330 330 333 332 333 336 337 337 333 330 332 332 330 337 336 334 329 329 328 324 319 317 321 322 323 322 327 324 326 328 328
331 331 331 332 332 333 333 333 332 333 334 333 333 335 336 338 337 336 335 336 337 337 338 335 336 338 337 336 336 335 333 332 332 331 333 330 334 336 335 335 331 330 333 331 333 337 335 335 332 331 331 327 325 321 319 320 321 321 324 326 323 326 329
328 330 331 332 333 333 333 332 332 331 332 333 333 335 335 334 336 336 335 335 335 338 338 336 335 337 337 335 334 333 334 333 332 335 335 335 336 337 334 331 330 331 333 333 335 338 337 336 335 332 331 330 330 322 323 318 320 324 323 327 327 324 327
326 328 330 331 332 332 331 332 332 332 333 334 335 334 334 334 334 335 334 335 336 337 337 336 337 337 336 335 335 334 335 335 335 335 336 335 336 333 331 331 333 332 333 335 334 336 337 337 335 333 330 331 330 327 327 322 321 323 328 324 325 327 325
323 326 329 330 331 331 331 332 332 332 333 335 334 333 333 333 334 333 333 333 335 336 336 337 336 335 337 337 336 335 336 335 334 335 335 336 334 333 332 332 333 333 334 333 330 332 333 335 335 332 330 331 333 331 331 327 322 321 328 328 326 327 326
320 323 326 330 331 331 331 331 331 333 334 334 332 332 333 332 332 333 332 333 334 335 337 336 335 334 334 334 334 334 335 335 333 333 333 333 333 334 333 332 333 334 336 333 329 329 331 334 335 333 332 331 331 330 330 328 323 321 326 331 328 325 327
318 320 322 326 329 330 331 331 331 332 331 331 332 331 333 334 333 332 332 331 333 334 334 335 334 334 333 333 333 334 335 334 333 332 332 332 333 333 334 333 332 334 335 333 330 331 332 334 332 331 330 331 329 331 332 329 328 323 322 325 327 327 326
315 318 320 324 326 327 329 330 331 331 330 331 331 332 332 333 332 332 329 329 331 329 333 334 335 335 334 334 333 333 335 335 334 332 331 332 331 332 333 333 333 334 336 335 334 333 335 333 331 327 329 330 329 330 331 330 327 325 324 322 325 325 326
314 314 317 320 323 326 328 330 330 331 329 330 330 329 330 332 333 334 333 333 332 332 334 334 334 334 334 334 333 333 333 334 334 333 333 332 331 331 332 333 333 334 335 333 333 333 333 331 331 331 330 329 331 331 332 332 330 327 323 320 322 322 322
312 312 313 316 319 324 328 329 330 328 328 327 328 329 328 330 330 333 331 327 327 330 334 334 334 334 334 335 334 334 333 333 334 333 333 333 332 332 332 332 333 333 334 332 334 332 332 332 331 332 332 329 329 331 330 328 328 328 325 321 320 321 321
311 312 312 314 316 320 326 330 331 328 327 327 326 329 327 329 329 329 328 329 329 330 334 335 334 334 334 334 334 334 334 334 333 333 333 333 333 333 333 333 333 333 333 332 333 334 333 332 331 331 330 328 328 330 329 329 327 325 324 322 320 317 321
311 311 311 312 315 319 324 329 329 326 326 326 326 328 329 328 330 330 331 331 331 333 334 335 335 335 335 334 333 332 333 333 333 334 334 333 334 334 334 334 334 334 333 333 333 333 333 333 332 332 331 332 331 327 328 326 324 324 325 322 320 319 319
312 311 311 311 313 315 320 325 327 326 326 324 327 327 328 328 330 331 330 330 327 330 332 333 335 335 334 334 334 334 334 334 332 333 335 335 335 335 335 335 334 334 334 334 334 333 333 332 333 333 333 334 332 330 326 326 325 321 322 321 320 319 317
311 311 310 310 310 311 314 319 324 326 326 326 327 328 327 329 328 328 331 330 328 328 327 330 334 335 334 332 332 331 334 333 333 332 331 332 333 333 334 334 333 333 334 332 324 322 324 326 334 332 334 332 331 330 325 325 318 321 322 320 319 320 317
310 311 310 309 309 309 310 312 314 318 325 327 325 327 327 326 327 327 330 330 329 330 331 332 328 318 320 332 332 332 332 333 332 332 331 331 331 331 332 333 333 329 325 323 318 314 311 314 319 329 336 332 328 328 328 324 322 322 320 319 319 318 317
310 309 309 309 309 308 308 309 310 310 311 314 318 324 327 325 326 327 330 330 330 330 332 332 309 308 309 311 328 334 333 331 333 332 331 330 329 330 332 332 333 328 326 322 324 307 308 306 307 308 307 306 310 328 327 324 322 321 319 320 322 321 318
309 309 309 308 308 307 307 306 306 307 308 309 311 313 314 316 319 322 327 327 328 328 330 298 300 303 304 304 309 333 334 333 332 331 331 330 330 330 331 332 333 333 331 331 331 327 316 306 305 304 298 298 296 294 299 322 326 323 325 321 320 322 321
308 308 308 307 307 307 306 305 305 305 305 306 308 308 309 311 312 315 317 320 323 325 321 294 293 293 296 297 298 309 332 333 332 332 333 332 332 331 331 331 333 334 331 325 328 330 329 321 299 295 296 297 296 295 295 296 301 328 329 327 324 323 323
307 308 308 307 307 306 305 304 304 305 305 305 305 305 306 307 308 309 311 313 318 321 315 296 293 292 293 293 295 299 329 332 332 332 333 333 333 333 332 331 331 331 332 330 330 331 330 328 323 319 321 325 321 308 298 298 299 296 309 328 331 327 328
307 307 307 307 307 306 305 304 303 304 304 303 304 304 303 304 305 306 306 306 310 316 310 293 292 292 293 292 293 295 323 330 331 332 333 334 334 334 333 333 333 331 331 329 330 328 330 327 326 326 325 323 320 319 320 320 322 323 324 325 326 325 322
306 306 306 306 306 305 305 304 303 303 303 303 304 304 304 304 304 304 304 304 305 306 307 294 292 292 292 293 292 308 321 328 329 330 330 333 333 334 333 333 333 332 331 330 316 308 316 328 327 324 320 317 314 311 307 297 294 299 317 321 319 318 313
305 306 306 306 305 305 304 304 303 303 302 302 301 302 302 303 303 303 302 301 301 303 303 297 292 291 291 292 295 313 320 326 327 328 329 329 329 332 333 332 333 332 331 331 307 301 303 310 324 320 316 314 312 311 308 305 295 293 292 292 292 292 293
305 305 305 305 304 305 305 305 304 304 303 302 301 300 301 301 302 303 302 301 300 301 301 297 292 291 292 291 296 312 320 325 325 326 326 327 328 328 317 303 312 330 330 325 296 297 298 313 322 319 317 314 312 310 308 307 306 301 294 294 294 294 294
304 304 304 304 304 304 305 305 305 305 304 304 303 302 301 300 300 301 301 301 300 300 300 299 293 291 291 292 300 310 316 322 323 323 323 322 323 321 317 308 297 302 322 308 294 296 297 308 323 319 316 314 311 309 308 309 308 307 308 309 310 309 307
304 303 303 304 304 304 305 305 305 305 304 304 303 303 302 302 300 299 300 300 301 300 299 299 296 290 291 292 293 305 310 314 317 317 318 318 318 316 313 310 301 292 292 293 294 294 293 292 317 319 318 315 312 309 311 313 313 313 311 310 309 309 308
304 304 304 304 304 304 304 304 304 304 304 304 303 303 302 302 301 301 301 300 299 299 298 298 297 291 291 292 292 298 305 304 307 309 309 310 313 312 308 304 299 292 291 291 291 291 292 292 302 320 319 317 315 312 308 310 307 302 309 307 307 306 306
305 304 304 304 304 302 303 303 303 303 303 303 303 303 303 302 301 301 301 301 300 299 299 296 296 294 290 291 291 293 301 301 302 303 300 299 299 301 301 301 299 293 290 291 291 292 292 295 297 311 306 296 295 297 310 310 311 310 309 308 307 306 305
304 304 303 304 303 302 303 303 303 302 302 302 302 301 302 302 301 300 300 300 300 300 299 298 293 294 291 290 290 291 292 295 294 301 299 297 297 297 299 298 295 291 290 290 291 291 293 294 297 300 292 293 294 295 301 310 309 310 308 308 307 306 304
305 305 304 303 302 302 302 302 301 301 301 301 299 299 299 299 299 299 299 299 299 299 299 299 296 293 293 290 290 290 290 290 292 296 296 295 295 295 295 294 292 290 290 290 290 290 290 292 295 291 292 293 295 298 306 306 305 305 304 302 303 302 302

ECMWFFLT1_sfc_thetae_063.txt.gz
Theta_e
336 332 337 339 342 341 339 341 341 341 342 343 341 341 340 341 341 341 340 340 339 339 340 337 336 336 336 336 336 336 338 336 333 332 330 330 327 328 334 335 333 332 333 331 329 324 322 320 322 331 331 331 333 334 334 333 330 335 333 333 330 332 333
335 335 339 338 338 338 339 340 340 340 341 343 341 340 340 341 341 340 340 339 339 338 337 337 338 336 336 335 335 332 334 335 335 333 332 332 332 329 330 329 332 331 330 330 330 328 322 321 321 321 321 328 330 336 335 333 335 332 333 333 331 331 332
336 339 340 337 336 337 336 337 338 339 339 340 342 341 341 341 342 341 340 339 339 337 336 336 336 336 337 336 334 335 337 333 333 333 331 330 330 336 334 331 328 329 325 327 327 327 326 325 320 321 325 322 323 326 333 334 334 336 332 331 331 331 332
337 337 338 338 336 335 335 339 339 337 338 339 340 342 341 341 341 341 340 339 339 338 337 335 336 336 336 336 336 335 335 333 331 332 332 333 335 333 329 328 329 330 327 323 325 326 326 324 322 320 323 323 324 324 329 333 332 333 333 332 331 332 332
337 336 336 335 337 333 334 334 337 337 336 337 339 339 341 342 341 340 341 339 338 338 336 337 337 336 338 336 335 334 333 334 333 332 332 332 332 332 328 330 335 334 331 329 330 331 328 325 323 321 324 325 325 327 329 331 333 334 333 333 330 332 332
334 335 335 335 336 333 333 335 337 336 335 333 335 338 339 341 340 339 339 338 337 337 337 337 338 338 337 335 335 335 334 333 334 334 333 333 333 331 329 335 332 333 331 332 330 331 331 328 326 323 326 330 324 324 326 329 327 330 333 336 330 331 331
332 333 334 333 335 335 335 335 336 334 336 335 335 335 341 336 339 339 339 338 338 338 337 337 337 338 338 335 335 335 334 334 335 335 334 333 331 330 336 333 331 331 332 332 331 332 328 327 325 324 325 322 325 323 327 326 328 328 329 331 332 332 333
330 331 332 333 332 333 334 335 335 335 336 337 336 338 337 338 340 339 339 338 338 339 338 337 337 337 338 337 335 335 334 334 334 334 334 331 332 332 331 332 335 334 332 332 333 331 331 328 329 328 326 322 321 323 321 326 328 326 325 329 331 332 330
327 329 330 333 334 335 334 334 334 336 336 337 337 338 338 336 338 340 338 338 339 339 335 336 337 335 338 338 336 337 335 338 336 335 335 333 333 331 331 333 333 332 333 333 333 333 336 335 334 332 330 326 320 316 323 321 324 324 329 329 330 332 331
327 326 327 329 332 335 335 335 335 335 337 337 338 339 336 332 335 338 336 334 334 336 336 338 338 339 338 334 336 336 336 336 334 333 333 335 336 334 330 334 333 331 331 334 335 336 335 334 333 332 331 327 325 320 319 320 321 321 325 328 325 327 328
326 327 328 328 330 333 334 335 335 335 335 335 336 338 337 333 332 336 334 335 334 335 335 337 335 335 335 336 336 337 337 336 335 334 335 334 335 336 334 335 331 331 334 337 337 336 334 334 333 331 331 330 330 324 322 318 319 325 327 327 327 324 326
325 325 326 326 327 329 332 333 334 334 335 336 336 335 335 334 332 331 334 334 333 332 336 336 335 335 337 336 335 337 338 336 335 335 336 334 333 334 333 330 332 332 337 336 334 334 334 333 332 331 333 332 331 329 327 324 319 325 327 324 325 327 326
322 322 323 324 325 327 329 332 333 334 334 334 334 335 334 333 332 331 332 335 332 332 332 335 335 333 334 334 332 333 333 334 334 334 336 336 334 334 332 331 331 334 334 333 333 333 332 332 335 335 332 332 333 330 330 326 321 321 328 327 327 326 327
320 321 321 322 324 327 328 330 331 333 334 333 333 332 334 333 332 333 332 331 330 331 331 333 333 333 331 332 330 335 335 335 333 334 334 333 333 333 331 331 333 334 335 333 333 333 331 332 333 333 334 332 329 328 327 326 321 322 327 331 332 325 326
319 319 319 320 321 322 323 326 329 331 333 333 334 333 331 331 331 329 329 330 330 333 335 333 332 332 331 330 328 332 333 334 332 332 332 331 331 331 333 333 332 332 333 333 332 330 332 334 334 334 333 332 333 330 330 328 324 323 321 326 325 328 324
317 318 317 318 318 319 321 323 327 329 331 332 333 332 332 330 329 329 330 330 329 330 330 331 331 328 329 329 328 334 336 335 333 332 331 331 331 332 334 334 333 331 333 334 332 331 335 331 331 329 328 331 330 331 331 331 327 324 322 325 328 327 324
316 316 315 316 316 317 319 321 324 327 330 332 330 331 330 330 329 330 328 329 329 329 330 332 332 330 329 329 332 332 333 334 332 332 331 331 331 331 331 332 331 332 333 332 330 333 334 333 332 330 331 333 330 332 333 331 327 327 324 323 324 324 325
315 315 315 315 315 315 315 317 320 322 327 330 330 330 330 329 328 327 327 329 329 327 328 329 330 329 331 329 329 330 332 332 333 332 333 332 332 331 331 330 333 330 332 330 331 331 332 331 331 332 331 331 330 331 331 329 327 329 325 324 324 326 331
314 314 314 314 313 313 313 315 317 319 323 327 328 327 328 329 328 328 328 328 329 328 330 330 329 328 330 330 329 330 334 332 333 333 333 333 332 333 333 332 331 331 329 331 329 331 332 331 331 330 329 328 330 330 329 329 329 327 328 325 323 321 326
313 313 313 313 314 312 311 312 314 316 319 320 324 326 327 326 327 329 331 331 329 329 331 331 331 330 328 331 331 330 332 332 333 332 333 333 332 332 332 332 331 331 330 330 330 330 331 332 331 331 330 331 332 333 328 325 326 325 326 324 322 320 320
314 313 313 313 313 312 312 310 311 313 315 316 318 317 318 324 326 329 328 328 329 330 330 329 328 328 329 330 329 329 331 328 331 333 334 333 334 333 333 333 333 333 332 334 331 333 334 333 332 331 332 329 327 326 327 328 325 326 324 324 324 318 318
313 313 312 312 312 311 310 309 309 310 311 312 314 315 315 316 319 324 327 328 328 329 328 327 329 328 327 328 328 331 330 332 334 332 332 333 333 331 332 333 333 333 334 333 324 323 323 324 332 329 327 330 330 328 329 326 325 325 326 323 323 321 317
312 312 312 311 311 311 310 309 308 308 308 309 310 311 312 314 315 317 320 325 327 328 323 320 306 300 303 315 319 323 328 333 330 333 333 333 332 332 333 335 335 332 325 323 318 311 308 308 314 329 331 330 327 328 328 328 325 323 323 321 320 321 316
311 311 311 311 311 310 309 309 308 307 307 308 308 309 310 310 311 312 313 318 322 312 305 301 295 293 293 296 308 319 324 328 330 331 331 333 332 332 334 333 335 332 329 324 322 304 302 300 302 307 312 316 323 330 328 326 325 324 321 321 323 321 318
309 310 310 309 309 309 309 309 307 306 306 306 307 308 307 308 309 309 310 312 316 310 304 295 293 293 293 293 297 308 320 326 327 330 332 331 331 331 331 332 332 334 334 334 334 326 311 301 299 299 298 300 305 310 315 327 326 324 324 322 320 320 320
308 308 309 309 309 309 308 307 307 306 305 306 305 305 305 306 306 308 307 307 309 311 303 294 292 292 292 292 293 299 315 325 329 328 329 331 329 330 331 331 331 332 332 326 330 332 329 316 300 297 298 298 297 302 306 307 307 327 329 325 322 321 322
307 307 308 308 308 308 307 306 307 307 307 306 303 303 304 304 304 304 305 305 306 309 302 295 292 292 292 292 292 295 311 320 327 329 329 329 330 330 332 331 331 331 333 331 331 332 332 328 322 320 321 325 324 309 301 302 303 298 312 328 328 326 327
306 306 307 307 307 307 306 306 306 306 306 306 304 302 302 302 302 302 303 303 303 305 303 294 292 291 291 291 291 296 312 319 326 329 330 330 327 330 331 331 331 331 332 331 332 328 331 329 327 326 326 328 325 324 325 325 326 328 327 328 329 328 326
305 306 306 306 305 305 305 306 305 305 306 306 306 305 304 303 301 301 302 301 301 300 302 294 292 292 291 291 291 308 316 319 323 327 328 330 329 328 328 330 331 333 329 330 319 311 319 328 328 326 326 327 323 317 310 298 292 294 316 330 329 326 322
305 305 305 304 304 304 305 305 305 306 305 305 305 304 304 304 303 301 301 301 299 299 299 296 292 291 291 291 294 305 313 318 321 324 327 327 329 328 323 324 325 330 329 329 312 306 307 311 328 326 325 322 318 317 311 307 296 293 292 292 293 293 292
305 305 305 304 303 304 305 305 305 305 304 304 304 304 304 304 304 303 301 300 300 299 298 298 293 291 291 291 293 302 310 315 317 321 325 328 328 327 312 303 309 318 325 326 301 305 305 316 325 325 324 321 318 315 311 310 308 303 294 294 294 293 294
304 304 304 304 304 304 304 304 304 305 304 304 304 305 304 304 304 303 303 301 301 298 298 297 293 291 291 291 293 299 308 312 313 315 321 324 327 326 317 306 298 298 312 315 297 301 301 314 327 325 323 321 317 314 312 312 310 310 310 310 310 311 309
304 304 304 304 305 304 305 304 304 304 304 303 303 303 303 303 303 303 303 302 301 300 297 297 295 291 291 291 291 297 308 310 310 309 310 310 319 314 311 309 301 292 291 291 293 294 297 297 317 324 323 320 317 312 313 313 312 313 313 313 313 313 312
304 304 304 304 304 304 304 304 304 304 303 303 302 302 301 301 301 301 303 303 302 301 299 297 296 292 291 291 291 292 303 304 306 309 307 305 304 304 303 302 302 293 290 291 292 292 293 293 295 322 323 321 318 313 309 313 312 306 314 312 311 310 310
303 304 304 304 303 303 303 304 303 303 303 302 302 301 301 300 300 300 301 301 302 301 301 298 297 294 292 291 291 291 294 297 297 304 302 301 301 300 298 297 296 292 290 291 291 293 294 296 298 314 311 298 297 300 314 313 313 313 311 311 310 308 309
303 304 303 303 303 302 302 302 303 303 302 302 302 301 300 300 299 298 298 299 300 300 300 300 295 297 294 292 291 291 290 292 292 298 297 295 295 296 296 295 294 291 290 290 290 291 292 294 297 298 294 296 297 298 304 313 312 312 311 311 310 308 306
303 303 303 303 302 302 301 301 300 301 301 300 299 299 299 299 298 297 297 297 298 298 298 298 296 294 296 293 292 291 291 290 290 294 294 293 293 294 294 293 292 290 291 291 291 291 290 291 292 291 291 293 296 299 313 312 313 313 308 307 306 306 306

ECMWFFLT1_sfc_thetae_066.txt.gz
Theta_e
335 334 336 335 337 337 339 340 340 341 342 341 341 341 341 341 340 339 339 339 339 338 338 337 337 336 335 335 336 335 335 334 331 328 327 328 325 324 328 327 328 329 330 329 325 322 320 316 320 327 329 330 330 330 331 331 331 333 329 331 333 331 331
334 335 335 334 332 336 337 337 339 339 339 341 341 341 340 340 339 339 338 338 339 338 337 337 338 335 334 332 333 334 333 333 332 331 329 327 328 326 327 326 327 325 326 327 328 326 320 318 319 320 322 327 329 330 332 333 333 333 332 331 331 329 330
335 336 336 334 333 333 335 337 338 338 338 339 340 340 340 340 340 340 339 338 338 338 337 335 336 336 334 333 332 333 334 332 333 331 329 329 329 329 328 327 324 323 324 325 325 324 324 323 319 320 322 321 319 324 330 331 332 332 331 333 331 329 329
333 334 334 333 332 332 333 334 336 337 338 337 337 339 342 340 340 339 340 339 337 339 337 336 336 335 334 335 334 334 334 333 332 331 330 329 330 329 329 328 326 324 323 321 322 323 323 321 321 321 322 324 322 322 326 330 331 331 331 331 327 328 328
331 331 331 332 334 332 334 334 335 336 335 336 336 336 338 339 339 340 340 339 338 335 336 335 335 335 334 335 334 334 333 333 333 331 329 328 329 328 328 328 328 329 327 325 325 326 324 324 322 321 321 324 325 325 328 329 332 330 331 331 329 328 328
328 328 328 330 332 332 333 333 333 334 334 334 335 335 337 342 341 339 338 338 335 337 335 334 335 335 333 334 333 334 333 331 332 331 329 329 329 327 327 329 328 328 328 329 330 328 328 327 325 322 323 324 320 321 327 329 326 330 330 330 330 334 330
326 326 327 327 329 331 332 332 332 332 333 334 334 335 338 337 338 335 335 337 337 335 334 333 335 334 334 334 334 333 332 331 331 331 331 331 330 329 330 328 327 327 327 329 330 329 326 326 323 322 321 321 322 321 325 325 328 325 328 333 335 332 337
325 326 326 327 327 327 329 331 333 333 333 333 334 336 337 337 337 337 336 334 334 334 333 333 334 334 333 332 332 333 333 333 332 331 331 331 330 330 330 328 328 328 329 330 330 328 330 328 325 324 322 318 318 319 319 323 325 325 325 329 332 331 331
324 325 326 326 326 327 327 328 331 333 334 334 335 335 336 336 335 334 336 335 334 334 334 333 334 333 332 332 334 331 331 333 331 331 330 331 330 331 330 329 329 329 331 331 330 330 331 329 328 327 325 322 317 314 317 318 320 322 328 327 331 333 332
321 322 322 323 324 325 326 328 329 331 334 335 334 335 335 336 335 335 334 335 334 333 331 330 331 331 332 331 331 331 330 331 331 330 330 329 331 331 331 330 330 330 331 332 330 331 331 330 329 329 328 325 323 317 315 315 317 319 324 326 323 327 333
320 321 321 321 321 322 324 326 327 328 330 333 333 334 334 334 334 335 334 333 332 332 333 333 332 330 330 331 331 330 331 332 331 331 330 330 331 332 332 331 330 330 331 332 331 332 331 329 328 329 328 327 326 321 319 315 316 322 322 325 326 324 328
318 319 320 320 321 320 321 321 322 324 327 329 330 332 332 332 333 333 333 333 332 332 332 332 332 330 329 329 329 330 331 331 329 328 328 329 330 330 330 330 330 330 331 331 331 332 331 329 330 330 328 328 326 325 323 320 316 322 325 321 326 329 328
317 317 318 318 318 317 318 319 320 322 324 326 328 330 331 331 331 331 331 331 330 331 330 331 330 328 329 329 328 328 330 330 329 328 329 330 328 328 328 329 330 331 331 331 331 331 331 330 329 328 329 329 329 328 324 322 320 320 326 324 326 328 328
316 317 317 317 317 316 317 317 318 320 322 323 325 327 330 330 330 330 330 329 329 329 329 328 330 330 329 329 329 329 329 327 327 327 328 328 329 328 328 329 330 331 331 330 330 330 329 331 330 330 330 329 328 327 323 323 320 320 324 327 326 327 328
316 316 316 316 316 315 315 315 317 318 319 321 323 326 329 329 329 329 328 327 328 328 328 329 330 330 329 328 327 328 327 327 329 327 328 327 328 328 328 329 329 330 331 331 330 329 330 329 329 329 329 328 326 326 327 324 321 319 319 324 323 328 328
315 315 314 315 314 314 314 314 313 315 316 318 321 322 324 324 325 325 325 326 327 327 327 328 329 329 328 328 327 328 327 326 327 326 326 327 328 327 326 327 328 330 331 329 330 330 330 329 329 329 328 328 326 326 327 326 322 320 319 320 323 323 325
315 314 313 313 313 313 313 312 312 312 314 315 317 319 319 318 319 321 322 325 326 327 327 328 327 328 328 327 326 327 328 327 326 326 326 327 327 327 327 328 329 328 329 329 329 328 329 329 329 328 328 326 326 326 326 326 326 322 321 320 321 322 325
313 313 312 312 313 313 312 311 310 310 311 312 313 314 315 317 317 317 318 323 326 327 327 327 326 327 328 329 328 327 327 327 327 327 327 328 327 326 327 326 328 329 329 328 329 328 329 329 330 326 325 326 326 327 327 328 328 328 323 321 323 324 324
312 312 312 312 312 312 311 310 309 309 310 309 311 312 312 313 315 314 316 319 327 327 327 326 323 325 327 327 327 327 326 325 325 326 327 328 328 328 329 327 327 326 326 328 329 329 329 329 329 328 327 326 326 325 325 328 327 327 325 323 322 320 323
311 311 311 311 311 311 310 310 309 308 308 308 309 309 309 310 312 313 313 317 312 309 307 305 305 305 312 322 326 326 325 326 328 328 327 327 328 329 328 329 327 328 328 329 328 329 329 328 328 325 326 324 326 324 324 326 325 325 325 323 320 319 320
310 310 311 310 310 310 310 309 309 308 308 306 307 307 307 308 309 310 310 312 310 307 304 302 301 300 302 306 314 321 324 325 325 325 326 326 327 327 327 328 328 328 328 329 329 329 329 327 328 326 328 327 324 324 325 325 324 323 322 322 319 317 318
310 309 309 309 309 309 308 309 309 308 307 306 306 306 306 307 306 306 307 309 310 305 301 300 299 298 297 299 306 313 318 322 325 326 326 326 326 327 327 327 328 328 329 329 323 324 325 326 328 326 326 327 325 324 324 323 322 322 321 320 320 319 317
308 308 308 308 308 308 307 308 307 307 307 306 305 305 304 305 305 305 305 305 307 305 301 299 298 295 295 296 299 304 310 316 320 325 325 325 326 328 328 327 328 329 324 322 317 314 310 314 320 325 327 327 325 324 323 322 321 321 320 319 319 319 315
307 307 307 307 307 306 307 307 306 306 307 306 305 305 304 303 303 303 304 303 303 305 301 298 294 292 292 293 296 299 304 311 319 323 325 325 324 325 326 327 327 326 323 322 320 304 305 308 311 312 315 319 323 326 324 322 321 321 319 318 319 318 318
306 306 306 305 306 306 306 306 306 306 306 306 306 306 304 303 302 302 303 302 302 302 300 296 292 292 292 292 294 296 301 309 316 320 325 326 326 325 326 326 327 327 326 326 323 312 308 304 305 306 307 307 310 313 315 322 321 319 319 318 318 319 318
305 305 305 305 305 305 305 305 305 305 305 306 306 305 304 303 302 302 302 301 300 301 300 295 292 292 292 291 292 294 299 306 313 318 322 326 327 326 325 324 325 327 326 323 324 321 317 311 303 302 304 306 307 305 304 303 311 324 322 319 319 319 318
304 304 304 304 304 304 304 304 304 305 305 305 305 304 304 304 303 302 301 300 300 300 299 294 292 292 291 291 291 293 303 309 314 317 321 324 326 325 324 323 323 324 327 327 326 326 320 318 315 315 317 321 321 313 304 297 299 304 314 324 321 319 320
303 304 304 304 304 303 303 304 304 304 304 303 303 303 303 303 303 303 302 301 300 299 298 293 292 292 291 291 291 295 304 308 313 317 320 323 325 322 322 325 324 322 324 326 326 320 323 321 320 320 321 322 322 321 321 319 319 320 322 324 325 323 322
303 303 303 303 303 303 303 303 303 303 303 303 303 303 303 304 303 302 302 301 299 298 298 293 292 292 292 291 292 299 303 308 312 314 316 319 323 320 314 314 321 323 323 322 316 304 312 324 323 322 321 322 321 312 303 296 292 294 302 320 322 312 306
302 302 302 301 301 302 302 302 303 304 302 302 301 301 301 301 302 302 302 301 299 298 298 295 293 292 292 291 293 298 303 308 311 312 311 313 320 310 307 305 306 312 321 323 312 302 305 310 324 323 322 320 316 311 307 304 295 293 294 293 293 293 293
301 301 301 300 300 301 302 302 302 304 302 301 300 301 301 301 301 301 301 300 300 298 298 297 293 293 292 292 293 297 301 303 305 309 309 309 315 310 306 303 303 298 301 308 301 300 300 311 321 321 321 316 314 310 308 308 306 301 294 294 295 295 296
302 301 300 301 301 300 300 301 302 302 302 302 301 301 301 300 300 300 300 299 300 299 297 297 294 292 292 292 293 296 296 298 300 304 305 305 306 303 301 302 299 294 294 294 290 295 298 311 322 320 321 316 313 311 308 308 307 306 307 307 308 309 307
302 301 300 301 301 300 300 300 300 300 301 301 301 301 300 300 299 299 299 299 298 298 297 296 296 293 293 292 292 294 295 294 295 299 299 299 299 298 297 297 297 292 290 290 291 290 291 293 318 322 321 318 314 310 310 309 310 310 309 310 310 310 309
302 301 301 301 301 301 300 299 299 299 299 300 300 300 299 299 299 298 299 299 298 297 297 296 296 293 293 293 292 293 294 293 294 296 296 295 296 294 294 295 295 293 290 290 291 291 292 292 295 316 320 319 317 310 307 310 309 306 311 309 308 308 308
303 302 301 301 300 300 300 299 298 298 298 298 298 298 298 298 298 298 298 299 298 297 298 297 295 294 293 293 292 292 293 294 293 295 293 293 293 293 293 293 294 292 290 290 290 291 291 292 293 307 311 299 298 300 311 311 311 311 309 307 307 305 305
302 303 302 301 300 300 300 299 298 298 297 297 297 296 296 297 297 297 297 297 298 297 297 297 295 294 293 292 292 292 291 292 292 296 293 292 292 292 293 293 294 292 291 291 290 291 291 292 294 292 292 296 297 298 304 310 309 308 308 307 306 304 302
302 302 301 301 300 299 299 299 298 298 297 296 295 295 295 295 296 297 296 296 297 297 297 297 295 293 294 292 292 292 291 291 291 294 295 294 293 293 292 292 292 290 291 291 291 291 291 291 292 291 292 292 296 300 309 308 307 307 304 304 303 302 302

ECMWFFLT1_sfc_thetae_069.txt.gz
Theta_e
330 329 329 328 328 329 329 331 333 334 335 335 335 334 335 335 335 334 334 333 335 332 330 331 331 331 331 330 331 330 330 330 328 326 325 326 325 324 327 326 325 326 326 325 324 320 317 316 319 325 326 327 326 327 329 330 331 329 328 328 331 331 331
330 331 332 332 328 328 327 329 331 333 334 334 335 335 335 335 336 334 333 333 331 331 332 331 332 332 330 329 328 328 327 328 328 328 327 327 326 325 323 323 325 323 324 322 324 323 318 315 315 320 322 326 326 325 328 330 330 329 329 328 330 331 330
326 327 328 328 329 329 328 329 330 331 332 332 334 334 334 335 335 334 333 332 331 332 332 332 331 330 330 329 329 328 328 328 330 329 328 327 326 327 326 324 322 322 322 321 320 321 322 320 316 318 321 321 320 324 328 328 329 329 329 328 329 329 329
325 324 323 323 326 326 327 329 330 331 333 333 332 333 333 334 334 333 332 331 331 331 331 331 330 330 329 330 330 329 328 328 327 328 327 327 327 327 326 325 323 322 321 319 320 322 321 319 319 319 321 323 322 321 325 329 329 329 329 329 329 328 328
323 323 322 322 324 324 325 325 327 328 329 330 330 329 330 331 332 332 332 332 332 330 330 330 330 330 329 330 330 330 329 328 328 328 329 328 327 326 327 326 325 325 324 323 323 324 322 321 320 319 320 322 323 323 326 328 331 328 328 329 328 328 327
320 322 323 323 323 322 322 323 324 325 327 328 328 329 330 332 332 332 332 329 330 331 331 329 328 328 328 329 329 329 329 328 329 329 328 328 328 326 326 327 326 326 325 326 326 325 324 323 322 319 321 323 319 321 324 326 324 327 329 328 328 328 327
320 321 322 321 320 320 321 321 323 324 325 326 328 329 330 332 332 332 331 330 330 331 330 330 329 329 330 330 328 329 329 329 329 328 328 328 328 328 327 326 325 326 326 328 327 326 324 322 321 320 320 320 320 320 322 324 326 324 326 328 329 329 330
319 320 320 320 319 318 319 321 322 323 323 324 326 329 330 330 331 331 331 330 331 330 330 329 329 329 329 329 329 328 328 329 328 327 327 327 327 327 327 326 326 326 326 327 328 326 326 325 324 323 321 317 317 318 318 321 321 324 324 327 329 328 329
319 319 319 319 319 319 319 319 319 320 321 322 325 326 327 329 330 330 331 330 330 330 330 330 329 329 329 327 327 327 327 329 329 328 328 327 327 328 327 327 326 325 325 326 327 328 327 327 326 326 323 320 316 313 317 317 319 321 327 325 328 330 329
317 316 317 317 318 319 318 317 317 318 320 321 322 325 325 327 329 329 329 330 329 329 329 329 328 328 329 328 327 327 326 328 327 326 327 328 328 328 328 327 325 325 326 327 327 328 328 326 326 326 325 322 320 316 314 315 316 317 322 327 324 327 330
315 316 316 316 317 316 316 315 316 317 318 320 321 322 323 325 328 330 328 328 328 328 328 328 328 328 328 326 326 326 327 328 327 327 326 326 327 328 328 328 327 326 327 328 328 328 327 327 327 326 325 324 323 318 316 314 315 319 320 325 325 325 329
314 315 316 316 315 314 314 313 313 315 317 318 319 320 321 322 322 323 324 324 325 325 326 326 327 327 327 327 327 326 327 328 326 326 327 326 327 327 327 326 327 326 327 327 328 328 327 327 327 326 325 325 324 322 319 317 313 317 322 321 324 326 327
314 314 314 314 313 313 314 312 311 312 314 316 317 319 318 318 317 317 318 319 320 322 323 325 325 326 326 326 326 326 326 327 326 326 326 326 327 326 326 326 327 327 328 328 327 328 328 328 328 326 326 325 324 323 321 318 316 315 321 323 323 325 327
312 312 312 312 312 311 311 311 310 311 312 313 314 315 315 315 315 315 315 316 317 319 322 325 326 325 326 326 326 327 327 326 326 326 325 326 327 326 326 326 326 328 328 327 328 327 326 327 326 326 326 325 324 323 322 319 317 315 319 321 323 323 326
311 310 310 311 311 310 310 309 309 309 309 310 312 312 312 313 314 314 313 309 308 306 306 310 313 320 325 326 326 326 325 326 325 324 324 324 325 327 327 325 325 325 327 327 326 326 327 326 325 325 325 325 325 324 324 322 319 318 318 318 321 323 324
309 308 308 309 309 310 309 309 309 307 307 308 310 310 310 311 312 312 312 307 306 304 304 304 305 306 309 315 322 325 325 325 324 323 324 324 324 325 324 324 324 325 326 325 326 326 326 326 327 325 324 325 324 325 325 324 320 318 318 318 321 321 322
308 307 307 307 307 308 308 308 309 307 306 307 307 308 309 309 309 309 311 305 303 301 301 300 301 301 303 306 310 321 325 325 325 323 323 324 325 324 324 324 324 324 325 324 325 324 324 324 324 325 325 326 326 325 325 323 322 319 319 318 319 321 321
306 306 307 307 306 307 307 308 308 306 306 305 305 305 307 308 307 306 308 304 301 299 299 299 298 298 299 301 303 309 318 324 324 324 324 324 325 325 324 323 324 325 324 324 324 325 324 323 325 324 324 326 325 325 325 324 323 321 319 318 318 319 320
305 305 306 306 306 306 307 307 306 305 305 304 304 304 304 305 305 304 304 306 301 299 298 297 296 296 296 298 300 304 309 315 322 323 323 324 325 325 324 325 325 325 324 323 323 324 324 324 325 323 323 325 325 324 324 324 324 321 319 319 318 317 319
305 305 306 306 306 306 306 306 306 305 305 304 304 303 304 303 304 303 303 304 302 299 297 297 296 295 295 296 297 299 303 307 313 320 325 325 325 326 326 325 325 326 325 324 324 324 325 324 324 323 322 322 323 324 323 323 323 323 320 318 318 319 319
304 305 306 306 306 306 306 306 306 305 305 303 303 303 303 302 303 303 302 302 302 300 297 296 295 295 294 295 296 297 300 303 308 313 321 324 324 324 325 325 325 326 326 326 325 324 326 325 324 323 323 322 322 322 322 322 322 321 318 318 318 317 318
304 304 304 304 305 305 305 305 305 305 304 304 304 303 302 302 302 301 302 301 301 299 297 296 296 295 294 294 295 296 298 300 304 309 316 322 324 324 324 325 325 325 326 327 320 320 321 323 323 321 322 322 322 321 321 321 321 319 318 317 316 317 316
302 302 302 302 303 303 303 304 304 304 304 303 303 303 302 302 301 300 300 300 300 299 297 296 297 296 295 294 294 295 297 299 303 308 314 319 322 323 324 324 325 327 321 319 315 311 308 310 316 322 322 322 321 321 321 321 321 319 318 316 315 314 315
301 301 301 301 301 302 302 302 302 302 302 302 302 303 302 301 300 300 299 299 298 298 297 296 294 293 293 294 296 296 296 299 304 309 313 317 320 321 322 324 323 324 322 320 316 308 305 304 305 309 312 316 319 322 321 321 321 320 317 317 316 314 314
300 300 300 300 301 301 301 301 301 300 300 300 301 302 302 302 301 300 299 299 298 298 296 296 292 293 293 292 295 297 299 302 307 310 314 317 320 321 321 320 321 323 323 324 322 316 310 303 300 301 305 308 307 308 311 320 321 319 318 317 316 315 314
299 299 299 300 300 300 300 299 299 299 299 300 299 300 300 301 300 300 299 298 298 297 296 294 292 293 293 292 293 296 302 305 308 312 314 315 319 322 319 318 319 321 324 323 324 320 318 315 304 299 305 308 308 303 302 305 309 321 321 319 318 316 316
298 298 298 299 299 299 298 298 298 299 299 298 298 298 299 299 299 299 298 298 297 297 296 294 292 293 292 292 292 295 300 303 308 311 310 312 307 307 308 311 316 319 320 321 321 321 320 316 313 312 311 314 318 314 302 300 303 306 313 321 319 318 318
298 297 297 297 297 297 297 297 298 299 298 297 297 297 297 298 299 298 297 297 297 296 296 293 292 292 292 292 293 295 297 299 303 306 307 308 306 305 304 303 303 305 306 314 319 318 319 317 316 316 316 317 319 317 318 315 315 319 319 320 320 318 314
296 296 296 296 296 295 296 296 296 298 298 296 297 297 297 298 298 297 297 297 295 295 295 293 292 292 292 292 294 296 296 297 299 300 301 303 302 301 302 301 299 297 298 303 300 291 297 314 317 316 315 317 318 314 304 298 292 293 301 317 319 315 310
296 296 296 295 294 294 294 295 295 297 296 296 295 295 296 297 298 297 297 296 295 294 294 294 292 292 292 292 294 295 295 295 296 296 297 299 299 299 299 299 298 295 295 296 294 290 292 296 319 319 318 318 316 310 306 303 295 293 294 295 295 295 294
295 295 295 294 294 294 294 294 294 295 295 295 295 295 296 297 297 297 296 296 297 295 294 295 293 292 292 292 294 294 295 294 295 295 295 297 297 297 298 299 300 295 294 294 291 290 291 299 313 319 318 318 313 310 306 306 304 300 294 294 295 295 295
295 294 294 294 294 293 293 294 294 294 294 294 294 294 296 296 296 296 296 296 298 296 295 295 293 292 292 292 293 294 294 294 294 294 294 294 295 295 296 297 297 294 294 292 290 290 290 297 311 317 317 317 314 311 307 307 306 306 306 307 307 307 304
295 294 293 294 294 293 294 293 293 293 293 293 293 293 293 295 297 297 297 295 295 295 295 294 294 292 292 292 292 293 293 293 292 293 293 293 293 293 294 294 295 292 290 290 290 290 291 290 298 315 317 316 313 311 308 308 308 308 307 307 306 305 304
294 294 294 294 294 294 293 293 292 292 292 292 292 292 292 293 296 295 295 295 294 294 296 295 294 292 292 292 292 292 292 292 292 294 293 292 292 291 292 292 293 292 290 290 290 290 290 291 291 301 315 317 315 309 305 307 306 304 308 306 304 304 302
296 297 295 294 293 293 293 294 293 292 291 291 291 291 291 291 293 293 292 293 294 293 295 297 294 293 292 292 292 292 292 292 291 294 293 292 291 291 291 292 292 291 290 290 290 290 290 291 291 296 294 294 297 298 308 308 309 308 307 305 303 302 301
296 298 296 294 293 293 293 293 292 292 291 290 290 290 290 290 290 291 290 290 291 292 293 294 294 293 292 291 291 291 291 291 290 293 293 291 291 291 291 291 292 292 290 290 290 290 290 290 292 292 290 293 295 297 302 308 306 307 305 304 302 300 300
295 294 295 294 293 293 292 292 292 292 291 290 289 289 289 290 289 289 289 289 290 290 291 292 293 292 291 291 290 291 290 290 290 291 293 292 292 291 290 290 291 290 290 290 290 290 290 290 291 290 291 292 295 299 306 305 304 302 299 300 300 299 299

ECMWFFLT1_sfc_thetae_075.txt.gz
Theta_e
323 322 323 322 322 323 321 322 323 325 326 327 327 328 328 328 330 329 329 326 327 327 327 326 326 326 326 326 326 327 328 328 327 325 324 325 322 323 327 327 326 327 326 324 322 319 317 314 317 324 327 327 326 327 329 329 330 330 330 331 332 331 331
324 323 323 322 320 320 319 320 322 323 323 324 325 326 326 326 328 328 329 328 328 328 329 328 328 327 326 326 326 327 328 328 328 328 326 325 325 324 324 324 325 325 325 324 324 322 317 315 315 318 320 325 325 326 326 328 329 330 330 330 332 332 331
320 320 320 319 318 319 318 319 320 320 320 321 322 323 324 324 325 327 327 328 328 328 330 330 330 329 328 328 329 328 329 328 329 328 327 327 326 326 325 324 322 322 322 322 321 321 320 319 315 316 319 319 318 322 325 325 327 328 329 330 330 331 331
318 317 316 316 317 317 316 317 318 319 320 320 320 321 322 323 323 326 327 327 328 328 328 328 328 329 330 330 330 330 329 328 328 328 327 327 326 326 325 325 323 323 321 319 320 320 320 317 316 316 318 321 320 319 322 325 326 327 329 329 328 329 329
317 316 315 314 315 314 314 314 316 317 318 319 320 320 320 320 321 321 322 322 322 322 323 324 325 326 328 329 329 329 329 329 329 328 327 326 326 326 326 326 325 325 324 323 323 322 321 320 319 317 317 319 320 321 323 324 326 326 327 328 328 328 329
316 315 315 314 315 313 313 312 313 314 316 316 318 319 318 317 318 317 316 315 315 317 319 321 322 324 326 327 327 328 328 328 328 328 327 326 326 325 325 327 326 325 325 326 325 324 323 323 321 318 319 320 317 319 323 324 322 326 327 327 328 328 328
314 315 314 314 314 313 312 311 311 313 314 315 316 317 317 316 313 311 312 311 311 311 314 315 316 319 322 324 326 326 326 328 328 328 327 327 327 327 327 326 326 326 325 326 325 325 322 321 319 319 318 318 319 318 321 322 325 323 325 328 328 328 328
312 312 312 313 311 310 310 310 311 312 312 313 315 316 316 314 309 309 310 309 308 308 308 308 308 311 313 316 322 325 326 327 327 328 327 327 326 327 326 326 325 326 326 326 326 325 325 323 322 321 319 315 315 317 316 321 322 323 323 325 328 327 328
312 309 308 309 309 309 308 308 309 311 311 312 313 314 314 312 307 306 306 307 307 307 306 305 305 307 307 311 316 317 319 325 325 326 326 326 325 325 325 326 325 325 326 326 326 327 326 325 323 323 321 319 315 312 315 316 319 321 325 322 326 327 327
309 307 306 306 307 307 307 307 308 308 310 311 311 313 312 311 306 305 304 304 304 305 304 303 303 303 304 307 308 310 313 314 316 320 324 325 326 326 326 326 325 325 326 326 326 326 326 325 325 324 323 320 319 315 313 313 316 318 322 325 322 325 328
308 308 307 306 306 305 304 305 305 305 306 309 310 310 310 310 306 305 302 302 302 302 301 301 301 301 302 303 304 306 308 309 311 314 319 323 325 326 326 325 325 325 326 326 326 326 326 326 325 324 323 323 322 318 316 314 315 319 319 323 325 324 327
307 308 307 307 305 304 304 304 304 305 305 306 306 307 307 307 307 304 302 301 300 299 300 299 300 299 299 301 302 302 303 305 307 309 313 317 322 325 325 325 325 325 326 325 326 326 326 326 325 325 324 324 322 321 319 317 313 316 322 319 323 327 327
306 307 307 306 304 303 303 303 303 303 304 305 305 305 304 304 305 304 301 300 299 298 298 298 298 298 298 298 298 299 300 301 303 304 308 312 316 320 323 324 325 325 325 326 325 326 325 325 326 325 324 323 322 321 320 318 315 315 319 321 323 326 328
303 305 305 306 304 303 303 303 302 303 303 302 303 304 303 303 303 302 300 299 298 298 297 297 297 297 297 296 297 297 298 299 299 301 304 307 311 314 317 321 324 325 326 325 325 325 325 325 325 324 324 323 322 322 321 319 316 315 317 319 322 324 327
303 303 303 303 304 303 302 302 302 301 300 301 301 301 301 302 302 301 299 298 297 297 297 297 297 296 295 295 296 297 297 297 298 299 302 303 307 310 312 315 321 324 325 324 325 325 325 324 324 324 324 323 322 321 322 320 318 316 315 316 319 322 324
304 303 303 303 303 303 302 302 302 300 300 300 300 300 300 301 301 300 298 297 296 296 296 296 296 295 295 295 295 296 297 297 298 299 300 302 304 308 310 312 317 322 323 323 323 323 324 324 325 324 324 324 323 322 322 322 319 316 316 316 319 320 322
302 302 302 303 302 302 302 302 302 300 300 300 299 299 300 300 299 298 297 296 296 295 295 295 295 295 295 295 295 296 297 298 299 299 301 302 304 307 310 312 316 321 323 322 322 322 323 323 323 323 323 323 323 323 323 322 321 319 317 316 318 319 320
300 300 300 300 300 300 301 302 303 301 300 299 299 298 299 299 298 297 296 296 295 295 295 295 294 294 295 295 296 296 297 298 299 300 302 303 307 308 311 313 316 319 322 321 322 322 323 322 323 322 322 322 322 322 322 322 321 320 318 316 318 319 320
299 299 299 298 298 299 299 299 300 301 301 299 298 298 297 297 298 296 296 295 295 295 294 295 294 294 294 295 295 296 298 299 301 302 304 305 307 310 309 308 310 314 318 320 321 322 322 322 323 322 321 321 322 322 321 321 321 320 319 319 318 316 318
298 298 299 298 298 298 298 298 298 299 300 298 297 297 297 296 297 296 296 295 295 295 294 294 294 294 294 294 295 296 297 298 300 302 304 305 304 304 306 306 306 307 308 309 311 317 321 322 322 321 322 321 322 321 320 320 321 321 320 319 319 319 318
298 299 299 298 298 297 297 297 297 298 299 297 296 296 295 295 295 296 295 295 295 295 294 294 294 294 293 294 294 295 296 298 299 300 301 301 303 303 303 304 305 306 306 307 306 306 303 304 314 320 322 322 321 320 320 320 320 320 319 318 318 317 318
297 297 297 297 297 296 296 296 296 296 296 297 298 296 295 295 294 294 294 294 294 294 294 294 294 294 293 293 294 295 296 297 298 298 299 299 300 300 300 301 302 304 306 307 304 303 301 301 300 304 314 321 320 320 320 320 319 319 319 318 317 318 317
294 294 295 295 296 296 295 296 296 295 295 295 295 297 295 295 294 294 293 293 294 294 294 294 296 295 295 294 294 294 295 296 296 297 297 297 297 298 298 299 301 305 303 302 302 299 297 297 298 299 300 304 315 320 319 319 318 319 318 317 317 316 315
293 293 293 293 294 295 295 295 294 294 294 294 294 295 294 294 294 294 293 293 293 293 293 294 293 292 292 293 294 294 294 294 295 295 296 296 296 296 297 298 299 301 301 301 300 298 296 295 295 295 296 298 301 309 318 318 318 319 318 317 317 316 315
292 292 292 292 292 292 293 294 293 293 293 293 294 294 293 293 293 293 293 293 292 293 293 295 291 292 292 292 294 294 293 294 294 294 295 295 295 296 295 296 298 298 297 298 299 298 296 295 294 294 294 295 297 298 300 313 318 317 318 317 317 316 316
291 291 291 291 291 291 291 292 292 292 291 293 292 292 292 292 292 292 293 292 292 292 292 294 291 292 291 291 292 293 293 293 294 294 294 294 294 294 294 295 296 297 296 299 299 296 294 293 295 295 296 298 301 301 296 296 300 317 320 318 317 316 317
291 290 290 290 290 290 290 290 290 290 291 291 291 291 291 290 291 291 291 291 291 291 291 293 291 291 291 291 291 292 292 293 293 294 294 294 294 294 294 294 295 295 294 294 295 294 293 292 293 294 297 301 306 309 304 298 298 298 305 318 319 317 318
290 290 290 290 290 289 289 289 289 290 289 289 289 289 289 289 290 290 289 289 290 290 291 292 291 291 291 291 291 293 292 292 293 293 294 294 294 293 293 294 294 294 293 293 294 293 292 291 292 293 297 302 305 310 314 315 312 311 311 315 320 320 320
288 288 289 289 288 288 288 287 288 289 289 287 289 289 289 289 288 288 288 288 289 288 290 291 291 291 291 291 292 292 291 291 292 292 293 294 294 294 293 294 294 293 292 292 293 291 291 292 292 294 296 299 302 306 311 313 307 307 314 318 320 321 321
289 288 288 287 287 287 287 288 288 290 287 287 287 288 289 288 288 287 288 288 288 288 288 291 291 291 291 291 292 291 291 291 291 291 292 293 293 293 293 294 294 292 292 291 292 289 290 292 292 293 294 297 300 303 307 310 299 297 297 297 297 298 296
289 288 287 287 287 287 287 287 288 289 286 286 287 287 289 288 288 288 288 287 290 288 288 291 291 291 291 291 292 291 291 291 290 291 291 292 292 292 292 295 296 292 291 291 290 289 290 291 291 292 293 294 296 299 303 309 306 303 295 295 297 297 298
288 287 287 287 287 287 287 287 287 287 287 286 287 286 290 287 287 287 287 288 292 289 288 291 291 290 291 291 292 291 291 291 290 289 290 290 291 291 291 292 294 292 292 291 289 289 289 291 291 292 293 293 293 295 299 305 307 306 306 305 305 305 304
289 288 287 287 287 288 289 286 287 287 286 287 286 286 286 287 286 286 287 287 288 287 288 290 292 291 291 291 291 292 291 290 289 289 289 290 289 289 290 290 291 290 289 289 289 289 289 290 290 292 292 291 291 292 297 299 301 306 308 307 305 304 304
288 288 288 288 289 288 286 286 286 286 286 286 286 286 286 286 286 286 286 287 287 287 290 290 291 291 291 291 291 291 290 290 290 289 289 289 289 288 289 289 289 291 289 289 289 289 289 289 290 292 291 290 291 292 292 293 298 302 307 304 303 302 302
290 290 290 288 287 286 286 286 287 285 285 285 285 285 285 286 285 285 286 287 287 287 289 292 290 291 291 291 291 291 290 289 290 290 289 288 288 288 288 289 289 290 289 289 289 289 289 289 290 291 290 289 290 290 297 299 301 305 304 303 302 302 301
290 291 290 288 286 286 286 286 286 286 285 285 285 285 285 285 285 285 286 286 287 287 287 290 292 291 291 291 291 291 290 290 290 290 288 287 288 288 288 288 289 291 289 289 289 289 289 289 290 289 289 289 290 291 295 298 300 302 301 301 301 299 299
289 288 289 288 287 285 285 285 286 287 284 284 284 285 285 285 285 285 285 286 286 287 287 287 290 291 291 291 290 290 290 290 290 289 289 287 288 287 287 288 289 289 289 289 289 289 289 289 289 288 289 289 290 292 295 295 295 297 295 295 296 296 296

ECMWFFLT1_sfc_thetae_078.txt.gz
Theta_e
319 318 318 318 319 321 320 321 322 321 323 324 324 324 323 324 326 327 327 328 327 328 330 329 329 329 329 329 329 329 329 328 327 325 325 326 324 324 328 327 327 328 327 326 324 320 318 315 318 325 327 327 327 327 328 328 329 329 329 330 330 330 330
319 318 319 319 318 319 317 318 318 319 320 322 323 322 321 322 324 323 322 322 322 324 325 324 325 326 326 326 328 328 328 329 329 329 327 326 326 325 325 325 326 325 326 326 326 324 318 316 316 318 320 326 327 327 328 328 329 330 330 330 331 331 330
316 316 316 315 315 315 314 315 316 317 318 319 321 319 318 317 317 317 317 316 317 319 321 321 321 322 323 324 324 325 326 326 329 329 327 327 327 327 326 325 323 323 323 322 323 322 322 320 316 317 320 319 319 323 327 328 329 329 330 330 330 331 331
314 314 313 312 312 312 311 312 313 315 317 318 319 317 314 312 313 313 312 312 313 314 315 315 316 317 320 322 324 325 325 325 326 327 327 328 328 327 326 326 324 323 321 319 319 321 320 318 318 318 319 321 320 320 325 328 328 329 329 330 330 330 331
314 313 312 310 310 310 311 310 312 313 314 316 317 315 311 310 310 310 310 309 309 309 309 310 310 311 313 315 319 321 323 325 326 326 325 325 325 326 326 326 324 324 323 322 323 322 320 319 319 318 319 321 321 322 325 327 328 328 328 329 330 330 331
311 311 310 309 309 309 309 310 311 311 313 313 314 313 309 308 308 308 308 307 307 308 307 306 307 308 308 310 313 317 319 320 323 324 324 324 325 324 324 325 325 324 324 325 325 323 323 323 320 317 320 322 318 320 323 325 323 327 328 328 329 330 331
308 308 308 307 308 308 309 309 310 310 310 311 312 311 308 307 306 306 306 305 305 305 305 305 305 305 305 307 309 311 312 315 318 318 320 321 324 326 327 325 325 325 325 326 326 325 323 321 320 319 319 320 321 319 323 323 325 322 325 328 329 330 330
307 306 306 307 306 306 307 307 308 309 309 310 311 311 308 306 305 304 304 303 302 303 303 303 303 303 303 304 307 307 309 311 312 313 315 317 319 322 324 325 324 325 325 325 325 324 325 324 323 321 319 315 316 318 318 322 323 323 323 326 328 329 329
308 306 305 306 306 306 306 306 306 307 308 309 310 311 310 307 305 303 303 302 301 301 301 301 300 301 301 301 303 304 305 307 306 308 311 313 315 318 320 323 324 324 326 326 326 325 326 326 325 324 322 319 315 313 317 316 319 320 326 324 328 329 329
305 304 304 304 304 305 305 305 305 305 306 307 307 308 307 307 304 303 301 301 300 300 300 300 299 299 299 299 300 300 301 302 303 304 306 308 310 313 316 318 321 323 325 326 326 326 326 325 325 325 325 322 319 314 313 313 316 318 323 326 322 326 329
305 304 304 303 303 303 303 303 303 303 304 306 306 305 305 304 303 302 300 299 299 299 299 298 298 298 298 298 299 299 299 300 300 301 303 304 306 309 312 313 315 317 322 324 325 326 326 325 325 325 325 324 323 318 317 314 315 320 320 325 326 325 328
305 304 304 303 303 301 301 301 301 301 302 303 303 303 303 301 300 299 299 298 298 297 297 297 298 297 297 297 298 298 299 299 299 300 302 304 305 307 308 309 312 313 316 319 323 325 326 325 325 325 325 325 323 322 319 317 313 319 323 321 325 328 327
305 304 303 302 301 301 301 300 300 300 300 301 301 302 301 300 299 298 298 297 297 297 296 297 297 296 297 297 297 298 299 299 299 300 301 303 305 306 307 308 309 312 314 316 320 323 325 325 325 325 325 324 324 323 322 318 315 315 321 323 325 326 328
302 303 303 303 301 301 301 301 300 300 300 299 300 300 299 299 298 298 297 297 296 296 296 296 296 296 296 296 297 298 298 299 299 300 301 302 304 305 306 307 309 312 314 316 318 321 323 325 324 325 325 325 323 323 322 319 316 316 320 322 324 324 327
302 302 302 302 302 301 301 300 300 299 298 299 299 299 299 298 298 297 297 296 296 296 295 295 296 295 295 295 296 297 298 298 299 300 301 302 303 305 307 307 309 308 310 312 315 318 322 324 323 323 324 323 323 322 323 320 318 317 316 319 320 324 325
300 300 300 300 300 301 301 301 301 299 298 298 299 299 298 298 297 297 296 296 295 295 295 295 295 295 294 294 295 296 297 298 299 300 301 302 303 305 304 305 306 306 307 307 309 310 313 316 319 322 323 324 323 323 322 322 320 317 317 318 320 320 323
298 298 298 298 298 299 300 300 301 298 298 298 297 298 298 298 297 296 296 295 295 295 294 295 295 294 294 294 295 295 296 297 298 300 301 301 302 303 303 303 303 304 305 305 305 306 308 307 307 311 319 323 322 322 323 322 322 320 319 317 318 320 322
298 297 297 297 297 298 298 299 300 298 297 297 297 297 297 297 296 296 295 295 295 294 294 295 294 294 294 295 295 295 296 296 298 298 300 300 302 301 301 301 301 302 303 303 303 303 304 302 303 305 307 314 321 322 322 322 321 321 319 317 317 320 322
297 297 298 297 297 297 297 297 298 298 298 296 296 296 296 296 297 295 295 295 295 294 294 295 294 294 293 294 294 295 295 296 297 297 298 298 299 300 299 299 300 301 302 301 301 302 302 300 299 300 302 305 309 318 321 321 321 320 320 319 318 317 320
297 297 297 296 297 296 296 296 297 297 298 296 296 295 295 295 296 295 295 295 294 295 294 294 294 294 293 294 294 294 294 295 296 296 297 297 298 298 298 298 299 300 301 301 300 300 300 298 297 297 300 301 303 304 311 320 320 320 319 318 318 318 318
297 297 297 296 296 296 296 296 296 296 297 296 296 295 295 295 295 295 295 294 295 295 294 294 294 294 293 293 293 294 294 294 295 295 296 296 297 297 297 297 298 299 300 301 300 299 299 297 297 296 297 298 299 300 303 310 318 319 318 318 317 317 318
295 295 296 296 295 295 295 295 295 295 295 295 296 296 295 295 294 294 294 294 294 294 294 294 294 293 293 293 293 293 293 294 294 295 295 295 295 296 296 296 297 298 301 303 300 299 298 297 296 294 295 296 297 298 299 303 311 318 318 318 317 318 318
293 293 293 293 294 294 294 294 293 293 293 293 293 295 293 293 293 293 293 293 293 293 293 294 295 294 294 293 293 293 293 293 294 294 294 294 295 295 295 295 297 301 300 300 299 297 295 295 296 295 295 295 295 296 297 300 304 312 317 317 317 317 316
292 291 292 292 292 292 292 292 292 292 292 292 292 292 292 291 291 292 292 291 292 293 293 294 293 291 292 293 294 293 292 292 294 294 294 294 293 294 294 295 295 298 298 298 297 295 294 294 293 293 294 295 296 296 297 299 302 307 313 316 317 317 316
291 291 291 291 291 291 291 291 291 291 291 291 291 291 290 290 290 290 291 291 291 292 292 294 291 292 292 291 293 293 293 292 293 293 293 293 293 293 293 293 294 295 296 296 296 294 294 293 292 292 292 293 294 295 296 299 302 304 308 313 316 317 317
290 290 290 290 291 291 290 290 290 290 290 291 290 290 289 289 289 289 290 289 290 291 291 293 291 291 291 291 291 293 292 292 292 292 292 293 293 293 293 293 293 294 295 298 296 293 292 292 293 293 293 294 295 296 294 294 296 303 307 308 311 316 317
289 289 290 290 290 289 289 289 289 290 290 290 289 289 289 288 289 289 290 289 290 291 291 293 291 291 291 291 291 292 292 292 292 292 292 292 292 292 292 292 292 292 293 293 293 292 291 291 291 292 293 294 296 297 297 297 297 299 301 306 309 312 318
290 289 289 289 289 289 288 288 289 290 289 288 288 288 288 288 289 289 289 289 290 290 291 292 291 291 291 291 291 292 292 292 292 292 292 292 292 292 291 292 292 292 291 291 292 292 291 290 291 291 292 293 294 296 297 299 301 303 305 309 310 311 314
288 288 288 288 288 288 288 288 288 289 289 287 288 288 289 289 288 287 288 288 289 289 290 291 291 291 291 290 292 293 292 292 292 291 291 291 292 292 292 292 292 291 291 291 292 290 291 291 291 291 291 292 294 295 297 299 297 298 301 303 306 311 316
289 288 288 288 288 287 287 288 288 290 287 287 287 287 288 288 288 287 288 288 289 289 289 291 291 291 291 291 292 292 292 292 291 291 291 291 291 291 291 292 292 291 291 291 291 289 289 291 290 290 290 291 292 293 294 297 296 296 296 296 296 296 296
289 289 287 287 287 287 287 288 288 289 286 286 287 286 288 287 287 288 288 287 290 288 288 291 291 291 291 291 293 292 292 291 291 290 290 291 291 291 291 294 295 291 290 291 290 289 289 291 290 290 290 290 290 291 292 294 295 296 296 296 297 297 296
288 287 288 287 288 287 288 288 288 287 287 286 287 287 290 287 287 287 288 288 291 289 289 291 292 290 291 291 292 293 292 291 290 290 290 290 290 290 290 292 293 292 292 291 289 289 289 290 290 290 290 290 289 289 291 292 293 294 296 298 300 305 305
289 288 287 287 287 288 289 287 287 286 287 286 286 286 287 287 286 287 287 287 288 288 289 291 292 290 291 291 291 293 292 291 289 289 289 289 289 289 290 290 291 290 289 289 289 289 289 289 290 291 291 289 288 288 291 292 295 298 300 299 299 303 305
289 288 288 288 290 289 287 287 287 286 286 286 286 286 286 287 286 287 287 287 288 288 290 291 291 290 291 291 291 291 292 291 290 290 289 289 288 288 288 289 290 291 289 289 289 289 289 289 290 291 290 289 289 290 291 294 297 298 300 301 303 302 302
289 290 290 288 287 287 287 287 288 286 286 286 286 286 286 287 286 286 287 287 288 287 289 291 290 291 290 290 290 291 291 291 291 290 289 288 288 288 288 289 290 290 289 289 289 289 289 289 289 291 289 288 289 289 292 295 297 298 297 297 298 298 298
290 291 290 288 286 287 286 286 286 287 285 286 285 286 286 286 286 286 286 287 287 287 288 289 290 290 290 290 290 290 290 290 290 291 289 288 288 288 289 289 291 291 289 289 289 289 289 289 290 289 288 288 289 289 292 294 294 296 295 295 295 295 295
289 289 289 288 288 286 287 287 287 286 285 285 285 286 286 286 286 286 285 286 287 287 288 288 289 290 290 290 290 290 289 289 290 290 290 289 289 289 289 290 290 289 289 289 289 289 289 289 289 289 288 289 289 290 292 292 292 293 293 293 293 293 294

ECMWFFLT1_sfc_thetae_081.txt.gz
Theta_e
323 321 322 322 323 323 322 322 324 324 325 322 320 319 319 319 320 319 320 320 321 323 324 323 324 325 325 326 327 327 329 329 329 327 327 328 326 327 332 330 330 332 332 332 328 321 318 316 319 328 332 332 333 333 332 332 333 333 334 336 333 333 334
322 321 321 321 320 321 320 321 322 322 323 321 317 315 315 316 316 315 316 315 316 318 319 319 320 321 322 323 323 324 326 327 328 329 327 327 327 325 326 327 328 328 329 329 327 326 321 318 318 321 323 329 333 332 333 334 333 334 334 334 336 335 334
320 319 319 317 318 319 319 320 321 321 321 320 318 315 314 314 315 314 313 314 314 315 315 315 315 317 318 321 323 324 324 324 327 327 326 327 327 327 327 326 325 326 326 326 326 325 323 324 317 318 322 322 321 326 333 333 334 334 335 335 338 336 335
317 317 316 316 316 317 318 318 319 319 319 316 315 314 313 313 313 313 312 312 313 314 312 312 313 314 315 317 320 322 323 322 323 325 325 326 327 326 326 326 325 324 322 321 321 322 322 320 320 320 322 322 321 321 327 331 333 334 334 336 337 335 334
315 314 314 313 314 314 315 315 316 316 316 314 312 310 310 311 311 310 310 309 309 310 309 309 311 310 311 313 316 317 318 319 321 321 321 322 322 324 326 327 326 326 325 324 324 324 322 321 321 320 320 322 323 324 326 330 334 335 335 336 335 335 335
313 313 313 313 314 313 314 314 314 313 314 313 311 309 309 309 309 309 308 307 306 307 308 308 308 309 309 310 312 313 313 314 315 315 315 317 319 320 322 325 326 326 326 328 328 326 325 325 323 319 322 325 321 322 325 328 328 332 333 333 334 334 334
313 313 313 312 312 313 313 312 312 312 312 312 311 309 309 308 308 308 308 307 307 307 307 307 308 308 307 308 309 308 308 310 310 309 311 313 314 317 318 319 322 323 325 327 327 326 325 323 321 321 321 321 324 321 325 325 326 325 329 333 334 333 334
311 311 311 311 311 311 311 311 310 311 310 310 309 310 308 307 307 307 307 306 306 306 306 306 306 306 307 307 307 306 307 307 306 307 308 309 309 311 313 315 317 320 322 324 325 325 326 325 323 323 322 317 319 323 321 323 324 325 325 330 333 333 333
310 310 309 310 310 310 310 310 309 310 310 310 310 308 307 306 306 305 305 305 305 305 305 305 305 305 306 305 304 305 304 306 305 306 307 308 308 310 311 314 314 316 318 320 321 322 323 325 325 325 324 322 317 315 319 320 322 324 328 327 331 334 333
308 308 307 308 308 308 308 308 308 308 309 309 308 307 306 305 305 305 305 304 304 305 305 304 304 305 305 305 304 304 304 304 305 305 306 306 308 309 310 312 312 313 315 317 318 318 319 321 324 325 325 323 322 318 316 316 319 320 325 328 327 331 334
307 307 307 307 307 307 306 307 307 306 306 306 306 306 305 305 304 305 304 304 304 304 304 304 304 304 304 304 305 305 305 305 305 305 306 307 307 308 309 310 311 312 314 315 315 317 319 320 323 325 325 325 327 320 320 317 317 323 323 327 329 328 333
307 307 307 307 307 305 305 305 305 304 305 305 305 304 304 303 303 303 303 303 303 303 303 303 303 303 304 303 304 304 305 305 305 305 306 307 307 308 308 308 310 311 312 311 312 314 315 316 317 318 319 323 326 326 321 320 314 323 327 324 327 331 332
307 306 306 306 305 304 303 304 304 304 304 305 304 304 303 302 302 302 302 302 302 302 302 302 302 302 303 302 303 303 304 305 304 305 305 306 307 307 307 307 308 308 308 308 309 311 311 312 312 312 313 315 318 321 322 320 316 317 327 327 328 331 333
306 306 306 305 304 303 303 304 303 304 304 303 303 303 302 302 302 302 302 301 301 301 301 301 301 302 301 301 302 302 303 303 303 304 305 305 307 306 306 305 306 306 306 306 307 308 308 309 309 309 309 310 311 315 317 317 317 318 325 331 331 330 329
304 304 304 304 304 303 303 303 304 303 303 303 303 302 302 302 302 302 301 301 301 301 301 301 301 301 300 300 301 302 302 302 302 302 303 303 304 305 305 304 304 304 305 305 306 305 306 306 306 306 305 305 307 309 312 311 313 316 318 326 328 330 331
303 303 303 303 302 303 303 303 303 302 302 302 303 302 302 302 301 301 301 301 300 300 300 300 301 300 300 300 300 300 301 301 301 301 301 302 302 303 303 303 303 303 304 304 304 304 304 304 304 303 303 304 304 305 307 309 309 310 314 319 326 327 328
303 303 302 302 302 302 302 302 302 302 302 302 301 302 302 301 301 301 300 300 299 299 300 300 300 300 300 300 300 299 300 300 301 301 301 301 301 302 302 301 302 302 302 302 302 302 302 302 301 301 301 302 302 302 304 306 308 308 312 315 322 324 324
302 302 302 302 302 302 302 302 303 301 302 301 301 301 302 302 301 300 300 299 299 299 299 299 299 299 299 300 300 300 300 300 300 300 300 300 301 301 301 301 301 301 301 301 301 300 300 300 299 299 299 300 300 300 301 302 304 308 309 312 317 323 325
301 301 301 302 302 301 301 301 301 301 300 300 300 300 301 301 301 300 299 299 299 299 299 299 299 299 299 299 300 300 300 300 300 300 300 300 300 300 300 300 300 300 300 299 299 299 300 299 298 297 297 298 298 299 299 300 303 305 307 311 315 317 322
302 301 301 300 300 299 299 299 299 298 299 299 299 299 300 300 300 300 300 300 299 299 299 299 298 298 298 299 299 299 299 299 299 300 300 300 300 300 300 299 299 299 299 299 299 298 298 297 297 297 297 297 297 297 297 297 299 301 304 308 313 318 320
301 299 299 298 298 298 298 298 298 298 298 298 298 298 298 299 300 300 300 299 299 300 299 298 297 297 298 298 299 299 299 299 299 299 299 299 300 299 299 299 299 299 299 299 299 298 297 295 295 295 296 296 296 295 295 296 297 299 302 305 310 313 318
299 298 298 298 298 298 298 298 298 298 298 298 298 298 299 299 298 299 299 299 299 299 299 298 297 296 296 297 299 299 299 298 298 298 298 298 298 298 299 299 299 299 300 300 298 298 297 296 295 293 294 295 295 295 295 296 297 298 301 303 306 311 314
297 298 298 297 298 298 298 298 298 297 297 297 298 298 298 298 298 298 298 298 299 299 298 298 296 294 294 296 298 299 299 298 298 298 298 297 297 298 298 298 298 300 299 298 297 296 295 294 295 295 294 294 294 294 294 295 297 298 299 300 302 306 308
298 297 298 298 298 297 297 297 297 297 297 297 297 298 298 297 298 298 298 298 298 299 298 297 293 292 292 292 296 299 298 297 298 298 298 297 296 297 297 297 297 298 298 297 297 295 294 294 293 293 293 294 295 295 295 295 296 298 297 297 300 303 305
297 297 297 296 297 297 297 297 296 296 296 297 297 297 297 297 297 298 298 298 298 298 298 294 291 292 292 292 293 297 298 297 297 298 297 296 296 296 295 295 296 296 296 296 296 295 295 294 293 293 293 293 293 293 294 296 296 296 297 296 297 300 302
297 297 296 297 297 297 296 296 296 296 295 296 297 296 296 297 297 297 298 297 298 298 299 293 291 292 292 291 291 295 298 298 297 297 297 296 296 295 295 294 294 295 295 297 297 295 294 294 294 293 294 295 295 295 293 292 293 297 298 297 298 299 301
296 296 297 297 296 296 296 296 296 296 296 296 296 296 296 296 297 297 297 298 298 298 298 294 291 291 292 291 291 293 298 298 298 297 296 296 296 295 295 294 293 294 294 295 295 294 293 293 293 294 296 297 298 298 296 295 294 294 296 298 298 298 301
296 296 296 297 296 296 296 296 296 296 296 295 295 295 295 296 296 297 297 298 298 298 297 292 291 291 291 291 291 294 298 297 297 296 297 296 296 295 295 294 294 294 294 294 294 293 292 292 292 293 294 295 296 298 298 299 300 300 299 298 297 298 299
296 296 296 296 296 295 296 296 295 296 296 296 296 296 296 296 296 296 297 297 297 297 298 292 291 291 291 291 292 297 297 296 296 296 296 296 296 296 295 295 294 293 293 294 294 291 291 292 292 292 292 294 295 296 297 298 295 295 297 297 298 298 299
296 296 296 296 295 295 295 295 295 296 295 295 295 295 295 295 296 296 296 296 296 297 298 294 290 290 291 290 294 297 297 296 296 295 295 296 296 296 296 295 295 294 293 294 292 289 290 291 292 292 292 292 293 294 295 298 295 294 293 293 293 294 294
296 296 296 295 296 296 296 296 296 296 295 295 294 295 295 295 295 295 295 295 295 296 297 295 291 290 290 290 293 297 296 295 295 295 295 296 296 296 296 296 296 295 293 294 290 289 290 291 291 291 291 290 291 292 293 295 295 296 296 296 296 296 296
297 297 296 296 297 296 296 296 296 297 296 296 295 296 295 295 295 295 296 296 294 296 297 296 292 290 290 290 293 297 296 295 294 294 294 294 295 295 295 296 295 294 293 292 289 290 289 291 291 291 290 290 289 289 291 292 293 294 296 299 301 302 303
298 297 296 297 297 297 297 297 296 296 296 296 295 295 295 295 295 295 296 296 296 297 296 297 296 290 290 290 291 295 296 294 294 294 294 294 293 294 295 295 295 292 290 289 289 289 289 290 291 291 291 289 288 287 291 292 294 294 295 297 299 300 301
298 298 298 297 297 297 297 297 297 296 296 296 296 295 295 295 295 295 296 296 296 297 296 296 296 291 290 290 290 292 297 295 295 294 294 294 294 293 294 294 295 292 289 289 289 289 290 290 290 291 290 289 289 290 291 292 293 294 295 296 297 298 299
300 299 298 298 297 297 297 297 297 297 296 296 296 296 296 295 295 294 295 295 296 296 296 294 295 293 290 290 290 290 294 295 293 295 294 294 294 294 294 294 294 292 289 289 289 289 289 290 290 292 290 289 289 289 291 293 293 293 293 294 295 296 297
300 300 299 298 298 297 297 297 297 297 297 296 296 296 295 296 295 295 295 295 295 296 296 296 293 294 291 290 290 290 289 292 290 295 295 295 294 294 295 295 294 291 289 289 289 289 290 290 291 291 289 289 289 289 290 292 291 291 291 292 293 294 295
300 300 299 298 298 298 297 297 297 297 297 296 295 295 295 295 295 294 294 294 294 295 296 296 294 292 293 290 290 289 289 289 289 293 296 295 295 295 294 294 293 289 289 289 289 289 290 290 290 289 289 289 289 290 291 290 290 290 290 290 290 291 292

ECMWFFLT1_sfc_thetae_084.txt.gz
Theta_e
329 327 326 326 327 326 326 325 326 323 322 321 321 320 321 321 322 321 323 324 323 323 323 323 323 325 326 327 328 329 329 329 329 327 327 329 327 327 332 331 332 332 333 332 330 324 320 319 322 328 330 331 332 334 334 333 333 334 335 337 338 339 340
327 326 325 325 324 325 324 325 325 323 321 321 320 320 320 320 320 320 321 321 322 322 322 323 323 324 325 325 324 324 324 324 324 327 327 326 327 326 327 328 329 329 329 330 330 328 322 320 319 321 323 329 331 332 333 334 335 335 334 334 334 338 340
324 323 323 321 322 324 323 323 323 320 320 321 320 318 319 318 318 319 318 318 318 318 318 319 320 321 321 322 323 323 323 323 323 323 322 322 323 324 326 326 325 326 327 326 326 325 325 324 319 320 323 323 322 326 331 331 333 334 336 335 336 337 337
321 321 320 320 321 321 321 320 320 319 319 318 318 317 317 317 318 317 317 317 318 318 317 317 318 317 318 319 321 322 321 320 319 319 320 322 322 322 321 322 323 324 324 324 323 324 324 322 321 321 323 323 322 323 328 330 331 333 334 334 334 336 337
320 320 319 318 319 319 320 319 319 319 318 317 316 315 316 316 317 317 317 317 316 316 316 316 317 316 317 318 318 317 317 318 317 315 316 317 317 318 319 320 320 322 323 323 325 326 324 323 322 321 321 323 324 325 327 331 333 332 333 335 336 336 337
318 318 317 317 318 318 318 318 317 316 316 315 314 314 315 316 316 315 315 314 314 315 315 315 315 315 315 315 315 314 314 314 313 313 313 315 315 315 315 318 320 320 319 321 323 323 323 324 323 320 322 324 322 323 326 327 327 329 331 332 334 335 337
317 317 316 316 317 317 317 316 315 315 314 314 314 314 314 314 314 314 314 314 314 314 314 314 314 314 314 313 313 311 311 312 311 312 312 313 314 315 316 316 317 317 319 320 320 320 320 319 318 319 319 321 323 322 325 324 327 325 327 331 333 334 336
315 315 315 316 316 315 315 315 315 314 313 314 313 314 313 313 313 313 313 313 313 313 313 313 313 314 314 313 312 311 310 310 311 311 311 312 312 312 314 314 314 315 316 317 318 318 319 319 318 318 318 316 317 320 321 323 325 325 326 329 332 332 333
315 315 314 314 314 315 315 314 313 313 313 313 313 313 312 312 312 311 311 311 311 312 312 312 312 312 313 312 311 311 310 311 311 311 311 311 311 312 312 313 313 313 315 316 315 315 315 317 317 317 317 315 310 310 316 318 321 322 326 326 329 333 334
314 313 312 313 313 313 314 313 312 312 313 313 312 312 311 311 311 310 310 310 310 310 311 311 310 311 312 312 312 311 311 312 312 311 311 310 311 311 311 311 311 312 313 314 314 313 314 315 315 315 314 312 311 309 308 310 315 318 323 326 323 327 332
313 313 312 312 313 313 312 312 313 312 311 311 311 311 311 310 310 310 309 309 309 309 309 310 310 310 311 310 311 310 310 311 311 311 311 311 311 311 311 311 312 311 312 312 312 313 313 312 312 312 312 313 313 309 309 306 308 316 320 324 327 326 330
312 312 311 311 312 311 311 311 311 310 311 311 310 310 309 309 309 308 309 308 308 307 308 308 309 309 309 308 308 308 309 310 309 309 311 311 310 310 310 310 311 311 311 311 312 312 313 312 311 310 310 312 312 311 309 308 304 310 316 317 322 325 329
310 310 311 311 310 310 309 310 310 310 310 310 309 309 309 308 308 307 307 307 307 307 306 307 308 307 308 307 307 307 307 308 307 307 309 309 309 309 309 308 309 309 309 309 309 310 310 311 310 309 309 309 309 310 310 307 304 305 312 315 318 322 323
310 310 310 310 310 310 310 310 309 309 309 309 309 308 308 308 307 307 306 306 306 306 306 306 306 307 306 306 306 306 306 306 305 306 307 307 308 308 308 307 307 307 308 308 307 308 308 308 308 308 309 308 307 308 307 305 302 303 308 314 315 317 323
309 310 310 309 309 308 308 308 309 309 308 308 308 307 307 308 307 307 306 305 305 305 305 305 306 306 305 305 305 306 305 305 305 305 306 305 306 307 307 306 306 306 307 307 307 306 307 306 306 305 306 306 306 306 307 303 302 303 303 308 310 314 316
308 308 308 308 308 307 307 308 308 308 307 307 308 307 307 307 307 306 306 305 305 304 304 304 305 305 304 304 304 304 304 304 304 304 304 304 305 306 305 305 304 304 306 305 305 306 306 305 305 304 304 304 304 305 306 305 303 301 301 303 308 310 313
308 308 307 307 308 308 308 307 307 307 307 307 306 307 307 306 306 306 305 305 304 303 304 304 304 304 304 304 304 303 303 304 304 304 303 304 304 304 304 303 303 303 304 303 303 303 304 303 302 302 303 303 303 303 305 305 305 302 302 301 306 307 311
307 306 306 306 306 306 306 306 306 305 306 306 306 306 307 306 305 305 305 304 304 303 303 303 302 303 303 304 304 304 303 303 304 304 304 304 303 303 303 303 303 302 302 301 301 301 301 301 300 300 300 301 301 301 302 303 303 304 303 302 304 308 310
305 305 305 305 305 305 305 305 305 305 305 305 306 305 306 306 305 305 304 304 304 303 302 302 302 302 302 303 304 304 304 304 303 304 303 303 303 303 303 302 302 302 301 300 300 300 299 298 298 298 298 299 299 300 300 301 302 303 303 303 304 304 308
304 304 304 305 305 304 304 305 304 304 305 305 305 305 305 305 305 305 304 304 303 303 302 301 301 301 301 301 302 303 304 303 303 304 304 303 303 303 302 302 302 302 301 300 299 298 297 297 297 297 298 298 298 299 298 299 300 301 302 303 304 306 306
304 304 304 304 304 305 304 304 304 305 305 304 304 304 304 304 305 305 305 304 303 302 301 300 300 300 300 300 301 303 304 303 304 304 304 303 303 302 302 302 302 301 301 300 299 298 298 296 296 296 297 297 297 297 298 299 299 299 300 301 302 302 305
304 304 304 304 304 304 304 304 304 304 304 304 305 304 304 305 304 304 304 303 302 301 301 300 300 298 299 298 301 303 303 303 303 302 302 302 302 302 302 302 301 301 300 300 298 298 297 296 296 295 296 297 297 296 296 297 298 298 299 300 300 302 303
303 303 303 303 303 304 304 304 304 304 303 303 304 304 304 305 304 304 303 302 302 301 300 300 296 293 294 297 300 302 304 303 303 302 302 301 301 301 301 301 301 301 299 298 298 296 295 295 296 296 296 297 296 295 295 295 296 297 298 297 298 299 299
302 302 302 303 303 302 303 304 304 303 303 303 304 304 304 304 304 303 303 302 301 301 300 298 292 292 292 292 297 302 302 302 302 302 301 300 299 300 300 300 300 300 299 298 298 296 295 294 294 294 294 295 296 296 296 295 296 297 297 297 298 298 298
301 301 302 301 302 302 303 302 302 303 303 303 304 304 304 303 303 304 303 303 302 301 301 294 291 292 292 291 293 299 303 302 302 301 300 300 299 299 298 298 298 299 299 298 298 298 296 295 294 293 293 294 294 294 294 297 296 295 296 295 296 297 298
301 301 301 301 302 302 302 302 302 302 302 303 304 303 303 303 303 303 303 302 301 300 300 293 291 291 292 291 291 295 302 301 301 300 300 300 299 298 298 297 297 297 297 299 299 297 296 296 295 294 295 296 296 296 294 293 294 298 298 297 296 296 298
300 300 301 301 301 301 301 301 302 303 303 303 303 302 303 302 302 303 302 302 302 301 299 294 291 291 291 290 291 294 302 301 301 300 299 299 299 298 298 297 296 296 297 298 298 296 295 295 295 296 297 298 298 298 296 295 295 295 297 298 297 296 298
300 300 300 301 301 301 301 302 301 302 302 302 301 301 301 302 302 302 302 302 302 300 298 291 291 290 291 291 290 295 302 301 300 300 300 300 300 299 298 298 297 297 297 297 297 294 294 294 294 295 296 296 296 297 298 298 299 299 298 297 296 296 297
300 300 300 300 300 300 301 301 301 301 301 301 302 301 301 302 301 301 301 302 301 300 298 291 291 291 290 291 291 301 300 300 299 299 300 300 300 299 298 298 297 297 297 297 295 291 291 293 294 294 294 295 296 297 298 298 295 295 296 296 296 296 297
300 300 300 300 300 300 300 301 301 302 301 301 300 300 301 301 301 301 300 301 301 301 300 294 291 291 291 290 294 300 299 299 299 299 299 299 299 299 299 298 297 297 297 297 293 289 290 291 295 294 293 293 294 295 296 298 295 293 293 293 293 293 293
300 300 300 299 300 300 301 301 301 302 300 300 299 300 301 301 301 301 300 299 300 300 300 296 291 291 291 290 293 299 298 298 298 298 299 299 299 299 299 299 298 296 296 295 291 289 289 293 294 293 293 292 291 292 294 295 295 295 294 293 294 294 294
301 300 300 300 301 300 300 301 301 302 301 301 300 300 300 300 300 301 301 301 298 299 300 298 292 291 290 291 294 299 298 297 297 298 298 298 299 298 298 298 297 295 295 293 289 290 289 292 294 294 292 291 290 290 291 292 292 292 293 294 295 296 296
301 301 300 301 301 300 301 301 302 301 301 300 300 300 300 300 300 300 301 301 300 300 299 300 297 291 291 291 291 296 298 297 296 297 297 296 296 297 297 298 297 292 290 290 289 289 289 290 293 294 293 291 289 288 291 292 293 292 292 293 293 294 295
302 302 301 301 301 301 301 301 302 301 300 301 301 301 301 301 300 300 300 300 300 300 299 298 298 291 291 291 290 292 298 297 296 297 297 296 296 296 296 296 298 294 291 290 290 289 290 290 291 295 293 291 291 291 291 292 292 292 292 293 293 293 293
303 303 302 302 301 301 301 302 302 301 301 301 301 301 301 300 300 300 300 300 300 300 300 297 298 294 291 291 291 290 296 298 296 297 296 296 296 296 296 296 297 294 291 290 289 290 290 290 290 295 293 289 289 289 292 293 293 292 292 292 291 291 292
302 303 303 302 302 301 301 301 301 302 302 301 300 300 300 300 300 299 299 299 300 300 301 300 294 297 293 291 291 291 290 294 291 297 297 296 296 296 297 297 297 294 290 290 290 290 290 290 292 293 289 289 290 290 292 293 292 291 291 291 290 290 290
303 303 303 302 302 302 301 301 300 301 301 300 299 298 298 299 299 298 297 298 299 299 300 300 295 292 295 292 291 290 290 290 290 297 298 297 297 297 296 297 296 291 290 290 290 290 290 291 294 290 289 289 290 291 293 292 292 291 290 290 289 290 290

ECMWFFLT1_sfc_thetae_090.txt.gz
Theta_e
327 325 326 326 327 325 324 323 323 322 322 322 321 320 321 321 322 322 321 321 320 320 321 319 319 320 321 322 321 321 320 319 318 316 315 317 314 315 318 318 318 319 319 320 320 317 315 312 314 320 322 322 323 324 328 327 326 327 328 329 330 329 329
328 327 326 326 324 323 321 322 321 319 320 321 320 320 320 320 320 320 319 318 318 319 319 319 319 319 320 319 318 318 317 317 316 316 316 314 314 314 314 315 316 316 316 317 318 317 313 311 311 312 313 318 319 321 322 323 324 324 324 325 327 328 329
326 325 325 324 323 323 321 320 321 321 319 320 320 319 319 318 318 318 317 317 317 318 318 317 317 318 318 317 317 317 315 315 314 315 315 313 314 314 314 313 312 313 313 313 314 313 313 313 309 309 311 311 310 314 318 319 319 320 321 322 324 326 326
325 324 323 322 322 321 319 318 318 319 319 319 320 318 318 317 317 317 317 316 317 318 317 315 316 316 316 315 315 315 314 314 313 314 314 314 313 313 312 313 311 311 310 310 310 311 310 309 308 308 309 310 310 309 313 315 316 317 318 320 321 322 324
324 322 322 321 321 319 319 317 318 319 318 319 318 316 316 316 316 315 316 315 315 315 315 316 316 316 316 314 315 314 313 314 314 314 313 312 312 312 312 312 312 312 312 312 312 311 309 308 308 306 307 308 308 309 311 312 314 315 316 317 318 320 320
322 322 322 321 320 319 318 317 316 315 316 315 314 314 314 314 314 314 313 313 313 314 315 315 315 315 316 315 313 314 314 313 313 313 311 312 311 310 311 312 313 314 312 313 312 310 310 309 308 305 306 308 304 305 307 308 309 311 313 315 317 316 317
320 321 320 318 318 317 317 315 315 315 314 313 313 313 313 312 312 312 313 313 313 313 313 314 315 314 315 312 312 313 313 314 313 313 312 313 312 312 311 310 310 312 312 311 309 309 307 307 305 304 304 304 304 302 305 305 307 305 308 311 312 313 314
318 317 317 318 317 316 315 315 316 315 313 312 311 313 313 313 312 312 311 312 312 312 312 312 313 313 313 312 311 312 313 314 313 312 311 311 310 311 310 310 310 310 308 308 308 308 307 307 306 305 303 299 299 300 300 302 303 303 304 307 309 310 311
317 317 316 316 316 316 316 315 314 313 312 311 312 312 312 312 312 310 309 310 311 311 311 311 310 310 311 311 310 310 309 312 311 310 309 310 308 310 309 310 309 308 307 307 307 307 307 307 306 305 303 301 298 295 298 298 299 300 304 303 306 308 308
315 314 314 315 315 316 317 314 313 312 313 313 312 313 312 312 311 311 310 309 310 310 310 310 310 309 310 310 309 308 308 310 310 310 309 308 308 309 308 308 306 306 305 307 307 306 306 306 305 304 303 301 300 297 295 294 296 297 300 303 300 303 306
315 314 314 314 315 314 314 313 313 312 311 312 312 312 312 311 311 311 309 309 309 309 309 309 309 309 309 308 308 308 308 309 308 309 308 308 308 308 308 307 305 305 305 305 305 305 305 305 303 303 302 302 301 298 297 294 295 298 298 301 302 301 303
314 314 314 314 314 312 312 312 311 312 312 312 312 311 310 309 309 309 309 308 308 308 308 308 309 308 308 307 307 307 307 307 307 306 308 308 307 307 306 306 305 304 304 304 304 304 304 303 301 301 300 301 300 299 297 296 293 297 300 297 300 303 302
313 313 313 313 312 310 309 310 310 311 311 311 311 310 309 308 308 307 307 307 307 307 306 307 308 307 308 307 307 306 306 306 305 305 306 306 307 306 304 303 303 303 303 302 302 302 301 300 300 299 299 299 298 298 298 296 294 293 298 298 299 301 302
312 312 312 313 311 310 311 310 310 310 310 310 310 309 308 307 306 306 306 305 304 304 305 305 306 306 306 306 307 306 306 305 305 305 305 304 305 304 304 302 302 302 302 301 300 300 299 299 299 298 299 298 297 297 297 295 293 293 296 299 299 299 301
312 311 311 311 310 309 309 310 310 310 309 309 309 307 308 308 307 306 305 303 303 303 303 303 304 304 303 305 307 307 306 305 305 304 304 302 303 304 304 302 301 301 302 300 299 298 298 298 297 297 297 297 296 296 297 295 294 293 292 296 297 299 299
310 310 310 310 309 308 309 309 309 309 308 309 309 308 308 307 307 305 303 303 302 301 301 301 302 302 302 303 304 305 306 305 305 304 303 302 302 302 302 301 300 300 301 299 298 298 298 297 297 296 296 296 296 296 297 297 295 293 293 293 296 296 297
310 310 309 309 308 308 309 309 309 309 308 308 308 308 308 306 306 304 303 302 301 300 299 299 300 301 302 302 304 305 304 305 304 303 303 302 302 301 300 300 299 299 299 297 297 297 297 297 296 296 295 296 296 296 296 296 296 294 293 292 294 295 297
309 309 308 308 309 309 308 308 308 307 308 308 308 308 307 306 305 304 303 301 300 299 298 298 299 300 301 303 305 305 304 304 304 303 304 303 303 301 300 299 299 298 298 297 296 296 296 296 296 295 295 295 295 296 296 295 295 295 294 292 293 296 297
308 308 308 308 308 308 308 308 307 308 307 306 307 307 306 305 304 302 302 300 299 298 297 298 298 298 299 301 303 305 305 305 305 303 303 302 301 301 300 299 299 298 297 296 296 296 296 295 295 294 294 294 295 295 294 294 295 294 294 294 294 294 296
307 307 307 307 308 307 307 307 306 306 307 307 306 306 306 305 305 303 302 300 298 297 297 297 297 297 298 299 300 303 305 304 304 303 302 302 301 301 300 299 299 299 297 297 296 296 295 294 294 294 294 294 295 294 294 294 294 294 294 293 294 294 294
307 307 307 306 306 307 306 306 307 307 307 307 307 306 305 304 304 303 302 300 298 297 296 296 296 295 296 297 298 300 303 304 303 301 302 302 302 300 300 299 299 298 298 298 297 295 294 293 293 293 294 294 294 294 294 294 294 293 293 293 292 292 294
306 306 306 306 306 306 306 306 306 306 306 307 308 306 305 305 303 302 301 300 297 297 296 296 295 294 294 295 297 300 301 303 302 302 301 302 301 300 299 299 299 299 300 302 299 298 297 296 294 292 293 294 294 294 294 294 293 293 292 292 292 293 293
305 305 305 305 305 305 305 306 306 306 306 306 306 306 305 304 302 301 299 298 298 297 295 296 295 293 293 294 295 299 300 303 303 302 301 301 300 300 299 299 301 302 301 301 298 296 295 295 296 295 294 294 294 294 294 293 293 292 292 291 291 292 291
304 304 305 305 305 305 305 306 305 306 306 306 306 306 305 303 301 299 298 297 297 296 295 295 293 291 292 292 295 296 299 302 303 302 301 299 299 299 298 298 299 299 300 299 297 295 294 294 294 294 295 296 297 296 294 293 293 293 292 292 292 292 291
303 303 303 303 304 304 305 305 304 305 305 305 305 306 305 303 302 300 298 297 296 296 295 294 291 292 292 291 293 295 299 303 302 302 300 299 299 299 298 298 298 299 298 297 296 295 295 295 294 294 294 294 294 294 294 294 293 293 293 291 291 291 291
302 302 302 303 304 304 303 303 303 303 304 305 305 304 304 305 303 301 298 296 295 295 295 293 291 292 292 291 291 294 299 304 301 301 300 299 299 299 298 298 297 298 298 300 298 295 294 294 295 295 295 296 296 295 293 292 293 295 294 292 291 291 291
301 302 302 302 303 302 303 302 303 303 303 303 303 304 304 304 304 302 300 298 296 295 295 293 291 292 292 291 291 293 301 302 302 302 300 299 300 300 298 298 297 296 296 296 295 294 293 293 293 294 294 295 295 296 295 294 294 294 294 294 293 291 293
301 301 302 302 303 302 302 303 303 303 304 303 303 302 302 303 304 303 301 299 298 296 295 292 291 291 291 291 292 296 301 301 301 301 302 301 300 301 299 299 297 296 296 295 295 293 293 292 292 293 294 294 294 294 295 295 295 294 295 295 294 294 294
301 301 301 302 302 302 303 302 302 303 303 302 303 302 302 302 303 303 304 301 299 296 295 291 291 291 292 291 293 299 300 298 299 299 300 301 299 300 299 297 296 296 296 295 295 292 292 293 292 292 292 293 294 294 294 297 295 294 295 295 295 295 295
301 301 301 301 301 301 301 302 302 303 302 302 302 301 301 300 300 301 301 303 300 297 295 292 291 291 291 291 294 297 298 297 297 297 297 299 299 301 300 297 298 296 294 294 294 291 291 292 292 292 292 292 293 293 293 295 295 294 294 293 293 293 293
301 301 301 301 301 302 302 303 303 304 302 301 301 301 301 300 299 299 299 299 302 298 295 294 291 291 291 291 294 296 297 296 295 295 296 298 299 300 298 302 298 295 294 294 292 290 291 293 292 292 292 291 292 292 292 294 295 295 295 294 294 294 293
301 301 301 301 302 302 302 302 303 304 303 303 302 302 301 301 301 300 299 300 301 301 297 295 292 291 291 291 294 295 296 295 294 293 295 296 298 298 299 299 298 295 295 294 291 291 290 292 291 291 291 291 291 291 291 292 292 292 294 294 294 295 294
301 301 301 302 302 302 303 303 303 302 302 300 299 300 301 301 301 301 301 300 301 302 300 298 295 292 292 292 292 295 296 294 293 292 294 295 296 296 296 296 297 292 292 291 291 291 291 290 291 291 292 292 291 290 292 291 293 293 293 293 293 294 294
302 302 302 302 302 303 304 304 305 305 303 302 302 303 303 302 301 301 302 303 302 303 302 299 296 292 293 292 291 292 295 294 294 293 293 294 295 295 294 295 296 295 292 292 291 291 291 291 291 292 292 293 291 292 291 291 293 295 293 293 293 293 293
303 303 302 302 302 302 303 303 304 303 302 303 304 303 304 303 302 301 301 302 302 301 299 301 299 293 292 292 291 291 294 295 295 294 293 293 294 294 294 295 295 295 292 292 291 291 290 290 290 293 294 291 290 290 292 293 293 293 293 293 292 292 292
303 303 303 303 302 302 304 304 305 303 302 302 303 302 303 303 302 302 302 302 301 301 299 297 294 296 292 291 290 291 290 292 291 296 293 293 294 294 295 295 296 295 292 291 291 290 290 290 291 293 290 289 290 290 292 293 293 292 292 291 291 290 291
303 303 303 302 302 302 302 303 302 303 302 302 301 301 300 301 302 302 302 301 301 300 300 297 294 293 295 291 291 290 290 289 290 293 294 294 295 294 294 294 294 291 290 291 291 290 290 291 292 290 289 289 290 292 293 292 291 292 291 290 290 290 290

ECMWFFLT1_sfc_thetae_093.txt.gz
Theta_e
323 322 323 322 322 322 320 319 318 317 318 317 316 315 315 316 316 315 315 314 315 316 316 313 313 314 314 314 314 312 312 312 312 310 309 310 309 309 312 310 312 312 312 313 312 309 308 305 306 311 311 310 311 313 312 312 312 312 312 314 315 317 318
324 324 323 323 321 321 318 319 318 318 317 315 315 314 314 314 316 315 313 313 314 315 316 313 313 312 312 311 310 310 309 310 312 312 308 307 308 306 307 307 307 307 309 310 310 309 306 304 303 303 304 307 308 309 309 310 310 310 311 313 314 315 316
322 322 321 320 320 319 317 318 318 316 315 313 313 313 313 313 313 314 313 312 313 315 316 312 312 311 311 310 310 310 309 308 309 309 308 307 308 307 307 307 305 305 306 306 305 305 305 305 301 301 303 302 301 304 307 306 307 308 310 310 310 312 310
320 321 320 319 319 318 316 316 315 315 314 312 311 311 311 312 312 314 312 312 313 315 314 311 310 311 310 310 309 309 309 308 307 307 308 308 307 307 307 306 305 306 305 303 302 303 303 301 301 301 302 303 302 301 303 305 306 307 307 308 309 308 308
321 321 320 319 318 316 315 314 314 313 311 311 310 308 308 310 311 309 311 310 311 310 310 310 310 311 310 310 309 309 309 308 308 310 307 306 306 306 305 306 306 308 305 303 303 302 301 301 301 300 300 301 300 301 303 303 304 304 305 306 306 306 307
321 321 320 319 318 316 314 313 311 309 308 308 308 307 307 308 309 308 308 308 307 309 310 310 309 310 307 307 308 308 308 307 307 307 305 305 306 304 304 306 306 305 304 304 304 302 302 302 301 298 299 299 296 298 300 301 300 302 304 303 304 305 305
317 317 316 315 314 313 313 311 309 308 307 307 307 307 308 308 308 308 308 308 308 308 309 308 308 308 307 306 305 306 306 307 306 305 305 305 305 304 305 304 303 302 303 304 303 302 302 300 298 297 296 297 297 296 298 298 300 298 300 302 303 303 303
315 315 315 315 313 313 313 310 307 307 307 306 307 308 309 307 307 307 308 306 306 306 306 306 307 306 306 305 305 305 306 307 305 305 304 304 305 303 303 302 303 301 301 303 302 301 301 299 298 297 295 293 293 294 295 296 297 297 297 300 302 301 302
316 314 314 314 313 313 310 308 307 306 307 307 308 307 308 307 306 305 306 305 305 305 306 306 305 304 305 305 303 303 303 309 305 304 304 303 303 303 302 302 301 300 301 302 301 300 299 299 298 297 296 294 291 289 292 292 293 294 298 297 299 300 300
313 313 312 312 312 311 309 307 307 307 308 307 309 308 306 306 306 305 304 304 304 304 305 305 305 304 304 303 303 302 303 303 305 303 303 303 303 302 302 301 301 300 300 300 300 299 298 298 297 297 297 295 294 290 289 288 290 291 294 297 294 297 300
312 312 311 311 311 309 308 308 307 307 306 308 309 309 306 305 305 308 303 303 303 304 304 304 304 304 303 302 303 302 302 303 302 303 304 303 302 302 302 300 300 299 299 299 298 298 298 297 296 296 296 296 295 292 291 288 289 293 293 295 296 296 298
312 311 311 312 309 308 307 307 307 306 307 308 307 304 303 303 303 302 302 302 302 302 302 303 303 302 303 301 303 301 302 302 301 301 301 303 303 301 300 299 299 298 298 297 297 297 297 297 296 296 295 295 295 294 292 291 288 292 295 293 295 298 297
312 312 311 309 307 306 306 306 306 305 305 306 304 303 302 302 302 301 301 300 300 300 300 300 301 301 301 302 301 302 302 301 301 300 300 301 303 301 299 298 298 297 297 296 296 296 296 296 296 295 295 294 294 294 293 292 290 290 295 294 295 296 297
310 310 309 307 306 306 306 306 305 305 305 304 304 303 302 302 301 300 299 300 298 298 298 298 299 299 299 299 302 302 301 301 300 300 301 300 300 300 298 297 297 297 297 295 295 295 295 295 295 295 295 294 293 294 293 292 290 290 293 296 296 296 297
307 306 306 305 305 305 305 304 305 304 303 304 304 304 302 302 300 300 299 297 297 296 297 297 298 298 299 299 300 303 302 301 300 299 299 298 298 299 297 296 296 296 296 295 295 295 295 295 294 294 293 293 293 293 294 293 291 290 290 293 294 296 296
307 306 305 304 304 304 304 304 305 303 303 303 304 302 301 301 300 299 298 296 296 296 296 296 297 297 298 298 299 300 301 299 299 299 298 298 298 298 297 296 295 296 297 294 294 294 295 294 294 293 292 293 293 293 294 294 293 291 291 292 294 294 295
305 304 304 303 303 303 304 304 304 303 303 303 303 302 301 300 299 298 296 295 295 295 295 295 295 296 297 297 298 300 300 299 299 299 298 297 297 297 296 295 294 295 295 294 293 293 293 292 292 292 292 292 293 293 294 295 295 293 292 291 293 293 295
304 303 303 303 303 303 303 303 304 303 303 303 302 301 301 300 298 297 296 295 294 294 294 294 294 294 295 296 297 298 299 299 298 298 298 299 301 296 296 295 295 294 294 293 292 291 291 291 292 292 291 292 292 293 295 295 295 295 293 292 292 294 295
303 302 303 302 302 303 303 303 302 303 303 302 301 301 300 299 298 296 295 294 294 294 293 293 293 293 294 295 295 297 299 299 298 298 297 297 297 297 296 295 295 295 294 292 291 290 291 290 291 291 291 291 292 292 293 293 294 294 293 292 292 292 294
302 302 302 302 302 302 302 302 302 302 303 302 301 300 300 298 297 295 295 294 294 293 293 292 292 292 292 293 294 296 297 298 297 298 297 297 296 296 295 296 296 294 293 291 291 290 290 290 292 291 292 291 292 291 292 292 293 292 291 291 292 292 292
302 302 302 302 302 302 302 302 302 303 303 301 300 300 299 298 297 296 294 294 293 293 292 292 291 291 292 292 293 294 296 298 297 297 297 296 296 296 295 295 296 294 293 292 291 291 291 291 291 290 291 291 291 291 291 292 291 291 291 291 290 291 292
302 302 302 301 301 301 301 301 302 302 303 303 302 300 299 298 296 295 294 293 292 292 292 292 292 292 291 292 292 294 295 296 297 297 296 296 295 295 294 295 295 296 298 299 298 297 297 297 293 290 291 291 292 291 291 291 291 290 290 290 290 291 291
301 301 301 300 300 301 301 301 301 301 301 301 299 298 297 296 295 294 293 292 292 292 292 293 294 293 294 292 292 293 295 296 297 296 295 296 295 295 295 294 300 300 300 299 298 296 295 295 296 295 292 292 291 291 291 290 290 290 290 289 289 289 289
301 300 300 300 300 301 301 301 301 301 300 300 299 298 296 294 293 293 293 291 291 292 292 293 293 292 292 293 294 292 293 295 297 295 294 294 294 295 294 294 294 298 299 298 296 295 294 294 294 294 294 295 296 293 291 291 290 290 290 289 289 289 289
300 300 300 300 300 300 300 300 300 300 300 300 299 297 295 294 293 293 292 291 290 291 291 294 291 292 292 292 294 294 294 296 297 295 294 294 294 294 293 294 294 295 296 295 295 292 294 294 293 293 293 293 293 294 294 293 291 290 290 289 289 289 290
300 299 299 300 300 300 300 300 299 299 299 300 299 297 295 294 293 292 292 291 290 290 289 293 291 292 292 292 292 296 296 296 297 295 293 294 294 293 293 295 293 294 294 299 298 291 290 290 294 294 294 294 294 294 293 292 293 294 292 290 290 290 291
298 298 299 299 299 299 299 298 298 298 299 299 298 298 296 294 294 293 292 291 290 289 289 292 291 292 292 291 292 294 296 294 295 295 295 295 295 293 293 292 291 292 291 292 292 291 290 289 289 290 290 290 291 293 293 293 293 293 294 293 292 290 292
298 298 298 298 298 298 298 297 298 298 297 297 296 297 297 295 295 295 293 292 291 290 291 292 291 291 291 291 292 294 295 294 294 293 294 295 295 293 292 293 291 291 290 291 293 293 291 290 289 290 289 290 290 291 291 292 292 293 293 293 293 293 293
297 297 298 298 297 297 297 297 297 297 297 295 295 295 295 297 295 294 293 292 290 289 289 291 291 291 291 291 293 294 293 292 292 292 292 293 294 294 292 292 291 291 290 290 294 293 293 292 290 289 289 289 289 290 291 295 294 294 294 292 292 293 294
297 297 297 297 296 296 296 296 296 297 295 295 294 293 293 294 295 295 295 293 290 288 288 291 291 291 291 291 292 291 291 291 291 290 291 292 293 294 293 292 292 291 290 290 293 291 291 293 291 289 288 288 289 289 290 293 294 293 292 292 292 292 292
297 297 296 296 296 295 296 296 296 297 295 294 293 293 293 293 293 294 294 293 292 289 288 291 291 291 291 291 293 290 291 290 289 289 290 291 292 293 294 301 301 294 292 292 293 291 291 293 290 289 288 288 288 288 289 291 291 292 293 293 293 292 292
297 296 296 296 296 296 296 296 297 297 296 295 295 294 295 293 292 292 292 294 299 291 289 292 292 291 291 291 292 289 290 289 289 288 289 290 292 292 292 296 299 296 295 294 291 291 291 292 290 289 288 287 287 287 289 290 289 290 290 291 292 293 293
297 297 296 296 296 296 296 296 296 296 296 296 295 294 294 293 292 292 293 295 297 293 291 290 291 292 292 291 292 290 290 288 289 288 288 292 291 291 291 291 294 293 292 291 291 291 290 291 290 289 289 287 287 287 290 290 291 291 290 290 290 292 292
297 297 297 296 296 297 296 295 295 295 294 295 294 294 295 295 294 293 293 293 295 294 293 290 291 291 291 291 291 291 288 288 288 287 287 289 289 289 290 290 290 293 292 291 291 290 290 290 291 291 289 288 289 291 291 289 291 293 289 290 290 291 291
298 298 298 297 296 296 296 297 297 296 295 295 295 294 294 295 294 294 295 295 294 294 297 297 290 292 291 291 291 291 289 288 289 288 289 288 288 289 289 289 290 292 291 290 290 290 290 290 290 292 290 289 289 290 291 292 290 289 289 289 289 290 290
298 299 298 297 296 296 296 297 297 297 296 295 296 296 296 295 294 294 294 295 293 292 292 294 295 292 291 290 290 290 290 289 289 290 288 287 288 289 289 290 291 293 290 290 290 290 290 290 291 290 290 289 290 290 291 290 289 288 288 288 288 288 289
298 298 298 298 297 297 297 297 297 297 296 296 296 295 295 296 294 293 293 293 294 291 291 290 292 293 290 290 290 290 290 289 290 289 289 288 290 289 289 289 290 290 290 290 290 290 290 290 290 290 290 290 290 291 290 289 288 288 288 287 287 288 288

ECMWFFLT1_sfc_thetae_096.txt.gz
Theta_e
321 320 320 319 319 318 315 314 314 314 314 314 314 313 314 315 314 312 313 313 313 313 314 310 310 309 310 311 311 309 310 309 307 305 304 305 303 304 309 307 308 310 308 306 305 302 301 298 299 303 304 304 305 304 304 303 303 304 303 304 306 304 305
321 320 320 320 318 318 315 315 313 313 313 313 313 313 312 313 315 312 311 312 312 312 315 310 310 309 308 308 307 307 307 308 309 308 305 304 305 304 304 305 305 305 305 304 303 303 301 297 297 298 298 301 301 301 302 302 302 303 303 304 304 304 305
320 318 318 317 316 316 314 313 312 311 311 311 311 311 310 311 311 312 311 311 311 313 313 309 308 308 307 307 307 308 307 306 306 307 306 305 304 304 304 304 302 301 300 300 299 299 299 300 296 297 297 296 294 297 300 300 300 302 301 303 301 302 302
317 316 314 313 314 314 312 311 310 310 310 309 309 309 309 309 310 312 309 310 311 313 310 308 307 307 307 307 307 306 306 306 305 304 304 304 303 303 302 302 301 300 298 297 297 298 297 296 295 295 295 296 295 294 297 299 300 300 300 300 300 300 301
317 316 313 312 313 312 310 309 309 309 308 308 307 306 306 308 309 306 308 307 308 307 306 306 305 304 305 306 306 305 304 304 304 304 302 302 301 301 300 300 300 300 300 298 298 297 296 295 294 292 293 294 294 294 296 297 298 297 299 298 299 299 300
317 316 315 314 313 310 309 308 307 306 306 306 305 305 305 306 307 306 305 305 305 306 306 305 305 304 303 304 305 304 303 303 302 302 302 301 301 300 299 300 300 299 298 298 297 296 295 295 294 291 292 293 291 291 293 294 294 296 298 297 298 299 299
316 316 315 313 312 310 309 308 307 306 305 305 304 304 304 305 305 305 305 304 304 305 305 305 304 304 303 303 303 303 302 302 302 301 301 301 300 300 300 299 298 298 297 297 296 296 294 293 292 291 291 291 291 290 292 292 294 292 294 296 298 298 298
313 313 312 312 310 309 308 307 306 305 305 304 304 304 305 304 304 305 305 303 304 303 303 302 304 303 302 303 303 304 304 302 302 302 301 301 300 299 298 298 298 297 297 297 296 295 295 294 293 292 291 288 288 289 289 291 291 291 292 295 297 297 297
314 312 312 311 309 309 308 306 305 305 305 304 305 304 304 303 303 302 303 302 303 303 303 302 302 302 302 302 301 301 302 305 301 300 300 300 299 298 297 297 297 296 296 296 296 295 294 295 294 293 292 290 287 285 288 288 289 290 293 292 295 296 297
311 311 310 309 309 308 308 306 305 304 305 305 306 305 303 303 303 302 301 301 301 301 301 302 302 301 301 301 300 300 300 301 302 300 300 299 298 298 297 297 296 295 295 296 295 296 296 294 295 293 293 291 290 287 286 286 288 288 291 293 291 294 296
311 310 309 308 309 308 307 306 305 305 304 306 305 304 301 301 301 303 299 299 299 299 300 300 300 301 301 301 300 300 300 300 300 300 300 298 297 298 297 296 295 294 295 294 295 295 295 294 293 293 292 292 292 289 288 286 287 290 290 293 293 292 295
311 311 310 309 308 307 305 305 304 303 304 304 303 300 299 299 298 298 297 297 297 298 298 298 299 299 300 300 301 299 299 299 299 298 299 298 298 297 295 295 294 294 294 294 294 294 294 294 293 293 292 292 292 291 289 289 286 290 292 291 293 295 295
312 310 309 307 307 306 304 304 303 302 301 302 300 300 298 298 297 296 296 296 297 297 297 298 298 298 299 299 300 299 299 299 298 297 297 297 297 296 295 294 294 294 294 293 293 293 292 293 293 292 292 292 291 291 292 290 288 288 292 292 293 294 295
309 308 306 305 304 304 304 304 302 302 301 300 299 298 297 296 296 296 295 297 295 296 296 296 297 297 298 298 299 299 299 298 297 297 297 296 296 295 295 294 294 294 294 292 292 292 292 292 292 291 293 291 291 291 291 290 288 289 291 293 293 294 295
307 306 305 304 304 303 303 302 303 302 301 300 299 298 297 296 295 295 295 294 294 295 295 295 295 296 296 297 297 300 298 297 296 296 296 295 294 296 294 293 294 294 293 292 291 291 291 290 291 290 290 291 290 291 292 290 289 289 288 291 292 294 293
305 304 303 303 302 302 302 302 302 300 299 299 299 297 296 295 295 294 294 293 293 293 294 294 294 295 295 295 296 297 298 297 296 295 295 294 294 294 293 294 293 293 293 290 290 290 290 290 291 290 290 291 290 290 291 292 290 289 289 289 292 291 292
304 303 302 302 301 301 302 302 302 300 299 298 297 297 296 295 294 293 293 292 292 292 292 293 293 293 294 294 295 296 296 296 295 295 295 294 294 294 293 292 292 292 292 290 289 289 289 289 289 290 290 290 291 290 291 292 292 290 290 289 290 290 292
302 302 301 301 301 301 301 301 302 300 298 297 297 296 296 295 293 293 293 292 291 291 291 292 292 292 293 293 294 295 296 296 295 295 295 295 299 294 294 292 292 292 290 289 289 288 289 289 290 290 289 289 290 291 292 291 291 291 290 289 289 291 292
301 301 301 301 301 301 301 301 300 300 299 297 296 295 294 294 294 292 292 291 291 291 291 291 291 291 291 292 293 294 295 295 296 295 294 295 294 295 293 292 292 291 290 289 289 289 288 288 289 289 289 289 289 290 290 290 291 291 290 290 289 289 291
301 301 301 300 301 301 300 300 300 299 299 297 295 294 293 292 293 292 291 291 291 291 291 290 290 290 290 291 292 293 294 294 295 295 294 294 294 293 294 293 292 291 290 289 289 289 288 289 290 289 291 289 289 289 289 289 290 290 289 289 289 289 289
300 300 300 300 300 300 300 300 300 300 299 296 295 294 292 292 292 292 291 291 291 292 290 290 290 289 290 290 291 292 292 294 294 294 294 294 294 293 293 293 292 292 290 290 290 289 289 289 289 290 289 289 289 289 288 289 289 289 289 288 288 288 289
300 301 300 300 300 300 300 300 299 299 298 297 297 294 293 292 291 291 290 290 290 291 291 291 291 290 290 290 290 291 292 293 294 294 293 293 293 293 293 293 292 292 297 298 299 297 297 297 292 290 289 289 290 289 288 288 289 288 288 288 288 289 288
300 300 299 299 299 299 299 299 299 297 296 296 295 294 293 293 291 290 290 289 289 290 290 291 294 294 294 292 291 291 293 293 295 293 294 293 293 293 293 293 298 299 299 300 299 297 295 295 296 295 292 290 290 289 288 288 288 288 288 287 287 287 287
299 299 299 299 299 299 299 299 297 296 294 294 293 294 292 291 290 290 289 288 288 290 290 292 293 292 292 295 294 292 293 294 294 292 293 293 291 293 292 292 292 297 299 300 297 296 295 294 293 293 294 294 295 292 289 288 288 288 288 288 288 288 287
299 298 298 298 299 299 299 297 296 294 293 292 292 291 290 290 289 289 289 288 288 289 289 294 291 292 292 293 296 294 293 294 294 292 291 291 292 292 291 292 292 293 294 294 295 293 293 294 293 293 293 293 293 293 293 291 290 288 288 287 287 288 288
298 298 298 298 299 298 298 297 296 294 292 292 291 290 289 289 288 289 288 288 288 288 288 293 291 292 292 292 293 294 292 292 292 291 291 292 291 291 291 292 291 292 292 299 298 291 289 290 293 293 293 294 293 293 291 290 291 292 290 289 288 288 288
298 298 298 298 298 298 298 297 296 295 294 292 290 290 289 289 289 288 288 287 287 287 288 292 291 292 292 292 292 293 290 291 290 290 291 292 291 290 290 290 290 291 290 290 290 290 290 289 290 290 290 289 289 291 292 292 291 292 293 291 289 288 289
298 297 297 298 297 297 297 296 296 296 294 292 291 290 290 289 289 290 288 287 287 287 289 292 291 291 291 292 292 292 289 291 290 289 290 291 291 290 289 290 289 289 289 290 292 293 291 290 290 290 289 289 289 289 289 289 290 291 292 291 290 289 290
297 297 297 297 297 296 295 296 295 295 295 293 292 292 290 291 291 289 288 287 287 286 288 291 291 291 291 291 293 292 288 288 288 289 289 290 290 290 290 290 289 289 290 290 293 293 293 292 289 289 288 288 288 288 289 293 293 293 293 291 291 291 291
297 296 297 296 295 295 295 294 294 295 294 293 293 292 292 292 292 290 289 288 286 286 287 291 291 291 291 291 291 288 287 288 288 288 288 289 289 290 290 292 291 291 292 290 293 291 291 292 289 288 287 287 288 287 288 290 292 292 292 292 291 291 291
297 296 296 296 295 294 294 294 294 295 293 292 292 292 293 292 292 292 290 287 287 287 287 291 291 291 291 291 291 287 288 287 286 287 287 288 289 288 290 298 299 292 291 291 292 290 290 291 288 287 287 286 286 286 287 289 290 291 292 292 292 291 291
297 296 295 295 295 294 294 294 294 293 292 292 292 292 294 293 292 292 291 289 296 289 287 291 292 290 291 291 290 286 288 286 287 286 286 288 289 289 289 292 295 295 293 292 290 290 290 290 288 287 287 286 286 286 287 288 288 288 289 289 289 289 290
296 296 295 294 294 294 295 294 293 292 291 291 291 291 293 293 293 293 292 292 294 290 289 289 291 291 291 291 292 289 287 287 288 286 286 289 289 288 288 289 292 291 290 290 290 289 289 290 289 288 287 286 286 286 288 288 290 290 288 288 288 289 289
296 295 295 295 295 295 295 294 293 292 292 292 291 291 292 292 293 292 292 292 291 290 290 288 290 290 291 291 291 290 286 287 286 285 284 286 285 286 287 288 289 291 290 290 289 289 290 290 290 290 288 287 287 289 290 288 289 292 288 288 288 288 288
296 296 295 295 294 294 294 294 294 293 293 292 292 292 292 292 291 291 290 293 293 291 294 296 288 291 290 290 290 291 288 287 287 287 285 285 286 287 287 287 288 290 290 289 289 290 290 290 290 291 289 289 289 289 290 290 288 288 287 287 287 287 287
296 297 296 295 294 293 293 294 294 294 293 293 293 293 293 293 292 291 290 291 292 292 291 294 294 291 290 290 290 290 290 288 289 289 285 285 285 287 287 287 289 292 289 289 289 290 290 290 291 289 289 289 289 289 290 288 288 287 286 286 286 286 286
296 296 295 294 294 294 294 294 294 294 294 294 293 293 293 293 292 291 291 290 291 290 289 289 293 292 290 290 290 290 289 289 289 288 288 287 286 286 287 287 289 289 289 289 289 289 289 290 289 289 289 289 289 290 288 287 286 286 286 285 285 285 285

ECMWFFLT1_sfc_thetae_099.txt.gz
Theta_e
316 315 316 315 315 315 312 312 312 311 312 312 312 313 314 314 313 311 311 311 311 311 311 308 308 308 308 309 309 307 308 307 305 303 302 303 302 302 305 303 303 302 301 300 299 298 297 293 293 298 298 298 298 298 298 297 297 299 299 298 299 299 299
317 317 318 317 315 314 312 312 311 311 311 312 312 312 311 313 315 311 311 310 310 311 313 308 308 307 307 306 305 305 304 304 305 304 302 301 301 299 299 299 299 298 298 298 298 298 296 291 291 291 291 295 295 296 296 296 297 298 299 298 299 299 300
318 316 316 315 313 312 310 310 310 310 310 311 311 310 309 309 309 310 310 310 310 312 311 307 307 306 305 305 305 304 303 302 303 302 301 300 300 300 299 298 296 296 295 294 294 294 294 294 289 289 290 290 289 292 295 295 296 296 297 297 297 297 297
317 316 314 313 312 310 309 308 308 308 308 308 308 307 307 307 308 311 308 308 308 310 306 304 304 305 304 303 303 303 302 301 300 300 300 300 299 299 297 297 295 295 293 292 291 292 292 290 289 289 290 291 290 290 292 295 296 295 296 296 296 296 297
317 315 313 311 310 308 308 306 306 307 306 306 305 304 305 305 306 305 307 305 305 303 303 303 303 304 304 303 302 302 301 301 301 301 299 298 297 297 296 296 295 295 294 293 293 293 292 291 290 288 289 290 290 290 293 293 294 294 295 295 296 296 296
316 314 313 310 308 306 306 306 304 304 304 304 303 303 303 304 305 303 303 303 303 304 303 303 303 303 303 302 302 301 301 300 299 299 298 297 297 296 295 295 295 294 293 294 294 293 293 292 291 288 289 290 287 288 290 291 291 293 295 294 295 296 296
314 313 311 308 307 306 306 305 305 304 304 303 303 302 302 303 303 303 303 302 302 303 304 303 303 303 303 302 301 300 300 299 299 298 297 297 296 296 295 294 294 294 293 294 293 293 292 291 289 288 288 288 288 288 289 289 291 290 291 294 295 295 295
313 311 309 309 308 307 306 306 305 305 303 302 302 302 303 302 303 303 303 301 301 301 301 301 302 301 302 302 302 301 300 299 298 298 297 296 296 295 295 295 295 294 293 294 293 293 293 292 291 290 288 286 286 286 287 288 289 289 289 292 294 294 295
313 311 310 310 308 308 306 306 305 304 303 302 303 302 301 301 300 300 301 300 300 301 301 301 300 300 300 300 300 300 299 301 297 296 296 295 294 294 294 294 293 293 294 294 295 293 293 293 292 291 290 287 285 283 286 286 287 287 290 290 292 294 294
310 308 307 307 307 307 307 306 304 303 303 303 303 302 300 300 299 298 298 298 299 299 300 300 300 300 300 299 299 298 298 298 298 296 296 295 294 294 293 293 293 293 293 294 293 294 293 292 292 291 290 288 288 285 284 284 285 286 289 291 289 292 294
308 307 307 306 307 307 306 305 304 303 301 302 301 301 298 298 298 301 297 297 298 298 298 299 299 299 299 299 298 298 298 298 297 297 297 295 294 295 295 293 293 292 293 292 292 293 292 292 291 291 290 291 290 286 286 284 285 288 288 291 291 291 293
308 307 308 308 307 306 305 304 302 300 300 300 300 297 296 296 296 296 296 296 297 297 297 298 299 299 299 298 298 297 297 297 296 295 295 295 295 294 293 292 292 291 292 291 291 291 291 292 291 291 290 291 291 289 287 287 285 288 290 289 291 293 293
308 308 308 307 306 306 305 302 300 299 298 299 296 296 295 295 296 295 296 296 296 296 296 297 298 298 298 297 297 296 296 296 295 294 294 294 295 293 293 292 292 291 291 290 290 290 290 291 291 290 290 290 290 289 289 287 286 286 290 290 291 292 293
307 308 307 307 306 304 303 301 299 298 298 296 295 295 295 294 295 295 295 297 295 295 295 295 296 297 298 297 296 296 295 295 294 294 295 293 294 293 294 292 291 292 291 289 289 290 290 290 290 290 291 290 289 289 288 287 286 287 289 292 292 292 293
306 307 306 306 304 302 300 299 299 297 296 295 295 294 294 294 294 294 294 294 294 294 294 294 294 296 297 296 296 297 295 295 294 293 293 292 292 294 292 291 291 291 291 289 289 289 289 289 289 289 289 290 288 289 290 288 287 287 286 289 290 292 292
306 305 304 303 302 301 300 299 298 296 295 295 295 294 293 293 293 293 293 292 292 292 293 293 293 294 295 295 295 294 295 294 294 293 292 292 292 292 292 292 291 291 292 288 289 288 289 288 289 288 289 289 288 289 289 289 288 286 286 287 290 290 291
304 304 302 302 300 299 299 298 298 296 295 294 294 294 293 292 292 291 292 291 291 291 292 292 292 293 293 294 295 295 294 294 293 293 293 292 292 291 291 290 291 290 291 288 287 288 288 288 288 289 289 289 289 288 289 290 289 288 287 286 288 289 291
302 302 301 300 299 299 298 297 297 295 294 294 293 293 294 292 291 291 291 290 290 290 290 291 292 292 292 293 294 294 293 293 293 293 293 293 297 291 292 290 290 290 289 287 288 288 288 287 288 289 288 288 289 289 290 289 289 288 287 287 288 290 290
302 301 300 299 299 298 298 297 296 295 294 293 292 292 291 292 292 290 290 290 290 290 290 290 290 290 291 292 293 293 293 293 293 292 292 293 293 292 292 290 291 289 288 287 288 288 287 287 288 288 288 288 288 288 288 288 289 288 288 287 287 287 289
302 301 300 299 299 298 297 296 295 294 294 292 291 291 291 290 291 290 290 290 290 290 290 290 289 289 290 291 292 292 292 293 293 292 292 293 292 292 291 291 290 289 288 287 288 288 288 288 289 289 290 289 289 288 288 288 288 287 287 287 287 288 288
301 300 300 299 298 298 297 296 295 294 293 291 291 290 290 290 291 290 290 291 291 291 290 290 289 289 289 289 291 291 292 293 293 293 293 292 292 291 291 291 290 290 289 289 288 289 288 289 289 289 289 289 289 288 288 288 287 287 287 286 286 286 287
301 301 300 299 298 297 297 296 295 294 293 293 293 290 290 290 289 289 289 289 289 290 291 291 291 290 289 289 289 291 291 292 292 292 292 291 291 291 291 291 290 290 295 301 301 299 298 298 293 290 290 289 290 289 288 287 287 287 286 286 286 287 287
301 300 299 298 298 297 296 296 295 293 292 292 291 291 290 290 289 288 288 288 289 290 290 291 295 295 297 291 290 291 293 291 292 292 293 291 291 291 291 290 295 303 302 301 300 298 296 296 297 294 292 291 290 288 288 287 287 287 286 286 286 286 285
300 300 299 298 298 297 296 295 293 292 292 291 291 292 289 288 288 288 288 288 288 289 290 292 293 292 293 296 292 292 292 291 290 290 292 291 290 292 291 290 289 295 298 297 295 295 295 294 293 293 294 295 295 292 288 287 286 287 287 286 286 286 285
299 299 299 298 298 296 295 293 292 291 290 290 290 289 288 288 287 287 288 288 288 289 289 294 292 293 293 293 295 293 291 291 291 290 289 289 290 291 289 289 290 291 292 293 295 292 292 293 293 293 293 293 293 292 292 290 288 286 286 286 286 286 286
299 299 299 298 297 295 293 292 290 289 289 290 288 288 287 287 286 286 287 287 288 288 288 293 292 292 292 292 292 292 290 290 290 289 289 290 289 289 290 291 291 291 290 297 297 290 289 290 293 293 293 293 292 293 291 290 291 291 289 287 286 286 286
299 299 299 298 296 294 292 290 289 289 290 289 287 287 286 286 286 286 287 287 287 287 288 292 292 292 292 291 291 292 288 289 289 289 289 289 290 289 289 289 288 289 290 290 291 290 290 289 289 289 288 288 288 290 291 291 291 291 292 290 287 286 288
299 299 298 298 296 294 291 290 289 289 288 288 287 287 287 286 286 288 286 285 287 287 289 291 291 291 291 291 291 291 287 289 288 288 288 289 288 288 288 289 287 288 289 289 292 293 290 289 288 288 287 287 287 288 288 288 288 289 290 289 288 288 288
299 298 298 297 296 294 292 290 289 289 288 287 287 288 287 288 287 285 285 285 286 285 287 291 291 291 291 291 292 290 286 286 286 287 287 288 288 288 288 288 288 289 290 290 293 292 291 290 288 287 287 287 287 287 287 292 292 292 291 290 289 289 290
299 298 298 297 296 295 293 291 290 291 288 288 288 288 288 287 287 286 286 286 285 285 287 290 290 291 291 290 290 286 285 286 286 286 285 286 287 288 288 289 290 290 290 289 292 290 290 291 287 286 286 286 286 286 287 289 291 291 291 291 291 291 290
299 298 298 297 296 295 294 292 291 292 290 289 289 289 289 288 286 287 286 285 285 286 287 290 291 290 291 291 291 285 286 285 284 285 285 286 287 287 287 296 296 290 289 289 291 290 289 290 287 286 285 285 285 285 286 288 288 289 291 291 291 290 290
298 298 298 297 296 295 294 293 293 292 291 291 291 290 292 289 287 287 287 286 295 288 287 290 291 290 290 291 290 284 285 283 284 283 284 287 287 287 287 290 293 293 291 291 290 289 289 290 287 286 285 284 284 284 286 287 286 287 287 287 287 288 289
299 298 298 297 296 295 294 293 292 291 291 291 291 290 291 290 289 289 289 290 292 290 287 287 290 290 291 290 292 286 285 284 285 284 283 288 288 286 286 286 290 290 290 289 289 289 289 290 287 287 285 284 284 284 287 286 288 288 287 287 286 287 287
298 298 298 296 296 295 294 292 291 291 291 291 290 289 290 290 290 289 289 290 291 289 289 287 289 290 290 290 291 290 283 284 284 284 283 285 283 284 285 286 286 290 290 289 289 289 289 290 290 289 286 285 285 288 289 286 287 290 286 287 287 287 287
298 298 297 296 295 293 292 292 291 291 292 292 291 291 291 291 291 289 289 291 291 289 292 295 286 291 290 290 290 291 286 287 287 285 285 283 284 284 285 286 286 289 290 289 289 289 289 289 289 290 287 288 288 288 288 289 286 286 286 286 285 286 286
298 298 297 296 295 292 291 292 292 292 292 292 292 292 291 290 289 289 290 291 292 290 288 291 294 290 291 289 290 290 290 287 289 290 284 285 284 285 285 286 288 291 289 289 289 289 289 289 290 288 288 288 288 288 289 286 286 285 285 285 285 285 285
298 297 296 295 295 293 292 293 293 293 292 292 291 291 290 290 289 289 290 290 292 290 289 288 292 293 290 290 289 289 289 289 289 287 287 285 285 284 286 285 288 289 289 289 289 289 289 289 288 288 288 288 288 288 286 285 284 284 285 284 284 284 284

ECMWFFLT1_sfc_thetae_102.txt.gz
Theta_e
315 313 314 313 314 314 312 312 312 312 312 312 312 312 313 315 313 311 311 311 311 312 311 308 307 307 307 307 307 306 306 305 303 302 300 301 300 300 303 300 300 299 298 298 300 299 297 291 294 298 296 298 299 298 297 297 298 298 299 299 298 298 299
315 314 315 315 313 313 311 312 312 311 311 311 311 311 311 312 315 311 310 310 310 310 311 307 307 306 305 304 303 303 303 303 303 302 300 298 298 297 298 298 298 297 296 296 296 297 292 289 291 290 291 294 297 298 297 297 298 299 299 298 298 298 299
316 315 314 312 311 311 310 310 310 310 310 309 309 308 309 309 309 310 309 309 309 310 309 305 305 304 304 303 303 303 302 301 301 300 299 298 298 297 297 296 294 294 294 293 293 293 293 293 290 289 290 290 290 294 297 296 297 297 299 298 298 297 298
314 313 311 310 309 309 309 309 309 308 308 307 307 307 306 307 308 310 307 307 308 309 307 305 304 303 303 302 302 302 301 299 298 298 298 298 297 296 295 295 294 293 292 291 291 292 292 290 290 289 290 291 291 292 294 295 297 297 297 298 297 297 298
314 312 309 308 308 308 308 307 307 306 305 305 305 305 305 305 306 305 307 305 306 304 304 304 304 303 303 302 301 301 300 300 299 298 296 295 295 295 295 295 295 295 295 294 294 293 292 291 291 289 290 291 291 292 293 295 296 295 297 297 296 297 298
315 313 311 310 309 308 307 306 305 304 303 303 303 303 304 304 305 304 304 304 304 305 304 303 303 303 302 301 300 299 299 298 297 297 296 296 296 295 295 296 295 295 295 296 295 294 294 293 292 290 290 291 290 290 292 293 292 294 296 296 296 297 297
315 313 311 309 309 308 307 305 304 304 303 303 302 302 303 304 303 304 303 303 304 305 305 304 303 302 301 300 299 298 298 298 298 297 296 297 296 296 296 295 295 295 295 296 295 295 293 293 291 290 290 290 291 290 291 291 292 291 293 295 296 296 297
314 311 310 309 307 306 306 306 305 305 303 303 302 303 305 303 303 303 303 302 302 303 303 303 303 302 302 301 300 299 299 298 297 297 296 296 295 295 295 296 295 295 295 296 295 294 294 294 292 292 290 288 288 289 289 290 290 290 290 293 295 295 297
314 311 310 309 307 307 307 306 305 304 303 302 302 301 302 301 301 301 302 301 302 302 302 301 301 301 300 299 299 298 297 299 296 296 296 296 295 295 295 295 294 294 295 295 295 295 294 294 294 293 292 290 287 285 288 288 289 289 292 291 294 296 296
311 309 308 307 307 307 307 306 304 304 303 302 301 302 300 300 300 300 300 300 300 301 301 301 301 300 300 299 298 297 297 297 297 295 296 295 295 295 295 295 294 294 294 295 295 295 294 294 294 294 293 292 291 287 286 286 287 288 291 292 290 293 296
310 308 308 307 307 306 306 305 304 303 301 301 301 301 299 299 300 302 299 299 299 300 300 300 300 299 299 298 298 297 297 298 297 297 297 296 296 296 296 294 294 293 294 294 293 295 295 294 294 293 293 293 293 289 288 286 286 290 290 293 293 292 295
309 308 308 307 307 305 304 304 302 300 300 301 301 298 298 298 298 298 298 298 299 299 299 300 300 299 298 297 298 297 297 296 296 296 297 297 296 296 294 293 293 293 293 293 293 293 294 295 294 293 293 293 293 292 290 289 286 290 292 290 293 294 294
309 308 307 306 306 305 304 302 300 299 298 299 297 297 297 297 297 297 297 298 298 298 299 299 299 298 298 297 297 296 296 296 295 295 295 296 296 295 294 293 294 293 293 293 293 293 293 294 294 294 293 293 292 292 292 290 288 287 292 292 292 294 294
308 308 307 306 305 304 302 301 299 298 297 296 296 296 296 296 297 297 297 299 297 298 298 298 298 298 297 296 296 296 296 296 295 295 297 295 296 295 295 293 293 294 293 293 293 293 293 293 293 293 293 293 292 292 291 290 288 288 291 294 293 293 295
307 307 306 305 303 302 300 299 298 297 296 296 296 296 296 296 296 296 296 295 296 296 297 297 298 297 297 296 296 297 296 295 295 294 295 294 295 295 294 293 293 294 294 292 293 292 292 292 292 292 292 292 291 292 292 290 289 288 288 291 292 293 293
306 306 304 303 301 300 299 298 298 295 295 295 296 295 295 295 295 295 294 294 295 295 296 296 297 297 296 296 296 296 296 295 295 294 294 294 294 294 295 295 294 294 295 292 292 292 292 292 292 291 292 292 291 292 292 292 290 288 288 289 291 291 292
305 304 303 302 300 299 298 297 297 295 294 294 294 294 294 294 294 294 294 294 294 294 295 296 296 296 296 296 296 295 295 295 295 295 294 294 294 294 294 293 294 294 294 292 291 292 292 292 292 292 292 292 292 292 292 292 292 290 289 288 290 290 291
304 303 302 300 299 298 297 296 296 294 294 293 293 294 295 293 293 293 293 293 293 293 294 295 295 295 296 296 296 295 295 295 295 295 295 294 297 294 295 294 293 293 293 292 292 292 292 291 292 292 292 292 292 292 292 292 291 291 289 288 289 291 292
302 301 300 299 298 297 296 296 295 295 294 293 292 292 292 293 293 292 292 292 292 292 293 294 294 295 295 296 296 296 296 295 295 295 295 296 295 295 295 294 294 294 292 292 292 292 292 292 292 293 293 293 292 292 291 291 292 291 290 289 289 289 291
301 300 299 298 297 296 296 295 294 293 294 292 292 292 292 292 293 292 291 292 292 292 292 292 293 293 294 295 295 296 296 295 295 295 295 295 294 294 294 294 295 293 293 292 292 293 293 293 294 294 294 293 292 291 291 291 291 290 290 289 289 290 289
301 300 298 298 297 296 295 294 294 294 293 292 291 291 291 292 293 292 292 292 292 293 292 292 291 292 293 294 296 295 296 296 296 295 295 294 295 295 294 294 293 294 293 293 294 296 296 295 295 294 294 293 292 292 291 291 290 290 289 289 288 288 289
300 300 299 297 296 295 295 294 293 293 293 293 293 291 291 291 290 290 290 291 292 293 293 293 293 292 293 293 294 295 296 297 296 295 294 293 293 294 295 295 294 293 301 299 299 298 298 297 295 293 293 293 293 292 291 291 290 289 289 289 288 289 288
300 299 298 297 296 295 294 294 293 292 292 291 291 291 290 291 290 290 290 290 291 292 293 294 298 297 296 295 294 295 295 295 296 296 296 294 294 294 294 294 297 301 301 299 298 296 295 295 295 295 294 293 293 292 291 290 290 290 289 288 287 287 287
300 298 298 297 295 295 294 293 292 292 291 291 291 292 290 289 289 290 290 291 291 292 293 295 295 293 293 295 294 294 294 294 294 295 295 294 293 295 295 295 294 296 297 295 297 296 293 293 293 293 293 294 294 293 292 290 290 290 289 288 288 288 287
299 299 299 297 296 295 294 292 292 292 291 291 291 290 289 289 289 289 290 290 291 292 293 295 292 293 293 293 295 295 294 294 294 293 293 293 294 295 295 294 293 293 294 296 298 294 294 293 292 292 292 292 292 292 292 292 290 289 289 288 287 288 288
299 298 298 297 296 294 293 292 292 291 291 291 290 288 288 288 288 289 290 290 291 292 292 293 292 292 292 292 292 293 293 293 294 292 292 293 292 294 294 295 294 294 293 296 296 293 293 293 293 292 292 293 292 292 290 289 291 292 292 290 288 288 288
299 298 298 296 295 293 292 291 291 291 292 291 288 288 287 288 288 288 290 290 290 290 291 293 291 292 291 291 291 292 291 291 292 292 292 292 293 292 292 293 292 293 293 293 294 293 293 292 291 291 291 291 291 292 291 291 290 290 291 291 290 288 290
299 298 297 296 294 293 291 290 290 291 290 289 288 287 287 287 288 290 290 289 290 290 292 292 291 291 291 290 290 290 291 291 291 291 291 291 292 292 292 292 292 292 292 293 294 294 293 291 290 290 290 290 290 290 291 291 291 292 292 292 291 291 291
299 298 296 295 293 291 290 290 290 290 289 288 288 288 287 289 289 288 288 289 289 289 290 291 291 291 291 291 291 291 290 290 290 290 291 291 291 291 291 292 292 293 293 292 293 291 291 292 291 290 289 290 290 290 290 292 291 291 292 292 292 292 292
299 297 296 294 292 290 290 290 289 290 288 288 288 288 288 288 288 287 288 289 288 288 289 291 290 291 290 290 290 289 289 290 290 290 289 290 290 291 291 292 294 294 293 292 292 290 290 291 290 290 289 289 289 289 289 291 291 290 290 290 290 290 290
299 298 295 293 291 290 290 290 290 291 289 289 289 288 288 288 287 288 288 287 288 288 288 291 291 291 290 291 290 288 288 288 288 288 289 290 290 290 291 295 296 294 292 292 291 289 289 291 290 289 289 288 288 288 289 290 290 291 291 290 290 290 290
299 298 296 294 292 290 290 290 291 291 290 290 290 290 292 288 288 288 287 288 295 289 289 292 291 290 290 291 291 288 288 288 289 287 287 290 290 289 289 291 293 293 292 292 289 289 289 291 291 290 289 288 287 287 288 289 289 289 290 290 290 291 290
299 298 297 295 293 291 292 292 291 291 291 291 291 291 291 289 289 289 290 292 294 289 289 290 293 290 290 291 290 289 288 289 290 288 287 292 290 289 289 289 292 290 289 289 289 289 289 289 291 291 290 289 288 287 290 289 290 290 289 288 289 290 290
299 299 298 296 294 294 293 292 292 291 291 291 292 291 290 290 290 290 290 290 291 289 290 289 292 290 290 290 291 290 288 288 287 287 286 289 286 287 288 289 290 291 289 289 289 289 289 289 290 292 291 289 289 290 290 289 289 289 288 289 289 289 289
300 299 298 297 295 294 294 294 293 293 292 292 292 292 291 291 290 290 290 291 292 290 293 296 288 292 290 290 290 291 289 291 289 288 289 287 287 288 288 288 289 290 289 289 289 289 289 289 289 293 291 288 288 288 290 290 289 288 288 288 287 288 288
299 299 298 297 296 294 294 293 294 294 293 293 293 291 290 291 290 290 291 291 292 292 290 293 293 292 291 290 289 290 290 289 288 293 288 289 288 289 288 289 289 290 289 289 289 289 289 289 290 291 288 288 288 288 289 288 288 287 287 287 287 287 287
299 298 298 297 296 294 293 294 294 294 293 293 293 292 291 291 290 290 291 291 292 292 292 290 292 293 292 290 289 289 289 288 289 291 291 289 288 288 288 289 290 289 289 289 288 288 288 289 289 288 288 288 288 289 288 287 286 286 287 286 286 286 286

ECMWFFLT1_sfc_thetae_105.txt.gz
Theta_e
324 319 319 318 319 318 317 317 319 318 319 319 320 320 320 320 320 319 319 319 318 317 316 314 314 314 314 314 314 314 313 313 313 310 308 309 305 303 307 305 305 305 306 306 307 302 298 300 299 303 303 303 304 303 303 303 302 303 303 303 303 302 303
321 320 319 319 318 319 317 317 317 316 316 318 319 320 320 320 319 318 318 317 317 315 314 313 313 313 313 313 312 311 310 309 309 309 307 305 306 305 305 304 305 303 303 304 304 303 299 300 297 297 299 302 304 302 302 304 304 304 303 302 303 302 304
320 319 318 317 317 317 316 316 316 316 316 317 318 318 318 318 318 318 316 316 316 314 313 312 312 312 311 311 310 310 309 307 307 306 305 304 304 305 305 305 304 304 303 302 301 302 302 301 296 296 298 298 297 300 302 301 302 303 303 303 303 302 303
320 318 315 315 316 316 315 315 315 314 316 317 317 317 317 317 317 317 316 315 315 314 312 311 311 310 309 309 308 308 307 306 304 305 305 305 304 304 303 302 301 301 300 298 300 300 300 299 298 297 298 297 296 297 299 301 302 303 303 302 302 302 302
320 318 317 316 317 316 315 313 312 313 314 316 316 315 315 316 316 315 315 314 313 313 312 312 311 310 309 308 307 306 305 305 305 305 304 304 304 303 303 303 302 302 301 301 300 300 299 298 299 298 296 298 299 299 298 302 302 301 301 302 301 301 302
320 319 318 317 316 315 313 312 312 313 314 314 313 313 314 315 315 314 314 313 312 312 311 310 309 309 308 306 305 305 305 304 304 304 302 304 304 302 302 303 302 302 301 302 302 301 301 301 299 296 297 299 296 298 299 299 298 300 301 300 301 301 301
319 319 317 316 316 314 313 313 314 315 314 313 313 312 313 313 314 314 314 313 312 311 310 310 309 308 307 304 305 303 303 304 304 303 302 303 303 304 303 301 301 300 301 302 301 301 300 299 297 297 297 299 299 298 300 299 299 297 298 300 301 301 301
318 318 316 316 313 312 312 313 313 314 313 312 312 312 313 313 313 313 313 312 312 311 310 309 308 308 307 304 304 304 303 303 303 302 302 302 301 302 303 301 301 301 300 301 301 300 300 299 298 298 297 294 296 298 296 298 298 297 296 299 300 300 301
318 316 315 313 313 313 313 313 313 313 312 312 312 312 312 313 312 311 311 311 311 310 309 308 307 306 306 304 303 303 302 303 302 301 301 301 301 302 302 302 301 300 301 300 300 300 300 300 299 299 297 296 293 292 294 295 296 296 298 297 299 300 300
317 315 312 311 312 313 313 313 312 311 312 312 311 311 311 312 312 311 310 310 310 310 309 308 306 306 305 304 303 303 302 303 302 302 301 301 301 301 301 301 300 300 300 301 301 300 300 300 300 299 298 296 295 292 291 291 294 294 296 297 295 298 300
315 313 312 311 312 311 311 311 311 310 311 311 310 311 311 311 310 310 310 309 310 309 308 307 305 305 305 303 303 302 302 303 302 302 302 301 301 301 300 300 300 298 300 300 299 300 300 300 299 299 298 298 297 293 292 291 292 296 296 298 298 296 298
312 311 311 311 311 310 311 311 311 310 310 310 310 310 310 309 310 309 309 309 309 308 307 307 306 305 305 303 303 302 303 303 301 301 302 302 301 300 300 299 299 298 300 300 300 300 301 300 299 299 298 299 299 298 295 294 291 295 298 296 297 299 298
311 310 311 311 310 310 310 310 309 309 309 310 309 310 309 308 309 309 309 308 308 307 306 306 306 305 305 304 303 302 303 302 301 300 300 301 301 301 299 298 298 298 299 299 299 300 299 300 301 299 299 299 299 299 298 295 293 293 298 298 299 300 299
310 310 310 311 311 311 310 309 308 309 308 308 309 309 308 308 308 308 308 308 307 307 306 306 306 305 304 303 302 302 302 301 300 300 300 300 301 300 299 298 298 298 300 299 299 299 299 299 300 299 300 298 298 299 298 296 294 294 297 300 298 298 299
310 311 311 312 311 310 308 307 308 308 308 307 308 307 308 308 308 308 307 307 307 306 305 305 305 305 303 302 302 303 302 301 301 300 300 299 300 300 300 298 297 298 300 299 299 298 298 299 299 298 298 298 297 298 299 297 295 294 293 297 297 299 298
311 312 312 312 310 308 307 306 307 308 307 307 308 308 307 307 307 307 307 307 306 306 305 305 306 304 303 302 301 302 302 302 301 301 300 299 299 300 299 298 298 299 300 299 299 300 300 300 300 299 298 299 298 299 299 299 296 294 293 294 297 296 297
313 312 311 310 309 307 306 306 307 307 306 306 306 306 307 306 306 307 306 306 306 306 305 305 305 304 303 302 301 301 301 302 302 301 300 299 299 299 299 298 298 299 300 299 299 299 299 300 299 299 299 299 299 299 299 299 299 296 295 293 296 295 296
313 312 311 309 308 306 306 306 306 306 306 305 305 305 305 306 306 306 306 306 305 305 305 305 304 304 304 304 302 302 301 301 302 301 301 300 300 300 299 298 298 299 299 299 299 299 300 300 300 300 299 298 298 298 299 298 298 298 296 294 295 297 298
312 310 309 308 306 305 305 306 306 305 305 305 305 305 305 305 306 306 306 306 306 305 305 305 304 304 303 304 304 303 303 302 302 301 302 301 300 301 300 299 299 300 299 299 299 300 301 301 300 300 299 298 298 298 298 298 298 297 297 295 295 295 297
311 309 308 307 306 305 305 305 305 304 305 305 304 304 305 305 305 305 305 305 305 305 305 305 305 305 304 304 303 303 303 303 302 303 302 301 301 301 300 300 300 301 300 300 300 300 300 300 300 300 299 299 299 298 297 297 297 296 296 295 295 296 295
310 308 307 306 305 304 304 304 304 304 303 303 304 304 304 304 304 304 304 304 305 305 305 305 305 305 304 304 304 303 303 303 302 303 303 302 302 301 301 301 301 301 301 300 300 300 300 299 300 299 299 299 299 298 296 296 296 295 294 294 294 294 295
308 307 305 304 304 303 302 303 303 302 303 303 303 303 304 304 303 303 303 304 304 304 305 305 305 305 305 304 304 303 303 302 302 302 302 302 302 301 301 301 301 301 301 299 298 298 296 296 299 298 299 299 298 297 296 296 295 294 294 294 294 295 294
306 305 304 303 302 302 302 301 301 301 301 301 302 302 302 303 303 303 302 303 304 304 305 306 303 300 302 304 304 304 304 303 302 302 302 301 302 301 301 301 302 301 300 298 299 296 294 295 295 297 298 299 297 296 295 294 294 294 294 293 293 293 293
304 304 303 303 302 302 300 299 299 299 300 300 300 300 301 301 302 303 303 303 303 304 305 305 297 294 294 297 304 304 303 303 303 302 302 301 301 301 302 301 302 300 300 300 300 296 295 294 293 293 293 294 295 296 295 293 293 293 292 293 293 294 293
303 302 302 302 301 300 298 298 297 297 297 298 299 300 300 300 301 302 303 303 304 304 305 299 293 293 293 294 299 305 305 303 303 302 302 301 301 301 301 301 301 301 301 300 300 301 300 296 294 293 293 293 293 292 293 294 293 292 293 293 293 294 294
303 302 301 301 300 298 297 296 296 296 297 298 298 298 299 299 300 301 302 303 303 304 304 293 292 293 293 293 294 300 303 303 302 302 302 302 301 301 301 301 300 300 302 299 299 301 301 301 297 295 295 295 295 294 291 290 291 294 295 294 294 294 295
302 302 301 299 297 296 296 296 296 298 297 297 297 297 298 299 299 300 301 303 303 303 302 294 292 292 292 291 291 297 303 303 303 302 302 303 303 302 301 300 299 298 300 302 301 300 300 301 300 300 299 298 297 297 294 293 292 292 294 295 295 294 296
302 302 301 299 298 297 297 297 297 297 297 297 297 297 298 298 298 299 301 302 302 302 301 292 291 291 291 291 291 296 303 303 302 303 303 303 303 302 301 300 299 299 300 301 300 296 298 300 300 300 298 297 297 297 298 297 296 295 295 296 296 296 296
302 301 300 299 297 297 297 297 297 297 297 297 297 298 298 299 298 298 299 301 300 299 298 290 291 291 291 290 292 300 301 301 301 301 301 302 301 301 300 300 300 300 301 301 296 290 292 296 300 298 296 296 296 297 298 297 293 293 295 296 296 296 296
301 300 299 297 296 296 296 296 297 297 296 295 295 296 297 298 298 298 298 299 299 299 298 293 290 291 290 290 294 299 300 299 300 300 300 300 300 299 300 301 301 300 301 301 294 289 290 292 299 297 296 296 296 296 296 297 294 292 292 291 291 290 290
300 299 298 296 295 295 296 296 296 297 296 295 295 296 297 297 297 298 298 298 298 298 298 294 290 290 290 290 295 299 299 299 299 299 299 299 299 298 299 296 298 301 301 301 291 289 289 295 298 297 296 295 295 295 296 296 296 297 293 293 292 292 291
300 299 298 297 296 295 295 295 296 297 296 296 297 297 297 296 296 296 297 298 298 298 297 294 290 290 290 290 296 300 299 298 298 298 298 297 298 298 299 297 295 296 296 295 289 289 289 293 299 298 297 296 294 294 295 296 295 295 295 296 296 297 296
301 299 298 297 296 295 295 295 295 296 295 296 296 296 296 296 295 295 296 297 297 297 296 296 295 290 291 291 292 298 299 297 297 297 297 297 297 298 299 301 298 290 289 289 289 289 289 289 296 298 298 296 295 293 295 295 296 295 295 295 296 296 297
301 300 299 296 295 295 295 295 295 296 295 296 296 296 295 295 295 295 296 296 296 297 298 297 296 290 291 291 290 293 298 298 297 296 296 296 296 297 297 298 300 294 289 289 289 289 289 289 290 296 298 297 296 295 292 295 295 294 296 296 295 295 295
302 301 298 296 295 295 296 297 296 296 295 296 295 295 295 295 294 294 295 296 297 297 297 297 297 291 290 290 290 290 297 298 298 297 296 296 296 298 298 299 300 295 289 289 289 289 289 289 289 296 298 291 288 288 293 295 296 296 295 295 294 293 294
303 301 298 296 296 295 296 296 297 297 296 296 296 296 295 295 294 294 294 295 297 298 298 298 294 296 290 290 289 290 291 294 290 299 297 296 297 298 299 300 300 294 289 289 289 289 289 288 290 297 290 288 288 287 291 296 296 296 295 295 294 293 292
302 300 298 298 297 296 296 296 296 297 297 297 296 296 295 296 295 295 295 295 297 297 298 299 295 293 294 289 289 289 289 289 290 297 299 298 298 298 299 300 298 289 288 289 289 289 289 289 293 290 288 288 287 290 296 296 295 295 294 293 293 292 292

ECMWFFLT1_sfc_thetae_108.txt.gz
Theta_e
333 329 328 326 325 325 326 325 325 326 327 327 327 326 326 326 326 325 324 323 320 321 320 319 321 321 321 320 321 320 320 321 321 318 316 314 308 307 312 311 310 311 313 313 312 310 306 308 304 306 307 308 308 308 307 307 306 307 308 308 306 306 307
333 328 325 324 323 325 325 324 323 323 326 327 328 327 325 324 324 323 322 321 320 319 318 319 319 319 319 319 317 316 316 315 316 315 314 312 312 309 310 311 312 310 309 311 311 311 308 306 301 303 306 309 308 306 308 308 307 308 307 307 306 306 308
327 325 324 324 324 324 323 323 323 324 326 326 326 325 324 324 323 323 320 319 320 318 317 318 317 316 316 316 315 314 314 313 314 313 311 311 312 313 313 313 311 310 310 308 308 308 308 307 301 301 302 303 303 305 307 307 307 307 308 307 308 305 306
327 325 323 324 324 324 322 323 323 323 326 325 324 324 323 323 323 322 320 319 319 319 317 315 315 313 312 312 312 313 313 312 311 312 312 312 311 311 311 309 308 308 306 305 306 306 306 306 304 302 303 302 301 303 305 306 307 308 307 307 306 306 307
328 326 325 323 323 324 323 322 322 323 324 324 324 322 323 322 322 320 320 319 318 318 316 316 315 313 312 311 310 310 311 312 312 311 311 310 311 310 310 309 308 308 308 307 307 307 305 304 305 304 302 304 304 304 303 309 308 306 304 306 305 305 305
330 329 327 325 325 324 323 321 321 321 322 323 322 322 321 321 321 319 319 317 317 317 316 314 313 312 311 310 310 310 310 310 310 311 310 311 311 308 307 308 308 307 306 307 308 307 307 307 306 303 303 306 303 303 304 304 303 306 304 304 304 305 304
332 330 327 325 327 326 323 322 322 322 324 323 322 321 320 319 320 320 319 318 316 315 314 313 312 311 310 307 309 308 309 309 310 310 310 310 310 310 309 307 307 306 306 307 307 306 306 305 303 303 303 304 306 302 303 302 303 300 302 303 304 304 304
330 328 326 327 327 324 322 323 323 323 322 322 320 320 320 319 319 318 317 316 315 315 314 313 311 311 310 308 309 309 309 309 309 308 308 309 308 308 309 307 307 306 306 306 306 306 306 305 304 303 302 300 302 302 301 302 302 301 300 302 303 303 303
328 327 325 325 325 324 322 322 322 322 321 321 321 320 319 319 318 317 316 315 315 314 313 311 310 309 309 308 308 308 307 308 307 307 307 308 308 308 308 307 306 305 306 306 306 306 305 306 305 304 303 302 299 297 300 300 300 300 302 300 302 303 303
327 325 324 323 322 322 321 320 320 320 321 320 319 320 319 319 318 317 315 315 314 313 312 311 310 309 309 308 308 308 308 308 308 307 307 307 308 307 307 307 306 305 305 307 306 306 306 306 305 304 303 301 300 297 296 296 298 299 300 301 299 301 303
326 324 323 323 321 320 319 319 320 320 320 319 319 319 319 318 317 316 315 314 314 313 312 310 309 309 309 307 308 307 307 308 307 307 307 307 307 307 306 306 305 304 306 306 305 306 306 306 304 304 303 303 302 298 298 296 298 301 299 302 302 300 302
324 322 321 321 319 318 318 318 319 320 319 318 318 318 317 316 316 315 315 313 313 312 311 310 310 309 309 307 307 307 307 308 306 306 307 307 306 306 305 304 305 304 306 306 306 306 306 305 304 303 302 304 304 303 301 299 296 301 303 300 302 303 302
322 321 320 317 316 316 316 318 318 319 317 317 317 317 316 315 315 314 314 313 312 311 310 310 310 309 308 308 308 307 307 306 305 305 306 306 305 305 305 304 304 305 305 305 304 305 304 305 305 303 303 303 303 303 302 300 298 298 302 301 301 302 302
321 319 318 317 316 316 318 319 318 318 316 316 316 315 315 314 314 314 313 312 311 310 310 310 310 309 308 307 307 307 306 305 304 305 305 305 304 304 304 303 303 304 305 304 304 304 304 304 305 304 304 303 302 303 302 300 298 298 301 303 302 302 303
319 316 316 317 316 316 317 318 319 317 316 315 315 314 314 314 314 313 312 311 310 310 309 309 309 309 307 306 307 307 306 305 305 305 305 304 304 304 304 303 303 304 305 304 304 303 303 304 304 302 303 303 302 302 303 300 299 298 298 301 301 302 302
316 316 315 316 316 316 318 318 318 316 315 314 315 314 314 314 313 313 311 311 310 309 309 309 309 308 307 306 306 307 306 306 305 305 304 304 303 304 304 304 304 304 305 305 305 305 305 304 304 304 304 303 303 302 302 302 300 298 298 299 301 301 301
315 315 315 316 316 317 318 317 317 316 314 314 313 314 314 313 312 312 311 310 310 309 309 309 308 307 306 306 306 305 305 306 306 305 304 304 304 304 303 303 304 305 305 304 304 304 304 304 304 303 303 303 303 302 303 303 303 300 299 298 301 299 301
315 316 316 316 317 318 318 317 317 314 314 313 314 313 313 312 312 311 311 310 309 309 309 308 307 306 306 307 306 306 306 306 306 305 305 305 304 304 304 303 303 304 305 304 304 303 303 304 303 304 302 302 302 302 303 303 302 302 300 299 299 301 302
315 316 317 317 318 317 317 317 315 314 312 312 313 312 312 311 311 310 310 310 309 309 309 309 307 307 306 307 307 307 307 306 306 305 305 305 305 305 305 304 304 305 304 304 303 303 303 303 303 303 302 302 301 302 302 302 301 301 300 299 299 299 301
316 317 317 317 317 316 316 316 314 312 312 312 311 311 311 311 311 310 310 310 309 309 309 308 308 308 307 307 307 306 306 306 306 306 306 305 305 305 305 304 305 305 303 303 302 302 301 301 302 302 302 301 301 301 300 300 299 299 299 298 299 300 299
318 317 317 317 316 315 314 314 313 312 312 311 310 310 310 310 311 311 311 310 310 310 309 308 308 308 307 308 307 307 307 306 306 306 306 306 306 305 305 305 305 303 302 302 302 302 301 299 301 301 300 300 300 299 299 298 298 298 297 298 297 296 298
318 318 316 315 314 313 313 313 312 311 311 310 310 309 310 310 310 310 310 310 309 310 309 309 309 308 308 307 308 307 307 306 306 306 306 305 306 305 305 305 304 303 301 300 298 298 298 297 301 298 299 299 298 298 298 298 297 296 296 296 296 298 297
316 315 315 314 312 312 311 311 310 310 310 310 310 309 309 310 309 309 309 309 309 310 310 310 308 303 303 307 308 308 307 307 306 306 306 305 305 306 305 306 303 299 300 300 300 297 295 295 296 299 299 298 297 297 297 296 295 295 296 295 295 296 295
314 313 313 311 310 309 310 309 309 308 309 308 308 308 308 307 308 308 308 308 308 309 309 310 298 297 297 296 306 308 307 307 307 306 306 306 305 305 306 305 306 303 304 304 305 296 295 295 294 294 295 296 298 299 296 295 295 296 295 295 296 296 295
312 312 311 310 309 309 309 309 307 306 306 306 306 306 305 305 306 307 308 308 308 309 310 301 295 295 295 295 299 309 308 307 306 307 306 306 306 306 306 305 305 305 304 300 302 305 301 296 294 294 293 294 294 294 295 296 295 295 295 295 295 296 296
311 310 310 309 309 308 307 306 305 305 305 305 304 300 299 303 305 307 308 307 308 309 310 294 294 293 294 294 294 300 308 307 306 307 306 305 305 305 306 305 304 304 305 303 303 301 302 303 299 295 295 295 295 293 291 291 293 298 297 296 296 295 296
309 308 308 308 308 307 306 303 304 305 303 301 300 299 300 303 305 307 307 308 308 309 309 295 293 293 293 292 293 295 307 306 307 306 305 304 304 305 304 304 303 303 303 304 303 300 301 302 302 304 304 304 303 301 295 293 293 292 295 297 297 296 297
308 308 307 307 306 306 305 304 303 303 302 300 300 301 303 305 306 307 307 308 308 308 307 293 292 292 292 292 292 294 307 305 305 304 304 305 305 306 304 303 302 303 303 303 304 298 301 300 302 303 303 303 303 303 304 302 300 299 299 299 299 298 298
308 308 307 307 306 305 304 303 304 305 304 303 303 303 305 306 307 307 308 308 307 307 304 291 291 291 291 291 291 302 305 303 303 304 304 305 305 305 304 303 303 303 302 303 296 289 294 298 302 302 302 302 303 303 303 301 295 295 299 300 300 299 299
309 308 306 305 305 305 305 305 306 306 305 304 303 303 305 306 306 306 307 307 307 305 302 293 290 291 291 290 295 302 302 301 303 304 304 305 305 304 303 302 303 302 302 303 294 289 291 291 302 302 301 302 302 302 302 303 297 294 292 292 292 292 292
307 306 306 305 305 306 307 307 307 306 304 303 303 303 305 304 304 305 306 306 306 305 303 296 290 291 290 291 296 300 300 302 303 303 305 304 305 303 302 301 301 302 302 303 289 289 289 296 301 301 301 301 301 300 301 301 301 300 296 295 294 293 293
307 306 305 305 305 304 303 304 305 305 304 304 303 303 303 303 303 304 305 306 304 304 303 297 290 291 290 291 296 302 301 302 302 303 303 303 304 303 301 299 299 300 301 298 287 290 289 294 301 301 300 301 299 299 299 299 298 299 300 301 302 303 301
306 304 303 302 301 302 303 303 303 303 302 302 302 302 301 302 302 302 304 305 304 305 303 300 296 290 291 290 291 302 303 302 301 302 303 301 301 302 302 302 300 290 288 289 289 288 289 289 299 301 301 301 299 296 298 297 298 298 299 300 301 302 301
306 304 302 301 301 302 302 301 302 303 301 301 301 300 301 302 302 301 302 304 304 304 303 301 297 289 291 290 291 292 304 303 303 302 302 300 301 301 301 302 304 294 288 290 289 289 289 289 290 300 301 300 299 300 294 297 298 297 301 301 301 300 300
306 304 303 302 301 301 302 302 302 302 300 300 300 300 301 301 301 301 302 302 303 302 300 299 298 291 290 290 291 289 300 304 302 303 301 300 301 301 302 301 304 295 288 290 289 289 289 289 289 299 302 293 290 288 297 297 299 301 300 300 299 298 299
304 303 303 303 302 301 302 302 302 301 300 300 300 300 300 300 300 300 300 300 300 299 300 298 294 296 291 290 290 291 288 295 291 304 302 300 301 302 302 302 303 291 289 289 289 289 289 289 290 301 291 289 289 288 291 299 300 300 299 299 299 298 297
304 303 303 303 303 301 302 302 301 300 300 299 299 298 297 298 298 297 297 297 298 298 299 298 295 293 295 288 290 289 289 287 290 300 303 303 303 301 303 303 300 289 289 289 288 289 290 290 297 291 289 289 288 290 298 301 299 300 298 298 297 297 297

ECMWFFLT1_sfc_thetae_111.txt.gz
Theta_e
334 334 335 334 334 331 330 330 330 330 331 332 331 329 331 329 329 328 327 325 323 323 323 323 324 324 322 322 323 323 324 325 324 319 316 313 310 310 315 315 313 314 317 318 316 314 310 305 305 308 309 310 309 308 308 307 306 309 310 309 307 307 308
335 334 333 332 329 330 329 329 329 330 332 331 330 329 328 328 328 326 325 323 322 321 321 321 322 322 321 320 320 319 320 320 320 319 315 312 313 311 312 313 314 312 311 313 314 313 309 309 306 306 307 310 311 308 310 309 308 309 309 308 308 307 308
334 332 331 329 329 329 328 328 329 329 329 329 328 328 328 329 326 325 322 322 322 320 319 319 319 319 318 317 317 318 318 318 318 318 317 316 317 316 317 317 314 313 311 310 310 310 309 309 304 302 305 308 308 307 309 308 309 309 311 309 310 308 307
333 331 329 328 328 328 327 327 327 327 328 327 327 327 327 327 326 324 322 320 321 320 318 316 315 313 314 315 316 317 317 316 315 316 316 316 316 314 314 313 312 311 310 309 309 309 309 309 306 304 305 303 303 306 308 308 309 309 309 308 307 307 307
332 330 329 328 328 326 327 326 327 327 327 326 326 325 324 325 325 322 321 321 320 320 317 317 315 314 314 313 314 315 315 316 316 315 315 314 314 313 312 312 311 312 312 310 310 309 309 307 308 306 304 305 306 306 306 310 309 307 305 306 305 306 306
332 332 330 329 329 327 327 326 326 325 325 324 324 324 324 323 324 321 321 320 318 319 317 316 315 314 314 313 314 314 315 315 316 317 315 315 314 311 309 311 310 311 309 310 311 310 310 309 308 305 305 307 304 305 304 306 303 307 304 304 305 305 305
333 332 332 330 329 328 327 326 326 326 324 324 323 323 323 323 322 322 321 320 318 317 316 315 313 313 313 311 312 311 312 313 314 314 314 314 313 313 313 310 310 309 310 311 310 310 309 308 305 305 305 306 307 302 304 303 303 301 302 303 305 305 304
333 333 332 331 330 329 328 327 327 327 326 325 324 324 323 322 322 321 319 317 317 316 314 314 313 313 313 312 312 312 312 312 313 313 313 313 312 312 312 310 310 309 309 308 309 309 308 307 306 305 304 303 304 304 302 303 303 302 301 303 304 304 304
334 333 332 331 330 330 329 327 327 328 326 325 325 324 323 322 320 318 318 316 316 315 314 312 312 312 313 312 311 311 310 311 311 311 311 311 311 311 311 311 310 308 309 308 309 308 308 308 307 307 305 303 301 299 301 302 302 301 303 301 303 305 304
335 333 331 331 332 330 329 329 327 326 326 326 324 323 321 321 320 318 317 316 315 314 314 313 312 311 311 311 311 311 311 312 311 311 311 311 311 310 310 310 308 307 308 309 309 309 309 308 307 307 305 303 303 300 298 299 301 300 301 303 300 303 305
333 331 331 331 331 329 328 328 327 324 323 325 324 322 321 320 319 318 317 316 315 314 313 312 311 312 312 311 311 311 310 311 310 310 310 311 310 310 309 308 308 307 308 308 307 309 308 308 307 306 306 306 305 301 301 299 299 303 301 304 303 301 304
334 331 331 330 329 326 324 324 324 323 323 322 322 321 319 319 318 317 316 315 314 313 313 312 311 311 311 310 310 309 310 310 309 309 310 309 309 309 308 307 308 307 309 308 308 308 308 307 307 306 305 306 306 304 303 301 298 302 304 302 303 304 304
333 331 329 328 326 324 322 322 323 323 322 322 321 321 319 318 317 316 315 314 313 313 311 311 312 311 311 310 310 309 310 309 308 308 308 308 308 308 308 308 308 308 308 307 307 307 307 307 308 305 305 305 305 305 304 302 300 300 304 303 303 304 305
330 329 328 326 324 322 322 322 322 322 321 320 320 319 318 317 316 315 314 314 313 312 311 311 312 311 311 310 310 309 309 308 308 308 307 307 307 307 306 305 305 306 308 307 307 307 306 306 307 307 307 305 305 305 304 302 299 300 303 306 305 304 306
327 325 326 325 322 320 321 322 322 321 320 319 318 317 317 317 317 315 313 313 312 312 311 311 310 311 309 310 309 309 309 308 307 307 308 306 306 307 307 306 305 306 307 306 306 305 306 306 306 304 305 305 303 304 305 302 300 300 300 304 303 304 304
326 324 324 322 320 320 321 321 321 320 319 318 318 318 317 316 315 314 313 313 311 311 311 310 311 310 310 309 308 309 309 308 308 307 306 305 305 306 306 306 306 307 308 308 307 306 307 307 306 305 304 305 304 304 304 304 302 300 300 300 303 302 303
326 324 322 320 319 320 320 320 320 320 318 317 316 317 317 316 315 314 313 312 311 311 311 311 310 310 309 309 308 308 308 308 308 308 306 305 305 306 306 305 306 307 307 306 306 306 306 306 306 306 305 305 305 304 305 305 304 302 301 299 302 301 302
324 322 321 320 319 320 320 320 320 319 317 316 317 316 316 315 314 313 313 311 311 311 311 310 309 309 309 310 309 308 308 308 308 308 307 306 306 306 306 306 305 306 307 307 306 304 304 305 305 306 305 303 303 304 304 304 303 303 301 299 300 302 302
322 320 319 319 319 319 319 320 319 318 316 315 316 316 315 314 314 313 312 311 311 311 310 309 308 308 308 309 309 309 309 308 308 306 306 306 307 307 306 306 307 307 305 305 304 304 303 303 304 304 304 302 302 302 302 302 302 301 301 299 300 299 301
320 319 319 319 319 318 319 320 319 317 316 316 315 314 314 314 313 312 311 311 311 311 310 309 309 308 308 309 308 309 309 308 307 307 307 307 307 307 307 306 307 305 304 304 303 302 301 302 303 303 302 302 301 301 300 300 300 300 300 299 299 300 299
320 319 319 318 318 318 320 321 319 317 315 315 314 313 313 312 312 312 312 311 311 311 310 309 309 309 308 309 308 308 308 308 307 308 308 307 307 307 307 307 306 303 303 302 302 301 300 299 301 301 301 300 300 299 299 299 299 298 298 298 298 297 298
320 319 318 317 317 319 319 319 318 315 314 314 314 313 312 312 311 311 311 312 311 311 311 310 309 309 308 307 309 308 308 307 308 307 307 307 307 307 306 307 305 302 300 300 300 301 301 300 300 298 299 299 299 298 298 298 298 297 297 297 297 298 298
320 319 317 316 317 318 318 318 315 313 313 312 311 311 311 311 310 311 310 310 310 310 310 310 309 301 303 310 309 309 308 309 307 307 307 307 307 307 308 306 301 298 299 301 302 300 297 297 299 300 299 299 298 297 297 297 297 297 297 295 296 296 296
319 317 316 316 317 317 318 318 313 313 312 311 310 311 309 310 312 312 310 309 310 311 312 310 298 297 296 297 307 309 309 308 308 308 308 307 306 307 307 307 303 301 302 302 303 299 297 295 295 296 297 297 300 299 298 297 296 297 295 295 296 297 296
317 316 316 315 315 315 317 315 312 311 310 308 308 310 311 309 308 308 309 310 309 309 310 302 295 295 297 296 298 309 309 309 309 308 308 307 308 308 307 307 307 306 306 301 304 306 301 296 294 294 293 293 294 294 296 299 297 296 296 295 296 296 296
318 318 317 314 314 314 314 312 311 311 310 311 311 309 308 307 308 308 309 308 308 309 310 296 295 295 295 295 294 300 309 310 308 308 308 308 308 308 307 306 306 306 307 302 304 303 302 304 299 294 295 296 295 294 291 291 292 299 299 297 297 296 297
317 316 315 314 314 313 312 310 310 309 309 310 308 308 309 308 308 308 308 307 309 310 311 298 295 294 295 293 294 296 309 309 308 308 308 307 307 307 307 306 306 305 306 306 305 300 300 301 302 304 306 306 306 305 295 292 291 291 296 300 299 298 299
315 314 314 313 312 312 311 310 309 308 308 307 306 306 306 306 306 307 308 309 310 309 311 295 294 293 293 293 293 295 307 309 308 309 308 307 307 307 307 307 306 305 305 306 303 300 299 299 300 303 305 305 305 305 306 305 304 304 302 301 301 301 301
314 313 312 312 312 310 310 310 309 308 307 306 306 304 303 304 305 306 308 309 309 309 308 293 293 293 292 293 292 304 305 308 307 307 306 306 307 308 307 305 305 305 304 305 297 289 295 298 299 302 304 304 304 305 306 306 299 298 302 302 302 301 302
312 312 312 311 311 309 309 309 308 308 306 305 303 303 303 304 305 307 308 308 309 310 304 294 292 292 292 291 296 304 305 307 306 305 305 306 307 307 307 305 305 305 305 305 294 290 291 292 299 302 303 302 304 305 304 306 298 293 293 293 293 292 292
311 311 310 310 310 310 309 308 307 307 305 304 303 303 304 304 307 307 307 308 309 309 306 297 291 292 292 291 298 303 304 305 303 304 305 307 307 307 305 302 302 304 305 305 288 290 289 296 300 301 301 301 302 302 302 301 301 301 297 296 296 295 294
312 311 311 310 310 309 308 308 308 308 307 305 304 303 305 305 307 307 309 310 309 308 306 298 291 291 291 291 298 304 303 301 303 304 305 305 306 306 304 300 300 300 302 299 287 291 289 295 299 300 300 302 301 300 300 299 299 299 301 302 303 304 304
313 312 310 309 309 308 308 308 308 308 307 305 304 304 305 307 305 306 308 309 308 308 305 302 297 290 291 291 293 302 303 302 303 303 304 304 303 305 304 300 299 293 289 289 289 288 289 289 297 300 300 301 300 297 299 298 299 300 300 301 303 303 303
312 311 311 308 308 308 308 307 307 306 305 305 305 304 304 304 304 305 307 308 307 308 306 302 298 290 291 291 291 293 299 302 305 304 304 303 303 303 303 302 302 294 289 290 289 289 289 289 290 298 300 300 300 301 296 298 300 299 302 303 302 302 301
311 308 308 307 306 306 306 306 305 305 305 305 304 303 302 303 304 304 305 307 306 308 306 303 300 291 291 290 291 290 296 302 302 304 303 303 303 303 303 303 305 295 289 290 289 289 289 289 289 297 300 294 292 291 300 299 299 301 302 302 301 300 300
307 307 306 306 305 305 305 305 305 305 305 304 302 302 302 303 303 303 304 304 305 307 305 302 296 296 291 290 290 290 290 294 293 301 304 303 303 304 305 305 301 291 289 290 289 289 290 289 290 296 292 292 292 291 292 298 300 302 301 301 301 300 299
307 306 305 305 304 304 305 305 305 304 305 303 301 301 301 303 302 301 301 301 303 303 303 301 296 294 294 289 290 290 289 289 289 297 302 305 303 304 305 305 298 288 289 289 289 289 289 290 296 293 291 290 290 291 297 299 301 302 300 300 299 299 299

ECMWFFLT1_sfc_thetae_114.txt.gz
Theta_e
333 334 335 334 335 335 333 331 331 334 334 336 335 334 331 330 330 330 330 330 328 326 327 327 325 324 323 322 324 324 323 321 322 320 315 315 312 312 317 317 318 317 316 317 316 314 308 301 303 308 309 308 308 311 308 306 306 308 311 310 304 304 308
336 335 335 334 333 334 332 331 330 329 333 336 331 333 329 327 332 328 328 327 327 324 322 323 321 320 320 320 320 320 319 319 319 320 317 316 316 315 318 313 313 312 313 313 313 315 308 307 302 302 303 308 309 308 308 308 307 308 308 309 307 307 308
335 334 333 330 331 332 330 330 331 332 329 333 334 328 333 326 326 327 324 323 325 320 319 318 318 318 318 317 318 319 318 317 317 316 316 316 316 315 314 315 316 315 313 310 309 307 310 309 305 302 304 303 303 305 309 308 307 306 308 307 308 306 305
334 332 330 328 329 329 327 328 331 331 330 330 331 329 328 326 326 325 323 320 322 324 319 315 317 315 316 317 317 317 317 316 315 315 314 314 313 312 311 310 310 309 308 307 305 307 307 306 305 305 304 304 307 302 305 307 307 307 307 307 306 305 305
333 331 329 327 327 327 327 327 329 329 329 329 328 330 328 328 325 325 324 322 321 320 317 317 317 315 315 315 316 316 316 317 316 315 314 312 313 312 311 311 309 309 308 307 309 310 307 306 305 304 303 301 303 304 306 307 307 307 306 306 303 305 307
333 331 330 329 329 328 327 327 327 326 327 326 327 325 328 330 324 323 324 321 320 319 317 316 316 316 316 315 314 314 314 314 314 314 311 311 312 310 310 310 309 309 308 309 310 308 307 309 306 302 303 305 302 303 304 305 304 305 302 303 302 304 302
333 332 331 330 330 329 328 327 327 326 325 326 326 324 324 324 322 324 322 320 318 318 317 317 316 314 314 311 312 312 312 314 314 313 312 312 311 311 310 308 308 308 308 309 308 308 306 305 303 301 302 303 305 302 304 302 302 300 301 300 301 303 303
333 332 331 331 330 329 329 328 328 328 326 325 324 326 324 325 323 321 319 319 318 317 316 315 314 314 314 312 312 312 313 313 313 312 311 311 310 309 309 309 309 308 309 308 307 307 307 306 305 304 302 298 300 307 299 301 299 298 297 299 301 300 302
334 333 332 331 331 330 329 328 328 328 327 326 327 324 324 325 321 319 318 316 316 315 315 314 313 313 313 312 311 310 309 312 310 310 310 310 310 310 309 309 308 307 308 307 307 308 307 307 306 306 303 300 297 296 299 299 300 299 300 298 300 301 301
334 332 331 331 330 330 330 329 328 328 327 327 327 324 323 322 321 318 316 315 316 315 315 314 312 312 312 311 310 311 310 311 311 309 310 309 309 310 309 309 308 307 306 308 308 308 308 308 308 305 305 301 300 297 295 296 298 298 299 300 298 299 302
334 333 332 331 331 330 329 329 329 327 326 326 326 322 322 320 319 318 315 315 315 314 313 312 311 312 312 311 310 310 310 310 310 311 311 310 309 310 309 307 307 306 308 307 307 307 307 307 307 307 304 304 302 298 298 295 296 300 299 301 300 299 301
334 333 332 331 330 329 328 328 326 326 327 326 323 321 320 318 318 316 316 314 314 313 312 312 312 311 311 310 310 309 311 310 308 307 308 308 309 309 308 307 307 306 307 307 308 308 307 307 305 304 304 306 306 302 300 298 294 299 302 299 301 303 302
334 332 332 330 328 327 328 326 324 324 325 326 322 320 318 317 317 315 315 313 313 312 311 312 311 311 311 310 310 310 309 308 307 307 307 308 309 310 309 307 307 307 310 309 307 308 307 307 307 306 305 305 305 305 302 300 296 295 301 301 301 303 303
332 332 331 329 328 328 326 324 323 323 322 324 321 319 318 317 315 315 313 312 311 311 310 311 311 311 310 310 310 309 308 308 306 307 307 308 308 307 305 304 305 306 307 306 306 308 306 306 307 307 306 305 304 304 301 298 296 296 299 303 302 302 302
331 331 330 328 327 326 323 323 323 322 321 322 319 317 317 316 315 314 312 311 311 310 310 310 310 311 310 309 308 311 309 307 305 305 307 305 307 310 307 303 304 305 307 306 306 303 304 304 304 304 302 304 302 303 302 300 298 297 296 300 300 302 301
330 328 327 327 326 323 323 322 322 321 320 321 319 318 316 316 315 313 312 312 310 310 309 309 311 311 310 308 307 309 310 307 307 306 305 305 304 306 305 306 305 308 310 307 307 306 306 304 304 304 303 303 302 303 302 302 299 297 297 297 299 298 299
329 327 325 324 323 322 322 321 321 320 319 318 317 318 317 315 314 313 312 310 310 310 309 310 310 309 308 308 307 307 307 307 307 306 305 304 304 306 305 305 307 308 308 306 305 305 304 304 304 304 304 303 302 302 302 302 302 298 298 296 297 298 299
327 325 323 322 321 322 321 321 320 319 318 317 317 316 316 315 313 312 312 310 309 309 309 309 309 309 309 309 308 308 307 307 308 307 306 306 307 305 306 306 306 307 307 307 304 302 303 303 303 304 304 302 301 302 302 301 300 299 297 296 296 298 299
325 323 322 321 321 320 320 320 320 318 317 316 316 316 314 314 312 311 310 310 310 310 309 309 308 308 308 309 308 308 308 308 308 306 306 307 306 308 307 306 308 306 305 304 303 302 301 301 303 303 302 300 299 299 298 298 299 298 297 296 296 295 296
324 322 321 320 320 320 319 319 318 317 316 316 315 314 314 313 313 311 310 310 310 310 309 308 308 308 308 308 307 308 308 308 307 306 306 306 306 307 307 306 306 305 303 303 302 300 298 298 301 300 301 299 298 297 297 297 297 296 296 295 295 295 295
322 321 320 320 320 320 319 318 318 317 316 315 315 313 312 312 312 311 311 310 310 310 310 309 307 307 307 308 308 308 308 308 306 307 308 306 307 307 307 307 304 302 301 299 299 299 298 297 299 298 298 298 297 296 296 296 296 295 294 294 293 293 294
321 320 319 319 319 319 318 318 318 316 316 315 315 313 313 312 311 310 310 310 310 310 310 309 309 307 307 309 310 308 308 307 307 307 306 306 307 306 307 306 301 299 301 299 298 300 300 302 300 297 298 297 297 296 295 295 296 294 293 293 292 294 293
320 319 319 318 318 318 318 318 316 314 315 314 313 313 312 312 311 310 309 311 310 310 310 311 308 306 308 307 307 308 308 308 307 306 306 305 306 306 306 303 302 301 300 300 301 300 298 298 300 301 299 298 298 297 296 295 295 295 294 292 291 292 292
319 318 318 318 318 318 318 317 314 314 313 313 313 314 311 310 314 312 310 309 309 308 309 309 298 295 297 302 308 308 307 307 307 306 306 305 305 306 306 301 299 302 302 302 302 299 297 296 295 296 297 299 302 299 296 295 295 296 294 293 293 293 292
318 317 317 317 317 318 317 316 312 313 312 311 312 311 310 311 310 310 309 309 308 307 308 302 295 295 294 295 301 308 308 307 308 306 307 305 305 305 306 302 301 304 304 303 302 302 300 298 295 294 293 293 294 295 297 297 295 295 295 293 293 293 293
318 317 317 317 317 317 316 315 312 311 310 310 310 309 310 309 308 308 308 308 308 307 308 297 295 295 294 293 294 304 307 307 307 307 307 306 306 305 305 306 305 306 306 304 303 303 301 301 300 295 295 296 296 294 291 291 294 296 296 294 293 294 294
317 316 317 317 317 317 315 312 312 311 310 309 308 309 308 308 308 308 307 308 308 308 308 298 295 295 294 293 293 298 307 308 308 307 307 306 310 307 306 305 304 304 305 304 305 301 300 299 299 299 301 302 302 302 297 293 292 292 295 295 294 293 296
316 316 316 316 315 314 313 311 311 310 309 308 307 307 306 305 305 307 309 309 307 308 308 296 294 294 293 293 293 298 306 310 306 308 308 309 307 308 307 308 307 305 304 304 300 300 298 297 297 298 299 302 302 303 303 302 297 297 297 296 295 297 297
315 314 314 314 313 312 311 311 310 310 309 309 308 307 307 307 306 307 308 308 307 307 306 294 294 294 294 293 294 306 307 307 307 308 308 307 307 307 307 307 305 305 304 298 296 292 295 297 296 297 299 301 301 302 304 307 299 299 301 299 298 298 297
316 314 314 313 312 311 310 309 309 309 308 307 307 307 307 307 307 307 307 306 307 307 301 295 294 294 293 293 297 304 306 306 307 307 307 307 306 306 307 305 304 304 305 298 293 290 290 295 296 298 299 299 301 301 302 306 298 295 293 293 293 293 293
317 316 315 313 312 311 310 310 309 307 306 304 304 304 303 304 305 305 305 306 308 305 301 296 293 293 293 294 299 303 304 304 306 305 305 306 305 306 307 310 305 305 302 295 290 290 289 296 297 297 297 297 298 299 298 299 300 299 297 296 296 295 295
319 317 314 312 312 310 309 308 307 306 305 304 302 302 302 302 302 303 305 307 310 305 301 296 293 292 293 293 299 303 302 302 303 301 302 304 305 305 303 305 305 301 300 296 288 290 288 294 297 297 297 296 297 297 297 296 296 295 296 297 298 299 300
314 313 312 312 311 310 308 307 306 305 304 303 302 302 301 301 302 304 307 307 310 305 301 298 295 292 293 293 296 302 303 302 300 301 302 303 302 304 302 301 298 291 291 289 290 289 289 290 296 297 297 295 296 296 298 296 297 296 296 297 297 300 300
314 313 313 311 310 308 307 306 305 305 304 303 302 302 303 304 306 307 307 308 308 305 302 299 296 291 293 293 293 296 302 303 303 303 302 302 301 302 301 298 297 294 290 290 290 289 290 289 291 295 296 296 297 298 295 295 297 298 296 296 299 299 299
313 312 311 309 308 307 307 307 306 306 304 303 302 304 305 304 304 306 307 307 306 305 303 301 297 292 292 293 293 293 298 301 300 298 300 302 301 301 301 301 298 294 290 290 289 290 289 290 289 294 295 293 292 291 294 295 296 296 296 297 297 296 297
312 311 309 308 307 306 306 306 305 304 304 304 303 303 303 304 304 303 302 305 305 304 302 301 296 294 292 292 292 292 292 295 292 298 298 300 302 302 303 303 300 294 290 290 289 289 290 289 290 292 291 291 291 290 292 295 295 296 295 297 298 297 296
311 310 308 308 307 306 305 305 304 304 304 303 301 301 301 301 302 301 301 303 304 304 302 300 295 294 293 290 291 290 290 289 290 295 297 297 300 298 300 297 294 290 290 290 289 289 289 289 292 292 291 291 290 291 293 294 294 295 296 296 296 295 296

ECMWFFLT1_sfc_thetae_117.txt.gz
Theta_e
329 329 330 329 329 329 328 327 326 326 327 328 326 325 325 325 323 323 322 321 320 320 322 318 317 317 317 318 318 316 315 315 312 308 307 308 303 306 313 310 313 312 310 309 305 300 298 297 297 303 304 302 303 303 308 303 304 305 305 305 304 303 302
331 330 330 330 329 328 325 324 325 326 326 326 326 324 324 324 325 321 320 319 319 319 319 316 314 315 314 314 313 313 311 312 314 312 309 307 308 307 308 307 305 306 306 306 306 306 303 297 298 298 298 302 303 303 302 304 303 302 305 306 305 308 307
331 330 329 328 327 326 324 323 323 323 323 322 323 323 322 321 319 320 315 314 316 317 316 313 313 313 313 313 312 312 311 310 310 309 308 307 307 306 306 305 304 303 303 303 303 303 303 302 298 298 299 298 297 299 304 303 303 303 303 304 306 305 304
330 328 327 326 327 326 323 322 323 323 323 322 321 321 321 320 319 317 314 314 316 319 315 313 312 312 311 311 312 311 311 309 308 309 309 308 306 306 304 304 303 303 302 301 300 302 300 298 298 300 300 301 300 300 302 304 304 302 302 302 303 303 303
329 328 326 325 326 325 323 322 324 322 321 320 321 320 318 317 317 316 317 314 312 310 310 310 310 311 311 311 311 311 311 310 310 309 307 305 304 304 304 304 303 304 303 302 303 302 302 300 299 298 297 298 300 302 304 303 303 304 304 303 303 303 304
329 327 326 325 325 324 323 323 322 320 319 318 318 319 318 316 316 315 313 311 311 312 311 310 310 310 310 309 309 309 309 308 307 307 306 305 305 304 302 303 303 303 302 303 303 301 301 300 298 295 298 299 297 298 301 302 301 302 303 303 303 301 300
328 327 326 325 325 324 324 323 321 320 319 319 318 317 318 317 317 316 314 311 311 310 310 309 309 309 308 308 308 308 308 308 307 306 305 305 305 304 303 303 303 302 301 303 302 301 300 299 297 297 296 296 297 300 298 301 301 298 297 298 300 299 300
328 327 326 326 326 325 324 323 322 321 320 319 318 318 319 316 315 313 312 311 310 309 309 309 310 308 309 309 309 309 308 307 306 306 305 305 304 303 303 303 303 302 302 302 301 302 302 300 299 298 296 295 294 295 296 299 295 294 295 297 298 299 300
328 327 326 326 326 326 324 323 323 322 321 320 320 319 318 315 313 313 311 309 309 309 309 308 308 307 306 306 305 306 306 309 306 305 304 303 303 302 302 302 301 301 303 303 303 302 302 302 301 300 297 296 293 291 293 294 296 296 299 297 296 298 300
328 327 326 326 326 325 324 323 323 322 321 320 320 319 316 313 312 311 310 309 308 308 308 308 307 307 306 307 306 305 305 306 305 304 303 304 303 303 302 302 301 301 301 302 302 303 302 302 301 299 298 297 296 292 291 290 292 294 296 298 296 297 300
328 327 327 326 325 324 324 323 323 321 320 321 319 318 315 313 313 314 309 309 308 307 307 307 307 307 306 305 305 305 305 305 305 305 305 303 303 303 303 302 302 302 303 300 301 301 300 300 300 300 299 298 296 294 293 291 290 294 295 297 299 298 300
329 328 327 326 325 324 323 323 322 321 320 318 317 315 313 312 310 310 309 308 307 307 307 307 307 306 305 304 305 304 304 303 302 301 302 303 303 303 302 301 301 300 301 301 301 300 300 300 299 299 299 300 299 296 294 293 290 292 297 296 297 300 300
329 328 327 325 325 324 323 322 321 319 318 317 316 314 313 311 310 309 308 308 307 306 306 306 306 305 304 304 305 303 303 303 303 302 302 303 305 304 302 301 301 301 302 301 300 300 300 302 301 300 300 300 299 298 297 294 292 292 296 297 297 299 301
328 328 326 326 324 324 322 321 320 320 319 316 315 314 313 311 310 310 308 308 306 306 306 305 306 305 304 304 304 303 303 303 302 301 303 302 303 301 301 301 301 301 301 300 299 301 301 301 301 300 301 298 297 297 296 294 293 294 295 298 298 299 300
328 327 326 325 324 323 320 320 319 318 317 316 315 314 312 311 310 309 308 306 306 306 306 305 305 305 304 303 303 305 303 302 301 301 302 301 302 303 300 299 300 300 301 300 299 300 300 299 301 298 298 299 297 298 298 297 294 294 293 295 295 297 296
328 327 325 324 324 321 319 319 319 318 316 315 315 314 312 311 310 309 307 306 306 305 305 305 305 304 303 303 303 303 303 301 302 302 301 301 301 301 300 301 300 302 304 300 300 299 299 299 300 299 298 298 297 297 298 297 295 293 292 293 295 294 295
327 326 325 324 322 320 319 318 319 318 317 315 314 313 312 311 310 308 307 306 305 305 305 305 305 304 303 303 303 303 303 303 303 302 301 300 301 301 300 299 300 301 301 299 298 297 297 298 298 298 297 297 296 296 296 295 294 293 292 293 293 294 295
326 325 324 323 320 319 318 318 318 317 316 314 313 312 312 311 309 308 307 306 305 305 305 305 304 303 303 303 303 304 304 303 303 302 301 301 306 300 301 300 301 301 300 297 296 295 295 295 297 298 295 295 295 295 295 295 294 294 291 291 292 294 294
325 325 323 321 320 319 317 317 316 316 315 314 312 312 311 310 309 307 306 306 305 305 305 305 304 304 304 304 304 304 304 304 303 302 302 302 301 302 300 300 300 300 299 297 295 294 294 294 295 295 294 293 293 293 292 293 293 292 291 291 290 291 292
325 323 321 320 319 318 317 316 316 315 315 314 312 311 310 309 309 307 306 306 306 305 305 305 304 304 305 305 305 305 304 303 302 303 302 302 302 302 301 300 299 297 296 295 293 292 292 293 296 293 295 293 293 291 291 291 292 291 290 290 290 290 290
323 321 320 319 318 318 317 316 315 315 314 313 311 310 310 309 308 307 306 306 306 305 304 304 304 304 304 305 305 304 304 302 302 302 302 301 302 301 301 298 296 295 295 294 293 292 292 292 293 293 292 293 293 292 291 292 291 291 290 290 289 288 289
322 320 319 318 318 317 317 316 315 314 313 312 312 311 310 309 307 306 306 306 305 305 304 304 305 305 305 306 305 304 303 302 302 301 300 300 300 301 298 296 295 294 301 302 302 301 303 302 294 292 292 293 294 292 291 291 293 291 291 290 290 290 289
320 320 319 318 317 317 316 315 314 313 313 312 311 310 309 308 307 306 305 304 304 305 304 305 308 307 306 305 304 304 303 302 301 301 301 300 300 299 296 295 301 304 302 301 302 299 297 299 303 298 294 293 293 292 291 291 291 291 292 291 289 289 289
320 319 318 318 317 316 316 314 313 313 313 312 310 309 309 307 306 305 305 304 304 304 305 305 302 298 299 302 304 302 302 301 301 301 300 299 299 299 296 296 296 301 302 304 300 298 296 296 295 295 297 299 300 295 292 291 291 291 291 292 291 290 288
318 318 318 317 316 316 315 313 312 312 311 310 309 308 307 306 305 305 305 304 304 304 304 303 296 297 298 299 303 303 302 302 302 301 300 300 300 299 295 295 296 300 298 297 297 297 298 297 295 294 294 294 293 294 296 294 293 291 290 290 290 290 289
318 317 317 317 316 316 314 312 311 310 309 309 308 307 306 306 305 305 305 304 304 305 303 297 295 296 297 298 299 302 303 302 302 301 301 300 300 299 296 295 297 299 301 306 305 297 296 297 300 297 296 296 296 295 292 291 293 295 292 290 290 289 290
317 317 317 316 316 315 313 311 310 310 309 308 307 306 305 304 304 304 304 304 304 304 301 296 295 295 295 296 298 300 302 302 302 301 301 301 301 300 298 296 297 299 298 301 297 294 293 292 292 292 293 294 295 299 298 296 293 292 295 293 291 290 292
317 316 316 316 315 314 312 310 309 308 308 307 306 305 304 303 304 304 304 304 303 304 303 295 294 294 294 295 296 298 300 303 302 301 301 301 301 301 300 300 299 298 298 296 295 294 292 291 291 292 292 294 296 297 297 297 294 293 293 293 292 292 292
316 316 316 316 315 314 311 309 308 307 306 306 305 304 303 304 303 303 304 304 303 304 303 293 293 294 294 293 297 301 299 299 299 299 299 300 300 301 301 300 299 298 296 293 298 296 295 292 291 291 292 293 295 295 297 304 297 297 296 294 294 294 295
316 316 315 315 314 313 309 308 307 307 305 304 304 303 302 302 303 303 303 303 303 302 300 294 293 294 293 294 297 299 299 298 299 299 299 300 300 300 301 299 298 296 293 291 293 290 292 295 291 292 293 291 293 293 295 297 296 295 295 294 293 293 293
316 315 315 314 314 312 309 308 307 306 305 304 303 303 303 303 303 304 303 303 303 302 300 296 293 293 293 294 298 299 298 298 298 299 299 299 299 298 301 310 304 296 293 292 291 290 291 294 290 291 292 291 291 292 293 294 295 295 294 294 294 294 294
316 315 315 314 313 310 308 307 307 307 305 305 304 304 304 303 302 302 303 303 307 303 300 297 293 293 293 294 299 299 299 297 298 298 299 298 298 299 299 307 306 299 294 293 290 290 291 294 291 291 291 291 290 290 291 290 291 291 292 293 294 294 294
315 314 314 313 311 309 308 307 306 305 304 304 303 302 301 301 301 301 302 302 305 302 299 297 295 292 293 294 297 300 300 299 298 297 296 298 298 296 298 297 298 293 292 290 289 289 290 293 291 290 291 290 289 290 290 290 292 292 292 292 292 293 294
314 314 314 312 310 309 307 306 305 304 303 302 302 300 300 300 300 300 300 301 302 300 300 298 296 292 293 294 296 298 300 299 296 295 294 297 297 297 297 295 293 293 290 290 290 289 290 290 292 291 290 290 291 292 292 289 292 295 291 293 293 293 294
314 314 313 312 309 307 306 305 304 303 302 301 300 299 298 298 298 298 301 303 302 300 301 301 296 293 292 294 294 296 298 297 295 293 294 294 296 296 296 295 293 292 290 290 290 290 290 290 290 292 291 291 291 291 291 292 291 292 292 292 291 292 293
313 313 312 310 308 305 304 304 303 303 301 300 299 298 298 299 300 301 302 301 301 300 299 299 296 295 292 292 293 294 295 292 292 296 293 292 292 292 294 295 296 295 290 290 290 290 290 290 290 290 290 289 290 289 290 290 290 291 289 290 291 291 291
313 312 310 308 306 304 304 304 303 302 301 300 299 300 301 301 301 301 300 300 299 298 298 297 295 294 293 292 292 293 292 291 291 292 293 291 293 290 289 293 295 292 290 290 290 290 289 290 289 289 289 289 289 290 290 289 289 291 290 290 291 291 290

ECMWFFLT1_sfc_thetae_120.txt.gz
Theta_e
330 329 329 329 328 328 326 326 326 325 326 326 324 324 324 324 322 321 321 319 319 319 320 315 314 314 315 315 314 313 314 313 312 313 309 307 308 306 313 308 312 307 304 304 303 299 296 295 296 299 300 300 300 300 305 304 302 302 300 302 303 302 300
330 329 329 328 327 327 325 324 324 324 324 323 323 323 322 322 324 320 320 318 317 316 317 314 313 313 312 311 310 310 311 310 309 308 308 306 305 305 304 304 304 303 302 303 305 303 298 295 295 295 296 299 300 299 301 301 301 301 304 302 304 309 308
329 329 328 327 326 325 324 322 322 323 322 321 321 322 321 321 318 317 317 317 316 316 316 312 312 312 311 310 309 309 309 309 307 308 307 304 305 303 304 305 303 301 300 301 300 300 299 297 296 296 296 295 295 297 300 300 300 300 300 301 301 301 301
328 328 326 325 325 323 322 322 322 323 321 320 319 319 318 316 314 316 314 314 315 318 314 311 311 311 310 310 310 309 308 307 306 306 306 304 304 303 302 302 301 301 299 298 298 299 298 296 296 297 297 298 297 297 299 301 303 302 301 301 301 301 301
329 328 326 325 324 323 322 321 321 319 319 318 317 316 315 314 315 314 315 313 313 310 310 310 310 310 310 310 309 308 307 306 306 306 304 303 302 302 301 301 301 301 301 300 300 299 299 297 296 296 295 296 298 299 302 300 303 301 302 302 302 301 301
329 328 327 325 324 323 322 321 320 318 317 316 315 314 313 313 313 311 310 310 309 310 309 309 309 309 309 308 308 307 306 305 304 304 303 302 302 301 301 300 300 301 300 299 300 299 298 297 297 293 296 296 295 296 298 299 299 299 301 301 300 298 297
329 328 327 326 324 323 323 322 320 318 317 316 314 313 313 314 312 312 310 309 309 309 309 308 308 308 308 307 307 306 305 304 304 303 303 302 301 301 301 300 300 300 299 300 298 298 297 296 295 295 294 294 295 295 296 295 297 294 294 294 297 298 299
329 328 327 326 324 323 323 322 320 318 317 316 315 314 315 312 311 309 309 308 308 309 309 309 309 308 308 308 307 306 305 304 303 304 302 302 302 300 300 300 301 299 300 299 299 299 298 297 296 295 294 294 292 292 294 295 294 295 296 294 297 298 299
329 328 327 326 325 324 323 323 320 318 318 317 316 315 314 311 309 309 309 308 308 308 308 307 307 307 306 306 305 304 304 306 303 302 301 301 301 300 300 299 300 299 300 300 300 299 298 298 298 295 295 294 293 291 291 291 292 295 297 295 294 296 300
328 326 325 325 324 323 323 322 320 319 318 318 317 315 312 310 310 308 307 307 307 307 307 307 306 306 305 305 304 303 303 302 303 301 300 300 300 299 299 299 298 298 298 299 299 300 300 298 297 296 295 294 292 291 288 289 290 291 294 295 294 295 299
327 326 326 325 324 323 322 321 320 319 318 319 318 315 311 310 309 311 306 306 306 306 306 305 305 305 304 303 304 303 302 302 302 302 302 301 300 300 301 300 300 298 298 298 299 299 298 298 296 297 295 295 295 292 287 287 287 290 293 293 295 296 298
327 326 326 325 324 323 322 321 320 319 319 319 317 313 311 309 308 307 307 306 306 305 305 305 305 304 304 303 303 302 302 301 301 300 300 301 300 301 300 300 298 298 298 298 298 298 298 298 297 297 296 296 296 294 292 288 286 289 294 293 294 297 297
327 326 326 325 324 323 322 321 320 319 319 318 314 312 310 309 308 306 306 306 305 305 304 304 304 303 303 303 303 301 301 300 300 300 300 301 302 301 300 299 299 299 298 298 298 298 298 299 298 298 298 297 295 295 293 290 289 291 292 295 295 296 297
327 327 326 325 324 323 322 322 320 320 318 315 312 311 310 308 307 307 306 306 305 304 304 304 303 303 303 302 301 301 300 301 300 300 302 301 301 300 300 298 298 298 298 298 297 298 298 297 297 298 297 296 296 295 293 291 290 291 291 293 295 295 296
328 327 326 325 323 323 322 321 320 318 316 313 312 311 309 308 308 307 306 305 305 304 304 304 303 303 302 301 301 302 301 300 300 299 300 300 300 300 298 298 298 297 298 297 297 298 298 297 297 296 295 296 294 295 294 292 292 291 289 291 292 293 293
328 327 325 324 323 322 321 320 319 316 314 313 312 310 309 308 307 306 305 305 304 304 304 303 303 303 302 301 301 301 301 300 300 299 300 300 299 298 298 299 299 299 299 297 296 296 297 297 297 295 294 294 294 293 294 292 290 289 289 290 290 291 291
327 326 325 324 323 322 320 319 318 315 314 313 311 310 309 308 307 306 305 304 304 304 303 303 303 302 302 301 301 300 300 300 300 300 300 299 299 299 299 298 298 299 298 296 295 294 295 295 295 294 293 293 293 293 293 292 292 290 290 288 289 290 292
326 326 325 324 322 321 320 318 317 315 314 312 311 310 309 308 307 305 305 304 304 303 303 303 303 301 301 301 301 300 300 300 300 300 300 300 304 300 300 299 299 297 296 295 293 293 293 293 293 293 292 292 292 292 293 292 291 290 288 288 289 289 290
326 325 325 324 322 321 320 318 316 314 314 312 311 310 309 308 307 305 305 304 304 304 303 303 302 301 301 302 301 301 301 300 300 300 301 302 301 301 300 299 298 296 294 293 292 291 292 292 292 291 290 290 290 290 289 290 291 289 289 288 289 289 289
326 325 324 323 321 320 319 318 316 314 313 312 311 309 309 308 307 306 305 304 304 304 303 303 302 301 302 302 301 301 300 300 300 301 301 301 300 300 298 297 296 295 293 292 291 291 291 291 293 291 292 291 290 289 289 289 290 289 288 288 287 288 288
327 325 324 322 321 320 319 318 316 314 313 311 311 310 308 308 307 306 305 304 304 304 303 302 301 301 301 301 301 301 301 300 301 300 300 299 299 298 297 295 294 294 293 292 291 290 291 291 290 290 290 290 290 289 288 290 289 289 288 288 288 288 287
326 325 322 321 320 319 318 317 316 314 313 312 311 310 309 308 306 305 304 304 304 304 303 302 302 302 301 301 301 301 301 301 300 299 298 298 297 296 295 295 294 292 297 301 302 299 298 297 292 290 291 290 291 289 288 289 289 288 289 288 289 288 287
325 323 321 320 319 319 318 317 316 314 313 312 311 310 308 307 306 305 304 303 303 303 303 303 306 305 304 303 301 301 300 300 299 299 299 297 295 295 294 294 298 306 304 304 303 301 300 301 303 294 290 290 291 289 290 289 289 289 290 289 288 287 288
323 321 321 320 319 318 317 316 315 314 313 312 311 309 307 306 305 304 304 303 302 303 303 304 302 298 299 302 302 300 299 299 299 299 298 297 294 294 293 294 297 304 304 304 299 297 296 296 296 297 297 300 300 292 290 289 289 288 290 289 288 287 287
321 321 320 319 318 317 316 315 314 313 312 311 310 309 307 306 304 303 303 303 302 302 302 304 297 297 298 299 302 301 299 299 299 298 298 297 295 294 293 294 295 298 295 295 293 293 296 296 294 294 294 294 293 295 297 293 292 290 288 288 288 289 287
321 320 319 319 318 317 315 314 313 312 311 311 310 308 307 305 303 303 303 302 302 302 302 298 296 297 297 297 298 301 300 300 299 298 298 298 296 294 294 294 295 296 297 304 302 292 293 296 299 296 296 297 297 296 293 292 294 295 290 288 288 288 288
320 319 319 318 317 316 314 313 313 312 311 310 309 308 306 304 303 303 303 302 302 302 301 298 296 297 296 296 296 299 300 300 299 299 298 298 297 295 294 293 294 295 294 298 295 293 292 290 289 289 289 290 291 295 296 296 293 293 295 292 289 289 290
320 319 318 317 316 315 314 313 312 311 310 309 308 306 305 303 303 303 303 302 301 300 301 297 296 295 295 296 295 298 300 301 299 298 299 298 298 296 294 295 294 295 295 295 295 293 290 289 289 290 289 291 291 292 292 293 292 290 292 292 291 291 292
320 318 316 315 315 314 313 312 311 310 309 308 307 306 305 305 303 303 303 302 301 300 299 294 294 295 295 295 296 302 299 299 299 298 298 299 298 298 296 295 295 295 296 295 297 294 294 291 289 289 290 290 289 291 292 301 297 295 294 291 291 291 292
319 317 316 315 314 313 312 310 310 309 308 307 306 305 305 304 304 304 303 302 301 300 298 294 294 295 295 294 298 300 300 300 299 299 299 299 299 299 298 297 296 296 295 293 295 292 292 294 289 289 290 288 289 289 291 293 295 294 294 293 292 292 292
318 316 314 315 314 313 312 310 309 308 307 306 305 305 305 304 304 304 303 302 302 300 298 296 294 294 294 295 299 300 300 299 299 299 299 299 299 300 300 305 302 295 293 293 293 291 291 293 288 288 288 288 288 288 289 290 292 292 293 293 293 292 293
318 316 314 315 314 312 310 309 308 308 308 307 306 305 304 304 303 303 303 303 306 302 299 297 293 293 294 295 299 300 300 300 299 299 299 299 298 299 300 307 304 298 295 293 290 290 291 293 288 288 288 288 288 286 287 287 288 289 290 291 291 292 293
317 315 313 313 314 312 309 308 307 307 306 306 304 304 303 303 303 303 303 302 304 302 299 297 295 293 294 295 297 302 301 300 299 299 298 299 298 295 295 297 299 294 292 291 289 290 291 292 289 288 287 286 286 287 286 287 291 290 288 289 289 290 291
313 313 313 313 313 310 308 307 307 306 305 305 304 303 302 303 303 302 303 303 303 301 301 298 296 292 293 294 296 298 299 300 298 298 297 298 297 296 294 294 294 294 291 290 290 290 290 291 292 290 289 287 288 289 289 288 290 295 289 290 290 290 291
313 314 314 312 309 307 307 307 306 306 305 304 303 302 301 301 302 302 302 302 302 300 302 302 298 293 293 294 295 296 298 299 298 297 296 296 296 294 294 293 293 293 290 290 290 290 290 290 291 292 289 290 290 290 289 292 289 289 289 290 289 289 290
312 312 311 309 308 306 306 306 305 305 304 303 302 301 300 301 301 300 300 301 301 300 300 302 298 296 293 293 294 294 295 296 293 298 296 295 294 294 291 293 294 295 290 290 290 290 290 290 291 290 290 289 289 289 290 288 288 288 287 287 289 290 289
312 312 310 308 307 305 305 305 305 304 303 302 301 300 299 300 300 299 300 299 300 299 299 300 297 296 295 292 293 293 293 293 293 293 294 293 291 289 288 291 294 292 290 290 290 290 289 290 290 289 289 289 289 290 289 288 287 287 288 287 287 288 289

ECMWFFLT1_sfc_thetae_123.txt.gz
Theta_e
331 330 329 329 330 329 329 328 327 326 327 327 325 323 324 324 322 320 320 320 320 319 319 316 315 314 315 314 314 314 316 317 315 315 311 310 313 311 311 307 308 305 304 301 300 298 294 293 295 298 298 298 300 298 304 302 301 300 298 298 299 301 300
331 330 329 329 328 328 327 325 325 325 324 324 324 323 322 322 324 320 319 318 318 318 319 315 313 313 312 311 311 311 313 312 314 314 312 309 310 309 304 302 303 301 301 302 303 300 297 294 294 295 296 297 298 296 298 298 299 300 302 300 305 304 305
330 328 328 327 326 325 326 324 323 323 322 322 322 322 321 321 321 320 318 317 316 317 317 313 312 310 309 309 309 310 309 309 308 311 312 308 309 305 306 304 302 300 300 301 300 298 298 296 297 295 295 295 293 293 298 299 299 298 299 299 299 300 300
328 327 326 325 324 323 324 322 321 321 321 321 320 320 319 317 317 319 316 315 315 319 315 312 311 310 309 308 308 308 308 307 306 307 307 305 305 304 302 305 304 304 302 300 299 299 297 294 295 296 295 295 293 295 299 300 303 300 300 300 299 298 298
329 328 327 325 324 324 325 323 321 320 319 319 318 316 314 313 316 315 316 315 315 312 311 310 310 309 309 308 307 306 305 304 305 307 304 302 302 301 300 300 300 301 299 300 300 301 300 296 298 295 295 295 296 296 300 298 299 299 299 298 297 297 297
330 329 328 326 325 325 324 323 320 319 318 317 316 315 312 313 314 313 312 312 311 311 310 309 308 309 308 307 307 305 304 304 303 303 302 301 302 301 300 299 299 300 299 298 299 298 297 297 297 293 295 293 293 294 296 296 296 296 296 297 298 297 298
330 329 328 327 326 325 324 323 322 320 318 317 315 314 312 313 313 313 313 310 310 310 309 309 308 308 307 306 305 304 303 302 302 301 301 301 300 299 300 299 298 298 297 298 297 297 296 297 295 296 294 292 291 293 294 292 293 292 296 295 296 297 297
330 329 328 328 326 325 324 323 322 319 318 316 315 313 313 311 311 311 310 309 308 309 309 309 309 307 307 307 305 304 303 302 302 302 301 300 300 299 298 298 299 298 297 296 296 296 296 297 296 295 295 293 291 291 292 293 292 294 294 293 294 297 298
330 329 328 327 326 325 324 324 321 319 317 315 313 313 312 310 309 309 310 308 308 308 308 308 307 307 305 305 303 303 303 304 301 301 300 300 299 299 299 298 298 297 297 297 297 296 295 296 296 295 295 295 293 289 290 291 291 294 295 294 294 295 297
329 328 328 326 325 325 324 324 321 318 316 315 314 313 311 309 309 309 308 307 307 307 307 307 307 305 305 305 302 302 301 301 302 300 299 299 298 298 297 297 298 297 297 298 297 298 297 295 295 295 294 294 294 292 288 288 290 289 294 294 293 294 296
329 329 328 326 325 324 323 322 319 317 316 315 314 313 310 308 308 311 306 306 306 306 306 306 305 304 304 302 302 301 300 301 300 300 300 299 298 299 299 298 298 297 297 296 297 297 296 295 294 295 294 293 293 294 288 289 289 288 292 292 294 294 295
329 328 328 327 325 323 322 321 319 318 316 315 314 312 309 308 307 306 306 305 305 305 305 305 304 303 303 302 301 300 300 300 300 298 298 299 298 299 298 297 296 296 296 297 297 297 297 296 295 294 294 295 295 294 289 286 287 290 292 292 291 294 295
329 328 327 326 324 324 323 321 319 317 316 316 313 311 309 308 307 305 305 305 305 304 304 304 304 303 302 302 301 300 300 299 299 299 298 298 300 298 297 297 296 296 296 297 297 297 297 297 296 296 297 296 294 292 290 286 286 290 291 292 292 293 293
328 328 327 326 325 323 322 321 320 319 317 315 312 310 309 308 306 306 305 306 304 304 303 303 303 302 302 301 300 300 299 299 299 298 300 298 298 298 298 297 296 297 297 297 297 297 296 296 296 297 297 295 293 291 291 288 289 290 290 290 291 292 292
329 328 326 325 324 323 321 321 320 319 317 314 312 311 309 308 307 306 305 304 304 304 303 303 302 302 302 300 299 300 299 299 299 298 298 298 297 299 297 297 296 296 296 296 296 297 296 295 295 294 293 293 291 292 291 289 289 286 287 288 290 290 291
328 326 325 325 324 323 322 321 321 319 317 313 312 311 310 308 307 305 305 304 303 303 303 302 302 302 301 300 300 299 300 299 299 299 298 298 297 297 297 298 296 296 298 296 296 295 295 294 294 293 292 292 292 291 291 289 286 286 286 288 288 289 289
328 327 325 325 324 323 322 321 320 319 317 313 311 311 310 309 307 305 305 304 303 303 302 302 301 301 301 300 300 299 299 299 299 299 298 298 297 297 297 297 297 296 296 295 293 293 293 292 292 292 291 291 291 291 291 290 288 287 287 289 288 289 290
327 326 326 325 324 324 323 321 320 319 316 313 311 310 310 308 306 305 304 303 303 303 302 302 301 300 300 300 300 300 299 299 298 298 298 298 302 298 298 297 296 295 294 293 291 292 291 291 291 291 290 290 290 291 292 291 289 288 286 287 288 287 288
327 326 326 325 324 324 323 321 319 318 315 313 311 310 308 307 306 304 304 304 303 303 302 302 301 301 300 300 300 299 299 299 299 298 298 298 299 298 298 297 295 294 293 293 291 290 290 290 290 290 289 289 290 289 289 289 289 288 287 287 287 288 286
327 327 326 325 324 324 322 320 318 317 315 313 310 308 307 306 306 305 304 304 303 303 302 302 301 300 300 300 299 299 299 298 298 298 298 299 298 298 298 296 294 293 293 292 291 291 290 289 291 289 290 289 288 289 289 288 288 287 286 287 286 286 287
328 327 326 325 324 323 322 320 318 317 315 312 310 308 307 306 306 305 304 304 303 303 302 301 300 300 300 300 299 299 299 298 298 298 298 298 298 297 297 296 294 293 293 292 292 290 291 290 290 290 288 289 288 289 288 288 287 286 286 286 287 286 286
328 327 325 324 323 322 321 319 318 316 314 313 311 309 308 307 305 304 303 303 303 303 302 301 301 300 300 299 299 299 298 299 298 298 297 297 296 296 295 294 293 292 296 300 300 298 296 295 291 289 288 289 288 289 287 287 288 285 285 286 287 286 285
327 326 325 323 322 322 320 319 317 315 314 313 311 309 308 307 305 304 303 302 302 302 302 302 304 304 303 301 299 299 299 298 298 298 298 296 294 294 294 293 297 303 305 305 302 299 298 299 299 293 290 290 290 288 287 286 286 287 287 287 287 286 286
327 325 324 323 322 321 320 318 316 315 314 313 311 310 309 307 306 304 303 302 301 302 302 303 301 298 298 301 301 299 299 298 298 298 297 296 294 294 293 293 294 304 305 304 300 298 298 298 298 298 298 297 296 290 287 287 286 286 289 287 285 285 285
326 325 323 322 321 321 320 318 316 314 313 312 311 310 309 308 306 304 303 302 301 302 302 303 297 297 297 298 301 300 299 299 299 298 298 296 295 294 293 293 295 298 296 295 294 294 296 296 295 295 294 295 295 297 297 292 291 287 286 286 285 286 285
325 323 323 322 321 320 319 317 315 314 313 312 311 310 308 308 306 304 303 302 301 302 302 300 296 297 296 297 298 300 299 299 299 299 298 296 294 294 294 295 295 295 296 303 300 290 291 292 297 295 295 296 295 292 290 291 294 293 288 287 287 286 286
324 323 322 321 320 319 318 316 315 315 314 312 311 309 308 307 306 304 303 302 302 302 302 300 296 296 296 296 296 298 300 300 299 298 297 295 295 293 293 294 295 294 292 296 293 290 291 290 290 290 289 288 290 295 295 293 292 293 294 291 288 288 289
323 322 322 321 319 318 317 316 315 314 313 311 310 308 308 306 305 305 304 303 302 302 303 298 295 295 295 295 295 298 300 300 299 298 298 297 295 294 294 294 294 293 293 295 295 293 291 289 288 289 289 290 289 290 291 291 290 289 292 291 290 290 290
323 322 321 320 318 317 317 316 315 313 312 311 311 310 308 307 305 304 304 302 302 302 303 296 295 295 295 295 295 300 299 299 298 298 297 297 296 296 295 294 293 293 294 295 299 295 294 290 289 289 290 288 289 288 290 297 294 294 293 290 290 290 290
322 321 320 319 318 316 315 315 315 313 312 311 309 308 307 306 306 305 303 303 302 302 302 296 294 295 295 294 297 300 299 298 298 297 297 298 299 297 296 295 294 294 295 295 297 292 292 293 288 288 288 287 287 288 291 289 293 293 293 292 291 292 292
322 320 319 318 318 317 317 316 314 313 311 309 308 308 307 306 305 305 303 303 303 302 301 298 294 295 295 294 299 300 299 298 297 298 298 299 299 299 299 302 299 295 295 295 294 291 291 293 289 288 287 287 287 288 287 286 289 290 293 292 292 291 291
322 320 319 319 318 317 316 315 313 312 311 310 309 308 307 306 305 304 304 303 306 303 301 298 294 295 294 295 300 301 300 298 298 299 299 300 299 299 298 303 304 299 297 296 293 291 291 293 289 288 287 286 286 285 285 284 287 286 287 288 287 290 291
320 319 319 318 316 315 313 312 309 309 308 308 306 306 306 305 304 303 303 303 304 303 301 299 296 294 295 295 298 301 300 300 299 299 300 300 299 297 298 298 301 295 294 293 292 290 290 292 290 288 287 285 284 285 283 284 288 287 287 288 287 288 290
319 318 319 317 315 313 312 310 307 308 307 306 305 305 304 304 304 303 303 303 303 302 301 299 297 293 294 295 296 299 301 301 301 301 299 299 299 298 296 298 298 296 293 292 291 290 290 291 292 289 288 286 286 287 288 285 290 294 288 290 289 288 290
319 318 317 315 313 311 308 308 308 308 306 305 304 303 303 303 303 302 302 302 302 302 303 301 298 294 294 294 295 297 301 302 302 301 299 298 296 296 296 298 296 295 292 291 290 290 290 291 290 293 289 289 289 290 289 289 287 287 287 288 287 288 289
316 316 316 314 313 310 307 306 306 306 305 303 303 302 302 302 302 301 301 301 302 301 301 301 297 297 293 294 294 296 297 298 295 301 298 296 295 295 294 296 297 296 291 290 290 290 290 290 291 291 290 289 289 289 290 287 287 286 285 286 287 288 287
316 314 311 309 309 307 305 305 305 304 303 303 303 302 301 301 301 301 300 300 300 301 301 300 297 296 295 293 294 294 294 294 294 297 298 297 296 295 293 294 295 293 291 290 290 290 290 290 290 290 289 289 289 290 288 287 285 286 287 286 285 285 287

ECMWFFLT1_sfc_thetae_126.txt.gz
Theta_e
330 329 329 330 332 334 333 332 330 329 329 329 328 327 327 327 325 323 323 323 323 322 324 322 322 321 320 320 322 321 320 320 318 317 314 314 316 314 313 312 310 309 307 306 306 308 302 300 300 302 302 303 305 303 305 305 306 305 305 305 309 306 306
331 329 330 330 331 332 331 330 329 328 328 327 327 326 326 326 327 323 322 322 322 322 324 320 320 319 319 319 318 317 319 319 318 318 316 314 316 312 309 306 306 306 305 306 305 305 304 300 299 299 302 302 303 303 304 303 303 305 306 306 309 305 307
329 329 329 329 329 330 329 328 328 326 326 325 324 324 324 324 325 323 321 321 321 321 322 318 317 316 316 316 317 317 318 318 317 318 317 315 316 314 314 309 307 306 306 306 305 302 302 304 304 299 300 300 299 302 303 303 303 304 304 304 303 302 303
328 328 328 327 328 328 328 326 326 325 325 325 323 322 323 323 322 323 321 320 320 323 320 315 315 315 314 314 313 314 315 316 314 315 315 313 314 312 310 310 311 309 308 307 305 304 305 301 301 300 300 299 297 299 304 305 305 302 302 303 303 302 303
329 329 328 327 327 328 327 325 325 324 323 322 321 320 320 320 321 320 320 319 319 318 315 315 314 313 312 311 311 311 310 310 312 314 312 310 309 309 308 309 310 309 309 310 307 306 305 304 306 301 299 299 299 301 302 301 300 301 301 302 302 302 302
330 330 329 328 328 327 327 325 323 323 321 320 319 319 318 317 319 318 316 316 316 316 314 312 312 311 310 310 310 309 308 309 310 311 310 309 308 309 308 304 306 306 307 304 306 306 304 303 303 299 299 298 300 299 300 300 300 300 300 301 301 302 301
330 330 330 328 327 328 327 325 324 323 321 322 320 319 317 316 318 318 317 316 315 314 313 312 311 310 310 309 308 307 307 306 306 307 307 306 305 305 304 304 303 303 302 302 303 303 302 302 301 302 298 296 297 298 298 297 297 297 298 299 300 301 301
331 330 330 329 328 328 327 326 325 324 323 322 320 319 316 316 316 316 315 314 312 312 312 312 311 310 310 309 307 306 306 304 304 305 304 304 303 302 302 302 302 301 301 300 301 302 302 305 303 301 300 298 297 297 298 297 297 297 297 299 299 300 301
331 330 329 329 329 328 327 326 324 323 323 321 319 317 315 315 314 314 314 312 311 311 311 310 309 309 308 307 306 305 305 305 304 303 303 303 302 302 302 302 302 300 301 300 300 300 299 300 301 302 303 302 299 295 297 297 298 297 298 298 299 300 300
330 329 329 328 328 327 327 326 324 322 321 320 318 316 314 313 313 313 312 310 310 310 310 310 309 308 307 307 305 304 304 304 304 302 302 302 302 301 301 301 301 301 301 302 301 300 299 299 299 301 302 302 302 298 294 294 296 296 297 297 296 299 300
330 330 329 328 328 326 325 325 322 320 319 318 317 315 313 312 312 315 310 309 309 309 309 308 308 307 306 305 304 304 303 303 303 302 303 302 301 301 302 301 302 301 301 300 300 300 299 299 298 299 299 299 302 300 296 295 295 295 298 297 297 297 299
330 330 329 329 327 326 324 323 321 320 319 317 316 314 311 310 311 310 309 308 308 308 308 307 307 306 305 304 304 302 302 302 302 301 301 301 301 301 300 299 299 299 300 300 300 300 300 299 298 297 297 299 300 301 298 297 294 296 298 298 299 298 298
330 330 329 328 326 326 325 323 321 319 318 317 316 313 311 310 310 308 308 308 307 307 307 306 306 305 304 304 303 302 302 302 301 301 301 302 301 300 300 299 299 299 299 300 300 300 300 300 300 298 298 297 296 297 298 295 295 295 297 299 299 299 296
329 330 328 327 327 326 325 323 321 320 318 316 314 312 310 310 309 308 307 308 307 306 306 305 305 304 304 302 302 302 301 301 301 300 302 300 300 300 300 299 299 299 300 300 299 299 299 299 298 298 298 298 297 296 296 295 295 295 296 296 296 298 298
329 329 328 326 326 325 324 323 322 320 317 316 314 312 310 309 308 308 307 307 306 306 306 305 304 304 303 302 301 302 301 301 300 300 300 300 300 300 300 299 298 299 299 299 299 298 298 297 297 297 296 296 296 296 296 295 294 293 293 297 298 296 297
329 328 327 326 325 325 324 323 322 320 318 316 314 312 310 309 308 307 307 306 306 306 306 305 304 304 303 302 301 301 301 301 301 300 300 300 299 299 300 300 298 299 300 299 298 298 298 297 297 296 295 296 295 295 295 295 294 292 292 294 294 295 297
329 328 327 326 325 324 324 323 322 320 319 316 313 312 311 309 308 307 307 306 306 305 305 304 304 304 303 302 301 301 301 301 301 301 300 300 299 299 299 298 298 299 300 298 297 296 296 296 296 296 295 295 295 295 295 295 294 294 294 294 296 295 296
328 327 327 326 325 324 323 323 322 320 318 316 314 312 311 309 308 308 307 306 305 305 304 304 303 303 302 302 302 301 301 300 301 300 300 300 302 299 300 299 298 298 298 297 296 295 295 295 295 295 295 295 295 295 296 295 295 294 294 295 295 295 294
328 327 327 326 325 324 323 322 321 321 318 316 314 312 311 309 309 308 307 306 305 305 304 303 303 303 302 302 302 301 301 301 300 300 300 300 300 300 300 299 298 297 297 296 295 294 294 294 294 294 294 294 294 294 294 294 295 294 294 294 296 296 296
328 327 326 326 326 324 323 322 321 320 319 316 313 312 311 310 310 309 307 306 305 305 304 303 303 302 302 302 301 301 300 300 300 300 300 300 300 300 299 299 298 297 297 296 295 294 294 294 294 294 295 294 293 294 294 294 294 294 294 294 292 293 293
329 328 327 326 325 324 323 322 321 320 319 316 314 312 311 310 309 308 307 306 305 305 303 303 303 302 302 301 301 301 300 300 300 300 300 300 300 300 299 298 297 297 297 296 296 294 294 294 294 294 293 293 293 294 294 293 293 293 294 294 295 294 292
329 328 327 326 325 324 323 322 321 319 318 316 314 313 311 310 308 307 306 306 304 304 303 303 302 302 301 301 301 300 300 300 300 300 299 299 299 299 299 298 297 296 299 300 299 298 296 296 294 294 293 294 294 294 293 293 293 293 292 294 294 291 292
328 328 327 326 325 324 323 321 320 318 317 316 314 312 311 310 308 307 305 304 304 303 303 303 304 303 303 301 300 301 300 300 300 300 300 299 298 298 298 297 299 302 304 303 301 298 297 298 298 296 294 294 295 293 293 293 293 293 293 294 295 294 295
328 327 327 326 325 324 322 321 319 318 316 315 313 312 310 309 307 306 305 304 303 303 303 303 301 297 297 300 301 301 300 300 300 300 300 299 298 298 297 297 298 304 306 305 301 297 296 296 296 296 296 297 297 296 293 293 293 293 296 295 293 292 293
327 327 326 325 324 323 322 320 318 317 315 314 313 312 310 309 307 306 305 304 304 303 303 303 297 297 296 297 301 301 300 300 300 301 300 300 299 299 297 296 298 303 302 301 299 298 298 296 295 295 294 295 295 296 296 297 296 293 293 294 292 293 293
327 326 326 325 324 323 321 319 318 316 315 314 312 311 310 309 307 306 305 304 304 304 303 299 296 296 296 296 297 300 300 301 301 301 300 300 299 298 297 297 298 300 300 303 301 296 298 298 297 296 295 296 295 294 292 292 295 298 295 294 294 293 293
327 326 326 325 324 322 320 319 318 317 316 314 312 311 310 308 307 306 305 305 304 304 303 299 296 296 296 295 295 298 301 301 301 301 300 299 298 298 297 298 299 299 297 302 297 295 295 295 297 297 297 297 296 299 296 292 292 293 295 297 296 296 296
326 326 325 324 323 322 320 319 317 316 315 313 312 310 309 308 307 306 305 305 304 303 304 297 295 295 295 295 295 298 301 301 301 301 300 299 299 298 297 299 300 299 297 299 297 295 295 295 295 294 294 295 296 296 297 299 298 297 298 297 296 297 297
326 325 324 323 322 321 320 318 317 316 315 313 312 311 310 309 307 306 305 305 304 303 303 295 295 295 295 294 295 302 301 301 300 300 299 298 298 298 298 299 299 297 296 299 299 294 296 295 293 293 294 294 294 295 296 298 295 295 298 298 297 297 297
325 324 324 322 321 321 320 318 317 316 314 313 311 310 309 309 308 307 305 305 304 303 302 296 294 294 294 294 297 301 300 300 300 299 299 299 298 298 298 299 298 296 295 297 297 292 293 294 293 294 295 294 294 295 297 296 294 292 293 292 291 292 292
324 323 323 322 321 321 320 319 317 315 314 313 311 311 310 308 306 306 305 305 305 303 302 298 294 294 294 294 299 301 301 300 299 300 299 299 299 299 299 302 300 296 295 296 295 292 292 294 293 293 293 293 293 293 296 294 293 295 292 292 292 291 291
324 323 322 322 322 321 319 318 317 316 315 313 311 310 308 307 306 306 305 305 307 305 302 299 294 294 294 294 300 301 300 300 299 299 299 299 300 300 299 302 302 298 297 296 293 293 291 294 293 294 294 293 292 292 294 293 294 293 294 295 295 295 295
324 323 322 322 321 320 318 317 316 314 312 311 309 308 307 306 305 304 304 304 305 305 302 300 297 294 294 295 298 302 301 300 299 299 299 299 299 299 299 300 301 294 294 293 292 292 291 292 294 294 293 292 291 290 291 290 294 293 294 294 293 294 295
323 323 323 322 321 318 317 316 314 313 311 310 308 307 305 304 304 303 303 304 304 304 303 301 297 293 294 295 296 299 301 301 300 300 299 299 299 299 298 299 300 297 293 292 292 292 291 291 293 294 293 293 293 293 291 293 297 296 294 296 295 295 295
324 323 323 322 319 317 315 315 314 313 310 309 307 306 305 304 303 302 302 303 304 304 304 302 299 294 294 295 295 297 301 301 301 301 300 300 300 299 299 299 299 298 293 292 292 292 291 291 291 296 294 291 290 289 293 294 294 294 293 294 293 293 294
322 324 322 319 317 312 311 313 313 311 309 307 306 305 305 304 303 301 301 302 303 303 303 302 298 297 294 294 295 296 297 299 296 302 301 300 300 300 300 300 300 298 293 292 292 292 291 290 291 294 291 289 289 289 293 293 293 292 293 293 293 294 293
323 323 320 316 313 309 310 311 311 310 309 307 305 304 304 303 302 301 301 301 301 301 302 302 297 296 296 293 294 295 295 295 296 301 302 301 301 300 299 299 298 295 293 292 292 291 291 291 292 291 290 289 289 290 294 292 291 292 292 291 292 292 293

ECMWFFLT1_sfc_thetae_129.txt.gz
Theta_e
339 339 340 341 343 342 340 339 339 338 340 341 341 342 343 343 343 342 342 342 340 340 337 337 338 339 338 337 335 334 333 332 330 327 325 323 322 322 325 324 324 324 325 322 322 319 319 311 308 311 313 314 314 313 313 311 310 311 313 313 310 310 311
341 342 342 341 340 341 340 339 338 337 338 340 342 342 342 342 341 340 340 340 340 338 336 337 338 337 338 336 334 333 333 331 331 331 330 325 325 326 323 323 323 321 319 321 322 322 320 319 314 308 308 312 313 314 313 313 312 313 311 311 310 310 312
341 341 341 338 339 339 338 338 337 336 337 337 340 342 342 342 341 340 338 339 339 337 335 336 336 336 336 335 336 335 335 333 333 331 330 330 328 329 327 325 321 320 320 319 319 318 317 319 317 310 311 308 306 310 313 312 312 311 311 311 311 309 310
340 339 337 337 337 337 336 336 335 335 336 337 339 340 341 340 340 339 338 338 339 337 334 334 334 333 334 334 335 335 335 334 332 331 330 331 330 329 327 326 324 322 322 321 320 319 321 318 316 315 312 310 308 309 310 311 311 310 309 311 309 309 310
341 338 337 336 336 336 336 334 334 334 334 336 338 338 339 338 338 337 337 336 335 336 334 334 334 334 334 333 331 331 332 333 334 331 331 329 329 329 328 327 326 326 326 325 326 323 322 321 320 317 313 309 307 309 308 310 309 308 308 308 307 308 309
342 339 338 338 337 336 335 334 333 332 333 333 335 337 338 337 337 336 335 334 334 334 334 332 332 331 331 330 329 329 330 329 329 331 329 330 329 328 327 328 327 327 326 328 328 325 324 324 321 316 311 310 307 306 305 306 304 306 306 306 306 307 307
341 340 339 338 338 337 337 335 334 334 333 334 336 337 336 335 334 334 333 333 334 333 331 331 329 328 329 327 328 327 326 328 328 330 330 330 329 329 330 327 325 324 324 325 325 324 323 320 318 317 311 308 310 306 305 305 304 302 302 304 305 306 306
341 339 339 340 340 338 338 337 337 337 336 337 337 338 334 333 333 332 332 333 332 331 329 328 327 327 327 325 325 326 325 324 324 325 326 327 325 325 324 324 324 323 322 321 320 321 322 321 320 318 312 307 305 306 303 304 303 304 303 303 304 304 306
341 340 339 339 340 340 339 339 338 339 338 338 338 337 332 332 332 331 331 331 330 329 328 327 326 325 324 324 323 323 322 319 322 321 322 322 323 323 323 322 321 319 319 317 317 319 318 321 320 319 315 312 307 303 305 303 303 303 304 304 303 303 304
341 340 338 339 340 340 340 340 340 339 339 338 337 334 331 331 332 331 330 329 328 327 327 326 325 325 324 324 323 321 321 319 319 319 319 319 320 319 319 318 319 317 315 316 315 316 317 317 317 317 316 314 312 307 303 303 303 303 302 305 303 301 303
341 340 340 339 339 338 339 341 341 338 337 336 335 332 331 330 330 329 329 327 326 326 326 324 323 323 323 322 322 321 320 319 318 317 317 317 317 317 316 315 316 313 314 314 314 315 315 316 315 315 315 315 315 310 309 305 305 306 303 303 303 300 301
341 340 339 340 339 338 338 339 338 337 337 335 333 330 329 328 328 328 327 325 325 324 324 323 322 322 322 320 319 318 317 317 316 316 316 316 315 315 314 314 314 312 313 313 313 313 313 313 314 313 313 313 314 314 312 308 305 305 307 303 301 302 301
340 339 339 339 337 337 338 338 337 336 335 333 332 329 328 326 327 326 325 324 323 323 322 321 321 321 321 320 318 317 316 315 315 315 313 314 313 314 313 312 312 311 312 311 311 311 310 311 313 311 311 311 312 315 313 309 306 305 305 303 303 301 302
340 339 339 339 338 337 338 338 336 336 334 332 331 328 327 326 325 325 323 322 322 321 321 320 320 319 319 318 317 317 315 314 313 314 313 312 311 313 312 310 311 311 312 311 310 310 308 309 310 310 310 310 310 312 311 309 307 303 303 305 304 303 304
339 339 338 338 337 336 337 337 336 334 332 331 329 327 326 326 325 323 322 321 321 320 320 319 318 318 317 316 316 315 314 313 313 313 312 310 311 312 313 310 309 310 311 310 310 307 307 307 307 306 307 308 308 310 313 309 306 303 300 301 301 302 303
338 338 337 337 336 336 336 336 335 334 332 330 328 327 326 325 323 322 322 321 320 319 319 318 317 316 315 315 314 314 314 313 313 312 311 311 309 311 311 311 310 310 311 310 310 310 310 308 307 306 306 307 308 308 308 309 306 303 301 300 303 301 303
338 337 336 336 336 337 336 335 334 333 331 330 327 326 325 323 322 321 321 319 319 318 318 317 315 315 314 315 314 313 313 313 313 313 311 310 309 309 310 310 310 310 310 309 308 308 308 308 307 305 306 307 307 307 307 308 308 305 303 299 300 300 302
336 336 336 336 336 336 335 335 333 332 330 328 327 325 323 321 320 320 320 319 318 317 316 315 313 314 315 316 315 314 312 312 313 312 312 311 310 310 310 310 309 310 310 308 308 306 307 307 306 306 305 305 305 306 306 306 306 306 303 302 301 303 303
335 336 336 336 335 336 335 334 333 332 330 327 326 324 321 320 319 319 320 319 318 317 315 314 313 313 314 315 315 314 313 312 312 311 311 311 310 311 310 310 309 309 309 308 307 307 307 307 306 305 304 304 304 306 306 306 306 305 304 302 302 300 303
335 336 336 335 335 335 334 334 333 331 329 327 325 323 321 319 319 320 319 318 317 316 314 313 313 313 313 314 314 313 312 312 311 311 311 310 310 310 310 310 310 309 309 309 308 307 307 307 306 305 305 306 305 305 305 304 303 303 303 302 302 303 302
335 335 335 335 333 334 334 334 333 332 329 326 324 323 320 319 319 320 319 318 317 315 313 312 313 314 314 314 313 313 312 311 310 310 311 310 310 310 310 310 309 309 309 309 308 308 307 306 306 305 306 306 306 305 304 304 303 302 302 301 300 300 302
335 336 334 333 332 332 333 334 332 331 329 327 325 323 321 320 319 318 318 317 315 314 312 312 313 314 314 313 313 312 311 310 310 309 309 309 310 309 309 310 309 309 310 308 307 306 307 306 305 304 305 306 306 306 305 304 303 302 301 301 301 302 300
334 333 333 332 331 331 331 332 332 330 328 326 323 322 321 320 318 318 316 315 314 313 312 313 310 307 308 312 312 311 311 311 310 309 309 309 309 309 309 309 310 307 306 305 302 300 299 301 304 305 305 307 306 306 305 303 302 301 301 300 300 300 300
333 331 331 331 331 330 330 331 331 329 328 325 322 320 320 318 318 317 316 314 313 312 312 312 302 299 300 303 310 311 311 310 310 310 309 309 308 309 309 308 309 307 306 304 303 297 297 296 297 298 300 303 307 307 305 303 302 303 301 301 302 301 300
331 331 331 330 330 329 329 329 329 328 326 324 321 320 319 317 317 317 316 314 313 312 312 306 297 297 298 299 304 310 311 310 310 310 309 309 309 309 308 308 309 309 309 308 306 302 299 296 295 295 295 296 296 297 299 306 305 303 303 302 301 301 301
331 330 330 330 330 328 327 326 327 326 325 325 321 318 318 317 317 317 316 314 313 312 313 300 296 296 297 297 299 306 310 311 310 310 310 309 308 308 308 307 308 310 310 307 305 305 304 301 297 295 295 296 295 294 293 292 295 308 306 303 302 302 302
330 330 329 329 328 327 326 325 326 326 325 324 319 318 318 318 318 316 315 314 313 313 313 300 296 296 296 296 296 301 310 310 310 310 309 309 309 309 308 307 306 308 309 307 307 306 305 303 302 301 301 302 302 301 296 292 292 291 300 306 304 302 304
330 329 329 329 328 326 326 326 327 326 324 322 319 317 317 318 318 316 315 314 314 312 312 297 295 295 295 295 295 300 311 310 310 310 310 310 310 309 309 308 308 308 308 307 306 305 304 303 303 303 302 302 303 305 306 306 305 306 305 306 306 306 306
329 329 328 328 327 326 326 327 326 325 323 320 320 319 319 319 317 316 316 315 314 312 310 295 295 295 295 295 295 307 310 309 309 309 310 310 309 309 309 309 308 308 307 307 302 296 300 304 302 302 301 302 302 304 307 308 299 301 308 308 308 307 307
329 328 328 327 327 326 326 326 326 324 321 319 318 317 317 318 319 316 314 313 313 312 306 296 294 294 294 294 298 308 308 307 308 308 309 309 308 308 308 308 308 307 306 306 298 293 294 299 303 302 301 301 301 302 304 308 294 290 292 293 293 292 291
329 328 328 327 326 325 326 326 325 322 321 319 317 318 318 318 319 317 314 313 311 308 305 298 294 294 294 294 301 307 307 307 307 307 308 308 308 307 307 307 307 307 305 305 293 292 292 299 303 302 301 300 300 301 304 307 305 303 292 292 292 291 291
329 328 328 327 327 325 325 324 325 324 323 320 318 319 318 318 318 317 315 311 308 309 307 300 294 294 294 294 301 308 306 306 306 307 307 306 307 306 306 306 305 305 306 303 291 292 292 299 303 302 301 301 300 301 303 306 304 304 304 304 304 303 301
329 328 328 327 327 326 325 325 323 322 323 322 319 319 319 317 313 313 312 311 310 311 307 302 298 294 294 294 298 307 307 306 305 306 306 306 305 306 305 306 303 295 295 293 292 291 291 294 302 303 303 302 301 300 303 305 305 304 305 303 304 305 305
329 329 328 328 327 325 325 324 323 321 321 321 320 318 317 317 314 313 313 313 312 311 308 304 300 293 294 295 296 301 306 306 307 306 306 305 305 305 304 305 306 297 292 292 292 291 291 292 296 305 304 303 304 304 302 303 303 300 304 305 304 303 304
330 329 329 328 327 326 326 326 324 323 321 317 315 315 315 315 315 314 313 311 311 311 308 303 303 294 294 294 296 298 305 307 307 307 306 306 305 305 305 305 307 299 291 291 291 292 291 292 292 303 304 296 293 289 300 301 303 302 302 303 301 300 301
329 330 328 327 327 327 326 325 323 319 317 315 314 312 312 314 315 313 310 309 311 311 308 304 298 298 294 294 295 296 298 302 297 307 306 305 305 305 306 307 306 298 292 291 291 291 292 291 292 299 294 291 290 288 295 299 301 301 300 301 300 300 300
329 329 328 327 328 326 324 324 321 318 316 313 312 310 310 312 313 311 308 306 307 309 308 306 298 296 296 293 294 295 295 296 296 305 307 307 307 307 307 308 305 295 292 292 291 291 292 292 298 293 291 290 289 291 298 299 298 299 299 297 298 299 300

ECMWFFLT1_sfc_thetae_132.txt.gz
Theta_e
341 341 343 344 346 345 343 344 345 345 346 346 345 344 346 346 346 346 347 347 345 345 344 343 344 344 343 343 342 341 339 337 337 333 333 332 329 330 333 332 331 331 332 331 330 324 320 316 315 319 319 319 319 318 316 314 313 314 315 313 313 313 315
344 343 344 344 345 345 344 344 344 343 344 345 344 345 345 346 345 346 347 345 344 345 344 344 344 343 343 342 340 339 338 338 337 337 334 332 332 330 329 329 329 328 328 329 329 328 322 321 321 314 315 319 319 318 317 317 315 315 314 313 313 314 316
343 343 345 344 344 345 343 344 343 344 343 343 345 344 345 345 345 346 346 345 345 344 343 343 344 343 341 341 341 340 340 339 339 337 335 334 333 332 332 330 328 327 327 326 326 325 325 324 320 316 318 316 313 315 318 316 316 314 315 314 315 312 314
344 344 343 344 343 343 342 343 342 342 343 343 344 345 345 346 346 346 346 346 346 345 343 342 343 342 341 341 340 341 339 338 337 337 337 336 334 333 332 330 329 327 325 323 324 324 324 323 321 319 319 317 317 315 317 316 314 314 313 314 313 312 315
345 343 343 343 343 343 342 341 342 342 341 342 343 343 344 345 345 344 346 346 345 345 343 342 343 342 340 339 340 340 339 339 338 336 336 334 335 333 333 332 331 331 329 328 328 328 326 324 323 321 318 320 318 317 317 316 315 314 312 313 312 313 313
346 344 344 343 343 342 342 342 342 340 340 341 342 342 344 344 344 344 344 344 344 344 344 343 342 341 341 340 339 338 337 337 336 336 334 335 335 333 332 333 332 331 329 330 330 329 328 327 325 320 319 320 316 314 314 314 312 312 312 312 312 312 312
346 346 344 343 344 342 343 343 342 341 340 341 342 342 343 343 343 344 345 346 345 344 343 343 341 341 340 338 338 337 337 337 336 336 335 335 334 334 335 332 331 330 330 332 331 330 328 326 323 321 320 319 319 315 313 311 311 308 309 311 311 312 311
346 345 344 344 344 344 343 344 344 343 342 342 341 343 343 344 344 344 346 347 345 344 343 342 341 341 341 339 337 337 336 335 334 334 334 333 332 333 334 332 331 331 330 330 330 329 328 327 325 323 321 317 315 316 311 311 310 308 309 309 310 310 311
348 347 345 344 343 346 345 343 344 344 343 343 343 343 344 343 343 343 345 345 345 343 342 341 341 339 339 337 336 336 334 334 334 332 332 332 333 334 334 333 331 329 330 329 330 329 328 327 326 325 324 320 314 311 312 309 309 307 310 307 308 310 310
349 348 346 346 346 346 346 344 344 344 344 343 344 344 343 344 343 345 345 344 343 343 342 341 340 339 338 336 335 333 333 332 332 332 332 331 331 331 330 331 329 328 328 331 329 327 327 327 326 324 323 319 317 312 310 307 308 308 309 309 306 307 310
348 349 348 347 346 345 345 344 344 344 342 344 344 344 343 343 343 343 344 342 343 342 341 340 338 338 336 333 333 332 332 332 330 330 330 329 330 331 330 329 328 327 328 328 326 326 325 324 321 321 320 319 318 314 311 308 309 312 310 311 311 308 308
348 348 349 348 346 344 343 343 343 344 343 343 344 345 343 342 343 342 342 341 341 340 340 339 338 336 334 332 332 330 331 330 328 327 328 327 328 327 327 325 325 324 325 323 323 322 322 321 320 318 318 319 318 319 315 313 309 313 315 310 310 309 307
347 347 347 347 345 344 343 343 343 344 344 344 345 345 342 341 342 341 341 340 340 339 338 338 335 334 332 332 331 329 329 328 325 325 325 325 325 324 324 322 322 321 321 320 319 319 318 318 319 316 317 317 318 319 316 315 311 312 314 311 309 308 308
347 346 346 347 346 344 343 342 343 344 345 344 345 344 342 343 342 342 341 339 338 338 337 335 334 333 331 330 330 329 327 325 323 324 324 323 322 322 322 320 319 319 320 318 317 317 315 316 316 316 316 315 314 316 315 314 310 312 312 312 310 308 308
347 347 347 347 346 344 343 343 344 344 345 345 344 343 343 343 342 341 340 338 338 337 335 334 332 331 329 328 328 328 326 323 323 322 322 320 320 320 321 319 318 318 318 317 317 314 313 312 311 310 311 312 311 314 315 312 309 312 309 310 308 308 307
346 346 347 347 346 344 343 344 343 343 344 345 344 344 343 342 341 341 339 338 337 336 334 333 332 330 328 328 326 325 325 323 322 321 320 319 318 319 319 319 318 318 317 317 315 314 313 312 311 310 310 310 312 313 313 313 312 311 309 307 309 306 307
345 345 346 346 345 345 343 343 343 343 343 344 343 344 343 341 340 340 338 337 336 334 333 331 330 328 327 327 325 323 323 323 322 321 319 318 317 318 318 317 317 317 317 315 313 313 312 313 311 310 311 312 314 314 315 314 314 312 309 307 307 304 307
345 346 346 345 344 343 343 343 342 342 343 343 343 342 341 341 339 338 337 335 334 333 332 330 328 327 327 326 324 323 323 322 322 320 319 318 318 317 317 317 316 316 314 314 313 311 312 312 310 310 309 309 311 313 313 312 312 311 309 306 305 307 308
343 345 345 344 343 344 343 343 342 341 342 342 342 341 340 339 338 337 336 335 334 332 331 329 327 326 324 323 323 324 324 322 321 319 318 318 317 317 317 316 316 315 313 314 312 311 312 312 310 310 309 308 308 309 309 310 310 309 307 306 307 306 307
343 343 344 344 345 343 342 342 341 339 341 342 341 340 339 338 337 337 335 334 333 332 331 329 327 325 323 322 322 322 322 321 320 318 318 317 317 316 317 316 316 314 313 314 312 312 312 312 311 310 309 309 307 307 307 307 307 307 308 307 306 307 306
342 343 345 345 344 343 342 341 340 339 341 341 340 339 337 337 336 336 335 332 332 332 330 327 326 323 322 322 322 322 322 321 318 317 318 317 316 316 316 316 315 314 314 314 314 313 313 311 311 310 310 310 307 306 306 306 307 306 306 306 305 305 306
343 342 343 343 343 342 341 341 340 339 340 341 340 339 338 336 334 334 333 332 331 330 327 326 324 323 322 321 323 322 322 319 318 316 316 315 316 316 315 315 314 313 314 315 311 311 311 311 311 309 309 308 308 308 307 307 306 304 304 304 304 306 305
342 342 341 341 341 341 340 340 339 338 339 340 340 339 337 336 334 333 331 330 330 327 325 325 318 311 313 321 323 322 321 320 317 316 315 314 315 314 314 315 314 314 312 309 307 304 302 304 308 309 309 309 308 308 307 306 305 305 305 303 304 305 304
341 340 341 341 341 340 339 339 338 337 338 338 339 338 336 334 334 333 331 328 327 326 325 323 307 303 303 307 320 323 321 319 317 315 315 314 314 314 314 313 314 313 312 309 308 300 300 300 299 300 303 305 308 311 309 306 305 307 304 304 305 305 304
340 339 340 340 340 339 338 337 337 337 337 338 338 338 335 334 333 332 330 328 326 324 325 311 301 301 301 302 309 322 321 318 316 315 314 314 314 313 313 313 314 313 311 309 309 307 303 298 297 297 298 298 297 294 296 309 309 305 305 305 305 306 306
338 338 339 339 338 338 337 336 336 336 336 337 337 335 334 334 332 331 329 326 324 323 326 302 300 300 300 300 302 313 319 318 315 314 314 313 313 313 313 312 312 310 310 310 308 307 307 305 299 296 297 297 296 297 294 292 293 311 309 307 308 306 306
337 337 338 338 336 336 335 334 335 336 335 335 335 334 334 333 332 330 328 326 325 325 325 302 299 299 299 298 299 306 319 317 315 314 314 313 313 313 313 312 312 311 311 310 309 308 308 306 305 304 305 305 305 304 294 292 294 292 300 310 309 307 308
337 337 337 336 335 334 334 334 335 336 336 335 334 333 333 331 330 328 326 324 324 324 324 298 298 297 297 297 298 303 319 316 314 314 314 314 314 314 312 312 313 312 313 310 310 309 309 307 305 304 304 304 306 307 307 307 307 307 307 308 311 310 310
337 336 335 335 333 333 334 335 335 337 337 335 334 333 333 331 328 326 324 322 322 322 320 296 297 296 296 297 297 314 317 315 314 313 313 313 313 313 313 313 313 312 314 311 306 299 304 308 306 304 304 306 307 308 308 311 302 304 313 313 310 311 313
336 336 335 333 332 332 333 334 335 336 335 335 331 330 331 330 329 327 324 322 321 322 317 299 296 296 296 295 300 314 315 314 313 313 314 313 313 313 314 312 312 311 313 311 303 296 297 301 306 305 305 306 306 306 307 313 296 294 294 294 293 292 291
336 335 334 333 332 333 334 335 334 332 333 333 331 329 329 329 329 327 325 324 323 322 319 303 295 295 295 294 304 314 315 313 313 313 313 314 314 313 312 310 311 312 312 311 296 295 294 303 307 305 306 305 304 304 306 309 310 308 291 291 292 291 291
337 335 333 332 332 331 332 332 333 331 331 332 330 329 329 329 329 327 325 325 317 322 321 304 295 295 295 294 305 316 315 312 312 312 312 313 312 312 312 311 309 309 311 307 293 294 294 301 306 306 305 305 303 303 304 308 309 307 307 307 306 307 304
337 334 333 332 332 331 332 332 332 330 330 329 327 328 327 327 326 325 325 325 324 325 320 309 300 294 295 295 299 314 315 312 311 312 312 311 310 311 312 312 308 298 296 292 292 292 293 295 304 306 306 304 302 301 305 308 309 308 307 306 306 306 305
336 335 334 333 332 331 332 332 331 330 329 330 330 329 327 325 324 324 325 325 325 325 321 312 302 294 294 295 297 304 315 313 313 312 312 310 309 309 310 309 310 300 292 292 292 292 293 293 297 307 306 304 304 307 304 308 308 305 307 308 307 306 306
335 334 334 333 331 331 332 333 332 330 330 330 330 327 325 323 323 324 326 323 323 322 316 308 307 295 294 294 296 299 313 314 313 312 311 309 309 309 310 309 310 301 292 292 291 291 292 293 292 307 307 296 292 295 306 307 308 305 304 306 306 305 305
333 333 332 332 331 330 330 331 331 329 329 328 327 325 323 323 323 323 322 321 321 321 318 311 301 300 294 294 295 297 300 307 299 311 309 308 309 309 311 311 310 296 292 291 291 291 292 292 294 303 295 290 291 292 298 304 303 304 301 301 303 304 303
333 333 331 332 331 330 329 329 330 329 328 326 324 323 322 321 321 316 316 317 319 320 319 313 301 298 297 293 294 296 296 299 299 310 311 311 310 311 311 311 307 292 292 291 291 291 291 292 298 294 293 290 289 293 304 304 302 303 301 300 301 302 303